# Wetter Temperatur Luftdruck Luftfeuchtigkeit Sichtweite Windgeschwindigkeit Windrichtung Zeit
1 Clear 30 1010 21 16093 4.6 130 19:41 17.10.2019
2 Clear 29 1012 26 16093 3.1 100 19:20 17.10.2019
3 Clear 29 1012 26 16093 3.1 100 19:20 17.10.2019
4 Clear 29 1012 26 16093 3.1 100 19:20 17.10.2019
5 Clear 28 1011 24 16093 5.7 100 18:58 17.10.2019
6 Clear 27 1011 24 16093 5.1 110 18:38 17.10.2019
7 Clear 26 1013 31 16093 4.6 100 18:20 17.10.2019
8 Clear 26 1013 31 16093 4.6 100 18:20 17.10.2019
9 Clear 25 1011 33 16093 5.1 130 17:43 17.10.2019
10 Clear 23 1011 33 16093 5.1 130 17:24 17.10.2019
11 Clear 22 1011 28 16093 5.7 130 16:58 17.10.2019
12 Clear 21 1010 28 16093 3.1 120 16:39 17.10.2019
13 Clear 20 1012 42 16093 6.2 110 16:18 17.10.2019
14 Clear 20 1010 28 16093 4.1 130 15:56 17.10.2019
15 Clear 19 1010 27 16093 5.1 110 15:38 17.10.2019
16 Clear 19 1012 37 16093 6.2 100 15:20 17.10.2019
17 Clear 19 1012 42 16093 2.1 160 14:55 17.10.2019
18 Clear 19 1012 42 16093 2.1 160 14:37 17.10.2019
19 Clear 19 1012 37 16093 4.1 90 14:18 17.10.2019
20 Clear 20 1010 27 16093 2.1 100 13:39 17.10.2019
21 Clear 20 1012 33 16093 6.7 100 13:19 17.10.2019
22 Clear 20 1010 27 16093 1.5 30 12:55 17.10.2019
23 Clear 20 1010 27 16093 1.5 30 12:55 17.10.2019
24 Clear 20 1010 27 16093 1.5 30 12:55 17.10.2019
25 Clear 21 1009 28 16093 1.766 139 12:36 17.10.2019
26 Clear 21 1012 31 16093 6.7 100 12:18 17.10.2019
27 Clear 21 1012 31 16093 3.1 80 11:41 17.10.2019
28 Clear 22 1012 31 16093 3.1 80 11:21 17.10.2019
29 Clear 22 1012 31 16093 4.6 110 10:58 17.10.2019
30 Clear 22 1012 31 16093 4.6 110 10:39 17.10.2019
31 Clear 22 1012 31 16093 4.6 110 10:19 17.10.2019
32 -273 0 0 0 0 0 09:55 17.10.2019
33 Clear 23 1012 25 16093 3.6 70 09:55 17.10.2019
34 Clear 23 1012 25 16093 3.6 70 09:55 17.10.2019
35 Clear 23 1010 18 16093 4.6 140 09:36 17.10.2019
36 Clear 23 1012 25 16093 3.6 70 09:18 17.10.2019
37 Clear 23 1012 25 16093 3.6 70 09:18 17.10.2019
38 Clear 24 1010 38 16093 7.2 130 08:46 17.10.2019
39 Clear 24 1010 38 16093 7.2 130 08:26 17.10.2019
40 Clear 25 1010 38 16093 8.7 120 07:56 17.10.2019
41 Clear 25 1010 38 16093 9.3 120 07:38 17.10.2019
42 Clear 25 1013 24 16093 4.1 50 07:19 17.10.2019
43 Clear 26 1010 14 16093 8.2 130 06:40 17.10.2019
44 Clear 26 1010 14 16093 8.2 130 06:21 17.10.2019
45 Clear 26 1010 15 16093 5.7 120 05:58 17.10.2019
46 Clear 27 1010 34 16093 5.7 120 05:34 17.10.2019
47 Clear 27 1010 34 16093 3.6 110 04:57 17.10.2019
48 Clear 28 1010 14 16093 2.6 130 03:55 17.10.2019
49 Clear 30 1010 11 16093 3.1 100 02:53 17.10.2019
50 Clear 32 1010 11 16093 5.1 100 01:55 17.10.2019
51 Clear 33 1012 9 16093 5.7 140 00:41 17.10.2019
52 Clear 33 1013 15 16093 3.6 110 00:20 17.10.2019
53 Clear 33 1013 15 16093 3.6 110 00:20 17.10.2019
54 Clear 33 1012 9 16093 4.1 150 23:42 16.10.2019
55 Clear 33 1012 9 16093 4.1 150 23:21 16.10.2019
56 Clear 33 1013 9 16093 3.1 130 22:56 16.10.2019
57 Clear 33 1013 9 16093 4.1 120 22:37 16.10.2019
58 Clear 32 1015 14 16093 6.2 70 22:19 16.10.2019
59 Clear 32 1014 8 16093 3.6 100 21:57 16.10.2019
60 Clear 32 1015 8 16093 4.1 130 21:38 16.10.2019
61 Clear 32 1016 15 16093 2.6 100 21:19 16.10.2019
62 Clear 31 1017 17 16093 5.1 40 20:58 16.10.2019
63 Clear 31 1017 17 16093 5.1 40 20:58 16.10.2019
64 Clear 31 1017 17 16093 5.1 40 20:39 16.10.2019
65 Clear 31 1017 17 16093 5.1 40 20:21 16.10.2019
66 Clear 30 1017 15 16093 8.696 99 19:59 16.10.2019
67 Clear 29 1017 15 16093 8.696 99 19:38 16.10.2019
68 Clear 29 1018 24 16093 4.1 110 19:20 16.10.2019
69 Clear 27 1017 23 16093 4.6 120 18:39 16.10.2019
70 Clear 26 1018 27 16093 4.6 110 18:20 16.10.2019
71 Clear 24 1017 28 16093 2.6 130 17:58 16.10.2019
72 Clear 23 1017 30 16093 2.1 110 17:39 16.10.2019
73 Clear 22 1017 30 16093 2.1 110 17:21 16.10.2019
74 Clear 20 1017 41 16093 4.426 114 16:59 16.10.2019
75 Clear 20 1017 44 16093 4.426 114 16:41 16.10.2019
76 Clear 19 1017 44 16093 4.426 114 16:21 16.10.2019
77 Clear 19 1016 39 16093 2.6 100 15:56 16.10.2019
78 Clear 19 1016 39 16093 2.6 100 15:56 16.10.2019
79 Clear 19 1016 39 16093 2.6 100 15:56 16.10.2019
80 Clear 17 1016 39 16093 2.6 100 15:38 16.10.2019
81 Clear 16 1018 39 16093 1.5 190 15:18 16.10.2019
82 Clear 16 1016 34 16093 2.1 140 14:56 16.10.2019
83 Clear 16 1016 34 16093 2.1 140 14:38 16.10.2019
84 Clear 16 1016 34 16093 2.1 140 14:18 16.10.2019
85 Clear 16 1016 34 16093 3.1 110 13:56 16.10.2019
86 Clear 16 1016 34 16093 3.1 110 13:56 16.10.2019
87 Clear 16 1016 34 16093 3.6 100 13:37 16.10.2019
88 Clear 16 1016 34 16093 3.6 100 13:18 16.10.2019
89 Clear 16 1016 36 16093 3.6 100 12:41 16.10.2019
90 Clear 16 1016 36 16093 3.6 100 12:18 16.10.2019
91 Clear 16 1016 36 16093 3.6 100 12:18 16.10.2019
92 Clear 17 1016 36 16093 1.5 100 11:43 16.10.2019
93 Clear 17 1016 32 16093 2.1 110 11:18 16.10.2019
94 Clear 18 1016 34 16093 2.6 160 10:39 16.10.2019
95 Clear 18 1016 34 16093 2.6 160 10:20 16.10.2019
96 Clear 18 1015 34 16093 3.1 180 09:56 16.10.2019
97 Clear 18 1015 34 16093 3.1 180 09:56 16.10.2019
98 Clear 19 1015 34 16093 2.1 200 09:38 16.10.2019
99 Clear 19 1015 34 16093 2.1 200 09:19 16.10.2019
100 Clear 19 1015 34 16093 2.1 180 08:43 16.10.2019
101 Clear 20 1015 34 16093 2.1 250 08:24 16.10.2019
102 Clear 21 1015 26 16093 1.5 350 07:46 16.10.2019
103 Clear 21 1015 28 16093 0.712 105 07:25 16.10.2019
104 Clear 21 1015 22 16093 0.712 105 06:59 16.10.2019
105 Clear 22 1016 31 16093 0.712 105 06:39 16.10.2019
106 Clear 24 1015 20 16093 1.5 10 05:48 16.10.2019
107 Clear 27 1014 21 16093 3.6 310 03:24 16.10.2019
108 Clear 28 1015 20 16093 4.6 310 02:47 16.10.2019
109 Clear 31 1013 16 16093 2.6 280 01:19 16.10.2019
110 Clear 31 1015 14 16093 2.6 80 00:49 16.10.2019
111 Clear 31 1013 16 16093 2.6 310 00:27 16.10.2019
112 Clear 31 1014 19 16093 2.324 338 23:41 15.10.2019
113 Clear 31 1014 19 16093 2.324 338 23:22 15.10.2019
114 Clear 31 1014 20 16093 1.5 210 22:56 15.10.2019
115 Clear 30 1015 21 16093 1.5 170 22:38 15.10.2019
116 Clear 30 1015 21 16093 1.5 170 22:20 15.10.2019
117 -273 0 0 0 0 0 21:56 15.10.2019
118 Clear 30 1016 25 16093 2.324 338 21:55 15.10.2019
119 Clear 30 1016 24 16093 1.5 260 21:36 15.10.2019
120 Clear 29 1016 24 16093 1.5 260 21:18 15.10.2019
121 Clear 28 1018 30 16093 3.1 120 20:55 15.10.2019
122 Clear 28 1018 30 16093 3.1 120 20:55 15.10.2019
123 Clear 28 1017 28 16093 2.6 280 20:37 15.10.2019
124 Clear 28 1017 28 16093 2.6 280 20:19 15.10.2019
125 Clear 27 1018 32 16093 2.183 27 19:55 15.10.2019
126 Clear 27 1017 29 16093 2.183 27 19:36 15.10.2019
127 Clear 26 1017 29 16093 2.183 27 19:18 15.10.2019
128 Clear 25 1019 38 16093 2.183 27 18:43 15.10.2019
129 Clear 24 1018 35 16093 4.1 120 18:25 15.10.2019
130 Clear 22 1017 40 16093 3.6 110 17:55 15.10.2019
131 Clear 21 1017 42 16093 4.1 120 17:37 15.10.2019
132 Clear 20 1017 42 16093 4.1 120 17:18 15.10.2019
133 Clear 18 1017 42 16093 4.1 100 16:43 15.10.2019
134 Clear 17 1016 45 16093 3.6 100 16:22 15.10.2019
135 -273 0 0 0 0 0 15:57 15.10.2019
136 Clear 16 1016 48 16093 3.1 100 15:57 15.10.2019
137 Clear 16 1016 48 16093 4.1 100 15:39 15.10.2019
138 Clear 16 1016 48 16093 4.1 100 15:39 15.10.2019
139 Clear 15 1016 48 16093 4.1 100 15:19 15.10.2019
140 Clear 16 1016 48 16093 2.6 90 14:55 15.10.2019
141 Clouds 16 1016 48 16093 2.6 100 14:37 15.10.2019
142 Clouds 16 1016 48 16093 2.6 100 14:37 15.10.2019
143 Clouds 16 1016 48 16093 2.6 100 14:18 15.10.2019
144 Clouds 16 1016 45 16093 2.6 120 13:43 15.10.2019
145 Clouds 16 1015 45 16093 3.6 100 13:20 15.10.2019
146 Clear 16 1015 42 16093 4.1 110 12:56 15.10.2019
147 Clear 16 1015 42 16093 4.1 110 12:56 15.10.2019
148 Clear 17 1015 42 16093 2.1 100 12:38 15.10.2019
149 Clouds 17 1016 51 16093 3.6 110 12:19 15.10.2019
150 Clouds 17 1016 51 16093 3.6 110 12:19 15.10.2019
151 Clouds 18 1015 48 16093 2.1 80 11:42 15.10.2019
152 Clouds 18 1015 48 16093 2.1 80 11:20 15.10.2019
153 Clouds 18 1015 45 16093 2.6 200 10:56 15.10.2019
154 Clouds 18 1015 45 16093 2.6 200 10:37 15.10.2019
155 Clouds 18 1015 45 16093 2.6 200 10:18 15.10.2019
156 Clear 18 1014 40 16093 1.15 207.84 09:41 15.10.2019
157 Clear 19 1014 40 16093 1.35 217.21 09:21 15.10.2019
158 Clear 19 1014 40 16093 1.35 217.21 09:21 15.10.2019
159 Clear 19 1014 35 16093 1.5 190 08:58 15.10.2019
160 Clear 19 1014 35 16093 1.5 190 08:58 15.10.2019
161 Clear 19 1014 35 16093 2.1 190 08:40 15.10.2019
162 Clear 20 1015 48 16093 2.6 130 08:20 15.10.2019
163 Clear 20 1014 35 16093 3.1 210 07:44 15.10.2019
164 Clear 20 1014 33 16093 3.1 200 07:23 15.10.2019
165 Clear 20 1013 28 16093 2.6 200 06:58 15.10.2019
166 Clear 20 1013 28 16093 1.5 210 06:39 15.10.2019
167 Clouds 22 1013 28 16093 1.3 72.121 05:56 15.10.2019
168 Clouds 22 1013 28 16093 1.3 72.121 05:37 15.10.2019
169 Clear 23 1012 23 16093 1.3 72.121 04:49 15.10.2019
170 Clouds 24 1012 23 16093 1.5 260 04:19 15.10.2019
171 Clear 26 1011 19 16093 2.1 270 03:35 15.10.2019
172 Clear 26 1011 19 16093 2.1 270 03:35 15.10.2019
173 -273 0 0 0 0 0 01:57 15.10.2019
174 Clouds 30 1011 25 16093 2.6 130 01:39 15.10.2019
175 Clear 30 1011 15 16093 3.1 220 00:59 15.10.2019
176 Clear 30 1011 15 16093 2.1 180 00:25 15.10.2019
177 Clear 30 1011 15 16093 2.6 250 23:58 14.10.2019
178 Clear 30 1011 16 16093 3.6 260 23:37 14.10.2019
179 Clear 30 1011 16 16093 3.6 260 23:37 14.10.2019
180 Clear 29 1011 16 16093 3.6 260 23:18 14.10.2019
181 Clear 29 1014 28 16093 2.1 0 22:39 14.10.2019
182 Clear 29 1014 28 16093 2.1 0 22:20 14.10.2019
183 Clear 29 1014 23 16093 1.5 210 21:57 14.10.2019
184 Clouds 29 1013 26 16093 3.1 170 21:39 14.10.2019
185 Clouds 28 1013 26 16093 3.1 170 21:20 14.10.2019
186 Clear 28 1013 30 16093 2.39 235.053 20:57 14.10.2019
187 Clear 28 1014 28 16093 2.1 160 20:38 14.10.2019
188 Clear 27 1014 28 16093 2.1 160 20:19 14.10.2019
189 Clear 27 1014 29 16093 1.5 150 19:44 14.10.2019
190 Clear 26 1015 33 16093 1.273 207 19:26 14.10.2019
191 Clear 25 1015 41 16093 2.39 235.053 18:59 14.10.2019
192 Clear 24 1017 43 16093 3.1 120 18:40 14.10.2019
193 Clear 24 1017 43 16093 3.1 120 18:40 14.10.2019
194 Clear 23 1017 43 16093 3.1 120 18:21 14.10.2019
195 Clear 22 1016 46 16093 2.1 80 17:59 14.10.2019
196 Clouds 22 1015 37 16093 0.96 112.588 17:41 14.10.2019
197 Clouds 21 1015 37 16093 0.96 112.588 17:22 14.10.2019
198 Clouds 19 1014 42 16093 3.1 120 16:45 14.10.2019
199 Clouds 18 1014 42 16093 3.1 120 16:22 14.10.2019
200 Clouds 17 1014 45 16093 0.96 112.588 15:58 14.10.2019
201 Clear 16 1014 42 16093 1.5 100 15:38 14.10.2019
202 Clear 15 1014 42 16093 1.5 100 15:20 14.10.2019
203 Clear 15 1014 36 16093 2.6 180 14:43 14.10.2019
204 Clear 15 1014 36 16093 2.6 180 14:24 14.10.2019
205 Clear 15 1013 34 16093 3.6 120 13:57 14.10.2019
206 Clear 16 1013 34 16093 3.6 110 13:39 14.10.2019
207 Clear 16 1014 48 16093 3.6 100 13:20 14.10.2019
208 Clear 16 1013 31 16093 1.5 80 12:41 14.10.2019
209 Clear 16 1014 44 16093 2.6 80 12:20 14.10.2019
210 Clear 17 1013 31 16093 3.1 100 11:54 14.10.2019
211 Clear 17 1013 49 16093 3.6 100 11:36 14.10.2019
212 Clear 17 1014 42 16093 2.6 30 11:18 14.10.2019
213 Clear 17 1013 49 16093 2.1 100 10:43 14.10.2019
214 Clear 17 1013 49 16093 2.1 100 10:21 14.10.2019
215 Clear 17 1013 49 16093 2.6 70 09:59 14.10.2019
216 Clear 17 1013 49 16093 2.6 70 09:59 14.10.2019
217 Clear 17 1013 49 16093 3.1 70 09:38 14.10.2019
218 Clear 17 1013 49 16093 3.1 70 09:38 14.10.2019
219 Clear 18 1015 29 16093 4.6 140 09:19 14.10.2019
220 Clear 18 1013 38 16093 2.1 150 08:47 14.10.2019
221 Clear 19 1015 26 16093 2.6 140 08:23 14.10.2019
222 Clear 19 1012 22 16093 1.5 80 07:44 14.10.2019
223 Clear 20 1012 22 16093 1.5 80 07:21 14.10.2019
224 Clear 20 1012 38 16093 1.5 110 06:54 14.10.2019
225 Clear 20 1012 20 16093 2.6 170 06:27 14.10.2019
226 Clear 22 1012 20 16093 2.1 220 05:51 14.10.2019
227 Clear 23 1011 16 16093 3.1 200 04:50 14.10.2019
228 Clear 26 1011 13 16093 2.6 240 03:48 14.10.2019
229 Clear 27 1012 15 16093 2.6 240 03:21 14.10.2019
230 Clear 31 1010 9 16093 3.1 230 01:36 14.10.2019
231 Clear 31 1012 11 16093 4.1 180 01:18 14.10.2019
232 Clear 31 1012 9 16093 3.92 202.16 00:21 14.10.2019
233 Clear 31 1011 10 16093 3.6 210 23:46 13.10.2019
234 Clear 31 1011 10 16093 3.6 210 23:21 13.10.2019
235 Clear 31 1012 11 16093 5.1 200 22:59 13.10.2019
236 -273 0 0 0 0 0 22:41 13.10.2019
237 Clear 31 1014 16 16093 2.1 170 22:21 13.10.2019
238 Clear 31 1012 12 16093 2.6 220 21:58 13.10.2019
239 Clear 30 1013 14 16093 3.92 202.16 21:38 13.10.2019
240 Clear 30 1015 17 16093 3.6 160 21:19 13.10.2019
241 Clear 29 1013 15 16093 2.1 180 20:58 13.10.2019
242 Clear 29 1013 15 16093 2.1 180 20:58 13.10.2019
243 Clear 29 1013 15 16093 2.1 180 20:58 13.10.2019
244 Clear 29 1014 18 16093 2.1 170 20:39 13.10.2019
245 Clear 29 1014 18 16093 2.1 170 20:39 13.10.2019
246 Clear 28 1015 21 16093 1.5 90 20:21 13.10.2019
247 Clear 28 1015 21 16093 1.5 90 20:21 13.10.2019
248 -273 0 0 0 0 0 19:59 13.10.2019
249 Clear 27 1014 18 16093 4.1 110 19:39 13.10.2019
250 Clear 27 1014 18 16093 4.1 110 19:39 13.10.2019
251 Clear 26 1014 18 16093 4.1 110 19:21 13.10.2019
252 -273 0 0 0 0 0 18:58 13.10.2019
253 Clear 25 1015 23 16093 4.6 100 18:58 13.10.2019
254 Clear 24 1015 24 16093 4.1 100 18:38 13.10.2019
255 Clear 24 1015 24 16093 4.1 100 18:38 13.10.2019
256 Clear 23 1016 30 16093 3.6 110 18:19 13.10.2019
257 Clear 21 1015 29 16093 4.1 100 17:58 13.10.2019
258 Clear 20 1015 33 16093 1.5 130 17:39 13.10.2019
259 Clear 18 1016 39 16093 3.6 130 17:21 13.10.2019
260 Clear 16 1014 22 16093 5.7 100 16:43 13.10.2019
261 -273 0 0 0 0 0 16:19 13.10.2019
262 Clear 13 1014 22 16093 4.1 120 15:57 13.10.2019
263 Clear 12 1014 22 16093 3.6 130 15:39 13.10.2019
264 Clear 13 1014 30 16093 3.6 130 15:20 13.10.2019
265 Clear 13 1014 30 16093 3.6 130 15:20 13.10.2019
266 Clear 13 1013 30 16093 5.1 120 14:57 13.10.2019
267 Clear 13 1013 30 16093 2.6 110 14:39 13.10.2019
268 Clear 13 1013 30 16093 2.6 110 14:20 13.10.2019
269 Clear 14 1013 30 16093 4.1 110 13:43 13.10.2019
270 Clear 14 1013 30 16093 4.1 110 13:24 13.10.2019
271 Clear 14 1013 30 16093 3.6 120 12:59 13.10.2019
272 Clear 14 1013 30 16093 3.6 120 12:59 13.10.2019
273 Clear 14 1013 30 16093 4.6 110 12:40 13.10.2019
274 Clear 14 1014 44 16093 3.6 100 12:21 13.10.2019
275 Clear 14 1013 29 16093 1.5 150 11:59 13.10.2019
276 Clear 15 1013 31 16093 2.6 110 11:39 13.10.2019
277 Clear 15 1013 31 16093 2.6 110 11:21 13.10.2019
278 Clear 15 1013 33 16093 2.1 100 10:59 13.10.2019
279 Clear 15 1014 41 16093 3.6 120 10:39 13.10.2019
280 Clear 15 1014 41 16093 3.6 120 10:39 13.10.2019
281 Clear 16 1014 41 16093 3.6 120 10:20 13.10.2019
282 Clear 16 1013 27 16093 1.5 80 09:39 13.10.2019
283 Clear 17 1015 27 16093 4.1 160 09:21 13.10.2019
284 Clear 17 1013 24 16093 1.57 192.699 08:51 13.10.2019
285 Clear 17 1013 24 16093 2.6 200 08:27 13.10.2019
286 Clear 18 1013 25 16093 1.5 170 07:55 13.10.2019
287 Clear 18 1013 24 16093 2.1 190 07:35 13.10.2019
288 Clear 19 1013 22 16093 2.1 210 06:54 13.10.2019
289 Clear 19 1012 22 16093 2.6 210 06:26 13.10.2019
290 Clear 21 1012 21 16093 1.5 210 05:27 13.10.2019
291 Clear 23 1012 17 16093 1.5 280 04:35 13.10.2019
292 Clear 26 1011 14 16093 2.6 320 03:35 13.10.2019
293 Clear 29 1011 11 16093 3.1 330 02:32 13.10.2019
294 Clear 30 1011 10 16093 2.6 340 01:47 13.10.2019
295 Clear 31 1012 10 16093 3.1 270 01:21 13.10.2019
296 Clear 31 1011 10 16093 3.1 310 00:42 13.10.2019
297 Clear 31 1012 22 16093 2.6 300 00:19 13.10.2019
298 Clear 31 1011 10 16093 2.6 260 23:42 12.10.2019
299 Clear 31 1011 10 16093 2.6 260 23:23 12.10.2019
300 Clear 31 1011 10 16093 2.6 260 23:23 12.10.2019
301 Clear 31 1012 13 16093 4.1 260 22:59 12.10.2019
302 Clear 31 1012 13 16093 3.6 200 22:40 12.10.2019
303 Clear 31 1012 13 16093 3.6 200 22:22 12.10.2019
304 Clear 30 1012 13 16093 4.1 250 21:59 12.10.2019
305 Clear 30 1012 13 16093 3.6 190 21:41 12.10.2019
306 Clear 29 1012 13 16093 3.6 190 21:23 12.10.2019
307 Clear 29 1013 16 16093 4.1 170 20:56 12.10.2019
308 Clear 29 1013 27 16093 2.1 160 20:37 12.10.2019
309 Clear 28 1015 24 16093 3.6 120 20:19 12.10.2019
310 Rain 27 1014 20 16093 2.33 214.571 19:36 12.10.2019
311 Rain 26 1015 25 16093 3.1 110 19:18 12.10.2019
312 Clear 25 1014 27 16093 2.1 190 18:44 12.10.2019
313 Clear 24 1014 27 16093 2.1 190 18:26 12.10.2019
314 Rain 22 1015 30 16093 5.1 90 17:46 12.10.2019
315 Rain 20 1015 30 16093 5.1 90 17:25 12.10.2019
316 Rain 19 1013 36 16093 1.5 280 16:59 12.10.2019
317 Clear 18 1013 27 16093 2.68 76.935 16:40 12.10.2019
318 Clear 18 1013 27 16093 2.68 76.935 16:40 12.10.2019
319 Clear 17 1013 27 16093 2.68 76.935 16:21 12.10.2019
320 Clear 17 1013 36 16093 2.68 76.935 15:57 12.10.2019
321 Clear 17 1013 36 16093 2.68 76.935 15:38 12.10.2019
322 Clear 16 1014 33 16093 6.2 120 15:18 12.10.2019
323 -273 0 0 0 0 0 14:40 12.10.2019
324 Clear 16 1013 31 16093 5.1 100 14:20 12.10.2019
325 Clear 16 1012 33 16093 3.09 76.948 13:51 12.10.2019
326 Clear 16 1012 33 16093 2.95 74.615 13:32 12.10.2019
327 Clear 16 1013 30 16093 1.5 300 12:56 12.10.2019
328 Clear 17 1012 26 16093 2.95 74.615 12:38 12.10.2019
329 Clear 17 1012 26 16093 2.95 74.615 12:38 12.10.2019
330 Clear 17 1014 28 16093 7.2 100 12:20 12.10.2019
331 Clear 17 1014 28 16093 7.2 100 12:20 12.10.2019
332 Rain 17 1013 23 16093 3.6 90 11:45 12.10.2019
333 Rain 17 1013 23 16093 3.6 90 11:24 12.10.2019
334 Rain 17 1013 27 16093 2.1 170 10:58 12.10.2019
335 Rain 17 1013 25 16093 2.6 100 10:39 12.10.2019
336 Clear 17 1013 25 16093 2.6 100 10:20 12.10.2019
337 Clear 17 1013 27 16093 1.5 110 09:57 12.10.2019
338 Rain 17 1013 23 16093 2.83 76.037 09:38 12.10.2019
339 Rain 18 1014 29 16093 3.6 120 09:20 12.10.2019
340 Rain 18 1013 23 16093 2.1 80 08:45 12.10.2019
341 Clear 18 1013 23 16093 2.1 80 08:25 12.10.2019
342 Clear 19 1013 20 16093 2.1 120 07:59 12.10.2019
343 Rain 19 1013 20 16093 1.5 110 07:31 12.10.2019
344 Clear 21 1013 19 16093 2.1 200 06:37 12.10.2019
345 Rain 22 1013 19 16093 2.1 260 05:44 12.10.2019
346 Clear 24 1012 16 16093 2.6 310 04:43 12.10.2019
347 Clear 25 1012 15 16093 3.1 310 03:56 12.10.2019
348 Rain 28 1012 12 16093 3.1 310 02:50 12.10.2019
349 Rain 30 1012 10 0 4.6 320 01:35 12.10.2019
350 Rain 30 1014 16 16093 2.44 84.13 00:56 12.10.2019
351 Clear 31 1014 16 16093 2.44 84.13 00:38 12.10.2019
352 Clear 30 1013 11 16093 3.1 300 23:55 11.10.2019
353 Clear 31 1013 11 16093 2.6 280 23:37 11.10.2019
354 Clear 30 1014 17 16093 1.82 208.505 23:18 11.10.2019
355 Clear 30 1014 10 16093 3.6 330 22:38 11.10.2019
356 Clear 30 1015 18 16093 2.6 120 22:19 11.10.2019
357 Clear 29 1016 18 16093 2.6 10 21:44 11.10.2019
358 Clear 28 1015 11 16093 2.1 350 21:22 11.10.2019
359 Clear 28 1016 10 16093 1.5 360 20:59 11.10.2019
360 Clear 27 1017 19 16093 1.97 104.015 20:41 11.10.2019
361 Clear 26 1016 11 16093 1.5 330 20:23 11.10.2019
362 Clear 25 1017 11 16093 1.97 104.015 19:55 11.10.2019
363 Clear 25 1017 11 16093 2.1 100 19:37 11.10.2019
364 Clear 25 1017 11 16093 2.1 100 19:37 11.10.2019
365 Rain 24 1018 19 16093 1.97 104.015 19:18 11.10.2019
366 Rain 24 1018 19 16093 1.97 104.015 19:18 11.10.2019
367 Rain 24 1018 19 16093 1.97 104.015 19:18 11.10.2019
368 Clear 23 1017 14 16093 1.5 70 18:56 11.10.2019
369 Clear 22 1017 15 16093 1.97 104.015 18:37 11.10.2019
370 Clear 21 1018 22 16093 1.5 70 18:18 11.10.2019
371 Clear 19 1018 19 16093 4.21 78.134 17:55 11.10.2019
372 Clear 19 1018 25 16093 3.1 80 17:36 11.10.2019
373 Clear 17 1018 25 16093 3.1 80 17:18 11.10.2019
374 Clear 15 1017 35 16093 4.21 78.134 16:40 11.10.2019
375 Clear 15 1017 34 11265 4.21 78.134 16:20 11.10.2019
376 Clear 15 1017 34 11265 4.21 78.134 16:20 11.10.2019
377 Clear 14 1017 27 16093 4.21 78.134 15:58 11.10.2019
378 Clear 14 1016 29 16093 4.21 78.134 15:38 11.10.2019
379 Clear 13 1017 21 16093 2.1 90 15:19 11.10.2019
380 Clear 14 1016 27 16093 3.26 73.56 14:46 11.10.2019
381 Clear 14 1016 27 16093 3.26 73.56 14:28 11.10.2019
382 Rain 14 1016 24 16093 3.26 73.56 13:56 11.10.2019
383 Rain 14 1016 22 16093 2.6 200 13:37 11.10.2019
384 Rain 14 1016 50 16093 3.6 130 13:18 11.10.2019
385 Rain 15 1015 24 16093 3.92 72.565 12:42 11.10.2019
386 Rain 15 1015 24 16093 5.6 66.963 12:22 11.10.2019
387 Rain 15 1015 19 16093 5.6 66.963 12:00 11.10.2019
388 Clear 15 1015 18 16093 2.1 230 11:40 11.10.2019
389 Clear 16 1016 14 16093 3.1 150 11:21 11.10.2019
390 Clear 15 1015 22 16093 1.5 210 10:56 11.10.2019
391 Clear 16 1015 22 16093 2.1 170 10:38 11.10.2019
392 Clear 16 1015 14 16093 3.1 160 10:20 11.10.2019
393 Clear 16 1015 14 16093 3.1 160 10:20 11.10.2019
394 Clear 16 1015 22 16093 5.6 66.963 09:54 11.10.2019
395 Clear 16 1015 22 16093 5.6 66.963 09:54 11.10.2019
396 Clear 16 1014 22 16093 3.1 260 09:36 11.10.2019
397 Clear 17 1015 38 16093 2.1 150 09:18 11.10.2019
398 Clear 17 1014 18 16093 3.1 320 08:39 11.10.2019
399 Clear 18 1015 31 16093 1.5 200 08:21 11.10.2019
400 Clear 18 1014 22 16093 3.1 300 07:59 11.10.2019
401 Clear 18 1014 25 16093 2.6 310 07:40 11.10.2019
402 Clear 19 1014 28 16093 3.1 220 07:20 11.10.2019
403 Clear 20 1013 22 16093 6.95 57.409 06:43 11.10.2019
404 Clear 20 1014 31 16093 2.1 290 06:21 11.10.2019
405 Clear 21 1013 22 16093 2.35 9.623 05:32 11.10.2019
406 Clear 22 1012 22 16093 2.1 320 04:59 11.10.2019
407 Clear 23 1012 22 16093 2.6 330 04:24 11.10.2019
408 Clear 28 1012 14 16093 4.6 300 01:58 11.10.2019
409 Clear 29 1010 14 16093 3.1 330 00:42 11.10.2019
410 Clear 29 1010 14 16093 3.1 330 00:42 11.10.2019
411 Clear 29 1011 17 16093 4.6 330 00:23 11.10.2019
412 Clear 29 1011 20 16093 5.1 290 23:42 10.10.2019
413 Rain 29 1010 14 16093 4.6 330 23:20 10.10.2019
414 Rain 29 1011 14 16093 4.6 360 22:57 10.10.2019
415 Rain 29 1012 16 16093 6.7 310 22:38 10.10.2019
416 Clear 29 1012 16 16093 6.7 310 22:19 10.10.2019
417 Clear 29 1011 15 16093 3.6 340 21:54 10.10.2019
418 Clear 29 1012 15 16093 3.6 350 21:36 10.10.2019
419 Clear 28 1013 18 16093 2.1 320 21:18 10.10.2019
420 Clear 28 1012 14 16093 5.28 235.05 20:41 10.10.2019
421 Clear 27 1012 14 16093 5.28 235.05 20:21 10.10.2019
422 Clear 27 1012 15 16093 2.6 330 19:58 10.10.2019
423 Clear 27 1012 15 16093 1.5 340 19:39 10.10.2019
424 Clear 26 1013 25 16093 1.5 30 19:19 10.10.2019
425 Clear 26 1012 22 16093 1.5 180 18:54 10.10.2019
426 Clear 25 1012 22 16093 2.1 150 18:36 10.10.2019
427 Clear 24 1013 28 16093 2.1 110 18:18 10.10.2019
428 -273 0 0 0 0 0 17:40 10.10.2019
429 Clear 21 1013 34 16093 5.7 90 17:20 10.10.2019
430 Clear 19 1011 30 16093 2.81 176.923 16:58 10.10.2019
431 Clear 18 1011 27 16093 2.81 176.923 16:38 10.10.2019
432 Clear 17 1012 36 16093 3.1 120 16:20 10.10.2019
433 Clear 17 1010 30 16093 2.1 150 15:43 10.10.2019
434 Clear 16 1010 29 16093 2.1 150 15:23 10.10.2019
435 Clear 16 1009 25 16093 2.1 130 14:59 10.10.2019
436 Clear 16 1009 25 16093 3.1 130 14:37 10.10.2019
437 Clear 16 1011 33 16093 3.1 130 14:19 10.10.2019
438 Clear 16 1009 25 16093 4.1 130 13:58 10.10.2019
439 Clear 16 1009 25 16093 4.6 100 13:39 10.10.2019
440 Clear 16 1011 41 16093 5.7 160 13:18 10.10.2019
441 Clear 17 1009 19 16093 5.1 180 12:42 10.10.2019
442 Clear 18 1011 36 16093 2.1 80 12:21 10.10.2019
443 Clear 18 1009 19 16093 4.1 170 11:58 10.10.2019
444 Clear 19 1009 18 16093 2.6 150 11:40 10.10.2019
445 Clear 19 1010 34 16093 1.5 120 11:19 10.10.2019
446 Clear 19 1009 20 16093 3.81 168.681 10:57 10.10.2019
447 Clear 19 1009 22 16093 2.6 160 10:39 10.10.2019
448 Clear 19 1010 39 16093 3.6 100 10:20 10.10.2019
449 Clear 20 1008 25 16093 1.5 130 09:41 10.10.2019
450 Clear 20 1008 34 16093 1.5 130 09:23 10.10.2019
451 Clear 20 1009 28 16093 1.5 110 08:59 10.10.2019
452 Clear 21 1009 24 16093 2.1 150 08:40 10.10.2019
453 Clear 20 1010 30 16093 4.6 130 08:21 10.10.2019
454 Clear 20 1008 23 16093 3.1 190 07:48 10.10.2019
455 Clear 21 1008 23 16093 3.1 190 07:26 10.10.2019
456 Clear 21 1008 23 16093 3.6 170 06:56 10.10.2019
457 Clear 22 1008 35 16093 3.6 170 06:38 10.10.2019
458 Clear 23 1007 27 16093 3.6 190 05:50 10.10.2019
459 Clear 24 1009 25 16093 2.6 240 05:19 10.10.2019
460 Clear 26 1007 27 16093 3.6 240 04:35 10.10.2019
461 Clear 30 1006 11 16093 5.7 220 02:42 10.10.2019
462 Clear 32 1006 19 16093 6.2 240 01:37 10.10.2019
463 Clear 32 1008 14 16093 5.1 280 01:18 10.10.2019
464 Clear 32 1007 11 16093 3.1 190 00:33 10.10.2019
465 Clear 32 1007 10 16093 4.1 260 23:42 09.10.2019
466 Clear 32 1007 10 16093 4.1 260 23:24 09.10.2019
467 Clear 32 1007 10 16093 4.1 260 23:24 09.10.2019
468 Clear 32 1008 11 16093 4.1 200 22:59 09.10.2019
469 Clear 31 1008 11 16093 4.1 210 22:41 09.10.2019
470 Clear 31 1008 11 16093 4.1 210 22:22 09.10.2019
471 Clear 31 1009 12 16093 5.33 245.555 21:57 09.10.2019
472 Clear 30 1009 17 16093 3.6 230 21:38 09.10.2019
473 Clear 30 1011 20 16093 4.82 195.532 21:19 09.10.2019
474 Clear 29 1011 22 16093 1.5 200 20:55 09.10.2019
475 Clear 29 1011 22 16093 1.5 200 20:36 09.10.2019
476 Clear 29 1013 17 16093 4.4 195.031 20:18 09.10.2019
477 Clear 29 1013 17 16093 4.4 195.031 20:18 09.10.2019
478 Clear 29 1013 17 16093 4.4 195.031 20:18 09.10.2019
479 Clear 28 1012 21 16093 3.1 140 19:43 09.10.2019
480 Clear 27 1012 21 16093 3.1 140 19:23 09.10.2019
481 Clear 26 1012 25 16093 4.1 110 18:39 09.10.2019
482 Clear 25 1014 33 16093 2.6 160 18:21 09.10.2019
483 -273 0 0 0 0 0 17:58 09.10.2019
484 Clear 24 1012 30 16093 5.1 110 17:40 09.10.2019
485 Clear 22 1012 30 16093 5.1 110 17:22 09.10.2019
486 Clear 20 1011 37 16093 4.1 110 16:57 09.10.2019
487 Clear 19 1011 42 16093 3.6 100 16:39 09.10.2019
488 Clear 18 1011 42 16093 3.6 100 16:21 09.10.2019
489 Clear 18 1011 42 16093 3.6 100 16:21 09.10.2019
490 Clear 16 1011 45 16093 3.6 100 15:57 09.10.2019
491 Clear 17 1011 42 16093 1.5 90 15:38 09.10.2019
492 Clear 16 1012 51 16093 6.2 130 15:19 09.10.2019
493 Clear 16 1011 39 16093 1.6 156.473 14:55 09.10.2019
494 Clear 16 1010 37 16093 3.1 120 14:36 09.10.2019
495 Clear 16 1010 37 16093 3.1 120 14:36 09.10.2019
496 Clear 16 1012 45 16093 4.1 130 14:18 09.10.2019
497 Clear 17 1010 32 16093 1.6 156.473 13:38 09.10.2019
498 Clear 17 1011 48 16093 3.6 110 13:19 09.10.2019
499 Clear 17 1009 30 16093 4.1 100 12:55 09.10.2019
500 Clear 17 1010 30 16093 4.1 100 12:37 09.10.2019
501 Clear 18 1012 48 16093 4.1 160 12:18 09.10.2019
502 Clear 18 1010 28 16093 4.1 110 11:40 09.10.2019
503 Clear 18 1010 28 16093 4.1 110 11:20 09.10.2019
504 Clear 18 1011 28 16093 3.6 100 10:59 09.10.2019
505 Clear 18 1010 29 16093 3.1 110 10:40 09.10.2019
506 Clear 19 1012 37 16093 2.6 180 10:19 09.10.2019
507 Clear 19 1012 37 16093 2.6 180 10:19 09.10.2019
508 Clear 19 1010 35 16093 4.6 190 09:43 09.10.2019
509 Rain 20 1010 36 16093 4.6 190 09:21 09.10.2019
510 Rain 20 1010 22 16093 4.1 210 08:58 09.10.2019
511 Clear 21 1010 21 16093 3.6 200 08:39 09.10.2019
512 Clear 21 1012 34 16093 3.1 200 08:19 09.10.2019
513 Clear 21 1012 34 16093 3.1 200 08:19 09.10.2019
514 Clear 21 1011 24 16093 3.6 200 07:47 09.10.2019
515 Clear 21 1011 24 16093 3.6 200 07:47 09.10.2019
516 Clear 21 1011 24 16093 3.6 200 07:25 09.10.2019
517 Clear 22 1010 31 16093 2.1 200 06:57 09.10.2019
518 Clear 23 1010 31 16093 0.98 58.856 06:35 09.10.2019
519 Clear 24 1010 19 16093 2.92 35.085 05:52 09.10.2019
520 Rain 26 1011 23 16093 3.6 310 04:50 09.10.2019
521 Rain 28 1011 23 16093 2.6 240 03:47 09.10.2019
522 Rain 32 1008 10 16093 2.6 330 02:27 09.10.2019
523 Rain 33 1009 16 16093 5.1 270 01:24 09.10.2019
524 Rain 34 1008 9 16093 5.1 330 00:59 09.10.2019
525 Rain 34 1010 18 16093 6.7 290 00:40 09.10.2019
526 Rain 34 1010 21 16093 2.1 330 00:22 09.10.2019
527 Clear 34 1009 21 16093 5.7 320 23:58 08.10.2019
528 Rain 34 1009 12 16093 4.1 340 23:38 08.10.2019
529 Rain 33 1010 21 16093 3.1 200 23:18 08.10.2019
530 Rain 33 1010 21 16093 3.1 200 23:18 08.10.2019
531 Rain 34 1011 17 16093 5.7 270 22:41 08.10.2019
532 Clear 34 1010 13 16093 1.5 300 22:22 08.10.2019
533 Rain 33 1011 13 16093 2.1 260 21:58 08.10.2019
534 Rain 33 1011 15 16093 2.1 250 21:39 08.10.2019
535 Rain 32 1011 15 16093 2.1 250 21:20 08.10.2019
536 Rain 32 1012 19 16093 3.26 225.809 20:58 08.10.2019
537 Rain 32 1012 20 16093 3.55 220.405 20:39 08.10.2019
538 Rain 31 1013 28 16093 3.55 220.405 20:21 08.10.2019
539 Rain 30 1012 25 16093 3.55 220.405 19:59 08.10.2019
540 Clear 30 1012 26 16093 3.55 220.405 19:41 08.10.2019
541 Clear 29 1012 26 16093 3.55 220.405 19:23 08.10.2019
542 Rain 28 1012 29 16093 1.5 190 18:57 08.10.2019
543 Rain 27 1013 31 16093 3.55 220.405 18:39 08.10.2019
544 Rain 26 1014 34 16093 2.6 140 18:19 08.10.2019
545 Clear 25 1013 33 16093 1.5 160 17:55 08.10.2019
546 Clear 25 1013 33 16093 1.5 160 17:55 08.10.2019
547 Clear 24 1013 35 16093 1.5 200 17:36 08.10.2019
548 Rain 23 1014 46 16093 3.1 120 17:18 08.10.2019
549 Rain 23 1014 46 16093 3.1 120 17:18 08.10.2019
550 Clear 21 1012 43 16093 5.1 110 16:40 08.10.2019
551 Clear 20 1012 43 16093 5.1 110 16:22 08.10.2019
552 Clear 18 1012 49 16093 3.1 110 15:41 08.10.2019
553 Clear 18 1013 60 16093 4.1 110 15:22 08.10.2019
554 Clear 18 1013 60 16093 4.1 110 15:22 08.10.2019
555 Clear 18 1012 45 16093 3.6 100 14:59 08.10.2019
556 Clear 18 1012 45 16093 0.77 207.201 14:41 08.10.2019
557 Clear 18 1013 55 16093 0.77 207.201 14:21 08.10.2019
558 Clear 19 1012 48 16093 0.77 207.201 13:57 08.10.2019
559 Clear 19 1012 45 16093 0.77 207.201 13:39 08.10.2019
560 Clear 19 1013 56 16093 3.1 150 13:19 08.10.2019
561 Clouds 19 1012 42 16093 1.01 47.882 12:59 08.10.2019
562 Clouds 19 1012 42 16093 1.01 47.882 12:38 08.10.2019
563 Clear 20 1013 60 16093 1.5 80 12:18 08.10.2019
564 Clear 20 1012 37 16093 1.14 97.931 11:42 08.10.2019
565 Rain 20 1012 37 16093 1.14 97.931 11:24 08.10.2019
566 Rain 20 1012 37 16093 1.14 97.931 11:24 08.10.2019
567 Rain 21 1012 34 16093 1.5 80 10:58 08.10.2019
568 Rain 21 1012 32 16093 1.5 100 10:38 08.10.2019
569 Rain 21 1014 46 16093 1.14 97.931 10:20 08.10.2019
570 Rain 21 1012 28 16093 1.5 180 09:56 08.10.2019
571 Rain 21 1012 28 16093 1.5 180 09:56 08.10.2019
572 Clear 22 1012 30 16093 1.5 190 09:37 08.10.2019
573 Clouds 22 1014 44 16093 2.6 150 09:19 08.10.2019
574 Clouds 23 1012 33 16093 1.5 120 08:42 08.10.2019
575 Clear 23 1014 49 16093 2.6 190 08:23 08.10.2019
576 Clear 23 1014 49 16093 2.6 190 08:23 08.10.2019
577 Clear 23 1014 49 16093 2.6 190 08:23 08.10.2019
578 Clear 24 1012 31 16093 2.65 127.532 07:45 08.10.2019
579 Clear 24 1014 44 16093 3.1 160 07:21 08.10.2019
580 Clear 25 1012 31 16093 2.6 250 06:53 08.10.2019
581 Rain 25 1012 29 16093 1.5 230 06:28 08.10.2019
582 Clouds 27 1012 24 16093 1.16 113.722 05:46 08.10.2019
583 Clouds 27 1012 24 16093 1.16 113.722 05:26 08.10.2019
584 Rain 29 1013 23 16093 2.1 310 04:31 08.10.2019
585 Rain 31 1011 19 16093 2.6 320 03:28 08.10.2019
586 Rain 33 1011 14 16093 3.1 320 02:37 08.10.2019
587 Rain 34 1012 13 16093 4.1 270 01:47 08.10.2019
588 Rain 35 1012 13 16093 4.1 270 01:27 08.10.2019
589 Clear 35 1012 13 16093 2.6 270 00:46 08.10.2019
590 Rain 35 1014 19 14484 4.1 130 00:21 08.10.2019
591 Rain 35 1013 14 16093 2.6 310 23:40 07.10.2019
592 Rain 35 1014 20 16093 2.1 110 23:20 07.10.2019
593 Rain 35 1013 14 16093 2.6 320 22:56 07.10.2019
594 Rain 35 1014 13 16093 3.6 330 22:38 07.10.2019
595 Rain 35 1015 20 16093 5.1 130 22:20 07.10.2019
596 Rain 35 1014 14 16093 4.1 300 21:56 07.10.2019
597 Rain 35 1015 14 16093 1.5 50 21:37 07.10.2019
598 Rain 33 1017 21 16093 5.7 110 21:19 07.10.2019
599 Rain 33 1017 21 16093 5.7 110 21:19 07.10.2019
600 Rain 33 1017 21 16093 5.7 110 21:19 07.10.2019
601 Rain 33 1015 14 16093 2.1 350 20:57 07.10.2019
602 Clear 33 1016 24 16093 2.1 10 20:39 07.10.2019
603 Clear 32 1017 24 16093 7.2 110 20:19 07.10.2019
604 Clear 31 1016 17 16093 3.6 100 19:56 07.10.2019
605 Clear 31 1016 20 16093 4.1 90 19:38 07.10.2019
606 Clear 30 1018 23 16093 1.74 129.919 19:18 07.10.2019
607 Clear 29 1017 24 16093 4.6 110 18:55 07.10.2019
608 Rain 28 1017 23 16093 4.6 110 18:37 07.10.2019
609 Rain 26 1018 24 16093 5.1 120 18:18 07.10.2019
610 Rain 23 1017 30 16093 4.1 100 17:41 07.10.2019
611 Clear 22 1018 33 16093 2.1 180 17:19 07.10.2019
612 Clear 21 1017 39 16093 1.5 190 16:55 07.10.2019
613 Clear 21 1017 39 16093 1.5 190 16:55 07.10.2019
614 Clear 20 1016 39 16093 4.1 120 16:37 07.10.2019
615 Clear 18 1018 45 16093 3.6 160 16:18 07.10.2019
616 Clear 17 1016 45 16093 3.1 110 15:41 07.10.2019
617 Clear 17 1016 45 16093 3.1 110 15:41 07.10.2019
618 Clear 17 1016 45 16093 3.1 110 15:41 07.10.2019
619 Clear 17 1017 51 16093 3.6 140 15:22 07.10.2019
620 Clear 17 1016 42 16093 2.1 130 14:42 07.10.2019
621 Clear 17 1016 42 16093 2.1 130 14:23 07.10.2019
622 Clear 17 1016 37 16093 4.6 100 13:45 07.10.2019
623 Clear 17 1016 37 16093 4.6 100 13:21 07.10.2019
624 Clear 17 1016 37 16093 4.6 100 13:21 07.10.2019
625 Clear 17 1016 39 16093 2.1 110 12:59 07.10.2019
626 Clear 17 1016 34 16093 3.1 140 12:41 07.10.2019
627 Rain 18 1016 34 16093 3.1 140 12:21 07.10.2019
628 Rain 18 1016 30 16093 1.5 90 11:59 07.10.2019
629 Rain 18 1016 34 16093 2.1 120 11:41 07.10.2019
630 Rain 18 1016 34 16093 2.1 120 11:22 07.10.2019
631 Rain 18 1016 34 16093 1.5 140 10:58 07.10.2019
632 Rain 18 1016 34 16093 1.5 140 10:58 07.10.2019
633 Rain 18 1016 34 16093 1.5 140 10:58 07.10.2019
634 Rain 19 1016 32 16093 1.5 170 10:39 07.10.2019
635 Rain 19 1018 51 16093 2.6 130 10:20 07.10.2019
636 Rain 20 1016 34 16093 2.05 77.825 09:40 07.10.2019
637 Rain 20 1016 34 16093 2.74 51.824 09:22 07.10.2019
638 Rain 20 1016 26 16093 1.5 240 08:44 07.10.2019
639 Rain 21 1016 26 16093 1.5 240 08:21 07.10.2019
640 Rain 21 1018 35 16093 2.1 140 07:59 07.10.2019
641 Clear 21 1016 24 16093 3.28 54.554 07:40 07.10.2019
642 Clear 22 1018 35 16093 2.6 180 07:20 07.10.2019
643 Clear 22 1016 26 16093 1.5 230 06:44 07.10.2019
644 Clear 23 1016 26 16093 1.5 230 06:22 07.10.2019
645 Rain 24 1017 27 16093 2.1 270 05:27 07.10.2019
646 Rain 25 1016 20 16093 2.6 360 04:56 07.10.2019
647 Rain 26 1017 22 16093 2.6 300 04:19 07.10.2019
648 Rain 28 1015 29 16093 3.1 310 03:39 07.10.2019
649 Rain 28 1015 29 16093 3.1 310 03:39 07.10.2019
650 Rain 29 1016 19 16093 3.6 330 03:18 07.10.2019
651 Rain 32 1016 18 16093 4.33 318.376 02:20 07.10.2019
652 Rain 32 1015 22 16093 3.6 310 01:42 07.10.2019
653 Rain 33 1016 19 16093 3.6 340 01:18 07.10.2019
654 Rain 33 1016 24 16093 4.1 310 00:38 07.10.2019
655 Clear 33 1017 19 16093 1.5 290 00:19 07.10.2019
656 Clear 33 1016 23 16093 3.6 300 23:42 06.10.2019
657 Clear 33 1016 23 16093 3.6 300 23:21 06.10.2019
658 Rain 32 1016 13 16093 2.1 290 22:58 06.10.2019
659 Rain 33 1017 14 16093 3.6 310 22:40 06.10.2019
660 Rain 32 1018 22 16093 2.6 150 22:21 06.10.2019
661 Rain 32 1017 15 16093 3.1 320 21:57 06.10.2019
662 Rain 32 1018 15 16093 3.6 340 21:37 06.10.2019
663 Rain 32 1018 15 16093 3.6 340 21:37 06.10.2019
664 Rain 31 1019 23 16093 1.4 306.706 21:19 06.10.2019
665 Rain 31 1018 17 16093 2.1 360 20:57 06.10.2019
666 Rain 30 1018 21 16093 1.95 314.084 20:38 06.10.2019
667 Rain 30 1020 28 16093 1.95 314.084 20:20 06.10.2019
668 Rain 29 1019 24 16093 1.95 314.084 19:57 06.10.2019
669 Rain 29 1019 24 16093 1.95 314.084 19:37 06.10.2019
670 Rain 28 1020 32 16093 1.5 120 19:18 06.10.2019
671 Rain 27 1019 31 16093 2.1 110 18:56 06.10.2019
672 Rain 27 1019 31 16093 2.1 110 18:56 06.10.2019
673 Rain 26 1019 36 16093 2.6 100 18:37 06.10.2019
674 Rain 25 1020 38 16093 2.1 120 18:18 06.10.2019
675 Rain 23 1019 46 16093 3.6 100 17:43 06.10.2019
676 Clear 22 1020 49 16093 2.6 120 17:20 06.10.2019
677 Clear 20 1018 52 16093 2.6 120 16:56 06.10.2019
678 Clear 19 1018 52 16093 1.5 130 16:38 06.10.2019
679 Clear 18 1019 63 16093 3.1 130 16:19 06.10.2019
680 Clear 17 1017 52 16093 1.5 150 15:44 06.10.2019
681 Clear 16 1017 52 16093 1.5 150 15:22 06.10.2019
682 Clear 17 1017 51 16093 1.06 30.499 14:57 06.10.2019
683 Clear 17 1017 52 16093 1.06 30.499 14:39 06.10.2019
684 Clear 17 1018 67 16093 2.6 120 14:20 06.10.2019
685 Clear 17 1016 52 16093 2.6 90 13:54 06.10.2019
686 -273 0 0 0 0 0 13:54 06.10.2019
687 -273 0 0 0 0 0 13:54 06.10.2019
688 Clear 17 1016 48 16093 2.6 120 13:36 06.10.2019
689 Clear 17 1018 63 16093 3.1 120 13:18 06.10.2019
690 Clear 17 1016 48 16093 3.1 100 12:54 06.10.2019
691 Clear 17 1016 48 16093 3.1 100 12:54 06.10.2019
692 Clear 18 1016 45 16093 2.6 100 12:36 06.10.2019
693 Clear 18 1018 63 16093 3.1 120 12:18 06.10.2019
694 Clear 19 1016 37 16093 1.5 90 11:41 06.10.2019
695 Clear 19 1016 37 16093 1.5 90 11:23 06.10.2019
696 Rain 19 1016 40 16093 2.1 130 10:56 06.10.2019
697 Rain 19 1016 40 16093 2.6 180 10:37 06.10.2019
698 Rain 20 1017 55 16093 2.6 130 10:19 06.10.2019
699 Rain 20 1017 55 16093 2.6 130 10:19 06.10.2019
700 Clear 20 1016 40 16093 2.1 220 09:41 06.10.2019
701 Clear 20 1016 40 16093 2.1 220 09:41 06.10.2019
702 Rain 20 1017 59 16093 2.6 130 09:19 06.10.2019
703 Rain 21 1016 35 16093 1.21 68.754 08:48 06.10.2019
704 Rain 21 1016 35 16093 1.21 68.754 08:48 06.10.2019
705 Rain 21 1017 56 16093 2.1 160 08:22 06.10.2019
706 Rain 21 1016 33 16093 1.43 62.844 07:58 06.10.2019
707 Rain 22 1016 33 16093 1.43 62.844 07:39 06.10.2019
708 Clear 23 1015 31 16093 1.43 62.844 06:50 06.10.2019
709 Rain 25 1015 24 16093 2.1 330 05:41 06.10.2019
710 Rain 26 1015 22 16093 2.1 20 04:35 06.10.2019
711 Rain 30 1015 14 16093 2.6 320 02:53 06.10.2019
712 Rain 31 1015 13 16093 3.1 350 02:30 06.10.2019
713 Clear 32 1015 14 16093 3.1 320 01:48 06.10.2019
714 Rain 32 1015 14 16093 3.1 320 01:30 06.10.2019
715 Rain 32 1015 14 16093 4.1 340 00:59 06.10.2019
716 Rain 33 1015 14 16093 4.1 340 00:59 06.10.2019
717 Rain 33 1015 15 16093 4.1 40 00:33 06.10.2019
718 Rain 32 1016 16 16093 4.6 330 23:58 05.10.2019
719 Clear 32 1016 17 16093 2.1 190 23:40 05.10.2019
720 Clear 32 1017 25 16093 3.1 290 23:18 05.10.2019
721 Rain 32 1016 19 16093 3.1 290 22:54 05.10.2019
722 Rain 32 1016 19 16093 3.1 290 22:54 05.10.2019
723 Rain 32 1017 19 16093 4.6 300 22:36 05.10.2019
724 Rain 32 1018 28 16093 4.27 266.602 22:18 05.10.2019
725 Rain 32 1018 19 16093 2.1 160 21:40 05.10.2019
726 Rain 31 1019 28 16093 1.5 90 21:21 05.10.2019
727 Rain 31 1018 22 16093 1.5 100 20:57 05.10.2019
728 Rain 30 1019 23 16093 2.6 120 20:39 05.10.2019
729 Rain 30 1020 32 16093 2.1 80 20:19 05.10.2019
730 Rain 29 1019 26 16093 2.1 120 19:40 05.10.2019
731 Rain 28 1019 26 16093 2.1 120 19:22 05.10.2019
732 Rain 27 1019 31 16093 2.1 110 18:57 05.10.2019
733 Rain 26 1019 36 16093 2.39 242.287 18:39 05.10.2019
734 Rain 26 1021 41 16093 1.5 150 18:20 05.10.2019
735 Clear 25 1019 40 16093 2.6 120 17:55 05.10.2019
736 Clear 25 1019 40 16093 2.6 120 17:55 05.10.2019
737 Clear 24 1019 43 16093 3.6 110 17:37 05.10.2019
738 Rain 23 1021 49 16093 4.1 160 17:18 05.10.2019
739 Clear 20 1019 52 16093 2.1 110 16:42 05.10.2019
740 Clear 19 1020 63 16093 3.1 120 16:21 05.10.2019
741 Clear 18 1018 52 16093 3.6 100 15:57 05.10.2019
742 Clear 18 1018 52 16093 4.1 100 15:39 05.10.2019
743 Clear 18 1018 52 16093 4.1 100 15:39 05.10.2019
744 Clear 17 1018 52 16093 4.1 100 15:21 05.10.2019
745 Clear 17 1018 55 16093 2.6 100 14:56 05.10.2019
746 Clear 17 1018 59 16093 2.6 110 14:38 05.10.2019
747 Clear 17 1019 67 16093 3.6 130 14:20 05.10.2019
748 Clear 17 1017 52 16093 2.1 110 13:41 05.10.2019
749 Clear 17 1017 52 16093 2.1 110 13:22 05.10.2019
750 Clear 18 1017 52 16093 2.1 100 12:46 05.10.2019
751 Clear 18 1017 52 16093 2.1 100 12:21 05.10.2019
752 Clear 19 1017 43 16093 1.5 110 11:58 05.10.2019
753 Clear 19 1017 43 16093 1.5 120 11:37 05.10.2019
754 Clear 19 1018 55 16093 2.6 130 11:18 05.10.2019
755 Clear 20 1017 43 16093 1.86 343.451 10:44 05.10.2019
756 Clear 20 1017 43 16093 1.86 343.451 10:25 05.10.2019
757 Clear 20 1016 37 16093 1.86 343.451 09:57 05.10.2019
758 Clear 20 1016 35 16093 1.86 343.451 09:38 05.10.2019
759 Clear 21 1018 49 16093 3.1 160 09:20 05.10.2019
760 Clear 21 1016 38 16093 3.1 210 08:39 05.10.2019
761 Clear 21 1016 38 16093 3.1 210 08:39 05.10.2019
762 Clear 21 1018 56 16093 1.5 120 08:19 05.10.2019
763 Clear 22 1016 38 16093 1.5 140 07:56 05.10.2019
764 Clear 22 1016 35 16093 1 203.735 07:33 05.10.2019
765 Rain 23 1015 31 16093 3.1 280 06:58 05.10.2019
766 Clear 24 1015 31 16093 3.6 270 06:27 05.10.2019
767 Clear 25 1015 24 16093 3.1 240 05:40 05.10.2019
768 Rain 28 1014 21 16093 2.6 280 03:57 05.10.2019
769 Rain 29 1013 20 16093 2.6 280 03:28 05.10.2019
770 Rain 32 1013 18 16093 2.6 240 01:41 05.10.2019
771 Rain 32 1015 27 16093 3.6 10 01:18 05.10.2019
772 Clear 32 1013 17 16093 3.1 260 00:41 05.10.2019
773 Clear 32 1015 29 16093 4.64 254.747 00:23 05.10.2019
774 Clear 32 1014 19 16093 3.1 190 23:44 04.10.2019
775 Clear 32 1014 19 16093 3.1 190 23:25 04.10.2019
776 Clear 32 1014 19 16093 3.1 190 23:25 04.10.2019
777 Clear 32 1014 19 16093 2.6 210 22:59 04.10.2019
778 Clear 32 1015 20 16093 2.6 310 22:39 04.10.2019
779 Clear 32 1016 30 16093 1.5 260 22:20 04.10.2019
780 Clear 32 1016 29 16093 3.1 110 21:56 04.10.2019
781 Clear 31 1015 22 16093 1.5 170 21:38 04.10.2019
782 Clear 30 1017 35 16093 1.5 110 21:19 04.10.2019
783 Rain 30 1016 26 16093 2.18 257.058 20:54 04.10.2019
784 Rain 30 1016 26 16093 2.18 257.058 20:36 04.10.2019
785 Rain 29 1018 37 16093 2.18 257.058 20:18 04.10.2019
786 Clear 29 1017 28 16093 2.18 257.058 19:41 04.10.2019
787 Rain 28 1017 28 16093 2.18 257.058 19:23 04.10.2019
788 Rain 27 1017 30 16093 2.18 257.058 18:56 04.10.2019
789 Rain 27 1017 34 16093 2.1 220 18:37 04.10.2019
790 Clouds 26 1018 50 16093 0.68 180.589 18:18 04.10.2019
791 Clouds 25 1016 47 16093 2.1 200 17:41 04.10.2019
792 Clouds 25 1016 47 16093 2.1 200 17:41 04.10.2019
793 Clouds 24 1016 47 16093 2.1 200 17:22 04.10.2019
794 Clouds 23 1016 49 16093 0.68 180.589 16:59 04.10.2019
795 Clouds 22 1016 53 16093 0.68 180.589 16:41 04.10.2019
796 Clouds 22 1017 68 16093 0.68 180.589 16:19 04.10.2019
797 Clouds 22 1017 68 16093 0.68 180.589 16:19 04.10.2019
798 Clouds 22 1017 68 16093 0.68 180.589 16:19 04.10.2019
799 Clouds 22 1015 53 16093 0.68 180.589 15:58 04.10.2019
800 Clouds 22 1015 49 16093 0.68 180.589 15:39 04.10.2019
801 Clouds 22 1016 68 16093 0.64 183.766 15:20 04.10.2019
802 Rain 22 1015 49 16093 0.64 183.766 14:57 04.10.2019
803 Rain 22 1015 46 16093 0.64 183.766 14:39 04.10.2019
804 Rain 22 1015 46 16093 0.64 183.766 14:21 04.10.2019
805 Clouds 22 1016 64 16093 2.1 230 13:45 04.10.2019
806 Rain 22 1015 60 16093 2.6 200 13:22 04.10.2019
807 Clear 22 1014 49 16093 3.1 190 12:55 04.10.2019
808 Clouds 22 1014 49 16093 1.5 180 12:37 04.10.2019
809 Rain 23 1015 60 16093 1.43 233.761 12:18 04.10.2019
810 Rain 23 1014 47 16093 2.1 180 11:42 04.10.2019
811 Rain 23 1014 47 16093 2.1 180 11:42 04.10.2019
812 Rain 23 1014 47 16093 2.1 180 11:42 04.10.2019
813 Rain 23 1014 47 16093 2.1 180 11:42 04.10.2019
814 Rain 23 1014 47 16093 2.1 180 11:42 04.10.2019
815 Rain 23 1014 47 16093 2.1 180 11:21 04.10.2019
816 Clouds 23 1014 41 16093 1.5 190 10:42 04.10.2019
817 Clouds 23 1014 41 16093 1.5 190 10:42 04.10.2019
818 Clouds 23 1015 53 16093 1.5 180 10:21 04.10.2019
819 Clouds 23 1014 40 16093 1.5 100 09:58 04.10.2019
820 Clouds 23 1014 40 16093 1.5 100 09:58 04.10.2019
821 Rain 23 1014 40 16093 1.43 233.761 09:40 04.10.2019
822 Rain 24 1015 53 16093 1.5 190 09:22 04.10.2019
823 Clouds 24 1014 36 16093 2.1 170 08:43 04.10.2019
824 Clouds 24 1014 36 16093 2.1 170 08:43 04.10.2019
825 Clouds 24 1014 36 16093 2.1 170 08:25 04.10.2019
826 Clouds 24 1013 31 16093 2.1 240 07:47 04.10.2019
827 Clouds 24 1013 31 16093 2.1 240 07:24 04.10.2019
828 Rain 24 1013 33 16093 1.5 190 06:56 04.10.2019
829 Rain 24 1013 33 16093 1.5 190 06:56 04.10.2019
830 Clouds 25 1013 31 16093 2.6 120 06:37 04.10.2019
831 Rain 25 1014 41 16093 2.6 230 06:18 04.10.2019
832 Rain 25 1014 41 16093 2.6 230 06:18 04.10.2019
833 Rain 26 1014 34 16093 2.6 320 05:19 04.10.2019
834 Rain 27 1012 28 16093 2.1 360 04:35 04.10.2019
835 Rain 30 1012 20 16093 3.6 310 02:56 04.10.2019
836 Rain 31 1012 18 16093 3.6 310 02:37 04.10.2019
837 Clear 32 1013 27 16093 4.35 300.989 01:43 04.10.2019
838 Clear 32 1013 27 16093 3.46 292.542 01:25 04.10.2019
839 Rain 33 1012 19 16093 2.6 190 00:29 04.10.2019
840 Clear 33 1012 21 16093 2.6 280 23:38 03.10.2019
841 Rain 33 1014 27 16093 2.6 230 23:20 03.10.2019
842 Rain 33 1012 21 16093 2.1 220 22:57 03.10.2019
843 Rain 33 1013 21 16093 2.1 290 22:39 03.10.2019
844 Rain 33 1013 21 16093 2.1 290 22:21 03.10.2019
845 Rain 32 1013 22 16093 1.5 280 21:56 03.10.2019
846 Rain 32 1014 23 16093 4.04 257.164 21:38 03.10.2019
847 Rain 31 1015 33 16093 2.1 270 21:19 03.10.2019
848 Clear 30 1016 30 16093 1.82 277.34 20:57 03.10.2019
849 Rain 30 1016 30 16093 2.12 264.158 20:37 03.10.2019
850 Rain 30 1016 35 16093 2.12 264.158 20:19 03.10.2019
851 Rain 29 1015 32 16093 2.12 264.158 19:55 03.10.2019
852 Rain 28 1015 34 16093 2.12 264.158 19:36 03.10.2019
853 Rain 28 1016 41 16093 2.6 100 19:18 03.10.2019
854 Rain 26 1016 41 16093 1.5 190 18:40 03.10.2019
855 Rain 25 1017 49 16093 2.1 170 18:20 03.10.2019
856 Clear 24 1015 46 16093 2.6 100 17:59 03.10.2019
857 Rain 23 1015 49 16093 1.5 120 17:41 03.10.2019
858 Rain 22 1017 56 16093 3.6 150 17:20 03.10.2019
859 Clear 21 1015 56 16093 2.1 110 16:54 03.10.2019
860 Clear 20 1015 56 16093 2.1 110 16:36 03.10.2019
861 Clear 19 1016 72 16093 2.6 120 16:18 03.10.2019
862 Clear 17 1015 59 16093 2.1 110 15:41 03.10.2019
863 Clear 17 1015 59 16093 2.1 110 15:23 03.10.2019
864 Clear 17 1014 63 16093 1.5 100 14:54 03.10.2019
865 Clear 17 1014 63 16093 0.73 127.387 14:36 03.10.2019
866 Clear 17 1015 72 16093 1.5 170 14:18 03.10.2019
867 Clear 17 1014 55 16093 0.73 127.387 13:41 03.10.2019
868 Clear 17 1015 68 16093 1.5 130 13:22 03.10.2019
869 Clear 17 1014 55 16093 0.55 132.26 12:58 03.10.2019
870 Clear 18 1014 59 16093 0.55 132.26 12:39 03.10.2019
871 Rain 18 1015 68 16093 2.6 120 12:19 03.10.2019
872 Rain 18 1015 68 16093 2.6 120 12:19 03.10.2019
873 Rain 18 1014 55 16093 1.39 76.194 11:55 03.10.2019
874 Rain 18 1014 52 16093 1.39 76.194 11:37 03.10.2019
875 Rain 19 1015 63 16093 3.1 130 11:18 03.10.2019
876 Rain 19 1014 52 16093 1.5 180 10:41 03.10.2019
877 Clear 19 1015 68 16093 2.6 110 10:19 03.10.2019
878 Clear 20 1014 49 16093 1.39 76.194 09:59 03.10.2019
879 Rain 20 1014 49 16093 1.39 76.194 09:40 03.10.2019
880 Rain 21 1014 49 16093 2.69 64.521 09:21 03.10.2019
881 Rain 21 1014 49 16093 1.5 200 08:55 03.10.2019
882 Rain 21 1014 49 16093 1.5 170 08:36 03.10.2019
883 Rain 21 1015 56 16093 3.1 180 08:18 03.10.2019
884 Rain 22 1013 33 16093 1.5 100 07:41 03.10.2019
885 Rain 22 1015 49 16093 2.6 180 07:19 03.10.2019
886 Rain 23 1013 31 16093 2.6 30 06:51 03.10.2019
887 Rain 23 1013 31 16093 3.1 20 06:25 03.10.2019
888 Rain 24 1013 33 16093 2.6 360 05:47 03.10.2019
889 Rain 25 1014 39 16093 4.1 310 05:20 03.10.2019
890 Rain 25 1013 38 16093 2.1 340 04:31 03.10.2019
891 Rain 27 1012 30 16093 3.1 320 03:24 03.10.2019
892 Rain 29 1012 27 16093 5.1 320 02:39 03.10.2019
893 Rain 30 1012 22 16093 2.1 320 01:59 03.10.2019
894 Rain 31 1012 22 16093 3.1 340 01:35 03.10.2019
895 Clear 31 1012 19 16093 2.6 340 00:51 03.10.2019
896 Clear 31 1012 18 16093 2.1 340 00:23 03.10.2019
897 Clear 31 1013 23 16093 3.15 255.703 23:44 02.10.2019
898 Clear 31 1013 23 16093 3.15 255.703 23:22 02.10.2019
899 Rain 30 1014 30 16093 2.6 230 22:46 02.10.2019
900 Rain 30 1014 30 16093 2.6 230 22:23 02.10.2019
901 Rain 30 1014 30 16093 3.15 255.703 21:58 02.10.2019
902 Clear 30 1014 30 16093 3.15 255.703 21:58 02.10.2019
903 Clear 29 1015 34 16093 1.5 170 21:39 02.10.2019
904 Clear 28 1016 37 16093 1.01 83.39 21:20 02.10.2019
905 Rain 28 1015 36 16093 2.1 10 20:57 02.10.2019
906 Rain 27 1015 39 16093 0.74 83.95 20:38 02.10.2019
907 Rain 27 1015 39 16093 0.74 83.95 20:20 02.10.2019
908 Rain 27 1016 41 16093 1.5 340 19:56 02.10.2019
909 Rain 26 1016 47 16093 0.74 83.95 19:37 02.10.2019
910 Rain 26 1017 47 16093 2.1 350 19:19 02.10.2019
911 Rain 25 1017 57 16093 1.5 360 18:56 02.10.2019
912 Rain 24 1016 47 16093 0.74 83.95 18:37 02.10.2019
913 Rain 23 1017 56 16093 1.5 170 18:19 02.10.2019
914 Clear 22 1016 46 16093 2.71 56.539 17:42 02.10.2019
915 Rain 21 1017 68 16093 2.6 180 17:21 02.10.2019
916 Clear 20 1016 59 16093 2.71 56.539 16:59 02.10.2019
917 Clear 19 1015 63 16093 2.71 56.539 16:39 02.10.2019
918 Clear 18 1015 63 16093 2.71 56.539 16:20 02.10.2019
919 Clear 17 1015 67 16093 2.71 56.539 15:57 02.10.2019
920 Clear 17 1016 77 16093 2.1 130 15:38 02.10.2019
921 Clear 16 1016 77 16093 2.1 130 15:18 02.10.2019
922 Clear 16 1015 63 16093 1.5 60 14:55 02.10.2019
923 Clear 16 1015 77 16093 2.1 160 14:36 02.10.2019
924 Clear 16 1015 77 16093 2.1 160 14:18 02.10.2019
925 Clear 17 1014 63 16093 1.5 70 13:41 02.10.2019
926 Clear 17 1015 68 16093 2.1 90 13:22 02.10.2019
927 Clear 17 1014 63 16093 1.5 110 12:54 02.10.2019
928 Clear 17 1015 68 16093 1.5 110 12:36 02.10.2019
929 Rain 17 1015 68 16093 1.5 110 12:18 02.10.2019
930 Rain 17 1015 68 16093 1.5 110 12:18 02.10.2019
931 Rain 17 1014 52 16093 0.95 42.172 11:41 02.10.2019
932 Rain 18 1015 68 16093 2.1 160 11:21 02.10.2019
933 Clear 18 1014 59 16093 2.1 150 10:40 02.10.2019
934 Clear 18 1014 59 16093 2.1 150 10:19 02.10.2019
935 Clear 19 1013 49 16093 2.6 200 09:42 02.10.2019
936 Rain 19 1014 59 16093 3.1 140 09:20 02.10.2019
937 Rain 20 1013 46 16093 2.1 180 08:57 02.10.2019
938 Rain 20 1014 49 16093 3.1 100 08:38 02.10.2019
939 Rain 20 1014 49 16093 3.1 100 08:20 02.10.2019
940 Rain 20 1014 49 16093 3.1 100 08:20 02.10.2019
941 Rain 20 1012 35 16093 2.1 170 07:43 02.10.2019
942 Rain 20 1014 52 16093 3.6 80 07:24 02.10.2019
943 Rain 21 1012 27 16093 1.27 277.086 06:58 02.10.2019
944 Rain 22 1013 43 16093 2.1 190 06:27 02.10.2019
945 Rain 23 1012 27 16093 2.1 240 05:51 02.10.2019
946 Rain 23 1013 33 16093 3.1 260 05:21 02.10.2019
947 Rain 26 1010 18 16093 3.6 230 03:53 02.10.2019
948 Rain 27 1011 21 16093 3.6 270 03:31 02.10.2019
949 Clear 29 1011 20 16093 3.6 250 02:27 02.10.2019
950 Clear 30 1009 14 16093 5.7 230 01:59 02.10.2019
951 Clear 31 1009 27 16093 4.1 250 00:53 02.10.2019
952 Clear 31 1011 23 16093 4.1 220 00:30 02.10.2019
953 Clear 31 1010 22 16093 2.1 140 23:56 01.10.2019
954 Clear 31 1011 20 16093 2.6 210 23:37 01.10.2019
955 Clear 31 1011 20 16093 2.6 210 23:19 01.10.2019
956 Clear 31 1010 22 16093 2.6 190 22:58 01.10.2019
957 Clear 31 1012 20 16093 4.6 290 22:37 01.10.2019
958 Clear 30 1012 20 16093 4.6 290 22:18 01.10.2019
959 Clear 30 1012 17 16093 7.7 260 21:43 01.10.2019
960 Clear 29 1013 20 16093 3.6 190 21:22 01.10.2019
961 Clear 29 1012 21 16093 6.48 197.875 20:58 01.10.2019
962 Rain 28 1012 21 16093 6.76 199.4 20:39 01.10.2019
963 Rain 28 1013 21 16093 3.1 100 20:20 01.10.2019
964 Rain 28 1012 27 16093 2.1 230 19:57 01.10.2019
965 Rain 27 1012 27 16093 2.1 230 19:39 01.10.2019
966 Rain 26 1013 29 16093 3.6 90 19:20 01.10.2019
967 Rain 25 1012 33 16093 6.76 199.4 18:55 01.10.2019
968 Rain 25 1013 40 16093 3.6 130 18:37 01.10.2019
969 Rain 24 1013 40 16093 3.6 130 18:19 01.10.2019
970 Clear 18 1012 42 16093 2.11 182.446 17:43 01.10.2019
971 Rain 20 1012 48 16093 4.1 130 17:20 01.10.2019
972 Rain 18 1011 52 16093 2.11 182.446 16:59 01.10.2019
973 Clear 17 1011 52 16093 2.11 182.446 16:40 01.10.2019
974 Clear 16 1011 62 16093 3.1 130 16:22 01.10.2019
975 Clear 16 1010 59 16093 2.1 110 15:48 01.10.2019
976 Clear 14 1011 62 16093 3.6 110 15:24 01.10.2019
977 -273 0 0 0 0 0 14:58 01.10.2019
978 Clear 14 1011 62 16093 2.6 150 14:38 01.10.2019
979 Clear 15 1011 62 16093 2.6 150 14:19 01.10.2019
980 Clear 15 1009 55 16093 1.03 121.059 13:55 01.10.2019
981 Clear 15 1009 55 16093 1.03 121.059 13:55 01.10.2019
982 Clear 15 1010 63 16093 3.6 110 13:37 01.10.2019
983 Clear 15 1010 63 16093 3.6 110 13:18 01.10.2019
984 Clear 15 1009 51 16093 1.12 175.75 12:54 01.10.2019
985 Clear 15 1010 67 16093 2.6 130 12:36 01.10.2019
986 Clear 16 1010 67 16093 2.6 130 12:18 01.10.2019
987 Clear 16 1009 55 16093 0.25 240.141 11:54 01.10.2019
988 Clear 16 1010 67 16093 3.1 120 11:36 01.10.2019
989 Clear 16 1010 67 16093 3.1 120 11:18 01.10.2019
990 Clear 17 1009 39 16093 0.25 240.141 10:43 01.10.2019
991 Clear 17 1010 55 16093 2.1 140 10:24 01.10.2019
992 Clear 18 1009 48 16093 1.5 120 09:44 01.10.2019
993 Rain 19 1010 42 16093 1.4 243.985 09:25 01.10.2019
994 Rain 19 1009 32 16093 1.99 201.364 08:44 01.10.2019
995 Rain 20 1009 52 16093 2.6 140 08:25 01.10.2019
996 Clear 20 1008 37 16093 1.99 201.364 07:49 01.10.2019
997 Clear 20 1009 49 16093 2.1 100 07:26 01.10.2019
998 Clear 21 1008 31 16093 1.99 201.364 06:51 01.10.2019
999 Clear 22 1009 40 16093 2.6 210 06:25 01.10.2019
1000 Clear 23 1007 27 16093 2.6 200 05:46 01.10.2019
1001 Clear 23 1008 29 16093 1.5 250 05:20 01.10.2019
1002 Rain 25 1008 27 16093 2.6 270 04:35 01.10.2019
1003 Rain 25 1008 27 16093 2.6 270 04:35 01.10.2019
1004 Clear 28 1007 23 16093 4.1 300 03:32 01.10.2019
1005 Clear 31 1007 20 16093 3.1 300 02:18 01.10.2019
1006 Clear 32 1008 18 16093 2.6 260 01:41 01.10.2019
1007 Clear 32 1007 13 16093 2.6 250 00:42 01.10.2019
1008 Clear 32 1008 17 16093 2.1 300 00:24 01.10.2019
1009 Clear 32 1009 20 16093 1.5 270 23:41 30.09.2019
1010 Clear 32 1009 20 16093 1.5 270 23:41 30.09.2019
1011 Clear 32 1009 20 16093 1.5 270 23:22 30.09.2019
1012 Clear 32 1008 16 16093 2.1 240 22:46 30.09.2019
1013 Clear 32 1009 27 16093 2.1 150 22:27 30.09.2019
1014 Clear 31 1009 21 16093 2.1 320 21:58 30.09.2019
1015 Clear 31 1010 30 16093 1.5 360 21:40 30.09.2019
1016 Clear 30 1010 30 16093 1.5 360 21:20 30.09.2019
1017 Rain 29 1010 23 16093 2.56 226.345 20:58 30.09.2019
1018 Rain 29 1010 23 16093 2.56 226.345 20:40 30.09.2019
1019 Rain 28 1012 32 16093 2.66 233.268 20:21 30.09.2019
1020 Rain 28 1010 22 16093 2.66 233.268 19:58 30.09.2019
1021 Rain 27 1012 38 6437 1.5 120 19:40 30.09.2019
1022 Rain 27 1012 38 6437 1.5 120 19:20 30.09.2019
1023 Rain 25 1011 31 16093 3.1 110 18:58 30.09.2019
1024 Rain 25 1011 36 16093 2.6 120 18:40 30.09.2019
1025 Rain 24 1011 36 16093 2.6 120 18:20 30.09.2019
1026 -273 0 0 0 0 0 17:55 30.09.2019
1027 Clear 22 1012 49 16093 1.07 90.267 17:37 30.09.2019
1028 Clear 21 1012 49 16093 1.07 90.267 17:18 30.09.2019
1029 Clear 19 1011 55 16093 3.1 120 16:42 30.09.2019
1030 Clear 18 1012 67 16093 1.5 140 16:20 30.09.2019
1031 Clear 18 1012 67 16093 1.5 140 16:20 30.09.2019
1032 Clear 16 1010 59 16093 1.07 90.267 15:59 30.09.2019
1033 Clear 16 1010 59 16093 1.07 90.267 15:59 30.09.2019
1034 Clear 15 1012 67 16093 3.6 170 15:38 30.09.2019
1035 Clear 15 1012 67 16093 3.6 170 15:19 30.09.2019
1036 Clear 15 1011 67 16093 2.1 120 14:58 30.09.2019
1037 Clear 15 1011 67 16093 2.1 120 14:38 30.09.2019
1038 Clear 15 1011 67 16093 2.1 120 14:19 30.09.2019
1039 Clear 15 1010 63 16093 4.1 110 13:58 30.09.2019
1040 Clear 15 1010 63 16093 4.1 110 13:40 30.09.2019
1041 Clear 15 1011 67 16093 2.6 110 13:20 30.09.2019
1042 Clear 16 1010 59 16093 0.73 89.766 12:44 30.09.2019
1043 Clear 16 1011 59 16093 0.93 139.532 12:23 30.09.2019
1044 Clear 17 1010 59 16093 0.93 139.532 11:59 30.09.2019
1045 Clear 17 1010 59 16093 0.93 139.532 11:59 30.09.2019
1046 Clear 17 1011 59 16093 3.6 120 11:40 30.09.2019
1047 Clear 17 1011 59 16093 3.6 120 11:19 30.09.2019
1048 -273 0 0 0 0 0 10:55 30.09.2019
1049 Clear 18 1011 63 16093 2.6 130 10:37 30.09.2019
1050 Clear 18 1011 63 16093 2.6 130 10:18 30.09.2019
1051 Clear 19 1011 55 16093 2.1 70 09:40 30.09.2019
1052 Clear 19 1011 55 16093 2.1 70 09:40 30.09.2019
1053 Clear 19 1011 55 16093 2.1 70 09:21 30.09.2019
1054 Clear 19 1009 40 16093 1.5 200 08:51 30.09.2019
1055 Clear 19 1011 59 16093 4.6 130 08:33 30.09.2019
1056 Clear 20 1009 31 16093 3.1 200 07:47 30.09.2019
1057 Clear 21 1011 46 16093 3.6 140 07:28 30.09.2019
1058 Clear 22 1009 31 16093 3.6 180 06:59 30.09.2019
1059 Clear 22 1011 52 16093 3.6 130 06:41 30.09.2019
1060 Rain 24 1009 31 16093 2.6 160 05:51 30.09.2019
1061 Rain 24 1009 31 16093 2.6 160 05:51 30.09.2019
1062 Clear 24 1010 36 16093 2.6 230 05:33 30.09.2019
1063 Rain 30 1007 15 16093 6.2 240 02:49 30.09.2019
1064 Rain 32 1007 15 16093 7.7 250 01:41 30.09.2019
1065 Rain 32 1007 15 16093 7.2 250 00:55 30.09.2019
1066 Rain 32 1009 22 16093 5.1 230 00:37 30.09.2019
1067 Rain 32 1009 22 16093 5.1 230 00:18 30.09.2019
1068 Clear 32 1009 17 16093 7.2 230 23:39 29.09.2019
1069 Clear 32 1009 21 16093 3.1 250 23:20 29.09.2019
1070 Clear 32 1008 19 16093 2.1 220 22:44 29.09.2019
1071 Clear 32 1010 23 16093 7.2 190 22:25 29.09.2019
1072 Rain 31 1009 20 16093 3.6 210 21:59 29.09.2019
1073 Rain 31 1012 23 16093 5.7 190 21:39 29.09.2019
1074 Rain 31 1012 23 16093 5.7 190 21:19 29.09.2019
1075 Rain 30 1010 20 16093 2.1 190 20:59 29.09.2019
1076 Rain 30 1012 34 16093 2.6 100 20:41 29.09.2019
1077 Rain 29 1012 34 16093 2.6 100 20:19 29.09.2019
1078 Rain 29 1010 28 16093 4.6 180 19:55 29.09.2019
1079 Rain 28 1012 34 16093 2.6 170 19:36 29.09.2019
1080 Rain 28 1012 34 16093 2.6 170 19:18 29.09.2019
1081 -273 0 0 0 0 0 18:55 29.09.2019
1082 Rain 27 1011 32 16093 4.6 180 18:55 29.09.2019
1083 Rain 27 1012 41 16093 2.6 100 18:36 29.09.2019
1084 Rain 26 1012 41 16093 2.6 100 18:18 29.09.2019
1085 Rain 25 1010 44 16093 2.1 150 17:54 29.09.2019
1086 Rain 25 1010 44 16093 2.1 150 17:54 29.09.2019
1087 Rain 25 1012 53 16093 3.1 120 17:36 29.09.2019
1088 Rain 24 1012 53 16093 3.1 120 17:18 29.09.2019
1089 Clear 22 1010 53 16093 5.02 174.765 16:41 29.09.2019
1090 Clear 21 1011 60 16093 2.1 130 16:20 29.09.2019
1091 Clear 21 1009 68 16093 5.02 174.765 15:58 29.09.2019
1092 Clear 21 1011 64 16093 3.6 110 15:37 29.09.2019
1093 Clear 19 1011 64 16093 3.6 110 15:19 29.09.2019
1094 Clear 19 1009 56 16093 3.1 120 14:58 29.09.2019
1095 Clear 19 1010 68 16093 3.6 120 14:38 29.09.2019
1096 Clear 19 1010 68 16093 3.6 120 14:19 29.09.2019
1097 Clear 20 1008 56 16093 4.1 110 13:56 29.09.2019
1098 Clear 20 1010 64 16093 2.6 330 13:36 29.09.2019
1099 Clear 20 1010 64 16093 2.6 330 13:18 29.09.2019
1100 Clear 20 1008 56 16093 3.1 100 12:56 29.09.2019
1101 Clear 20 1010 64 16093 2.1 120 12:38 29.09.2019
1102 Clear 20 1010 64 16093 2.1 120 12:38 29.09.2019
1103 Clear 21 1010 64 16093 2.1 120 12:20 29.09.2019
1104 Rain 21 1008 56 16093 2.6 140 11:41 29.09.2019
1105 Rain 21 1010 64 16093 3.6 100 11:20 29.09.2019
1106 Rain 21 1008 53 16093 2.1 140 10:58 29.09.2019
1107 Rain 21 1010 64 16093 2.6 110 10:39 29.09.2019
1108 Rain 21 1010 64 16093 2.6 110 10:20 29.09.2019
1109 Rain 21 1010 64 16093 2.6 110 10:20 29.09.2019
1110 Rain 22 1008 44 16093 2.6 130 09:57 29.09.2019
1111 Rain 22 1008 44 16093 2.6 130 09:39 29.09.2019
1112 Rain 22 1008 44 16093 2.6 130 09:39 29.09.2019
1113 Rain 22 1010 50 16093 3.6 120 09:19 29.09.2019
1114 Clear 23 1008 44 16093 3.1 110 08:43 29.09.2019
1115 Clear 23 1010 56 16093 2.6 60 08:22 29.09.2019
1116 Clear 23 1007 39 16093 4.6 190 07:44 29.09.2019
1117 Clear 23 1009 56 16093 3.1 80 07:26 29.09.2019
1118 Clear 24 1007 44 16093 5.7 180 06:50 29.09.2019
1119 Rain 25 1007 44 16093 2.6 220 05:59 29.09.2019
1120 Rain 26 1006 39 16093 3.1 200 04:45 29.09.2019
1121 Rain 27 1008 44 16093 3.6 220 04:23 29.09.2019
1122 Rain 30 1006 27 16093 3.1 240 02:58 29.09.2019
1123 Clear 31 1007 33 16093 3.1 220 02:19 29.09.2019
1124 Rain 31 1006 27 16093 3.6 200 01:42 29.09.2019
1125 Rain 31 1006 25 16093 2.1 220 00:59 29.09.2019
1126 Rain 31 1006 25 16093 2.1 220 00:59 29.09.2019
1127 Rain 31 1008 30 16093 3.6 190 00:40 29.09.2019
1128 Rain 31 1008 30 16093 3.6 190 00:19 29.09.2019
1129 Rain 31 1008 35 16093 2.6 240 23:37 28.09.2019
1130 Rain 31 1008 35 16093 2.6 240 23:37 28.09.2019
1131 Rain 31 1008 35 16093 2.6 240 23:19 28.09.2019
1132 Clear 30 1007 28 16093 4.6 200 22:40 28.09.2019
1133 Clear 30 1009 35 16093 2.6 190 22:21 28.09.2019
1134 Rain 30 1008 28 16093 3.1 220 21:58 28.09.2019
1135 Rain 30 1008 28 16093 3.1 220 21:58 28.09.2019
1136 Rain 30 1008 28 16093 3.1 220 21:40 28.09.2019
1137 Rain 29 1010 39 16093 2.6 210 21:21 28.09.2019
1138 Rain 29 1009 34 16093 1.5 240 20:57 28.09.2019
1139 Rain 28 1011 47 16093 3.21 208.593 20:38 28.09.2019
1140 Rain 28 1011 47 16093 3.21 208.593 20:19 28.09.2019
1141 Rain 27 1009 39 16093 3.1 100 19:56 28.09.2019
1142 Rain 27 1011 57 16093 2.1 120 19:38 28.09.2019
1143 Rain 26 1011 57 16093 2.1 120 19:19 28.09.2019
1144 Rain 25 1010 53 16093 2.1 80 18:55 28.09.2019
1145 Rain 25 1011 64 16093 3.1 170 18:37 28.09.2019
1146 Rain 24 1011 64 16093 3.1 170 18:18 28.09.2019
1147 Clear 23 1010 68 16093 1.98 129.898 17:54 28.09.2019
1148 Clear 22 1011 72 16093 3.6 120 17:36 28.09.2019
1149 Clear 21 1011 72 16093 3.6 120 17:18 28.09.2019
1150 Rain 19 1011 77 16093 4.6 110 16:41 28.09.2019
1151 Clear 18 1011 77 16093 4.6 110 16:22 28.09.2019
1152 Clear 17 1009 82 16093 3.6 110 15:41 28.09.2019
1153 Clear 16 1011 87 16093 3.6 110 15:23 28.09.2019
1154 Clear 16 1009 82 16093 4.1 100 14:56 28.09.2019
1155 Clear 16 1010 82 16093 4.1 110 14:38 28.09.2019
1156 Clear 16 1010 82 16093 4.1 110 14:38 28.09.2019
1157 Clear 16 1010 82 16093 4.1 110 14:20 28.09.2019
1158 Clear 16 1008 77 16093 3.6 110 13:56 28.09.2019
1159 Clear 16 1009 88 16093 3.1 140 13:37 28.09.2019
1160 Clear 16 1009 88 16093 3.1 140 13:19 28.09.2019
1161 Clear 17 1009 88 16093 3.1 120 12:40 28.09.2019
1162 Clear 17 1009 88 16093 3.1 120 12:19 28.09.2019
1163 Clear 17 1009 88 16093 3.1 120 12:19 28.09.2019
1164 Clear 17 1008 72 16093 2.1 130 11:54 28.09.2019
1165 Clear 17 1010 93 16093 2.6 150 11:36 28.09.2019
1166 Clear 17 1010 93 16093 2.6 150 11:18 28.09.2019
1167 Clear 18 1011 88 16093 2.1 130 10:40 28.09.2019
1168 Clear 18 1011 88 16093 2.1 130 10:20 28.09.2019
1169 Clear 18 1009 77 16093 0.96 99.776 09:42 28.09.2019
1170 Clear 19 1011 82 16093 2.6 130 09:24 28.09.2019
1171 Rain 19 1009 77 16093 1.07 86.725 08:58 28.09.2019
1172 Rain 19 1009 77 16093 1.07 90.802 08:40 28.09.2019
1173 Rain 19 1011 88 16093 2.6 130 08:22 28.09.2019
1174 Clear 19 1009 73 16093 1.07 90.802 07:44 28.09.2019
1175 Clear 20 1011 77 16093 1.5 230 07:21 28.09.2019
1176 Clear 20 1009 64 16093 1.07 90.802 06:53 28.09.2019
1177 Clear 20 1011 73 16093 2.1 210 06:31 28.09.2019
1178 Clear 21 1009 56 16093 1.5 340 05:43 28.09.2019
1179 Clear 22 1011 68 16093 1.5 250 05:20 28.09.2019
1180 Rain 22 1010 56 16093 2.6 310 04:38 28.09.2019
1181 Clear 24 1009 44 16093 2.1 300 03:49 28.09.2019
1182 Clouds 25 1010 47 16093 2.1 300 03:21 28.09.2019
1183 Clear 26 1009 39 16093 2.1 350 02:44 28.09.2019
1184 Clear 26 1010 42 16093 2.6 290 02:26 28.09.2019
1185 Rain 27 1009 34 16093 3.1 320 01:47 28.09.2019
1186 Rain 27 1010 47 16093 1.5 290 01:26 28.09.2019
1187 Rain 27 1009 34 16093 2.1 310 00:51 28.09.2019
1188 Clear 27 1011 47 16093 2.1 330 00:31 28.09.2019
1189 Clear 27 1011 47 16093 2.1 330 00:31 28.09.2019
1190 Clear 26 1010 32 16093 2.1 310 23:55 27.09.2019
1191 Clouds 26 1011 44 16093 1.5 200 23:36 27.09.2019
1192 Clouds 26 1011 44 16093 1.5 200 23:18 27.09.2019
1193 Rain 26 1013 53 16093 3.5 278.558 22:41 27.09.2019
1194 Rain 26 1013 53 16093 3.5 278.558 22:19 27.09.2019
1195 Rain 25 1012 47 16093 3.5 278.558 21:55 27.09.2019
1196 Rain 26 1013 60 16093 3.1 330 21:37 27.09.2019
1197 Rain 25 1013 60 16093 3.1 330 21:18 27.09.2019
1198 Rain 24 1012 53 16093 3.83 240.992 20:55 27.09.2019
1199 Rain 24 1014 73 16093 4.1 270 20:36 27.09.2019
1200 Rain 23 1014 73 16093 4.1 270 20:18 27.09.2019
1201 Rain 23 1013 57 16093 3.39 222.271 19:42 27.09.2019
1202 Rain 22 1014 83 16093 2.6 290 19:23 27.09.2019
1203 Rain 22 1015 73 16093 3.39 222.271 18:57 27.09.2019
1204 Clouds 22 1014 83 16093 1.5 260 18:38 27.09.2019
1205 Rain 21 1014 83 16093 1.5 260 18:20 27.09.2019
1206 Rain 21 1014 83 16093 1.5 260 18:20 27.09.2019
1207 Rain 20 1015 88 16093 2.1 160 17:40 27.09.2019
1208 Rain 20 1015 88 16093 2.1 160 17:40 27.09.2019
1209 Clouds 19 1014 82 16093 0.86 279.748 17:22 27.09.2019
1210 Clouds 19 1014 82 16093 1.5 180 16:59 27.09.2019
1211 Rain 19 1014 88 16093 2.6 130 16:41 27.09.2019
1212 Rain 18 1014 88 16093 2.6 130 16:20 27.09.2019
1213 Rain 18 1013 93 16093 0.86 279.748 15:58 27.09.2019
1214 Rain 18 1014 93 16093 0.86 279.748 15:39 27.09.2019
1215 Rain 18 1014 93 16093 1.06 163.167 15:19 27.09.2019
1216 Clouds 18 1012 93 16093 2.1 90 14:56 27.09.2019
1217 Clouds 18 1014 93 16093 1.06 163.167 14:37 27.09.2019
1218 Clouds 18 1014 93 16093 1.06 163.167 14:37 27.09.2019
1219 Clouds 18 1014 93 16093 1.06 163.167 14:18 27.09.2019
1220 Clouds 18 1012 88 16093 1.5 120 13:55 27.09.2019
1221 Clouds 18 1014 88 16093 2.1 180 13:37 27.09.2019
1222 Rain 18 1014 88 16093 2.1 180 13:18 27.09.2019
1223 Rain 18 1012 88 16093 0.22 20.739 12:42 27.09.2019
1224 Rain 19 1014 93 16093 2.1 120 12:20 27.09.2019
1225 Rain 19 1014 93 16093 2.1 120 12:20 27.09.2019
1226 Rain 19 1014 93 16093 2.1 250 11:40 27.09.2019
1227 Rain 19 1014 93 16093 2.1 250 11:40 27.09.2019
1228 Rain 19 1014 93 16093 2.1 250 11:22 27.09.2019
1229 Rain 19 1013 88 16093 0.68 242.269 10:57 27.09.2019
1230 Rain 19 1015 88 16093 0.68 242.269 10:39 27.09.2019
1231 Rain 19 1015 88 16093 0.68 242.269 10:20 27.09.2019
1232 Rain 20 1015 88 16093 1.5 160 09:42 27.09.2019
1233 Rain 20 1015 83 16093 2.6 290 09:22 27.09.2019
1234 Clouds 20 1015 83 16093 3.1 290 08:57 27.09.2019
1235 Clouds 20 1015 83 16093 3.1 290 08:39 27.09.2019
1236 Rain 20 1015 83 16093 0.97 146.474 08:20 27.09.2019
1237 Rain 20 1014 78 16093 0.97 146.474 07:45 27.09.2019
1238 Clouds 21 1014 78 16093 2.1 240 07:23 27.09.2019
1239 Rain 21 1015 78 16093 0.97 146.474 06:43 27.09.2019
1240 Rain 21 1015 78 16093 1.17 263.336 06:23 27.09.2019
1241 Rain 22 1014 78 16093 1.17 263.336 05:50 27.09.2019
1242 Rain 22 1014 78 16093 1.17 263.336 05:50 27.09.2019
1243 Clear 22 1015 73 16093 3.1 310 05:32 27.09.2019
1244 Rain 23 1013 69 16093 1.17 263.336 03:55 27.09.2019
1245 Rain 25 1013 64 16093 2.1 360 02:42 27.09.2019
1246 Rain 26 1014 51 16093 5.7 300 01:47 27.09.2019
1247 Rain 27 1014 39 16093 7.7 290 01:27 27.09.2019
1248 Clouds 28 1014 37 16093 3.6 150 00:22 27.09.2019
1249 Clouds 28 1014 37 16093 5.7 200 23:56 26.09.2019
1250 Clear 28 1015 37 16093 4.6 160 23:38 26.09.2019
1251 Clear 29 1015 37 16093 4.6 160 23:18 26.09.2019
1252 Clear 29 1015 37 16093 4.6 160 23:18 26.09.2019
1253 Rain 29 1016 42 16093 2.6 130 22:56 26.09.2019
1254 Rain 29 1016 42 16093 2.6 130 22:38 26.09.2019
1255 Rain 29 1016 42 16093 2.6 130 22:18 26.09.2019
1256 Rain 29 1015 35 16093 2.6 170 21:55 26.09.2019
1257 Rain 28 1018 42 16093 4.1 200 21:36 26.09.2019
1258 Clear 28 1018 42 16093 4.1 200 21:18 26.09.2019
1259 Clear 28 1018 42 16093 4.1 200 21:18 26.09.2019
1260 Rain 28 1016 39 16093 4.1 160 20:56 26.09.2019
1261 Clear 27 1018 50 16093 1.5 140 20:38 26.09.2019
1262 Rain 27 1018 50 16093 1.5 140 20:20 26.09.2019
1263 Clouds 27 1017 44 16093 3.6 130 19:40 26.09.2019
1264 Rain 26 1017 47 16093 3.1 90 19:19 26.09.2019
1265 Rain 26 1017 53 16093 4.1 110 18:58 26.09.2019
1266 Rain 25 1018 64 16093 2.1 110 18:39 26.09.2019
1267 Rain 25 1018 64 16093 2.1 110 18:39 26.09.2019
1268 Rain 24 1018 64 16093 2.1 110 18:21 26.09.2019
1269 Rain 23 1017 60 16093 4.6 110 17:54 26.09.2019
1270 Clear 23 1018 73 16093 3.1 120 17:36 26.09.2019
1271 Clear 22 1018 73 16093 3.1 120 17:18 26.09.2019
1272 Clouds 20 1017 68 16093 3.6 100 16:39 26.09.2019
1273 Clear 19 1017 82 16093 0.58 251.16 16:20 26.09.2019
1274 Clouds 18 1016 77 16093 2.6 120 15:58 26.09.2019
1275 Clear 18 1017 88 16093 3.6 110 15:38 26.09.2019
1276 Clear 17 1017 88 16093 3.6 110 15:19 26.09.2019
1277 Clouds 18 1016 77 16093 3.1 100 14:57 26.09.2019
1278 Clear 18 1017 88 16093 2.6 130 14:37 26.09.2019
1279 Clear 18 1017 88 16093 2.6 130 14:37 26.09.2019
1280 Clear 18 1017 88 16093 2.6 130 14:19 26.09.2019
1281 Clear 18 1016 88 16093 3.6 100 13:41 26.09.2019
1282 Clear 18 1016 88 16093 3.6 100 13:20 26.09.2019
1283 Clear 18 1016 88 16093 3.6 100 13:20 26.09.2019
1284 Clear 18 1016 88 16093 3.6 100 13:20 26.09.2019
1285 Clouds 18 1015 77 16093 3.1 100 12:57 26.09.2019
1286 Clear 18 1017 93 16093 2.1 90 12:39 26.09.2019
1287 Clear 18 1017 93 16093 2.1 90 12:20 26.09.2019
1288 Clouds 19 1015 77 16093 3.1 100 11:42 26.09.2019
1289 Clear 19 1017 93 16093 2.1 50 11:22 26.09.2019
1290 Clouds 19 1015 77 16093 2.6 100 10:56 26.09.2019
1291 Clouds 19 1015 77 16093 2.6 100 10:56 26.09.2019
1292 Clouds 19 1017 88 16093 3.6 100 10:38 26.09.2019
1293 Clouds 19 1017 88 16093 3.6 100 10:19 26.09.2019
1294 Rain 19 1015 68 16093 1.5 260 09:44 26.09.2019
1295 Rain 19 1016 82 9656 2.6 180 09:25 26.09.2019
1296 Rain 20 1015 60 16093 4.1 150 08:57 26.09.2019
1297 Rain 20 1015 60 16093 4.1 150 08:39 26.09.2019
1298 Clouds 21 1016 88 16093 3.6 190 08:21 26.09.2019
1299 Rain 21 1014 56 16093 5.1 120 07:42 26.09.2019
1300 Rain 21 1014 53 16093 3.1 120 07:21 26.09.2019
1301 Rain 22 1014 50 16093 3.6 130 06:44 26.09.2019
1302 Rain 22 1016 64 16093 2.6 170 06:25 26.09.2019
1303 Thunderstorm 23 1013 44 16093 2.6 130 05:44 26.09.2019
1304 Rain 23 1015 56 16093 4.6 150 05:24 26.09.2019
1305 Clouds 26 1011 35 16093 4.6 120 02:51 26.09.2019
1306 Clear 28 1010 32 16093 4.6 120 01:53 26.09.2019
1307 Clear 28 1010 32 16093 4.6 120 01:53 26.09.2019
1308 Clear 28 1012 54 16093 6.7 80 01:28 26.09.2019
1309 Clear 28 1011 30 16093 5.1 140 00:55 26.09.2019
1310 Rain 28 1012 54 16093 8.2 100 00:37 26.09.2019
1311 Rain 27 1011 32 16093 6.2 130 23:47 25.09.2019
1312 Clouds 27 1012 54 16093 4.1 80 23:28 25.09.2019
1313 Rain 27 1012 44 16093 4.6 130 22:58 25.09.2019
1314 Rain 27 1013 61 16093 6.7 70 22:40 25.09.2019
1315 Rain 27 1013 61 16093 6.7 70 22:20 25.09.2019
1316 Clear 25 1013 57 16093 4.6 110 21:57 25.09.2019
1317 Clear 24 1015 78 16093 3.1 100 21:38 25.09.2019
1318 Rain 23 1015 78 16093 3.1 100 21:19 25.09.2019
1319 Rain 23 1014 60 16093 4.1 90 20:57 25.09.2019
1320 Rain 23 1016 83 16093 2.6 160 20:39 25.09.2019
1321 Rain 23 1016 83 16093 2.6 160 20:20 25.09.2019
1322 Clouds 21 1014 68 16093 4.1 120 19:43 25.09.2019
1323 Clouds 21 1015 82 16093 2.38 212.54 19:25 25.09.2019
1324 Rain 20 1014 73 16093 4.1 150 18:58 25.09.2019
1325 Rain 19 1015 88 16093 2.38 212.54 18:39 25.09.2019
1326 Rain 19 1015 88 16093 1.37 128.411 18:21 25.09.2019
1327 Rain 19 1015 93 16093 2.6 160 17:59 25.09.2019
1328 Rain 19 1015 82 16093 5.1 160 17:38 25.09.2019
1329 Rain 18 1015 82 16093 5.1 160 17:19 25.09.2019
1330 Rain 18 1015 82 16093 5.1 160 17:19 25.09.2019
1331 Rain 18 1015 82 16093 5.7 100 16:45 25.09.2019
1332 Rain 18 1014 88 16093 3.6 90 16:27 25.09.2019
1333 Rain 18 1014 88 16093 1.5 130 15:59 25.09.2019
1334 Rain 17 1014 88 16093 1.5 130 15:40 25.09.2019
1335 Rain 18 1014 88 16093 1.5 130 15:22 25.09.2019
1336 Rain 18 1014 88 16093 2.6 30 14:56 25.09.2019
1337 Rain 18 1015 88 14484 5.1 30 14:38 25.09.2019
1338 Rain 18 1015 88 14484 5.1 30 14:20 25.09.2019
1339 Rain 18 1015 88 9656 7.2 120 13:41 25.09.2019
1340 Rain 18 1015 88 9656 7.2 120 13:22 25.09.2019
1341 Rain 18 1015 88 9656 7.2 120 13:22 25.09.2019
1342 Clear 18 1012 77 16093 2.6 170 12:58 25.09.2019
1343 Clear 18 1013 77 16093 3.1 120 12:39 25.09.2019
1344 Clouds 18 1014 82 16093 3.1 160 12:21 25.09.2019
1345 Clear 18 1012 68 16093 2.1 100 11:42 25.09.2019
1346 Clear 18 1014 77 16093 1.5 130 11:22 25.09.2019
1347 Clear 18 1012 68 16093 2.6 90 10:59 25.09.2019
1348 Clouds 18 1014 82 16093 4.1 100 10:41 25.09.2019
1349 Clouds 19 1014 82 16093 4.1 100 10:21 25.09.2019
1350 Clouds 19 1013 64 16093 3.1 100 09:56 25.09.2019
1351 Clear 19 1014 77 16093 3.6 110 09:36 25.09.2019
1352 Clear 19 1014 77 16093 3.6 110 09:18 25.09.2019
1353 Clear 19 1013 68 16093 1.5 150 08:41 25.09.2019
1354 Clouds 19 1013 72 16093 4.1 80 08:21 25.09.2019
1355 Clear 19 1012 64 16093 2.6 90 07:56 25.09.2019
1356 Clear 19 1012 64 16093 4.1 120 07:37 25.09.2019
1357 Clear 19 1012 64 16093 4.1 120 07:19 25.09.2019
1358 Clear 19 1013 68 16093 4.1 100 06:37 25.09.2019
1359 Clear 20 1012 60 16093 2.6 40 05:52 25.09.2019
1360 Clear 20 1013 64 16093 2.6 120 05:27 25.09.2019
1361 Rain 20 1011 53 16093 5.1 130 04:49 25.09.2019
1362 Rain 24 1011 44 16093 8.2 140 01:54 25.09.2019
1363 Clear 25 1011 41 16093 9.3 140 00:43 25.09.2019
1364 Clear 24 1013 64 16093 3.6 80 00:23 25.09.2019
1365 Clear 24 1011 47 16093 9.3 140 23:54 24.09.2019
1366 Clear 24 1011 47 16093 9.3 140 23:54 24.09.2019
1367 Clouds 23 1014 73 16093 3.6 110 23:36 24.09.2019
1368 Clouds 23 1014 73 16093 3.6 110 23:18 24.09.2019
1369 Rain 21 1015 82 16093 6.2 50 22:38 24.09.2019
1370 Rain 20 1015 82 16093 6.2 50 22:20 24.09.2019
1371 Rain 19 1013 77 16093 9.8 120 21:56 24.09.2019
1372 Rain 18 1017 88 16093 2.6 140 21:37 24.09.2019
1373 Rain 18 1017 88 16093 2.6 140 21:37 24.09.2019
1374 Rain 17 1017 88 16093 2.6 140 21:19 24.09.2019
1375 Rain 17 1014 82 16093 8.7 110 20:57 24.09.2019
1376 Rain 17 1014 82 16093 8.7 110 20:57 24.09.2019
1377 Rain 17 1016 93 8047 6.2 70 20:38 24.09.2019
1378 Rain 17 1016 93 8047 6.2 70 20:19 24.09.2019
1379 Rain 17 1019 93 3219 2.6 320 19:43 24.09.2019
1380 Rain 17 1019 93 3219 3.1 310 19:21 24.09.2019
1381 Rain 17 1019 93 4023 3.6 270 18:59 24.09.2019
1382 Rain 17 1018 93 6437 4.1 300 18:39 24.09.2019
1383 Rain 17 1018 93 6437 4.1 300 18:21 24.09.2019
1384 Rain 17 1018 93 6437 1.5 220 17:57 24.09.2019
1385 Rain 17 1017 93 8047 2.6 250 17:38 24.09.2019
1386 Rain 17 1017 93 8047 2.6 250 17:38 24.09.2019
1387 Rain 17 1017 93 8047 2.6 250 17:20 24.09.2019
1388 Rain 17 1016 88 16093 2.1 128.609 16:55 24.09.2019
1389 Rain 17 1016 88 16093 3.1 280 16:37 24.09.2019
1390 Rain 17 1016 88 16093 3.1 280 16:18 24.09.2019
1391 Rain 17 1016 88 16093 3.1 280 16:18 24.09.2019
1392 Rain 18 1015 88 16093 2.1 128.609 15:41 24.09.2019
1393 Rain 18 1014 77 14484 8.7 350 15:23 24.09.2019
1394 Clear 19 1015 82 16093 2.1 250 14:41 24.09.2019
1395 Clear 19 1015 82 16093 2.1 250 14:20 24.09.2019
1396 Clouds 19 1014 64 16093 2.1 350 13:55 24.09.2019
1397 Clouds 19 1014 64 16093 2.1 350 13:55 24.09.2019
1398 Clear 19 1014 88 16093 2.6 90 13:37 24.09.2019
1399 Clear 20 1014 88 16093 2.6 90 13:18 24.09.2019
1400 Thunderstorm 20 1015 77 16093 3.1 50 12:39 24.09.2019
1401 Thunderstorm 20 1015 77 16093 3.1 50 12:19 24.09.2019
1402 Clear 20 1014 72 16093 2.1 80 11:43 24.09.2019
1403 Clear 20 1016 88 16093 2.6 60 11:22 24.09.2019
1404 Clear 20 1015 64 16093 2.1 50 10:57 24.09.2019
1405 Clear 20 1016 94 16093 1.5 180 10:38 24.09.2019
1406 Clear 20 1016 94 16093 1.5 180 10:19 24.09.2019
1407 Clear 20 1016 94 16093 1.34 184.251 09:46 24.09.2019
1408 Clear 20 1016 94 16093 1.34 184.251 09:27 24.09.2019
1409 Rain 20 1015 73 16093 3.6 130 08:57 24.09.2019
1410 Rain 20 1016 94 16093 2.29 82.67 08:39 24.09.2019
1411 Rain 20 1016 94 16093 2.29 82.67 08:20 24.09.2019
1412 Clouds 20 1017 88 16093 2.1 130 07:55 24.09.2019
1413 Clear 20 1015 83 16093 3.1 120 07:36 24.09.2019
1414 Clear 20 1015 83 16093 3.1 120 07:36 24.09.2019
1415 Rain 20 1017 77 16093 3.1 90 07:18 24.09.2019
1416 Rain 20 1016 82 16093 4.1 110 06:37 24.09.2019
1417 Rain 21 1017 88 9656 0.68 268.911 05:52 24.09.2019
1418 Rain 22 1017 77 2816 8.2 260 05:20 24.09.2019
1419 Clouds 29 1012 42 16093 0.68 268.911 03:45 24.09.2019
1420 Clouds 31 1012 42 16093 5.1 360 02:57 24.09.2019
1421 Clouds 31 1014 31 16093 3.6 280 02:39 24.09.2019
1422 Clouds 33 1014 29 16093 5.1 250 01:39 24.09.2019
1423 Clouds 32 1014 33 16093 4.6 240 00:38 24.09.2019
1424 Clouds 32 1014 33 16093 4.6 240 00:20 24.09.2019
1425 Clouds 32 1015 31 16093 4.6 260 23:40 23.09.2019
1426 Clouds 33 1015 31 16093 4.6 260 23:21 23.09.2019
1427 Clear 32 1013 29 16093 4.6 210 22:40 23.09.2019
1428 Clouds 32 1016 38 16093 6.2 170 22:21 23.09.2019
1429 Clear 32 1015 31 16093 2.6 270 21:58 23.09.2019
1430 Clear 31 1017 43 16093 5.1 160 21:40 23.09.2019
1431 Clear 31 1017 43 16093 5.1 160 21:20 23.09.2019
1432 Clouds 31 1016 35 16093 3.6 230 20:56 23.09.2019
1433 Clouds 30 1018 45 16093 3.6 220 20:37 23.09.2019
1434 Clouds 30 1018 45 16093 3.6 220 20:18 23.09.2019
1435 Clear 29 1019 58 16093 3.1 180 19:39 23.09.2019
1436 Clear 29 1019 58 16093 3.1 180 19:21 23.09.2019
1437 Rain 28 1017 48 16093 7.2 200 18:58 23.09.2019
1438 Rain 28 1019 61 16093 5.74 208.328 18:39 23.09.2019
1439 Rain 27 1019 61 16093 4.06 184.055 18:18 23.09.2019
1440 Rain 27 1017 54 16093 4.6 200 17:56 23.09.2019
1441 Rain 26 1018 73 16093 1.5 150 17:37 23.09.2019
1442 Rain 25 1018 73 16093 1.5 150 17:18 23.09.2019
1443 Clear 24 1018 83 16093 1.5 120 16:41 23.09.2019
1444 Clear 23 1018 83 16093 1.5 120 16:22 23.09.2019
1445 Clear 22 1016 73 16093 4.06 184.055 15:59 23.09.2019
1446 Clear 22 1016 73 16093 4.06 184.055 15:41 23.09.2019
1447 Clear 22 1018 88 16093 2.1 90 15:20 23.09.2019
1448 Clouds 22 1016 69 16093 1.5 220 14:59 23.09.2019
1449 Clouds 22 1017 83 16093 2.6 130 14:39 23.09.2019
1450 Clouds 22 1017 83 16093 2.6 130 14:19 23.09.2019
1451 Clouds 23 1016 61 16093 3.1 180 13:58 23.09.2019
1452 Clear 23 1017 83 16093 3.6 140 13:37 23.09.2019
1453 Clear 23 1017 83 16093 3.6 140 13:18 23.09.2019
1454 Rain 23 1017 78 16093 1.5 170 12:41 23.09.2019
1455 Rain 23 1017 78 16093 1.5 170 12:22 23.09.2019
1456 Clouds 23 1016 65 16093 3.16 191.716 11:55 23.09.2019
1457 Rain 23 1017 73 16093 2.1 160 11:37 23.09.2019
1458 Rain 23 1017 73 16093 2.1 160 11:19 23.09.2019
1459 Rain 23 1016 65 16093 3.1 120 10:48 23.09.2019
1460 Clouds 23 1017 78 16093 2.1 140 10:21 23.09.2019
1461 Clouds 23 1017 78 16093 2.1 150 09:51 23.09.2019
1462 Clouds 23 1017 78 16093 1.5 170 09:29 23.09.2019
1463 Rain 24 1016 57 16093 3.6 160 08:59 23.09.2019
1464 Rain 24 1017 73 16093 2.6 140 08:39 23.09.2019
1465 Clouds 24 1017 73 16093 2.6 140 08:20 23.09.2019
1466 Clouds 24 1016 57 16093 3.6 160 07:44 23.09.2019
1467 Clouds 24 1016 61 16093 4.1 150 07:23 23.09.2019
1468 Rain 24 1017 78 16093 1.5 140 06:20 23.09.2019
1469 Rain 24 1016 73 16093 2.1 210 05:44 23.09.2019
1470 Rain 24 1016 78 16093 1.5 270 04:59 23.09.2019
1471 Rain 24 1017 78 16093 3.6 280 04:37 23.09.2019
1472 Rain 31 1015 51 16093 1.5 0 01:26 23.09.2019
1473 Thunderstorm 33 1015 42 16093 8.7 230 00:40 23.09.2019
1474 Rain 33 1014 31 16093 2.1 270 00:21 23.09.2019
1475 Clear 34 1013 19 16093 2.6 270 23:44 22.09.2019
1476 Clear 34 1013 19 16093 2.6 270 23:44 22.09.2019
1477 Clear 34 1015 31 16093 3.65 265.695 23:26 22.09.2019
1478 Clear 34 1014 20 16093 3.65 265.695 22:56 22.09.2019
1479 Clouds 34 1016 29 16093 3.6 100 22:37 22.09.2019
1480 Clouds 34 1016 29 16093 3.6 100 22:19 22.09.2019
1481 Clear 33 1015 19 16093 3.1 270 21:43 22.09.2019
1482 Clear 33 1017 31 16093 1.5 50 21:21 22.09.2019
1483 Clear 32 1016 23 16093 1.5 330 20:46 22.09.2019
1484 Clear 32 1017 33 16093 1.5 120 20:28 22.09.2019
1485 Clear 31 1016 28 16093 0.51 281.976 19:59 22.09.2019
1486 Clear 31 1017 35 16093 2.6 110 19:41 22.09.2019
1487 Clear 30 1017 35 16093 2.6 110 19:21 22.09.2019
1488 Clear 29 1016 42 16093 0.51 281.976 18:58 22.09.2019
1489 Rain 29 1016 41 16093 0.51 281.976 18:38 22.09.2019
1490 Rain 28 1016 41 16093 1.12 82.059 18:18 22.09.2019
1491 Clear 27 1016 47 16093 1.5 220 17:48 22.09.2019
1492 Clear 26 1017 64 16093 3.6 90 17:27 22.09.2019
1493 Clouds 24 1016 49 16093 2.6 100 16:58 22.09.2019
1494 Clouds 23 1017 68 16093 4.1 90 16:40 22.09.2019
1495 Clouds 23 1017 68 16093 4.1 90 16:40 22.09.2019
1496 Rain 21 1017 68 16093 4.1 90 16:21 22.09.2019
1497 Rain 20 1015 35 16093 1.12 82.059 15:46 22.09.2019
1498 Rain 19 1016 77 16093 3.1 110 15:27 22.09.2019
1499 Rain 19 1015 37 16093 1.72 132.191 14:57 22.09.2019
1500 Rain 19 1015 37 16093 1.72 132.191 14:57 22.09.2019
1501 Rain 19 1016 82 16093 2.6 90 14:39 22.09.2019
1502 Rain 19 1016 82 16093 2.6 90 14:21 22.09.2019
1503 Rain 19 1014 34 16093 2.1 90 13:45 22.09.2019
1504 Clear 19 1016 82 16093 2.6 110 13:26 22.09.2019
1505 Clear 19 1014 30 16093 3.1 120 12:57 22.09.2019
1506 Clear 20 1014 30 16093 2.1 110 12:39 22.09.2019
1507 Clear 20 1014 30 16093 2.1 110 12:21 22.09.2019
1508 Clear 20 1014 30 16093 2.1 110 12:21 22.09.2019
1509 Clear 21 1014 30 16093 1.32 78.996 11:56 22.09.2019
1510 Clear 21 1014 30 16093 1.32 78.996 11:56 22.09.2019
1511 Clear 21 1015 52 16093 3.6 170 11:37 22.09.2019
1512 Clear 21 1015 52 16093 3.6 170 11:19 22.09.2019
1513 Clouds 21 1014 26 16093 3.1 200 10:42 22.09.2019
1514 Clouds 21 1014 26 16093 3.1 200 10:42 22.09.2019
1515 Clear 22 1015 30 16093 2.1 180 10:20 22.09.2019
1516 Clear 22 1014 32 16093 1.32 78.996 09:43 22.09.2019
1517 Clear 23 1015 35 16093 3.1 220 09:22 22.09.2019
1518 Clear 23 1013 28 16093 2.6 270 08:58 22.09.2019
1519 Clear 23 1013 28 16093 2.6 270 08:40 22.09.2019
1520 Clear 23 1015 38 16093 2.1 230 08:22 22.09.2019
1521 Clear 24 1013 25 16093 2.1 300 07:44 22.09.2019
1522 Clear 24 1013 25 16093 1.5 330 07:25 22.09.2019
1523 Clear 25 1013 27 16093 2.1 340 06:58 22.09.2019
1524 Clear 26 1014 32 16093 2.6 300 06:34 22.09.2019
1525 Clear 29 1011 23 16093 2.1 330 03:56 22.09.2019
1526 Clear 31 1011 19 16093 4.6 340 02:44 22.09.2019
1527 Clouds 32 1012 29 16093 5.1 320 02:24 22.09.2019
1528 Clouds 32 1012 29 16093 5.7 350 01:36 22.09.2019
1529 Clear 32 1011 21 16093 2.6 300 00:44 22.09.2019
1530 Clouds 32 1012 31 16093 1.5 10 00:26 22.09.2019
1531 Clouds 32 1011 22 16093 5.7 270 23:51 21.09.2019
1532 Clouds 32 1013 33 16093 5.7 330 23:33 21.09.2019
1533 Rain 32 1014 31 16093 2.6 250 22:43 21.09.2019
1534 Rain 32 1014 37 16093 4.86 272.513 22:24 21.09.2019
1535 Clear 31 1013 27 16093 3.6 240 21:58 21.09.2019
1536 Clear 31 1015 42 16093 3.6 260 21:40 21.09.2019
1537 Clear 31 1015 42 16093 3.6 260 21:19 21.09.2019
1538 Clear 30 1014 32 16093 1.5 210 20:41 21.09.2019
1539 Clear 30 1014 32 16093 1.5 210 20:41 21.09.2019
1540 Clear 30 1016 48 16093 4.11 226.066 20:23 21.09.2019
1541 Clear 29 1015 34 16093 4.11 226.066 19:58 21.09.2019
1542 Clear 29 1016 54 16093 2.6 30 19:39 21.09.2019
1543 Clear 29 1016 54 16093 2.6 30 19:18 21.09.2019
1544 Clouds 28 1016 57 16093 1.5 270 18:39 21.09.2019
1545 Clouds 27 1016 57 16093 1.5 270 18:21 21.09.2019
1546 Clear 26 1015 36 16093 2.21 194.878 17:42 21.09.2019
1547 Clear 26 1015 36 16093 2.21 194.878 17:42 21.09.2019
1548 Clear 25 1015 57 16093 2.21 194.878 17:23 21.09.2019
1549 Clear 25 1015 57 16093 2.21 194.878 17:23 21.09.2019
1550 Clear 25 1015 57 16093 2.21 194.878 17:23 21.09.2019
1551 Clear 24 1014 43 16093 2.21 194.878 16:56 21.09.2019
1552 Clouds 23 1015 56 16093 2.21 194.878 16:37 21.09.2019
1553 Clouds 22 1015 56 16093 2.21 194.878 16:18 21.09.2019
1554 Clear 22 1014 59 16093 2.21 194.878 15:42 21.09.2019
1555 Clouds 21 1015 56 16093 2.1 120 15:20 21.09.2019
1556 Clear 21 1014 40 16093 1.11 185.194 14:47 21.09.2019
1557 Clouds 21 1015 53 16093 2.6 150 14:28 21.09.2019
1558 Clear 21 1013 40 16093 1.11 185.194 13:45 21.09.2019
1559 Clouds 22 1015 46 16093 1.5 0 13:25 21.09.2019
1560 Clear 22 1013 43 16093 1.5 140 12:59 21.09.2019
1561 Clouds 22 1014 44 16093 1.5 140 12:41 21.09.2019
1562 Clouds 22 1014 44 16093 1.5 140 12:21 21.09.2019
1563 Clear 22 1013 33 16093 0.67 150.392 11:58 21.09.2019
1564 Clouds 22 1014 41 16093 2.1 130 11:39 21.09.2019
1565 Clouds 22 1014 41 16093 2.1 130 11:19 21.09.2019
1566 Clouds 22 1014 41 16093 0.67 150.392 10:40 21.09.2019
1567 Clouds 23 1014 41 16093 0.67 150.392 10:20 21.09.2019
1568 Clear 23 1012 29 16093 1.5 160 09:57 21.09.2019
1569 Clouds 24 1014 33 16093 2.1 320 09:37 21.09.2019
1570 Clouds 24 1014 33 16093 2.1 320 09:19 21.09.2019
1571 Clear 25 1012 25 16093 3.1 90 08:48 21.09.2019
1572 Clouds 25 1014 29 16093 1.5 310 08:20 21.09.2019
1573 Clouds 26 1012 19 16093 1.5 270 07:40 21.09.2019
1574 Clouds 26 1012 19 16093 1.5 270 07:20 21.09.2019
1575 Clouds 26 1012 19 16093 1.5 270 07:20 21.09.2019
1576 Clouds 27 1013 26 16093 2.1 290 06:36 21.09.2019
1577 Clear 28 1011 21 16093 2.83 242.755 05:51 21.09.2019
1578 Clear 29 1010 17 16093 2.1 270 04:40 21.09.2019
1579 Clear 31 1011 24 16093 4.6 250 03:35 21.09.2019
1580 Clear 33 1009 12 16093 6.2 240 02:25 21.09.2019
1581 Clear 33 1009 12 16093 4.1 240 01:49 21.09.2019
1582 Clouds 34 1011 21 16093 6.2 230 01:25 21.09.2019
1583 Clear 34 1011 21 16093 5.1 250 00:25 21.09.2019
1584 Clear 34 1009 13 16093 7.2 240 23:57 20.09.2019
1585 Clouds 34 1011 21 16093 6.2 210 23:30 20.09.2019
1586 Clouds 34 1011 21 16093 6.2 210 23:30 20.09.2019
1587 Clear 34 1010 14 16093 4.6 260 22:56 20.09.2019
1588 Clear 34 1012 21 16093 6.2 200 22:37 20.09.2019
1589 Clear 34 1012 21 16093 6.2 200 22:19 20.09.2019
1590 Clear 34 1012 21 14484 5.7 250 21:55 20.09.2019
1591 Clear 34 1013 22 16093 6.7 240 21:36 20.09.2019
1592 Clear 33 1013 22 16093 6.7 240 21:18 20.09.2019
1593 Clear 32 1013 22 16093 8.2 170 20:41 20.09.2019
1594 Clear 32 1013 22 16093 8.2 170 20:21 20.09.2019
1595 Clear 32 1012 14 16093 5.7 200 19:57 20.09.2019
1596 Clear 31 1014 23 16093 5.7 140 19:38 20.09.2019
1597 Clear 31 1014 23 16093 5.7 140 19:19 20.09.2019
1598 Clear 29 1014 28 16093 2.6 90 18:39 20.09.2019
1599 Clear 28 1014 28 16093 2.6 90 18:20 20.09.2019
1600 Clear 27 1012 31 16093 3.6 110 17:57 20.09.2019
1601 Clear 26 1013 40 16093 4.1 120 17:39 20.09.2019
1602 Clear 25 1013 40 16093 4.1 120 17:20 20.09.2019
1603 Clear 23 1012 40 16093 3.1 100 16:41 20.09.2019
1604 Clear 23 1012 40 16093 3.1 100 16:41 20.09.2019
1605 Clear 20 1013 49 16093 4.6 120 16:19 20.09.2019
1606 Clear 19 1011 45 16093 1.5 150 15:43 20.09.2019
1607 Clear 19 1011 45 16093 1.5 150 15:43 20.09.2019
1608 Clear 18 1012 59 16093 4.6 130 15:23 20.09.2019
1609 Clear 18 1010 48 16093 2.6 130 14:57 20.09.2019
1610 Clear 18 1012 59 16093 4.6 120 14:38 20.09.2019
1611 Clear 18 1012 59 16093 4.6 120 14:18 20.09.2019
1612 Clear 18 1010 45 16093 2.6 100 13:45 20.09.2019
1613 Clear 19 1012 43 16093 0.98 164.401 13:27 20.09.2019
1614 Clear 19 1010 37 16093 2.1 130 12:56 20.09.2019
1615 Clear 20 1011 59 16093 4.1 100 12:36 20.09.2019
1616 Clear 20 1011 59 16093 4.1 100 12:18 20.09.2019
1617 Clear 20 1011 59 16093 4.1 100 12:18 20.09.2019
1618 Clear 20 1011 59 16093 4.1 100 12:18 20.09.2019
1619 Clear 20 1012 49 16093 2.6 110 11:44 20.09.2019
1620 Clear 21 1012 49 16093 2.6 110 11:19 20.09.2019
1621 Clear 22 1011 46 16093 1.5 150 10:43 20.09.2019
1622 Clear 22 1011 46 16093 1.5 150 10:23 20.09.2019
1623 Clear 23 1011 31 16093 0.72 140.102 09:38 20.09.2019
1624 Clear 23 1011 31 16093 0.42 130.646 09:19 20.09.2019
1625 Clear 24 1009 27 16093 0.42 130.646 08:59 20.09.2019
1626 Clear 24 1009 27 16093 0.42 130.646 08:59 20.09.2019
1627 Clear 24 1011 36 16093 2.6 80 08:39 20.09.2019
1628 Clear 24 1011 36 16093 2.6 80 08:39 20.09.2019
1629 Clear 24 1011 36 16093 2.6 80 08:20 20.09.2019
1630 Clear 25 1009 26 16093 0.42 130.646 07:43 20.09.2019
1631 Clear 24 1009 26 16093 0.16 212.307 07:24 20.09.2019
1632 Clear 26 1008 23 16093 2.6 230 06:44 20.09.2019
1633 Clear 27 1010 30 16093 2.1 220 06:19 20.09.2019
1634 Clear 28 1009 28 16093 2.1 220 05:22 20.09.2019
1635 Clear 32 1009 19 16093 4.6 260 03:30 20.09.2019
1636 Clear 34 1007 12 16093 5.7 230 02:44 20.09.2019
1637 Rain 35 1007 11 16093 6.2 250 01:44 20.09.2019
1638 Clear 36 1007 12 16093 5.7 240 00:46 20.09.2019
1639 Rain 36 1008 13 16093 5.7 240 23:59 19.09.2019
1640 Clouds 35 1010 20 16093 5.7 250 23:41 19.09.2019
1641 Clouds 35 1010 20 16093 5.7 250 23:18 19.09.2019
1642 Clear 35 1009 15 16093 2.6 260 22:41 19.09.2019
1643 Clouds 35 1011 23 16093 3.1 290 22:23 19.09.2019
1644 Clear 35 1010 15 16093 5.33 223.745 21:58 19.09.2019
1645 Clear 35 1012 24 16093 2.6 20 21:39 19.09.2019
1646 Clear 34 1012 24 16093 2.6 20 21:20 19.09.2019
1647 Clear 34 1011 17 16093 3.1 210 20:59 19.09.2019
1648 Clear 33 1011 17 16093 3.1 210 20:40 19.09.2019
1649 Clear 33 1013 24 16093 3.1 320 20:19 19.09.2019
1650 Clear 33 1012 16 16093 3.6 200 19:55 19.09.2019
1651 Clear 32 1012 19 16093 4.1 180 19:37 19.09.2019
1652 Clear 32 1012 19 16093 4.1 180 19:18 19.09.2019
1653 Clear 31 1012 28 16093 1.5 210 18:42 19.09.2019
1654 Clear 30 1012 28 16093 1.5 210 18:23 19.09.2019
1655 Clear 28 1012 32 16093 2.6 100 17:44 19.09.2019
1656 Clear 27 1014 39 16093 5.1 130 17:25 19.09.2019
1657 Clouds 26 1012 38 16093 4.1 100 16:59 19.09.2019
1658 Clouds 26 1012 38 16093 4.1 100 16:59 19.09.2019
1659 Clouds 25 1012 38 16093 4.1 100 16:40 19.09.2019
1660 Clear 23 1014 46 16093 3.1 130 16:20 19.09.2019
1661 Clear 22 1013 46 16093 4.1 120 15:41 19.09.2019
1662 Clear 21 1013 46 16093 4.1 120 15:22 19.09.2019
1663 Clear 21 1012 53 16093 1.5 100 14:58 19.09.2019
1664 Clear 21 1013 49 16093 4.1 100 14:39 19.09.2019
1665 Clear 21 1013 49 16093 4.1 100 14:20 19.09.2019
1666 Clouds 22 1012 49 16093 0.23 134.653 13:40 19.09.2019
1667 Clear 22 1013 53 16093 3.6 100 13:22 19.09.2019
1668 Clear 22 1012 38 16093 0.61 31.044 12:59 19.09.2019
1669 Clouds 22 1013 53 16093 3.6 120 12:36 19.09.2019
1670 Clouds 23 1013 53 16093 3.6 120 12:18 19.09.2019
1671 Clear 23 1013 53 16093 3.1 110 11:41 19.09.2019
1672 Clear 23 1013 53 16093 3.1 110 11:22 19.09.2019
1673 Clear 24 1012 36 16093 2.6 110 10:58 19.09.2019
1674 Clear 24 1012 36 16093 2.6 110 10:58 19.09.2019
1675 Clear 24 1013 47 16093 3.1 130 10:38 19.09.2019
1676 Clear 24 1013 47 16093 3.1 130 10:20 19.09.2019
1677 Clear 24 1012 36 16093 2.6 100 09:55 19.09.2019
1678 Clear 24 1014 50 16093 2.6 130 09:37 19.09.2019
1679 Clear 25 1014 50 16093 2.6 130 09:18 19.09.2019
1680 Clear 25 1012 34 16093 2.1 100 08:48 19.09.2019
1681 Clear 26 1014 39 16093 2.6 170 08:22 19.09.2019
1682 Clear 27 1012 34 16093 3.1 180 07:43 19.09.2019
1683 Clear 27 1012 34 16093 3.1 180 07:22 19.09.2019
1684 Clear 27 1012 30 16093 2.6 200 06:49 19.09.2019
1685 Clear 27 1013 44 16093 3.6 230 06:29 19.09.2019
1686 Clouds 28 1011 26 16093 3.6 220 05:53 19.09.2019
1687 Clouds 28 1013 27 16093 0.78 299.635 05:31 19.09.2019
1688 Clear 32 1010 14 16093 2.1 320 03:54 19.09.2019
1689 Clear 33 1012 21 16093 4.1 330 03:18 19.09.2019
1690 Clear 36 1012 20 16093 2.6 20 01:34 19.09.2019
1691 Clear 36 1011 12 16093 4.1 260 00:51 19.09.2019
1692 Clear 36 1013 19 16093 2.1 0 00:26 19.09.2019
1693 Clear 36 1014 20 16093 2.1 0 23:42 18.09.2019
1694 Clear 36 1014 20 16093 2.1 0 23:22 18.09.2019
1695 Clear 36 1012 15 16093 4.1 210 22:55 18.09.2019
1696 Clear 36 1012 15 16093 4.1 210 22:55 18.09.2019
1697 Clear 36 1015 24 16093 3.33 262.6 22:37 18.09.2019
1698 Clear 36 1015 24 16093 3.33 262.6 22:18 18.09.2019
1699 Clear 35 1013 19 16093 3.33 262.6 21:55 18.09.2019
1700 Clear 35 1015 27 16093 1.5 340 21:37 18.09.2019
1701 Clear 34 1015 27 16093 1.5 340 21:18 18.09.2019
1702 Clear 34 1014 21 16093 1.5 170 20:55 18.09.2019
1703 Clear 34 1014 22 16093 1.5 250 20:37 18.09.2019
1704 Clear 33 1014 22 16093 1.5 250 20:18 18.09.2019
1705 Clear 33 1015 27 16093 1.5 270 19:41 18.09.2019
1706 Clear 32 1015 27 16093 1.5 270 19:20 18.09.2019
1707 Clear 31 1015 30 16093 3.1 90 18:57 18.09.2019
1708 Clear 30 1016 39 16093 3.34 213.1 18:38 18.09.2019
1709 Clear 30 1016 39 16093 3.34 213.1 18:38 18.09.2019
1710 Clear 29 1016 39 16093 2.13 162.092 18:20 18.09.2019
1711 Clear 28 1014 39 16093 4.6 110 17:59 18.09.2019
1712 Clear 27 1016 47 16093 3.1 150 17:40 18.09.2019
1713 Clear 26 1016 47 16093 3.1 150 17:19 18.09.2019
1714 Clear 25 1014 50 16093 3.6 110 16:57 18.09.2019
1715 Clear 23 1016 56 16093 5.1 150 16:38 18.09.2019
1716 Clear 22 1016 56 16093 5.1 150 16:20 18.09.2019
1717 Clear 20 1013 56 16093 4.6 100 15:56 18.09.2019
1718 Clear 20 1013 56 16093 4.6 100 15:56 18.09.2019
1719 Clear 20 1015 68 16093 1.5 150 15:38 18.09.2019
1720 Clear 20 1015 68 16093 1.5 150 15:19 18.09.2019
1721 Clear 20 1013 53 16093 4.6 100 14:57 18.09.2019
1722 Clear 20 1015 60 16093 3.1 140 14:39 18.09.2019
1723 Clear 20 1015 60 16093 3.1 140 14:21 18.09.2019
1724 Clear 20 1013 53 16093 3.6 100 13:54 18.09.2019
1725 Clear 20 1015 60 16093 4.1 150 13:36 18.09.2019
1726 Clear 21 1015 56 16093 4.1 140 13:18 18.09.2019
1727 Clear 21 1015 60 16093 4.1 170 12:37 18.09.2019
1728 Clear 21 1015 60 16093 3.1 140 12:19 18.09.2019
1729 Clear 22 1015 60 16093 4.1 120 11:40 18.09.2019
1730 Clear 22 1015 60 16093 4.1 120 11:20 18.09.2019
1731 Clear 22 1013 47 16093 2.1 100 10:41 18.09.2019
1732 Clear 23 1015 50 16093 3.1 150 10:23 18.09.2019
1733 Clear 23 1015 50 16093 3.1 150 10:23 18.09.2019
1734 Clear 23 1015 50 16093 3.1 150 10:23 18.09.2019
1735 Clear 23 1015 50 16093 3.1 150 10:23 18.09.2019
1736 Clear 23 1013 50 16093 1.85 182.134 09:59 18.09.2019
1737 Clear 23 1015 64 16093 2.6 170 09:41 18.09.2019
1738 Clear 23 1015 64 16093 2.6 170 09:22 18.09.2019
1739 Clear 24 1013 54 16093 2.1 60 08:56 18.09.2019
1740 Clear 24 1015 47 16093 2.28 163.255 08:38 18.09.2019
1741 Clear 24 1015 47 16093 2.28 163.255 08:18 18.09.2019
1742 Clear 24 1015 47 16093 2.28 163.255 08:18 18.09.2019
1743 Clouds 25 1013 44 16093 2.1 160 07:43 18.09.2019
1744 Clouds 26 1013 39 16093 2.28 163.255 07:23 18.09.2019
1745 Clear 26 1012 39 16093 1.5 10 06:42 18.09.2019
1746 Clear 26 1012 42 16093 2.1 10 05:58 18.09.2019
1747 Clear 27 1014 42 16093 1.5 80 05:22 18.09.2019
1748 Clear 32 1013 27 16093 4.1 350 03:25 18.09.2019
1749 Clear 33 1013 24 16093 4.1 350 02:40 18.09.2019
1750 Clear 34 1014 27 16093 2.6 360 01:35 18.09.2019
1751 Clear 34 1014 27 16093 2.6 260 00:51 18.09.2019
1752 Clear 34 1014 27 16093 2.6 260 00:28 18.09.2019
1753 Clear 34 1015 27 16093 2.6 330 23:47 17.09.2019
1754 Clear 34 1015 27 16093 2.6 330 23:23 17.09.2019
1755 Clear 34 1015 27 16093 2.6 330 23:23 17.09.2019
1756 Clear 33 1016 33 16093 2.6 240 22:45 17.09.2019
1757 Clear 33 1016 33 16093 2.6 240 22:25 17.09.2019
1758 Clear 33 1017 33 16093 1.5 0 21:56 17.09.2019
1759 Clear 32 1017 37 16093 3.14 261.117 21:37 17.09.2019
1760 Clear 32 1017 37 16093 2.7 250.086 21:19 17.09.2019
1761 Clear 32 1017 37 16093 2.7 250.086 21:19 17.09.2019
1762 Clear 32 1017 37 16093 2.7 250.086 21:19 17.09.2019
1763 Clear 32 1017 37 16093 2.7 250.086 21:19 17.09.2019
1764 Clear 31 1017 37 16093 2.6 50 20:59 17.09.2019
1765 Clear 31 1017 37 16093 2.6 50 20:41 17.09.2019
1766 Clear 31 1017 37 16093 2.42 254.591 20:22 17.09.2019
1767 Clear 31 1017 37 16093 2.42 254.591 20:22 17.09.2019
1768 Clear 30 1017 41 0 2.42 254.591 19:59 17.09.2019
1769 Clear 29 1018 51 16093 2.6 110 19:39 17.09.2019
1770 Clear 29 1018 47 16093 1.5 130 19:20 17.09.2019
1771 Clear 28 1010 48 0 1.34 342 18:58 17.09.2019
1772 Clear 28 1010 48 0 1.34 342 18:58 17.09.2019
1773 Clear 27 1018 53 16093 4.6 160 18:40 17.09.2019
1774 Clear 26 1018 53 16093 4.6 160 18:21 17.09.2019
1775 Clear 24 1018 68 11265 3.1 190 17:46 17.09.2019
1776 Clear 23 1018 68 11265 3.1 190 17:21 17.09.2019
1777 Clear 23 1018 68 11265 3.1 190 17:20 17.09.2019
1778 Rain 22 1017 82 16093 2.1 180 16:59 17.09.2019
1779 Clear 21 1017 88 16093 2.6 130 16:40 17.09.2019
1780 Clear 19 1017 82 16093 2.1 180 16:22 17.09.2019
1781 Clear 18 1016 88 16093 3.1 150 15:40 17.09.2019
1782 Clear 18 1016 88 16093 3.1 150 15:22 17.09.2019
1783 Clear 18 1016 82 16093 1.5 190 14:58 17.09.2019
1784 Clear 18 1016 82 16093 1.5 190 14:40 17.09.2019
1785 Clear 18 1016 82 16093 1.5 190 14:21 17.09.2019
1786 Clear 18 1016 82 16093 3.6 180 13:59 17.09.2019
1787 Clear 18 1016 82 16093 3.6 180 13:40 17.09.2019
1788 Clear 18 1016 82 16093 3.6 180 13:22 17.09.2019
1789 Clear 18 1015 82 16093 2.6 170 12:43 17.09.2019
1790 Clear 18 1015 82 16093 2.6 170 12:20 17.09.2019
1791 Clear 18 1015 82 16093 2.6 140 11:57 17.09.2019
1792 Clear 18 1015 82 16093 2.6 140 11:38 17.09.2019
1793 Clear 19 1015 82 16093 2.6 140 11:18 17.09.2019
1794 Clear 19 1015 82 16093 2.6 140 11:18 17.09.2019
1795 Clear 19 1016 77 16093 2.6 120 10:42 17.09.2019
1796 Clear 19 1016 77 16093 2.6 120 10:22 17.09.2019
1797 Clouds 19 1016 77 16093 3.1 150 09:58 17.09.2019
1798 Clouds 19 1016 77 16093 3.1 150 09:39 17.09.2019
1799 Clouds 19 1016 77 16093 3.1 150 09:19 17.09.2019
1800 Clouds 19 1016 77 16093 3.1 150 09:19 17.09.2019
1801 Clouds 20 1016 68 16093 3.6 150 08:44 17.09.2019
1802 Clouds 20 1016 68 16093 3.6 150 08:25 17.09.2019
1803 Clouds 20 1016 68 16093 3.6 150 08:25 17.09.2019
1804 Clouds 20 1017 77 16093 6.2 90 07:46 17.09.2019
1805 Clouds 20 1017 77 16093 6.2 90 07:28 17.09.2019
1806 Clouds 20 1017 82 16093 4.6 120 06:57 17.09.2019
1807 Clouds 20 1017 82 16093 4.6 120 06:36 17.09.2019
1808 Rain 20 1017 82 16093 6.7 140 05:54 17.09.2019
1809 Rain 20 1018 82 9656 1.5 300 04:56 17.09.2019
1810 Rain 21 1017 56 16093 4.6 340 03:49 17.09.2019
1811 Rain 21 1017 56 16093 4.6 340 03:49 17.09.2019
1812 Rain 22 1016 57 16093 6.2 350 02:40 17.09.2019
1813 Drizzle 23 1016 73 16093 5.1 310 01:50 17.09.2019
1814 Clear 27 1012 32 16093 5.7 310 00:56 17.09.2019
1815 Clouds 32 1015 45 16093 2.6 170 23:42 16.09.2019
1816 Clouds 32 1015 45 16093 2.6 170 23:20 16.09.2019
1817 Thunderstorm 32 1013 27 16093 3.32 250.035 22:59 16.09.2019
1818 Thunderstorm 32 1013 27 16093 3.32 250.035 22:40 16.09.2019
1819 Thunderstorm 31 1015 42 16093 3.1 260 22:22 16.09.2019
1820 Thunderstorm 31 1016 43 16093 2.6 0 21:57 16.09.2019
1821 Thunderstorm 31 1016 43 16093 2.6 0 21:38 16.09.2019
1822 Clear 31 1016 43 16093 2.6 0 21:38 16.09.2019
1823 Clear 31 1016 43 16093 2.6 0 21:20 16.09.2019
1824 Clear 31 1016 43 16093 2.6 0 21:20 16.09.2019
1825 Clear 32 1015 33 16093 1.5 110 20:42 16.09.2019
1826 Clear 32 1017 48 16093 2.18 220.179 20:23 16.09.2019
1827 Clear 31 1016 35 16093 2.18 220.179 19:58 16.09.2019
1828 Clear 31 1016 35 16093 1.5 210 19:40 16.09.2019
1829 Clear 31 1016 35 16093 1.5 210 19:20 16.09.2019
1830 Clear 30 1016 37 16093 3.1 120 18:56 16.09.2019
1831 Clear 29 1016 37 16093 3.1 130 18:37 16.09.2019
1832 Clear 29 1016 37 16093 3.1 130 18:18 16.09.2019
1833 Clear 27 1016 42 16093 3.6 110 17:43 16.09.2019
1834 Clear 26 1017 61 16093 4.1 120 17:24 16.09.2019
1835 Clear 25 1016 47 16093 0.87 143.725 16:58 16.09.2019
1836 Clear 24 1017 64 16093 5.7 120 16:38 16.09.2019
1837 Clear 23 1017 64 16093 5.7 120 16:20 16.09.2019
1838 Clear 22 1015 56 16093 1.5 100 15:56 16.09.2019
1839 Clear 22 1016 68 16093 5.1 110 15:37 16.09.2019
1840 Clear 21 1016 68 16093 5.1 110 15:18 16.09.2019
1841 Clear 21 1014 47 16093 3.6 110 14:44 16.09.2019
1842 Clear 21 1016 64 16093 6.2 100 14:23 16.09.2019
1843 Clear 22 1014 47 16093 3.1 150 13:58 16.09.2019
1844 Clear 22 1014 50 16093 4.1 110 13:38 16.09.2019
1845 Clear 22 1014 50 16093 4.1 110 13:20 16.09.2019
1846 Clear 22 1014 50 16093 4.1 110 13:20 16.09.2019
1847 Clear 23 1014 50 16093 5.1 100 12:43 16.09.2019
1848 Clear 23 1014 50 16093 6.2 90 12:25 16.09.2019
1849 -273 0 0 0 0 0 12:25 16.09.2019
1850 Clear 23 1014 50 16093 6.2 90 12:25 16.09.2019
1851 Clear 23 1014 53 16093 1.38 113.117 11:55 16.09.2019
1852 Clear 23 1016 64 16093 4.1 120 11:37 16.09.2019
1853 Clear 23 1016 64 16093 4.1 120 11:19 16.09.2019
1854 Clear 23 1016 64 16093 5.7 90 10:38 16.09.2019
1855 Clear 23 1016 64 16093 5.7 90 10:19 16.09.2019
1856 Clear 23 1014 41 16093 1.38 113.117 09:57 16.09.2019
1857 Clear 24 1016 65 16093 6.2 100 09:38 16.09.2019
1858 Clear 24 1016 65 16093 6.2 100 09:19 16.09.2019
1859 Clear 24 1014 36 16093 1.5 100 08:44 16.09.2019
1860 Clear 24 1015 61 16093 5.1 100 08:25 16.09.2019
1861 Clear 25 1013 36 16093 2.1 120 07:56 16.09.2019
1862 Clear 25 1013 34 16093 2.46 84.987 07:37 16.09.2019
1863 Clear 25 1013 34 16093 2.46 84.987 07:18 16.09.2019
1864 Clear 25 1013 36 16093 2.1 120 06:43 16.09.2019
1865 Clear 26 1015 65 16093 2.46 84.987 06:25 16.09.2019
1866 Clear 27 1013 34 16093 1.81 9.228 05:44 16.09.2019
1867 Clear 27 1014 51 16093 1.81 9.228 05:25 16.09.2019
1868 Clear 30 1012 25 16093 2.6 280 03:52 16.09.2019
1869 Clear 33 1012 24 16093 4.6 320 01:57 16.09.2019
1870 Clear 32 1014 42 16093 2.6 260 00:40 16.09.2019
1871 Clear 32 1014 42 16093 2.6 260 00:22 16.09.2019
1872 Clear 31 1015 48 16093 2.1 230 23:39 15.09.2019
1873 Clear 31 1015 48 16093 2.1 230 23:20 15.09.2019
1874 Clouds 31 1014 33 16093 2.1 330 22:42 15.09.2019
1875 Clear 30 1016 54 16093 3.86 260.074 22:21 15.09.2019
1876 Clear 30 1015 37 16093 2.6 140 21:58 15.09.2019
1877 Clear 29 1017 57 16093 3.1 140 21:40 15.09.2019
1878 Clear 29 1017 57 16093 3.1 140 21:40 15.09.2019
1879 Clear 29 1017 57 16093 3.1 140 21:21 15.09.2019
1880 Clouds 28 1017 65 16093 4.1 100 20:57 15.09.2019
1881 Clouds 28 1017 65 16093 4.1 100 20:57 15.09.2019
1882 Clouds 28 1018 69 16093 4.6 90 20:39 15.09.2019
1883 Clouds 27 1018 69 16093 4.6 90 20:21 15.09.2019
1884 Clear 26 1016 44 16093 4.1 100 19:44 15.09.2019
1885 Clear 25 1016 47 16093 6.2 120 19:23 15.09.2019
1886 Clear 25 1016 50 16093 6.2 120 18:55 15.09.2019
1887 Clear 24 1016 57 16093 5.1 120 18:36 15.09.2019
1888 Clear 23 1016 57 16093 5.1 120 18:18 15.09.2019
1889 Rain 22 1018 88 16093 4.1 70 17:40 15.09.2019
1890 Rain 22 1018 88 16093 4.1 70 17:20 15.09.2019
1891 Rain 21 1017 94 16093 3.6 70 16:44 15.09.2019
1892 Rain 21 1017 94 16093 4.6 50 16:26 15.09.2019
1893 Rain 21 1015 60 16093 3.6 100 15:59 15.09.2019
1894 Rain 21 1015 60 16093 3.6 100 15:41 15.09.2019
1895 Rain 21 1017 94 12874 4.1 90 15:20 15.09.2019
1896 Rain 22 1017 82 4828 4.1 50 14:58 15.09.2019
1897 Rain 22 1017 82 4828 4.1 50 14:39 15.09.2019
1898 Rain 22 1016 88 16093 6.2 110 14:20 15.09.2019
1899 Rain 23 1016 73 16093 5.7 110 13:46 15.09.2019
1900 Rain 23 1015 53 16093 1.5 150 13:24 15.09.2019
1901 Clear 23 1015 53 16093 1.25 75.217 12:56 15.09.2019
1902 Clear 23 1015 50 16093 2.6 220 12:38 15.09.2019
1903 Clear 23 1015 50 16093 2.6 220 12:18 15.09.2019
1904 Clouds 23 1015 47 16093 4.1 110 11:42 15.09.2019
1905 Clouds 23 1017 73 16093 8.2 90 11:22 15.09.2019
1906 Clear 24 1015 47 16093 3.1 60 10:56 15.09.2019
1907 Clouds 24 1017 57 16093 6.7 100 10:38 15.09.2019
1908 Clouds 24 1017 57 16093 6.7 100 10:20 15.09.2019
1909 Drizzle 24 1017 60 16093 5.7 110 09:40 15.09.2019
1910 Drizzle 24 1017 60 16093 5.7 110 09:20 15.09.2019
1911 Clear 25 1016 41 16093 1.5 90 08:48 15.09.2019
1912 Clouds 25 1018 60 16093 3.1 120 08:29 15.09.2019
1913 Clear 25 1016 36 16093 5.7 80 07:51 15.09.2019
1914 Clear 24 1016 36 16093 5.7 120 07:33 15.09.2019
1915 Clear 25 1016 36 16093 5.7 140 06:43 15.09.2019
1916 Clouds 26 1018 39 16093 8.7 70 03:54 15.09.2019
1917 Clouds 28 1015 26 16093 8.2 90 02:46 15.09.2019
1918 Clouds 29 1015 22 16093 9.8 140 01:49 15.09.2019
1919 Clear 29 1016 37 16093 9.8 50 01:28 15.09.2019
1920 Clouds 30 1014 19 16093 13.9 140 00:50 15.09.2019
1921 Clouds 30 1017 31 16093 11.3 40 00:24 15.09.2019
1922 Clouds 31 1017 31 16093 8.2 70 23:59 14.09.2019
1923 Clear 31 1017 33 16093 9.8 110 23:41 14.09.2019
1924 Clear 31 1017 33 16093 9.8 110 23:22 14.09.2019
1925 Clouds 32 1015 18 16093 13.9 130 22:59 14.09.2019
1926 Clouds 32 1015 18 16093 13.9 130 22:59 14.09.2019
1927 Clouds 31 1015 18 16093 13.9 130 22:41 14.09.2019
1928 Clouds 32 1018 29 16093 9.8 60 22:21 14.09.2019
1929 Clouds 32 1015 16 16093 9.8 130 21:59 14.09.2019
1930 Clear 32 1018 27 16093 8.2 110 21:39 14.09.2019
1931 Clear 33 1018 27 16093 8.2 110 21:20 14.09.2019
1932 Clouds 33 1016 17 16093 7.7 130 20:56 14.09.2019
1933 Clear 33 1019 27 16093 4.6 70 20:38 14.09.2019
1934 Clear 32 1019 27 16093 4.6 70 20:19 14.09.2019
1935 Clear 32 1017 18 16093 5.7 130 19:45 14.09.2019
1936 Clear 32 1017 19 16093 5.1 120 19:21 14.09.2019
1937 Clear 31 1017 21 16093 6.7 120 18:57 14.09.2019
1938 Clear 30 1017 23 16093 5.7 120 18:37 14.09.2019
1939 Clear 30 1017 23 16093 5.7 120 18:19 14.09.2019
1940 Clear 29 1017 28 16093 4.1 100 17:43 14.09.2019
1941 Clear 28 1019 37 16093 7.7 120 17:22 14.09.2019
1942 Clear 27 1017 34 16093 3.1 100 16:47 14.09.2019
1943 Clear 26 1018 39 16093 5.7 90 16:26 14.09.2019
1944 Clear 25 1017 32 16093 3.1 90 15:58 14.09.2019
1945 Clear 25 1018 39 16093 6.7 110 15:40 14.09.2019
1946 Clear 25 1018 39 16093 6.7 110 15:20 14.09.2019
1947 Clear 25 1016 32 16093 4.6 140 14:44 14.09.2019
1948 Clear 25 1018 44 16093 5.1 130 14:19 14.09.2019
1949 Clear 25 1016 34 16093 2.6 110 13:48 14.09.2019
1950 Clear 26 1016 32 16093 4.99 77.357 13:24 14.09.2019
1951 Clear 26 1016 34 16093 1.5 20 12:59 14.09.2019
1952 Clear 26 1016 32 16093 1.5 70 12:38 14.09.2019
1953 Clear 26 1016 32 16093 1.5 70 12:18 14.09.2019
1954 Clouds 27 1017 34 16093 7.7 110 11:40 14.09.2019
1955 Clouds 27 1017 34 16093 7.7 110 11:19 14.09.2019
1956 Clouds 27 1017 39 16093 6.7 110 10:39 14.09.2019
1957 Clouds 28 1017 39 16093 6.7 110 10:21 14.09.2019
1958 Clear 28 1015 27 16093 8.2 130 09:57 14.09.2019
1959 Clouds 28 1017 37 16093 7.7 110 09:39 14.09.2019
1960 Clouds 28 1017 37 16093 7.7 110 09:19 14.09.2019
1961 Clear 29 1015 25 16093 9.8 130 08:47 14.09.2019
1962 Clouds 29 1017 37 16093 10.3 120 08:25 14.09.2019
1963 Clear 30 1014 22 16093 9.8 140 07:48 14.09.2019
1964 Clear 31 1014 22 16093 4.1 130 07:28 14.09.2019
1965 Clear 31 1014 22 16093 4.1 130 07:28 14.09.2019
1966 Clear 30 1014 19 16093 2.1 130 06:52 14.09.2019
1967 Clear 30 1014 19 16093 3.1 180 06:29 14.09.2019
1968 Clear 30 1015 29 16093 2.6 70 05:26 14.09.2019
1969 Clear 31 1015 24 16093 4.6 120 03:46 14.09.2019
1970 Clear 34 1012 11 16093 2.6 320 02:54 14.09.2019
1971 Clear 35 1012 11 16093 5.7 300 01:54 14.09.2019
1972 Clouds 35 1014 23 16093 6.2 50 01:23 14.09.2019
1973 Clouds 35 1014 23 16093 6.2 50 01:23 14.09.2019
1974 Drizzle 36 1014 21 16093 7.29 179.418 00:59 14.09.2019
1975 Clear 36 1012 12 16093 4.1 310 00:39 14.09.2019
1976 Clear 37 1012 12 16093 4.1 310 00:20 14.09.2019
1977 Clouds 37 1015 17 16093 4.6 30 23:38 13.09.2019
1978 Clouds 37 1015 17 16093 4.6 30 23:19 13.09.2019
1979 Clear 37 1013 11 16093 3.1 320 22:59 13.09.2019
1980 Clear 38 1015 18 16093 1.5 340 22:38 13.09.2019
1981 Clear 38 1015 18 16093 1.5 340 22:20 13.09.2019
1982 Clear 38 1015 12 16093 3.1 330 21:54 13.09.2019
1983 Clear 38 1016 18 16093 3.1 290 21:36 13.09.2019
1984 Clear 36 1016 18 16093 3.1 290 21:18 13.09.2019
1985 Clear 36 1017 17 16093 2.1 210 20:41 13.09.2019
1986 Clear 35 1017 17 16093 2.1 210 20:21 13.09.2019
1987 Clear 35 1018 22 16093 2.6 170 19:58 13.09.2019
1988 Clear 34 1018 22 16093 2.6 170 19:40 13.09.2019
1989 Clear 33 1016 15 16093 1.5 250 19:19 13.09.2019
1990 Clouds 32 1016 23 0 1.65 248.953 18:57 13.09.2019
1991 Clear 31 1018 26 16093 1.65 248.953 18:37 13.09.2019
1992 Clear 30 1018 26 16093 1.12 104.79 18:18 13.09.2019
1993 Clouds 30 1017 26 0 1.12 104.79 18:18 13.09.2019
1994 Clear 29 1017 30 16093 2.1 160 17:41 13.09.2019
1995 Clear 27 1017 30 16093 2.1 160 17:19 13.09.2019
1996 Clear 26 1016 29 16093 3.1 100 16:43 13.09.2019
1997 Clear 23 1017 35 16093 3.1 130 16:22 13.09.2019
1998 Clear 21 1015 33 16093 2.6 110 15:59 13.09.2019
1999 Clear 21 1017 40 16093 3.1 110 15:40 13.09.2019
2000 Clear 21 1017 40 16093 3.1 110 15:20 13.09.2019
2001 Clear 21 1015 33 16093 3.6 110 14:44 13.09.2019
2002 Clear 21 1016 40 16093 3.6 160 14:22 13.09.2019
2003 Clear 21 1015 28 16093 2.6 110 13:56 13.09.2019
2004 Clear 21 1015 32 16093 2.1 90 13:37 13.09.2019
2005 Clear 22 1015 32 16093 2.1 90 13:18 13.09.2019
2006 Clear 22 1014 32 16093 1.5 80 12:41 13.09.2019
2007 Clear 22 1014 32 16093 1.5 80 12:23 13.09.2019
2008 Clear 23 1014 30 16093 2.1 110 11:56 13.09.2019
2009 Clear 23 1016 35 16093 2.6 150 11:20 13.09.2019
2010 Clear 24 1014 31 16093 2.6 220 10:41 13.09.2019
2011 Clear 24 1016 31 16093 2.6 140 10:20 13.09.2019
2012 Clear 24 1015 27 16093 1.56 72.369 09:46 13.09.2019
2013 Clear 25 1016 29 16093 2.6 180 09:25 13.09.2019
2014 Clear 25 1015 25 16093 2.97 44.809 08:59 13.09.2019
2015 Clear 26 1015 25 16093 2.98 50.293 08:40 13.09.2019
2016 Clear 26 1016 24 16093 2.1 190 08:21 13.09.2019
2017 Clear 27 1014 24 16093 2.98 50.293 07:52 13.09.2019
2018 Clear 27 1014 22 16093 2.98 50.293 07:34 13.09.2019
2019 Clear 28 1015 22 16093 2.98 50.293 06:48 13.09.2019
2020 Clear 30 1014 19 16093 2 357.1 05:49 13.09.2019
2021 Clear 32 1014 17 16093 3.1 310 04:59 13.09.2019
2022 Clear 32 1014 21 16093 6.2 320 03:40 13.09.2019
2023 Clear 34 1014 21 16093 5.1 320 02:21 13.09.2019
2024 Clear 35 1013 14 16093 6.2 290 01:59 13.09.2019
2025 Clear 35 1013 15 16093 6.7 300 01:34 13.09.2019
2026 Clear 36 1013 15 16093 7.7 300 00:47 13.09.2019
2027 Clear 36 1014 15 16093 6.7 300 00:21 13.09.2019
2028 Clear 35 1016 26 16093 1.5 10 23:38 12.09.2019
2029 Clear 35 1016 26 16093 1.5 10 23:19 12.09.2019
2030 Clear 35 1015 17 16093 5.7 320 22:42 12.09.2019
2031 Clear 35 1017 29 16093 2.1 320 22:23 12.09.2019
2032 Clear 35 1016 19 16093 4.6 320 21:57 12.09.2019
2033 Clear 34 1018 31 16093 3.1 360 21:38 12.09.2019
2034 Clear 33 1018 31 16093 3.1 360 21:20 12.09.2019
2035 Clear 33 1017 25 16093 3.6 320 20:56 12.09.2019
2036 Clear 32 1019 31 16093 1.79 1.375 20:38 12.09.2019
2037 Clear 32 1019 31 16093 1.79 1.375 20:19 12.09.2019
2038 Clear 32 1017 28 16093 3.1 290 19:54 12.09.2019
2039 Clear 31 1017 30 16093 1.5 230 19:36 12.09.2019
2040 Clear 31 1017 30 16093 1.5 230 19:36 12.09.2019
2041 Clear 31 1017 30 16093 1.5 230 19:18 12.09.2019
2042 Clear 29 1018 36 16093 1.79 1.375 18:37 12.09.2019
2043 Clear 28 1018 36 16093 1.29 28.968 18:19 12.09.2019
2044 Clear 28 1017 39 16093 1.29 28.968 17:56 12.09.2019
2045 Clear 27 1018 57 16093 1.29 28.968 17:38 12.09.2019
2046 Clear 26 1018 57 16093 1.29 28.968 17:19 12.09.2019
2047 Clear 24 1017 46 16093 1.29 28.968 16:41 12.09.2019
2048 Clear 23 1018 64 16093 3.1 120 16:21 12.09.2019
2049 Clear 22 1017 56 16093 1.29 28.968 15:43 12.09.2019
2050 Clear 20 1018 68 16093 2.6 160 15:24 12.09.2019
2051 Clear 21 1016 56 11265 1.45 34.38 14:58 12.09.2019
2052 Clear 21 1018 73 16093 2.6 200 14:39 12.09.2019
2053 Clear 21 1018 73 16093 2.6 200 14:20 12.09.2019
2054 Clear 21 1017 64 16093 2.1 210 13:39 12.09.2019
2055 Clear 22 1017 64 16093 2.1 210 13:21 12.09.2019
2056 Clear 22 1016 53 16093 0.81 41.775 12:49 12.09.2019
2057 Clear 22 1017 60 16093 2.6 130 12:20 12.09.2019
2058 Clear 22 1016 56 16093 2.1 250 11:58 12.09.2019
2059 Clear 22 1016 56 16093 2.1 250 11:58 12.09.2019
2060 Clear 22 1016 56 16093 2.1 250 11:58 12.09.2019
2061 Clear 23 1017 50 16093 1.23 281.565 11:40 12.09.2019
2062 Clear 23 1017 50 16093 1.23 281.565 11:21 12.09.2019
2063 Clear 23 1016 49 16093 1.5 200 10:50 12.09.2019
2064 Clear 23 1017 50 16093 2.1 210 10:28 12.09.2019
2065 Clear 24 1017 47 16093 3.6 200 09:57 12.09.2019
2066 Clear 24 1017 47 16093 3.6 200 09:39 12.09.2019
2067 Clear 25 1017 47 16093 3.6 200 09:20 12.09.2019
2068 Clear 25 1015 38 16093 2.6 230 08:44 12.09.2019
2069 Clear 26 1017 41 16093 2.1 230 08:23 12.09.2019
2070 Clear 26 1015 32 16093 1.52 195.93 07:54 12.09.2019
2071 Clouds 27 1015 30 16093 1.52 195.93 07:36 12.09.2019
2072 Clouds 27 1015 30 16093 1.52 195.93 07:18 12.09.2019
2073 Clouds 28 1015 30 16093 1.52 195.93 06:44 12.09.2019
2074 Clouds 28 1014 30 16093 1.5 340 05:54 12.09.2019
2075 Clear 29 1015 33 16093 3.1 340 05:36 12.09.2019
2076 Clouds 30 1013 25 16093 2.6 350 04:45 12.09.2019
2077 Clouds 32 1014 27 16093 5.1 320 03:23 12.09.2019
2078 Clear 33 1013 24 16093 4.1 330 01:43 12.09.2019
2079 Clouds 33 1014 27 16093 2.1 280 01:23 12.09.2019
2080 Clear 34 1013 22 16093 2.6 40 00:47 12.09.2019
2081 Clear 34 1013 21 16093 2.1 40 00:27 12.09.2019
2082 Clouds 33 1013 24 16093 2.1 200 23:43 11.09.2019
2083 Clouds 33 1015 33 16093 3.1 350 23:25 11.09.2019
2084 Clouds 33 1015 29 16093 2.6 270 22:58 11.09.2019
2085 Clouds 33 1017 29 16093 2.6 0 22:38 11.09.2019
2086 Clouds 32 1017 29 16093 2.6 0 22:19 11.09.2019
2087 Clouds 32 1016 29 16093 4.6 200 21:57 11.09.2019
2088 Clouds 32 1017 35 16093 4.6 230 21:38 11.09.2019
2089 Clouds 32 1017 35 16093 4.6 230 21:38 11.09.2019
2090 Clouds 32 1017 35 16093 4.6 230 21:38 11.09.2019
2091 Clouds 31 1016 35 16093 4.1 160 21:19 11.09.2019
2092 Clouds 31 1016 35 16093 4.1 160 20:54 11.09.2019
2093 Clear 30 1018 48 16093 5.1 190 20:36 11.09.2019
2094 Clear 30 1018 48 16093 5.1 190 20:18 11.09.2019
2095 Clouds 29 1017 37 16093 3.6 180 19:54 11.09.2019
2096 Clouds 29 1017 37 16093 3.6 180 19:54 11.09.2019
2097 Clouds 29 1019 45 16093 6.2 170 19:36 11.09.2019
2098 Clouds 28 1019 45 16093 6.2 170 19:18 11.09.2019
2099 Clouds 27 1017 47 16093 7.2 170 18:41 11.09.2019
2100 Clouds 27 1017 47 16093 7.2 170 18:22 11.09.2019
2101 Clouds 27 1017 47 16093 7.2 170 18:22 11.09.2019
2102 Clouds 26 1017 53 16093 6.7 180 17:58 11.09.2019
2103 Clouds 26 1017 53 16093 6.7 180 17:58 11.09.2019
2104 Clouds 26 1018 61 16093 3.1 200 17:39 11.09.2019
2105 Clouds 26 1018 61 16093 3.1 200 17:20 11.09.2019
2106 Clouds 25 1016 60 16093 4.1 160 16:54 11.09.2019
2107 Clouds 25 1017 64 16093 2.1 220 16:36 11.09.2019
2108 Clouds 25 1017 64 16093 2.1 220 16:18 11.09.2019
2109 Clouds 24 1016 60 16093 4.1 170 15:43 11.09.2019
2110 Clear 24 1017 60 16093 2.1 230 15:20 11.09.2019
2111 Clouds 24 1015 60 16093 4.1 170 14:57 11.09.2019
2112 Clouds 24 1016 61 16093 2.1 130 14:37 11.09.2019
2113 Clouds 24 1016 61 16093 2.1 130 14:18 11.09.2019
2114 Clear 24 1015 61 16093 1.5 120 13:39 11.09.2019
2115 Clear 24 1015 61 16093 1.5 120 13:21 11.09.2019
2116 Clouds 25 1014 57 16093 3.6 200 12:59 11.09.2019
2117 Clouds 25 1014 57 16093 2.6 200 12:38 11.09.2019
2118 Clouds 25 1014 57 16093 2.6 200 12:20 11.09.2019
2119 Clouds 25 1014 57 16093 2.6 200 12:20 11.09.2019
2120 Clouds 25 1016 61 16093 4.1 170 11:40 11.09.2019
2121 Clouds 25 1016 61 16093 4.1 170 11:21 11.09.2019
2122 Clouds 25 1014 54 16093 4.1 190 10:57 11.09.2019
2123 Clouds 25 1015 61 16093 6.2 190 10:39 11.09.2019
2124 Clouds 25 1015 61 16093 6.2 190 10:20 11.09.2019
2125 Clouds 26 1015 61 16093 6.7 200 09:40 11.09.2019
2126 Clouds 26 1015 61 16093 6.7 200 09:20 11.09.2019
2127 Clouds 26 1013 57 16093 7.7 180 08:56 11.09.2019
2128 Clouds 27 1015 57 16093 6.2 190 08:38 11.09.2019
2129 Clouds 27 1015 57 16093 6.2 190 08:20 11.09.2019
2130 Clear 27 1012 51 16093 7.2 190 07:40 11.09.2019
2131 Clear 27 1012 51 16093 8.7 200 07:22 11.09.2019
2132 Clouds 28 1012 47 16093 9.3 200 06:48 11.09.2019
2133 Clouds 28 1012 45 16093 9.3 190 06:29 11.09.2019
2134 Clear 29 1013 42 16093 4.6 200 05:37 11.09.2019
2135 Clear 29 1013 42 16093 4.6 200 05:18 11.09.2019
2136 Clear 30 1012 35 16093 6.7 200 04:22 11.09.2019
2137 Clear 31 1012 29 16093 6.2 200 03:31 11.09.2019
2138 Clear 31 1012 29 16093 6.2 200 03:31 11.09.2019
2139 Clouds 33 1012 29 16093 4.6 210 02:40 11.09.2019
2140 Clouds 33 1009 23 16093 4.1 210 01:42 11.09.2019
2141 Clouds 34 1010 23 16093 6.2 240 00:46 11.09.2019
2142 Clear 34 1012 30 16093 7.7 220 00:20 11.09.2019
2143 Clear 34 1012 30 16093 7.7 220 00:20 11.09.2019
2144 Clear 33 1013 33 16093 5.7 230 23:41 10.09.2019
2145 Clear 33 1013 33 16093 5.7 230 23:22 10.09.2019
2146 Clouds 33 1012 26 16093 7.2 200 22:59 10.09.2019
2147 Clouds 33 1012 26 16093 7.2 200 22:40 10.09.2019
2148 Clear 33 1014 33 16093 7.7 170 22:19 10.09.2019
2149 Clear 33 1013 29 16093 9.3 190 21:55 10.09.2019
2150 Clear 33 1013 29 16093 9.3 190 21:55 10.09.2019
2151 Clear 32 1015 40 16093 5.7 170 21:37 10.09.2019
2152 Clear 32 1015 40 16093 5.7 170 21:18 10.09.2019
2153 Clouds 32 1013 33 16093 7.7 200 20:56 10.09.2019
2154 Clouds 31 1015 45 16093 5.7 150 20:38 10.09.2019
2155 Clouds 31 1015 45 16093 5.7 150 20:38 10.09.2019
2156 Clouds 31 1015 45 16093 5.7 150 20:19 10.09.2019
2157 Clouds 30 1014 35 16093 8.2 210 19:55 10.09.2019
2158 Clouds 30 1014 39 16093 5.7 190 19:36 10.09.2019
2159 Clouds 29 1014 39 16093 5.7 190 19:18 10.09.2019
2160 Clouds 30 1014 39 16093 5.7 190 19:18 10.09.2019
2161 Clouds 29 1014 51 16093 5.1 160 18:45 10.09.2019
2162 Clouds 28 1014 51 16093 5.1 160 18:22 10.09.2019
2163 Clouds 27 1014 54 16093 4.1 210 17:57 10.09.2019
2164 Clouds 27 1015 61 16093 4.6 160 17:39 10.09.2019
2165 Clouds 26 1015 61 16093 4.6 160 17:20 10.09.2019
2166 Clouds 26 1013 57 16093 3.1 160 16:57 10.09.2019
2167 Clouds 25 1015 57 16093 4.1 180 16:38 10.09.2019
2168 Clouds 25 1015 57 16093 4.1 180 16:38 10.09.2019
2169 Clouds 25 1015 57 16093 4.1 180 16:19 10.09.2019
2170 Clouds 24 1013 57 16093 3.6 160 15:44 10.09.2019
2171 Clouds 24 1014 69 16093 2.1 230 15:23 10.09.2019
2172 Clouds 24 1012 57 16093 5.1 200 14:58 10.09.2019
2173 Clear 24 1014 69 16093 2.39 179.976 14:39 10.09.2019
2174 Clear 24 1014 69 16093 2.39 179.976 14:21 10.09.2019
2175 Clouds 24 1012 61 16093 4.6 200 13:47 10.09.2019
2176 Clouds 24 1012 61 16093 4.6 200 13:47 10.09.2019
2177 Clear 25 1014 73 16093 2.76 191.188 13:23 10.09.2019
2178 Clear 25 1014 61 16093 2.1 200 12:54 10.09.2019
2179 Clear 25 1012 61 16093 3.1 210 12:36 10.09.2019
2180 Clear 25 1012 61 16093 3.1 210 12:18 10.09.2019
2181 Clear 26 1012 57 16093 3.1 220 11:40 10.09.2019
2182 Clear 26 1012 57 16093 3.1 220 11:22 10.09.2019
2183 Clear 26 1012 61 16093 2.1 200 10:54 10.09.2019
2184 Clear 26 1012 61 16093 2.1 200 10:36 10.09.2019
2185 Clear 26 1012 61 16093 2.1 200 10:18 10.09.2019
2186 Clouds 26 1012 57 16093 3.56 200.805 09:43 10.09.2019
2187 Clouds 27 1012 57 16093 3.37 192.221 09:20 10.09.2019
2188 Clouds 27 1012 57 16093 3.37 192.221 09:20 10.09.2019
2189 Clear 27 1011 44 16093 3.1 230 08:48 10.09.2019
2190 Clouds 27 1011 39 16093 3.6 210 08:29 10.09.2019
2191 Clouds 28 1011 35 16093 5.1 180 07:56 10.09.2019
2192 Clouds 28 1011 37 16093 3.1 200 07:38 10.09.2019
2193 Clouds 28 1011 37 16093 3.1 200 07:20 10.09.2019
2194 Clear 29 1010 32 16093 2.1 190 06:40 10.09.2019
2195 Clear 29 1010 32 16093 2.1 190 06:40 10.09.2019
2196 Clear 29 1010 32 16093 2.1 190 06:20 10.09.2019
2197 Clouds 31 1009 27 16093 4.1 250 04:19 10.09.2019
2198 Clouds 34 1009 20 16093 2.6 240 02:39 10.09.2019
2199 Clouds 34 1009 20 16093 2.6 240 02:39 10.09.2019
2200 Clouds 34 1009 20 16093 2.6 240 02:39 10.09.2019
2201 Clouds 34 1009 20 16093 2.6 240 02:39 10.09.2019
2202 Clouds 34 1009 20 16093 2.6 240 02:20 10.09.2019
2203 Clouds 34 1009 20 16093 2.6 240 02:20 10.09.2019
2204 Clouds 34 1009 20 16093 2.6 240 02:20 10.09.2019
2205 Clouds 34 1009 20 16093 2.6 240 02:20 10.09.2019
2206 Clouds 34 1009 20 16093 2.6 240 02:20 10.09.2019
2207 Rain 34 1009 21 16093 1.5 270 01:50 10.09.2019
2208 Rain 34 1009 21 16093 1.5 270 01:50 10.09.2019
2209 Rain 34 1009 21 16093 4.1 240 01:22 10.09.2019
2210 Rain 34 1010 21 16093 3.6 280 00:36 10.09.2019
2211 Rain 34 1012 23 16093 4.6 220 23:58 09.09.2019
2212 Rain 34 1011 24 16093 4.1 190 23:40 09.09.2019
2213 Rain 34 1011 24 16093 4.1 190 23:18 09.09.2019
2214 Clear 34 1012 24 16093 3.1 260 22:54 09.09.2019
2215 Clear 34 1012 24 16093 4.6 250 22:36 09.09.2019
2216 Rain 34 1012 24 16093 4.6 250 22:18 09.09.2019
2217 Rain 33 1014 38 16093 4.97 236.655 21:55 09.09.2019
2218 Rain 33 1013 31 16093 2.1 280 21:36 09.09.2019
2219 Rain 32 1013 31 16093 2.1 280 21:18 09.09.2019
2220 Rain 32 1013 37 16093 3.6 200 20:54 09.09.2019
2221 Rain 31 1013 37 16093 2.6 210 20:36 09.09.2019
2222 Rain 31 1013 37 16093 2.6 210 20:36 09.09.2019
2223 Rain 31 1013 37 16093 2.6 210 20:18 09.09.2019
2224 Rain 31 1014 42 16093 3.1 240 19:55 09.09.2019
2225 Rain 30 1014 42 16093 3.1 200 19:36 09.09.2019
2226 Rain 30 1014 42 16093 3.1 200 19:18 09.09.2019
2227 Rain 30 1014 42 16093 3.1 200 19:18 09.09.2019
2228 Rain 29 1014 48 16093 4.6 190 18:41 09.09.2019
2229 Rain 28 1016 54 16093 3.1 170 18:22 09.09.2019
2230 Rain 27 1016 54 16093 1.5 190 17:59 09.09.2019
2231 Rain 27 1016 57 16093 3.1 170 17:41 09.09.2019
2232 Rain 27 1016 57 16093 3.1 170 17:21 09.09.2019
2233 Rain 26 1015 65 16093 3.1 160 16:57 09.09.2019
2234 Rain 25 1014 69 16093 1.5 170 16:38 09.09.2019
2235 Clear 25 1014 69 16093 1.5 170 16:20 09.09.2019
2236 -273 0 0 0 0 0 15:56 09.09.2019
2237 Clear 24 1015 73 16093 1.36 253.102 15:56 09.09.2019
2238 Clouds 24 1013 73 16093 3.1 200 15:37 09.09.2019
2239 Clouds 24 1013 73 16093 3.1 200 15:18 09.09.2019
2240 Clouds 24 1012 73 16093 3.6 200 14:55 09.09.2019
2241 Clouds 24 1012 69 16093 3.1 210 14:37 09.09.2019
2242 Clouds 24 1012 69 16093 3.1 210 14:37 09.09.2019
2243 Clouds 24 1012 69 16093 3.1 210 14:19 09.09.2019
2244 Clouds 25 1012 65 16093 3.6 190 13:44 09.09.2019
2245 Clouds 25 1012 65 16093 3.6 190 13:21 09.09.2019
2246 Rain 25 1012 69 16093 4.1 200 12:58 09.09.2019
2247 Rain 25 1012 69 16093 3.1 200 12:38 09.09.2019
2248 Rain 26 1012 69 16093 3.1 200 12:20 09.09.2019
2249 Rain 26 1012 65 16093 4.1 200 11:47 09.09.2019
2250 Rain 26 1012 65 16093 4.1 200 11:47 09.09.2019
2251 Rain 26 1012 65 16093 3.6 200 11:23 09.09.2019
2252 Clouds 26 1012 65 16093 5.1 200 10:59 09.09.2019
2253 Clouds 27 1012 61 16093 3.1 200 10:41 09.09.2019
2254 Clouds 27 1012 61 16093 3.1 200 10:20 09.09.2019
2255 Clouds 27 1012 61 16093 2.6 220 09:56 09.09.2019
2256 Rain 27 1012 61 16093 2.1 190 09:37 09.09.2019
2257 Rain 27 1012 61 16093 2.1 190 09:37 09.09.2019
2258 Rain 28 1012 61 16093 2.1 190 09:19 09.09.2019
2259 Rain 28 1011 51 11265 2.1 160 08:38 09.09.2019
2260 Rain 29 1011 51 11265 2.1 160 08:20 09.09.2019
2261 Clouds 29 1011 45 16093 2.1 250 07:46 09.09.2019
2262 Rain 29 1011 45 16093 2.6 230 07:22 09.09.2019
2263 Rain 30 1010 37 16093 3.1 250 06:57 09.09.2019
2264 Clear 30 1010 35 16093 5.7 260 06:35 09.09.2019
2265 Clear 32 1008 27 16093 3.1 240 04:55 09.09.2019
2266 Clear 32 1008 27 16093 3.1 240 04:55 09.09.2019
2267 Clear 32 1008 27 16093 3.1 240 04:55 09.09.2019
2268 Clear 35 1007 19 16093 7.7 250 02:43 09.09.2019
2269 Rain 35 1007 19 16093 7.7 250 02:19 09.09.2019
2270 Rain 35 1008 15 16093 6.2 270 00:41 09.09.2019
2271 Rain 36 1008 15 16093 6.2 270 00:21 09.09.2019
2272 Rain 35 1009 23 16093 4.6 220 23:44 08.09.2019
2273 Rain 35 1009 23 16093 4.6 220 23:23 08.09.2019
2274 Rain 35 1010 26 16093 3.1 180 22:56 08.09.2019
2275 Rain 35 1010 26 16093 4.9 267.955 22:37 08.09.2019
2276 Rain 34 1010 26 16093 4.9 267.955 22:19 08.09.2019
2277 Rain 34 1011 29 16093 3.6 160 21:42 08.09.2019
2278 Rain 33 1011 29 16093 3.6 160 21:22 08.09.2019
2279 Rain 33 1012 31 16093 4.01 216.778 20:57 08.09.2019
2280 Rain 32 1012 33 16093 2.1 150 20:38 08.09.2019
2281 Rain 32 1012 33 16093 2.1 150 20:20 08.09.2019
2282 Rain 31 1012 38 16093 3.1 170 19:57 08.09.2019
2283 Rain 31 1013 42 16093 2.6 160 19:37 08.09.2019
2284 Rain 30 1013 42 16093 2.6 160 19:18 08.09.2019
2285 Rain 30 1013 42 16093 2.6 160 19:18 08.09.2019
2286 Rain 29 1013 42 16093 5.1 120 18:56 08.09.2019
2287 Clear 29 1013 45 16093 3.6 130 18:37 08.09.2019
2288 Clear 27 1013 45 16093 3.6 130 18:18 08.09.2019
2289 Rain 25 1013 54 16093 4.1 110 17:38 08.09.2019
2290 Clear 25 1013 54 16093 4.1 110 17:19 08.09.2019
2291 Clear 25 1013 57 16093 2.1 120 16:59 08.09.2019
2292 Clouds 25 1013 57 16093 2.6 140 16:40 08.09.2019
2293 Clouds 24 1013 57 16093 2.6 140 16:21 08.09.2019
2294 Clouds 24 1015 73 16093 2.6 100 15:57 08.09.2019
2295 Clouds 24 1013 57 16093 2.11 259.462 15:39 08.09.2019
2296 Rain 24 1013 57 16093 1.69 271.802 15:20 08.09.2019
2297 Clouds 24 1012 50 16093 2.1 250 14:41 08.09.2019
2298 Clouds 23 1012 50 16093 2.1 250 14:23 08.09.2019
2299 Rain 23 1014 78 16093 2.6 80 13:59 08.09.2019
2300 Rain 23 1012 57 16093 4.1 120 13:40 08.09.2019
2301 Rain 23 1012 57 16093 4.1 120 13:22 08.09.2019
2302 Rain 24 1014 73 16093 3.1 50 12:59 08.09.2019
2303 Rain 24 1014 83 16093 2.1 80 12:41 08.09.2019
2304 Rain 24 1014 83 16093 2.1 80 12:22 08.09.2019
2305 Rain 24 1014 83 16093 2.1 80 12:22 08.09.2019
2306 Rain 24 1015 78 16093 2.6 30 11:57 08.09.2019
2307 Rain 24 1012 39 16093 6.2 130 11:38 08.09.2019
2308 Rain 25 1012 39 16093 6.2 130 11:19 08.09.2019
2309 Thunderstorm 26 1015 45 16093 3.1 100 10:43 08.09.2019
2310 Thunderstorm 27 1015 45 16093 3.1 100 10:23 08.09.2019
2311 Clear 27 1013 42 16093 5.7 130 09:58 08.09.2019
2312 Clear 27 1013 42 16093 5.1 130 09:38 08.09.2019
2313 Clear 27 1013 42 16093 5.1 130 09:19 08.09.2019
2314 Clear 27 1013 39 16093 3.6 130 08:40 08.09.2019
2315 Clear 27 1013 39 16093 3.6 130 08:40 08.09.2019
2316 Clear 28 1013 39 16093 3.6 130 08:19 08.09.2019
2317 Clear 28 1013 39 16093 3.7 205.52 07:59 08.09.2019
2318 Clear 28 1013 42 16093 1.5 150 07:37 08.09.2019
2319 Clear 28 1013 42 16093 1.5 150 07:19 08.09.2019
2320 Clouds 29 1013 42 16093 3.1 160 06:44 08.09.2019
2321 Rain 30 1012 29 16093 6.7 240 05:44 08.09.2019
2322 Clouds 30 1012 29 16093 6.7 240 05:26 08.09.2019
2323 Rain 33 1011 24 16093 3.39 271.843 03:24 08.09.2019
2324 Rain 35 1013 31 16093 11.8 130 02:51 08.09.2019
2325 Clear 36 1013 22 16093 6.2 300 01:54 08.09.2019
2326 Clear 36 1011 19 16093 3.6 280 01:33 08.09.2019
2327 Clear 36 1011 19 16093 3.6 280 01:33 08.09.2019
2328 Clear 37 1012 20 16093 6.2 340 00:49 08.09.2019
2329 Clear 37 1012 20 16093 6.2 340 00:31 08.09.2019
2330 Clouds 37 1013 25 16093 6.7 300 23:58 07.09.2019
2331 Clear 37 1013 27 16093 5.7 340 23:37 07.09.2019
2332 Clear 37 1012 19 16093 4.6 330 23:19 07.09.2019
2333 Rain 37 1014 30 16093 6.2 310 22:44 07.09.2019
2334 Rain 37 1014 30 16093 6.2 310 22:25 07.09.2019
2335 Rain 36 1014 26 16093 2.6 350 21:59 07.09.2019
2336 Rain 36 1014 26 16093 1.5 210 21:39 07.09.2019
2337 Rain 35 1014 26 16093 1.5 210 21:21 07.09.2019
2338 Rain 34 1015 29 16093 2.6 310 20:41 07.09.2019
2339 Clear 33 1015 29 16093 2.6 310 20:22 07.09.2019
2340 Clear 33 1015 31 16093 2.1 310 19:57 07.09.2019
2341 Clear 32 1016 33 16093 2.1 190 19:38 07.09.2019
2342 Clear 32 1016 33 16093 2.1 190 19:20 07.09.2019
2343 Clear 31 1016 35 16093 3.1 230 18:59 07.09.2019
2344 Rain 31 1016 37 16093 3.6 230 18:39 07.09.2019
2345 Rain 31 1016 37 16093 3.6 230 18:20 07.09.2019
2346 Rain 31 1016 42 16093 1.5 220 17:59 07.09.2019
2347 Rain 30 1016 42 16093 2.6 200 17:39 07.09.2019
2348 Clear 30 1016 42 16093 2.6 200 17:18 07.09.2019
2349 Rain 29 1017 54 16093 2.1 250 16:56 07.09.2019
2350 Rain 28 1015 42 16093 1.5 160 16:38 07.09.2019
2351 Rain 28 1015 42 16093 1.5 160 16:18 07.09.2019
2352 Clear 27 1017 51 16093 0.94 234.341 15:44 07.09.2019
2353 Clear 26 1015 50 16093 2.1 120 15:25 07.09.2019
2354 Clear 26 1015 54 16093 1.15 68.884 14:56 07.09.2019
2355 Clear 26 1015 51 16093 1.15 68.884 14:36 07.09.2019
2356 Clear 26 1015 51 16093 1.15 68.884 14:18 07.09.2019
2357 Clear 26 1015 47 16093 1.5 140 13:55 07.09.2019
2358 Clear 26 1015 47 16093 1.5 140 13:55 07.09.2019
2359 Clear 26 1015 47 16093 2.1 110 13:37 07.09.2019
2360 Clear 26 1015 47 16093 2.1 110 13:18 07.09.2019
2361 Clear 27 1015 47 16093 1.5 150 12:41 07.09.2019
2362 Clear 27 1015 47 16093 1.5 150 12:23 07.09.2019
2363 Clear 28 1015 42 16093 1.5 180 11:41 07.09.2019
2364 Clear 28 1015 42 16093 1.5 180 11:22 07.09.2019
2365 Rain 28 1015 42 16093 2.21 12.501 10:56 07.09.2019
2366 Rain 28 1015 42 16093 2.21 12.501 10:37 07.09.2019
2367 Rain 28 1015 42 16093 2.21 12.501 10:18 07.09.2019
2368 Rain 29 1015 35 16093 3.1 210 09:42 07.09.2019
2369 Rain 30 1015 35 16093 3.1 210 09:22 07.09.2019
2370 Rain 30 1015 35 16093 3.1 210 09:22 07.09.2019
2371 Rain 30 1015 33 16093 2.6 200 08:55 07.09.2019
2372 Rain 30 1015 33 16093 2.1 190 08:36 07.09.2019
2373 Rain 30 1015 33 16093 2.1 190 08:18 07.09.2019
2374 Clear 31 1015 29 16093 0.92 48.082 07:43 07.09.2019
2375 Clear 32 1015 29 16093 0.92 48.082 07:22 07.09.2019
2376 Clear 33 1014 27 16093 1.5 270 06:42 07.09.2019
2377 Clear 33 1014 22 16093 1.5 250 05:40 07.09.2019
2378 Rain 34 1013 24 16093 3.1 300 04:26 07.09.2019
2379 Rain 35 1013 21 16093 6.2 300 03:41 07.09.2019
2380 Rain 37 1013 19 16093 4.6 300 02:22 07.09.2019
2381 Clear 38 1013 17 16093 3.1 320 01:29 07.09.2019
2382 Clear 38 1014 20 16093 4.1 340 00:54 07.09.2019
2383 Clear 38 1014 20 16093 3.6 330 00:23 07.09.2019
2384 Clear 37 1015 20 16093 3.1 330 23:59 06.09.2019
2385 Clear 37 1015 23 16093 3.6 320 23:38 06.09.2019
2386 Clear 37 1015 23 16093 3.6 320 23:19 06.09.2019
2387 Clear 37 1016 24 16093 3.6 340 22:55 06.09.2019
2388 Clear 36 1016 26 16093 3.6 320 22:36 06.09.2019
2389 Clear 36 1016 26 16093 3.6 320 22:18 06.09.2019
2390 Clear 35 1017 29 16093 2.1 350 21:42 06.09.2019
2391 Clear 35 1017 29 16093 2.1 350 21:24 06.09.2019
2392 Clear 34 1017 31 16093 2.6 320 21:00 06.09.2019
2393 Rain 34 1019 36 16093 2.25 323.395 20:41 06.09.2019
2394 Rain 33 1018 33 16093 3.1 330 20:21 06.09.2019
2395 Clear 33 1018 33 16093 1.5 330 19:58 06.09.2019
2396 Clear 32 1018 37 16093 2.25 323.395 19:40 06.09.2019
2397 Rain 32 1018 37 16093 2.25 323.395 19:21 06.09.2019
2398 Rain 31 1018 42 16093 2.1 230 18:50 06.09.2019
2399 Rain 31 1018 42 16093 2.1 230 18:50 06.09.2019
2400 Rain 30 1018 42 16093 2.6 230 18:32 06.09.2019
2401 Rain 30 1018 45 16093 2.1 230 17:59 06.09.2019
2402 Clear 29 1018 48 16093 2.6 210 17:39 06.09.2019
2403 Clear 29 1018 48 16093 2.6 210 17:20 06.09.2019
2404 Clear 28 1018 45 16093 1.5 190 16:43 06.09.2019
2405 Clear 27 1018 45 16093 1.5 190 16:20 06.09.2019
2406 Clear 27 1017 45 16093 1.35 277.382 15:59 06.09.2019
2407 Clear 27 1017 47 16093 1.35 277.382 15:41 06.09.2019
2408 Clear 27 1017 47 16093 0.93 52.33 15:22 06.09.2019
2409 Clear 27 1017 47 16093 0.93 52.33 14:46 06.09.2019
2410 Clear 27 1017 47 16093 0.93 52.33 14:19 06.09.2019
2411 Clear 27 1017 42 16093 2.1 190 13:44 06.09.2019
2412 Clear 28 1017 42 16093 2.1 190 13:23 06.09.2019
2413 Clear 28 1016 39 16093 2.6 200 12:56 06.09.2019
2414 Clear 28 1016 39 16093 3.1 210 12:36 06.09.2019
2415 Clear 28 1016 39 16093 3.1 210 12:18 06.09.2019
2416 Clear 28 1016 39 16093 3.1 210 12:18 06.09.2019
2417 Clear 28 1017 35 16093 2.6 200 11:40 06.09.2019
2418 Clear 28 1017 35 16093 2.6 200 11:22 06.09.2019
2419 Clear 28 1017 35 16093 1.38 143.105 10:56 06.09.2019
2420 Clear 28 1017 35 16093 1.38 143.105 10:38 06.09.2019
2421 Clear 28 1017 35 16093 0.72 92.795 10:18 06.09.2019
2422 Rain 29 1017 35 16093 1.5 160 09:38 06.09.2019
2423 Rain 29 1017 35 16093 1.5 160 09:20 06.09.2019
2424 Rain 29 1016 33 16093 0.15 271.146 08:55 06.09.2019
2425 Rain 29 1016 33 16093 0.15 271.146 08:55 06.09.2019
2426 Rain 29 1016 32 16093 0.15 271.146 08:37 06.09.2019
2427 Rain 30 1016 32 16093 0.15 271.146 08:18 06.09.2019
2428 Rain 30 1016 32 16093 0.15 271.146 08:18 06.09.2019
2429 Rain 30 1016 30 16093 0.15 271.146 07:42 06.09.2019
2430 Rain 30 1016 30 16093 0.15 271.146 07:42 06.09.2019
2431 Rain 30 1016 30 16093 0.15 271.146 07:23 06.09.2019
2432 Rain 32 1016 29 16093 3.1 240 06:43 06.09.2019
2433 Clear 33 1016 24 16093 3.6 230 05:58 06.09.2019
2434 Rain 34 1017 30 16093 5.1 210 04:57 06.09.2019
2435 Rain 34 1014 17 16093 3.6 260 04:26 06.09.2019
2436 Rain 37 1013 12 16093 5.7 290 03:29 06.09.2019
2437 Clear 38 1015 16 16093 5.85 224.958 01:47 06.09.2019
2438 Clear 38 1014 11 16093 1.5 350 00:23 06.09.2019
2439 Rain 38 1015 11 16093 3.1 220 23:43 05.09.2019
2440 Rain 39 1015 11 16093 3.1 220 23:23 05.09.2019
2441 Rain 39 1015 11 16093 2.71 165.513 22:46 05.09.2019
2442 Rain 39 1015 11 16093 1.5 200 22:28 05.09.2019
2443 Rain 39 1016 13 16093 3.1 160 21:58 05.09.2019
2444 Rain 38 1016 12 16093 1.5 60 21:40 05.09.2019
2445 Rain 38 1016 12 16093 1.5 60 21:20 05.09.2019
2446 Rain 38 1018 17 16093 2.28 132.81 20:58 05.09.2019
2447 Rain 37 1018 18 16093 4.1 120 20:40 05.09.2019
2448 Rain 37 1016 20 16093 6.04 115.172 20:21 05.09.2019
2449 Rain 36 1017 22 16093 1.5 260 19:59 05.09.2019
2450 Rain 36 1019 19 16093 4.1 150 19:41 05.09.2019
2451 Rain 35 1017 25 16093 6.04 115.172 19:22 05.09.2019
2452 Rain 33 1019 26 16093 4.1 110 18:45 05.09.2019
2453 Rain 33 1019 26 16093 4.1 110 18:45 05.09.2019
2454 Clear 32 1017 33 16093 6.04 115.172 18:27 05.09.2019
2455 Rain 31 1019 42 16093 1.68 126.597 17:59 05.09.2019
2456 Rain 29 1017 42 16093 1.5 100 17:40 05.09.2019
2457 Rain 29 1017 42 16093 1.5 100 17:40 05.09.2019
2458 Rain 28 1017 42 16093 1.5 100 17:22 05.09.2019
2459 Rain 27 1019 54 16093 1.68 126.597 16:57 05.09.2019
2460 Rain 26 1017 53 16093 1.68 126.597 16:39 05.09.2019
2461 Clear 24 1017 53 16093 1.68 126.597 16:19 05.09.2019
2462 Clear 23 1016 57 16093 1.5 320 15:40 05.09.2019
2463 Clear 23 1016 57 16093 1.5 320 15:40 05.09.2019
2464 Clear 23 1016 57 16093 1.5 320 15:19 05.09.2019
2465 Clear 23 1016 50 16093 2.54 91.785 14:58 05.09.2019
2466 Clear 23 1015 50 16093 1.5 130 14:40 05.09.2019
2467 Clear 23 1015 50 16093 1.5 130 14:19 05.09.2019
2468 Clear 24 1015 47 16093 2.54 91.785 13:43 05.09.2019
2469 Clear 24 1015 47 16093 2.86 79.735 13:21 05.09.2019
2470 Clear 24 1015 44 16093 1.5 150 12:47 05.09.2019
2471 Rain 25 1015 42 16093 2.6 110 12:27 05.09.2019
2472 Rain 25 1015 42 16093 1.76 66.49 11:58 05.09.2019
2473 Rain 25 1015 42 16093 1.76 66.49 11:40 05.09.2019
2474 Rain 26 1015 42 16093 1.76 66.49 11:19 05.09.2019
2475 Rain 27 1015 42 16093 1.5 80 10:42 05.09.2019
2476 Rain 27 1015 42 16093 1.5 80 10:22 05.09.2019
2477 Rain 27 1015 42 16093 1.5 80 10:22 05.09.2019
2478 Clear 27 1015 42 16093 1.76 66.49 09:58 05.09.2019
2479 Clear 27 1015 42 16093 1.76 66.49 09:58 05.09.2019
2480 Clear 27 1015 37 16093 1.5 100 09:39 05.09.2019
2481 Rain 28 1015 37 16093 1.5 100 09:18 05.09.2019
2482 Rain 28 1015 37 16093 1.5 100 09:18 05.09.2019
2483 Rain 28 1015 33 16093 0.98 268.6 08:45 05.09.2019
2484 Rain 29 1015 33 16093 0.98 268.6 08:26 05.09.2019
2485 Rain 30 1014 31 16093 2.1 180 07:46 05.09.2019
2486 Rain 30 1014 31 16093 2.1 180 07:27 05.09.2019
2487 Rain 31 1014 31 16093 4.1 230 06:57 05.09.2019
2488 Rain 31 1014 29 16093 2.6 240 06:31 05.09.2019
2489 Rain 31 1014 29 16093 2.6 240 06:31 05.09.2019
2490 Rain 33 1013 29 16093 6.2 200 05:50 05.09.2019
2491 Clear 33 1013 24 16093 6.2 220 05:30 05.09.2019
2492 Rain 34 1014 29 16093 7.7 210 04:50 05.09.2019
2493 Rain 35 1011 11 16093 3.1 140 04:24 05.09.2019
2494 Rain 37 1009 10 16093 3.6 120 03:38 05.09.2019
2495 Rain 38 1009 9 16093 3.6 110 02:46 05.09.2019
2496 Rain 39 1009 9 16093 3.6 110 02:26 05.09.2019
2497 Rain 39 1009 9 16093 4.1 110 01:36 05.09.2019
2498 Clear 40 1010 10 16093 5.7 110 00:42 05.09.2019
2499 Rain 40 1010 10 16093 5.7 110 00:20 05.09.2019
2500 Rain 40 1010 10 16093 4.6 90 23:48 04.09.2019
2501 Rain 40 1011 10 16093 5.1 100 23:26 04.09.2019
2502 Rain 40 1012 11 16093 4.1 110 22:59 04.09.2019
2503 Rain 40 1012 11 16093 7.2 100 22:40 04.09.2019
2504 Rain 40 1012 11 16093 7.2 100 22:18 04.09.2019
2505 Rain 39 1013 13 16093 8.27 96.44 21:40 04.09.2019
2506 Rain 39 1013 13 16093 2.05 107.939 21:20 04.09.2019
2507 Rain 39 1013 13 16093 2.05 107.939 21:20 04.09.2019
2508 Rain 38 1013 24 16093 2.6 240 20:56 04.09.2019
2509 Rain 38 1013 24 16093 2.6 240 20:56 04.09.2019
2510 Rain 38 1014 24 16093 2.05 107.939 20:38 04.09.2019
2511 Rain 37 1014 24 16093 2.05 107.939 20:19 04.09.2019
2512 Rain 36 1016 32 16093 2.6 100 19:56 04.09.2019
2513 Rain 35 1016 32 16093 2.6 100 19:37 04.09.2019
2514 Rain 34 1016 31 16093 3.6 140 19:19 04.09.2019
2515 Clear 32 1014 40 16093 2.1 150 18:38 04.09.2019
2516 Clear 31 1016 42 16093 2.1 180 18:19 04.09.2019
2517 Rain 30 1016 51 16093 1.28 101.021 17:42 04.09.2019
2518 Rain 29 1014 51 16093 1.28 101.021 17:23 04.09.2019
2519 Rain 29 1014 51 16093 1.28 101.021 17:23 04.09.2019
2520 Rain 28 1014 54 16093 2.6 230 16:58 04.09.2019
2521 Clear 25 1013 57 16093 3.6 120 16:40 04.09.2019
2522 Clear 25 1013 57 16093 3.6 120 16:21 04.09.2019
2523 Clear 24 1015 69 16093 1.28 101.021 15:55 04.09.2019
2524 Clear 24 1013 57 16093 3.6 100 15:37 04.09.2019
2525 Clear 23 1013 57 16093 3.6 100 15:18 04.09.2019
2526 Clear 23 1014 64 16093 2.1 180 14:54 04.09.2019
2527 Clear 23 1012 54 16093 5.1 120 14:36 04.09.2019
2528 Clear 23 1012 54 16093 5.1 120 14:18 04.09.2019
2529 Clear 23 1012 54 16093 3.1 110 13:39 04.09.2019
2530 Clear 24 1012 54 16093 3.1 110 13:21 04.09.2019
2531 Rain 24 1012 51 16093 2.6 120 12:46 04.09.2019
2532 Rain 24 1012 51 16093 2.6 120 12:27 04.09.2019
2533 Rain 25 1012 51 16093 3.6 110 11:59 04.09.2019
2534 Rain 25 1012 51 16093 3.1 110 11:40 04.09.2019
2535 Rain 25 1012 51 16093 3.1 110 11:21 04.09.2019
2536 Rain 25 1012 51 16093 3.1 100 10:57 04.09.2019
2537 Rain 26 1012 45 16093 3.1 110 10:38 04.09.2019
2538 Rain 26 1012 45 16093 3.1 110 10:20 04.09.2019
2539 Clear 26 1012 42 16093 2.1 160 09:46 04.09.2019
2540 Rain 27 1012 42 16093 2.1 180 09:22 04.09.2019
2541 Rain 27 1012 42 16093 3.1 110 08:57 04.09.2019
2542 Rain 27 1012 39 16093 2.6 110 08:38 04.09.2019
2543 Rain 27 1012 39 16093 2.6 110 08:19 04.09.2019
2544 Rain 28 1012 40 16093 2.1 120 07:40 04.09.2019
2545 Rain 28 1012 40 16093 2.1 120 07:22 04.09.2019
2546 Rain 28 1012 38 16093 3.1 200 06:39 04.09.2019
2547 Rain 30 1010 29 16093 3.1 120 04:56 04.09.2019
2548 Rain 30 1010 28 16093 2.6 130 04:24 04.09.2019
2549 Rain 32 1009 22 16093 4.1 330 03:21 04.09.2019
2550 Clear 37 1009 19 16093 4.6 290 01:21 04.09.2019
2551 Clear 37 1009 19 16093 4.6 290 01:21 04.09.2019
2552 Clear 38 1010 20 16093 5.1 330 00:45 04.09.2019
2553 Clear 38 1010 20 16093 5.1 330 00:27 04.09.2019
2554 Clear 38 1011 20 16093 4.6 310 23:52 03.09.2019
2555 Clear 38 1011 20 16093 4.1 300 23:27 03.09.2019
2556 Clear 38 1014 25 16093 4.6 330 22:43 03.09.2019
2557 Clear 37 1012 23 16093 3.1 320 22:25 03.09.2019
2558 Clear 37 1013 24 16093 3.1 300 21:59 03.09.2019
2559 Clear 37 1013 24 16093 3.1 300 21:59 03.09.2019
2560 Rain 37 1013 26 16093 3.6 320 21:39 03.09.2019
2561 Rain 36 1013 26 16093 3.6 320 21:20 03.09.2019
2562 Rain 35 1015 34 16093 3.6 360 20:59 03.09.2019
2563 Clear 35 1014 29 16093 1.5 290 20:40 03.09.2019
2564 Clear 34 1016 32 16093 1.5 0 20:21 03.09.2019
2565 Rain 34 1016 36 16093 2.6 310 19:55 03.09.2019
2566 Rain 34 1016 36 16093 2.6 310 19:55 03.09.2019
2567 -273 0 0 0 0 0 19:55 03.09.2019
2568 Rain 34 1016 36 16093 2.6 310 19:55 03.09.2019
2569 Rain 33 1015 33 16093 1.5 260 19:36 03.09.2019
2570 Rain 33 1016 40 16093 2.14 279.89 19:18 03.09.2019
2571 Rain 32 1016 38 16093 2.1 310 18:42 03.09.2019
2572 Rain 30 1015 37 16093 0.86 176.279 18:24 03.09.2019
2573 Rain 30 1015 45 16093 3.6 100 17:56 03.09.2019
2574 Rain 29 1015 48 16093 3.6 100 17:38 03.09.2019
2575 Rain 28 1015 48 16093 3.6 100 17:19 03.09.2019
2576 Clear 27 1017 57 16093 0.86 176.279 16:43 03.09.2019
2577 Clear 25 1015 54 16093 3.1 120 16:23 03.09.2019
2578 Haze 24 1015 61 16093 2.1 140 15:58 03.09.2019
2579 Haze 24 1017 73 4426 2.1 170 15:39 03.09.2019
2580 Haze 23 1017 73 4426 2.1 170 15:20 03.09.2019
2581 Clear 23 1015 61 16093 3.1 100 14:56 03.09.2019
2582 Clear 23 1015 57 16093 3.1 110 14:37 03.09.2019
2583 Haze 23 1015 57 16093 3.1 110 14:19 03.09.2019
2584 Haze 24 1015 57 16093 1.5 140 13:56 03.09.2019
2585 Haze 24 1015 57 16093 2.6 90 13:37 03.09.2019
2586 Haze 24 1015 57 16093 2.6 90 13:19 03.09.2019
2587 Haze 24 1015 54 16093 2.6 110 12:48 03.09.2019
2588 Rain 25 1015 54 16093 2.6 110 12:29 03.09.2019
2589 Rain 25 1015 54 16093 1.65 171.438 11:44 03.09.2019
2590 Rain 25 1015 54 16093 1.65 171.438 11:26 03.09.2019
2591 Rain 25 1015 50 16093 3.1 120 10:59 03.09.2019
2592 Haze 25 1015 47 16093 3.1 100 10:40 03.09.2019
2593 Haze 25 1015 47 16093 3.1 100 10:22 03.09.2019
2594 Haze 25 1015 47 16093 3.1 100 10:22 03.09.2019
2595 Haze 25 1015 47 16093 1.5 180 09:53 03.09.2019
2596 Rain 26 1015 47 16093 3.1 180 09:33 03.09.2019
2597 Rain 26 1015 48 16093 3.1 140 08:58 03.09.2019
2598 Rain 27 1015 45 16093 1.5 100 08:38 03.09.2019
2599 Rain 27 1015 45 16093 1.5 100 08:19 03.09.2019
2600 Rain 27 1015 42 16093 1.5 200 07:43 03.09.2019
2601 Rain 28 1015 42 16093 1.5 200 07:24 03.09.2019
2602 Rain 28 1014 40 16093 3.6 230 06:54 03.09.2019
2603 Rain 28 1014 42 16093 3.6 210 06:36 03.09.2019
2604 Clear 31 1014 30 16093 4.6 250 03:44 03.09.2019
2605 Rain 35 1012 21 16093 2.1 310 02:49 03.09.2019
2606 Clear 35 1012 20 16093 3.1 280 02:30 03.09.2019
2607 Rain 36 1014 20 16093 3.1 350 01:58 03.09.2019
2608 Rain 36 1014 22 16093 6.2 350 01:40 03.09.2019
2609 Thunderstorm 36 1014 22 16093 6.2 350 01:21 03.09.2019
2610 Rain 37 1013 24 16093 4.1 330 00:28 03.09.2019
2611 Clear 37 1015 28 16093 3.6 310 23:56 02.09.2019
2612 Clear 36 1014 26 16093 3.1 320 23:36 02.09.2019
2613 Clear 36 1014 26 16093 3.1 320 23:36 02.09.2019
2614 Clear 36 1014 26 16093 3.1 320 23:18 02.09.2019
2615 Clear 36 1014 26 16093 3.1 320 23:18 02.09.2019
2616 Clear 36 1014 26 16093 3.1 320 23:18 02.09.2019
2617 Rain 36 1015 28 16093 3.6 330 22:54 02.09.2019
2618 Rain 36 1015 28 16093 3.6 330 22:54 02.09.2019
2619 Rain 36 1015 31 16093 3.6 270 22:36 02.09.2019
2620 Rain 36 1015 31 16093 3.6 270 22:18 02.09.2019
2621 Rain 35 1017 36 16093 4.1 320 21:54 02.09.2019
2622 -273 0 0 0 0 0 21:36 02.09.2019
2623 Rain 34 1016 38 16093 1.5 280 21:18 02.09.2019
2624 Rain 33 1017 42 16093 1.5 210 20:41 02.09.2019
2625 Rain 32 1017 42 16093 1.5 210 20:21 02.09.2019
2626 Rain 32 1017 48 16093 3.27 243.771 19:57 02.09.2019
2627 Rain 32 1017 48 16093 3.27 243.771 19:57 02.09.2019
2628 Clear 32 1018 48 16093 2.1 110 19:39 02.09.2019
2629 Clear 31 1019 48 16093 3.27 243.771 19:20 02.09.2019
2630 Clear 30 1017 54 16093 3.27 243.771 18:41 02.09.2019
2631 Rain 29 1017 54 16093 0.94 135.431 18:22 02.09.2019
2632 Rain 28 1018 58 0 0.89 189 17:58 02.09.2019
2633 Rain 27 1018 65 16093 2.6 140 17:39 02.09.2019
2634 Rain 26 1017 69 16093 0.94 135.431 17:21 02.09.2019
2635 Rain 26 1018 73 16093 1.5 10 16:58 02.09.2019
2636 Clear 25 1017 78 16093 0.94 135.431 16:37 02.09.2019
2637 Clear 23 1017 78 16093 0.94 135.431 16:19 02.09.2019
2638 Clear 22 1016 78 16093 0.94 135.431 15:44 02.09.2019
2639 Clear 22 1016 78 16093 1.22 91.128 15:22 02.09.2019
2640 Clear 22 1016 83 16093 1.5 210 14:57 02.09.2019
2641 Clear 22 1016 83 16093 1.5 210 14:57 02.09.2019
2642 Clear 22 1016 83 16093 2.1 220 14:38 02.09.2019
2643 Clear 22 1016 83 16093 2.1 220 14:20 02.09.2019
2644 Clear 22 1016 78 16093 1.22 91.128 13:55 02.09.2019
2645 Clear 22 1016 78 16093 1.22 91.128 13:55 02.09.2019
2646 Clear 22 1016 73 16093 2.1 130 13:36 02.09.2019
2647 Clear 22 1016 73 16093 2.1 130 13:18 02.09.2019
2648 Clear 22 1016 83 16093 1.5 100 12:42 02.09.2019
2649 Clear 23 1016 83 16093 1.5 100 12:24 02.09.2019
2650 Clear 23 1016 88 16093 1.5 70 11:58 02.09.2019
2651 Clear 23 1017 88 16093 1.5 320 11:38 02.09.2019
2652 Clear 23 1017 88 16093 1.5 320 11:19 02.09.2019
2653 Clear 23 1016 83 16093 1.25 322.133 10:55 02.09.2019
2654 Clear 23 1017 83 16093 1.5 310 10:36 02.09.2019
2655 Clear 23 1017 83 16093 1.5 310 10:36 02.09.2019
2656 Clear 23 1017 83 16093 1.5 310 10:18 02.09.2019
2657 Clear 23 1017 83 16093 1.5 310 10:18 02.09.2019
2658 Clear 23 1016 78 16093 1.72 42.402 09:42 02.09.2019
2659 Clear 23 1016 78 16093 1.48 96.126 09:21 02.09.2019
2660 Clear 23 1016 78 16093 2.6 140 08:44 02.09.2019
2661 Clear 24 1016 78 16093 2.6 140 08:22 02.09.2019
2662 Clear 24 1016 78 16093 2.1 90 07:57 02.09.2019
2663 Clear 24 1016 78 16093 1.48 96.126 07:39 02.09.2019
2664 Rain 24 1016 78 16093 1.48 96.126 07:20 02.09.2019
2665 Rain 24 1015 73 16093 4.6 330 06:43 02.09.2019
2666 Rain 24 1018 61 16093 4.14 45.43 05:54 02.09.2019
2667 Rain 25 1018 61 3219 6.7 190 05:26 02.09.2019
2668 Rain 27 1017 54 16093 6.7 200 04:50 02.09.2019
2669 Rain 33 1015 43 16093 3.6 270 02:30 02.09.2019
2670 Rain 35 1013 25 16093 6.7 250 01:41 02.09.2019
2671 Rain 37 1014 34 16093 2.6 270 00:42 02.09.2019
2672 Rain 38 1014 34 16093 2.6 270 00:20 02.09.2019
2673 Rain 38 1012 18 16093 2.6 280 23:39 01.09.2019
2674 Rain 37 1012 18 16093 2.6 280 23:19 01.09.2019
2675 Rain 37 1012 18 16093 2.6 280 23:19 01.09.2019
2676 Rain 38 1013 22 16093 2.27 173.56 22:57 01.09.2019
2677 Clear 38 1014 22 16093 3.1 270 22:38 01.09.2019
2678 Rain 38 1014 22 16093 3.1 270 22:18 01.09.2019
2679 Rain 38 1015 26 16093 2.6 340 21:43 01.09.2019
2680 Rain 37 1015 26 16093 2.6 340 21:23 01.09.2019
2681 Rain 37 1015 26 16093 2.6 340 21:23 01.09.2019
2682 Rain 36 1015 30 16093 3.1 220 20:58 01.09.2019
2683 Rain 35 1016 31 16093 2.1 290 20:40 01.09.2019
2684 Clear 35 1018 36 16093 1.5 0 20:19 01.09.2019
2685 Clear 34 1016 33 16093 0.94 219.041 19:59 01.09.2019
2686 Rain 34 1016 35 16093 0.94 219.041 19:40 01.09.2019
2687 Rain 33 1016 35 16093 0.94 219.041 19:21 01.09.2019
2688 Rain 32 1018 45 16093 1.5 110 18:48 01.09.2019
2689 Rain 31 1017 35 16093 1.5 120 18:30 01.09.2019
2690 Rain 30 1017 40 16093 3.6 90 17:59 01.09.2019
2691 Rain 30 1017 42 16093 4.1 110 17:39 01.09.2019
2692 Rain 29 1017 42 16093 4.1 110 17:21 01.09.2019
2693 Rain 28 1016 51 16093 1.5 90 16:41 01.09.2019
2694 Rain 27 1016 51 16093 1.5 90 16:22 01.09.2019
2695 Clear 26 1016 57 16093 1.24 309.569 15:59 01.09.2019
2696 Clear 25 1016 57 16093 1.24 309.569 15:41 01.09.2019
2697 Clear 25 1016 57 16093 0.79 204.816 15:23 01.09.2019
2698 Clear 25 1015 54 16093 2.6 210 14:44 01.09.2019
2699 Clear 25 1015 54 16093 2.6 210 14:26 01.09.2019
2700 Clear 25 1015 51 16093 2.6 160 13:59 01.09.2019
2701 Clear 26 1015 51 16093 1.5 140 13:40 01.09.2019
2702 Clear 26 1015 51 16093 1.5 140 13:40 01.09.2019
2703 Clear 26 1015 51 16093 1.5 140 13:22 01.09.2019
2704 Rain 26 1015 42 16093 3.1 160 12:44 01.09.2019
2705 Rain 26 1015 42 16093 3.1 160 12:26 01.09.2019
2706 Rain 26 1015 42 16093 3.1 160 12:26 01.09.2019
2707 Rain 26 1015 42 16093 3.1 160 12:26 01.09.2019
2708 Rain 27 1015 42 16093 3.6 170 11:58 01.09.2019
2709 Rain 27 1015 42 16093 4.6 190 11:38 01.09.2019
2710 Rain 27 1017 51 16093 5.7 160 11:18 01.09.2019
2711 Clear 27 1014 39 16093 2.6 150 10:44 01.09.2019
2712 Clear 27 1014 39 16093 2.6 150 10:23 01.09.2019
2713 Clear 28 1014 35 16093 2.1 170 09:47 01.09.2019
2714 Rain 28 1014 33 16093 3.1 170 09:26 01.09.2019
2715 Rain 29 1013 33 16093 4.6 200 08:56 01.09.2019
2716 Clear 29 1013 33 16093 6.7 190 08:38 01.09.2019
2717 Clear 29 1013 33 16093 6.7 190 08:19 01.09.2019
2718 Clouds 30 1013 27 16093 2.1 170 07:41 01.09.2019
2719 Clouds 30 1013 27 16093 2.1 170 07:19 01.09.2019
2720 Clear 31 1012 27 16093 2.6 330 06:38 01.09.2019
2721 Rain 31 1011 22 16093 4.1 320 05:58 01.09.2019
2722 Rain 31 1011 22 16093 4.1 320 05:58 01.09.2019
2723 Thunderstorm 32 1013 51 16093 1.5 320 04:40 01.09.2019
2724 Clear 36 1010 19 16093 3.1 320 03:44 01.09.2019
2725 Clear 37 1010 19 16093 3.1 320 03:19 01.09.2019
2726 Clear 38 1010 18 16093 4.1 340 02:30 01.09.2019
2727 Rain 38 1010 17 16093 3.6 350 01:58 01.09.2019
2728 Rain 38 1010 17 16093 2.6 340 01:26 01.09.2019
2729 Clear 38 1011 17 16093 3.1 330 00:47 01.09.2019
2730 Clear 38 1011 18 16093 2.6 320 00:23 01.09.2019
2731 Clear 38 1011 18 16093 2.6 320 00:23 01.09.2019
2732 Clear 38 1012 17 16093 3.1 300 23:56 31.08.2019
2733 Clear 38 1012 19 16093 1.5 270 23:38 31.08.2019
2734 Rain 38 1012 19 16093 1.5 270 23:18 31.08.2019
2735 Rain 38 1013 19 16093 1.5 270 22:54 31.08.2019
2736 Rain 37 1014 19 16093 2.1 340 22:36 31.08.2019
2737 Rain 37 1014 19 16093 2.1 340 22:36 31.08.2019
2738 Rain 37 1014 19 16093 2.1 340 22:36 31.08.2019
2739 Clear 37 1014 19 16093 2.1 340 22:18 31.08.2019
2740 Rain 37 1014 24 16093 2.6 250 21:40 31.08.2019
2741 Rain 36 1014 24 16093 2.6 250 21:40 31.08.2019
2742 Rain 35 1014 24 16093 2.6 250 21:21 31.08.2019
2743 Clear 35 1015 24 16093 2.1 240 20:50 31.08.2019
2744 Rain 35 1015 24 16093 3.1 310 20:31 31.08.2019
2745 Rain 34 1015 26 16093 2.6 320 19:57 31.08.2019
2746 Rain 34 1016 27 16093 3.6 300 19:39 31.08.2019
2747 Rain 33 1016 27 16093 3.6 300 19:21 31.08.2019
2748 Rain 33 1016 27 16093 3.6 300 19:21 31.08.2019
2749 Rain 32 1015 31 16093 1.75 269.248 18:40 31.08.2019
2750 Clear 31 1015 31 16093 0.13 248.279 18:21 31.08.2019
2751 Clear 30 1016 35 16093 2.6 100 17:58 31.08.2019
2752 Clear 30 1016 37 16093 1.5 120 17:37 31.08.2019
2753 Clear 30 1016 37 16093 1.5 120 17:37 31.08.2019
2754 Rain 29 1018 61 16093 2.6 130 17:19 31.08.2019
2755 Rain 29 1015 39 16093 0.13 248.279 16:59 31.08.2019
2756 Clear 28 1015 45 16093 0.13 248.279 16:40 31.08.2019
2757 Clear 28 1015 45 16093 0.13 248.279 16:21 31.08.2019
2758 Rain 27 1015 51 16093 3.6 200 15:58 31.08.2019
2759 Rain 26 1014 45 16093 4.6 230 15:37 31.08.2019
2760 Rain 26 1014 45 16093 4.6 230 15:18 31.08.2019
2761 Rain 26 1017 51 16093 2.6 240 14:41 31.08.2019
2762 Rain 27 1017 51 16093 2.6 240 14:22 31.08.2019
2763 Clear 28 1014 48 16093 3.6 140 13:42 31.08.2019
2764 Clear 27 1014 48 16093 3.6 140 13:23 31.08.2019
2765 Clear 27 1014 48 16093 4.1 160 12:59 31.08.2019
2766 Clear 27 1014 48 16093 5.1 170 12:39 31.08.2019
2767 Clear 28 1014 48 16093 5.1 170 12:20 31.08.2019
2768 Clear 28 1014 42 16093 4.1 170 11:55 31.08.2019
2769 Clear 28 1014 42 16093 4.1 180 11:37 31.08.2019
2770 Clear 28 1014 42 16093 4.1 180 11:18 31.08.2019
2771 Clear 29 1014 37 16093 4.6 180 10:42 31.08.2019
2772 Clear 29 1014 37 16093 4.6 180 10:19 31.08.2019
2773 Clear 29 1013 40 16093 2.6 140 09:59 31.08.2019
2774 Clear 29 1013 42 16093 1.5 110 09:38 31.08.2019
2775 Clear 29 1013 42 16093 1.5 110 09:19 31.08.2019
2776 Clear 30 1013 35 16093 3.6 210 08:43 31.08.2019
2777 Clear 30 1013 35 16093 3.6 210 08:23 31.08.2019
2778 Clear 30 1012 35 16093 4.1 190 07:41 31.08.2019
2779 Rain 30 1012 35 16093 4.1 190 07:22 31.08.2019
2780 Clear 30 1012 29 16093 1.5 230 06:44 31.08.2019
2781 Clear 32 1012 29 16093 1.5 230 06:20 31.08.2019
2782 Clear 32 1011 27 16093 3.1 310 05:34 31.08.2019
2783 Clear 34 1011 24 16093 2.6 310 04:36 31.08.2019
2784 Clear 36 1010 18 16093 4.6 290 03:45 31.08.2019
2785 Clear 36 1010 19 16093 4.6 280 02:49 31.08.2019
2786 Rain 36 1011 20 16093 4.6 280 01:55 31.08.2019
2787 Rain 35 1011 20 16093 4.1 310 01:34 31.08.2019
2788 Thunderstorm 35 1011 19 16093 3.6 320 00:52 31.08.2019
2789 Thunderstorm 35 1011 19 16093 3.6 320 00:52 31.08.2019
2790 Rain 35 1012 19 16093 4.6 320 00:30 31.08.2019
2791 Rain 36 1012 20 16093 4.6 330 23:58 30.08.2019
2792 Rain 37 1013 20 16093 4.1 280 23:39 30.08.2019
2793 Clear 37 1013 20 16093 4.1 280 23:18 30.08.2019
2794 Clear 38 1014 23 16093 4.1 350 22:42 30.08.2019
2795 Clear 37 1014 23 16093 4.1 350 22:24 30.08.2019
2796 Clear 37 1016 32 16093 4.6 330 21:59 30.08.2019
2797 Clear 37 1014 28 16093 3.6 340 21:38 30.08.2019
2798 Clear 36 1014 28 16093 3.6 340 21:20 30.08.2019
2799 Rain 36 1015 30 16093 2.1 290 20:59 30.08.2019
2800 Rain 35 1015 30 16093 1.5 310 20:40 30.08.2019
2801 Rain 35 1015 30 16093 1.5 310 20:20 30.08.2019
2802 Clear 35 1007 39 0 0.45 98 19:58 30.08.2019
2803 Rain 34 1015 35 16093 3.81 299.056 19:39 30.08.2019
2804 Rain 34 1015 35 16093 3.81 299.056 19:19 30.08.2019
2805 Rain 33 1016 35 16093 1.5 170 18:54 30.08.2019
2806 Rain 32 1016 35 16093 1.5 170 18:36 30.08.2019
2807 Rain 32 1018 42 16093 0.81 335.056 18:18 30.08.2019
2808 Rain 31 1018 51 16093 0.81 335.056 17:55 30.08.2019
2809 Clear 30 1016 39 16093 3.1 100 17:37 30.08.2019
2810 Clear 30 1016 39 16093 3.1 100 17:18 30.08.2019
2811 Rain 28 1016 42 16093 2.1 120 16:43 30.08.2019
2812 Rain 27 1016 42 16093 2.1 120 16:22 30.08.2019
2813 Clear 25 1015 50 16093 2.6 120 15:43 30.08.2019
2814 Clear 24 1015 50 16093 2.6 120 15:24 30.08.2019
2815 Clear 24 1015 50 16093 2.6 120 14:55 30.08.2019
2816 Clear 24 1015 50 16093 2.6 120 14:55 30.08.2019
2817 Clear 25 1015 50 16093 0.57 208.977 14:36 30.08.2019
2818 Clear 25 1015 50 16093 0.57 208.977 14:18 30.08.2019
2819 Clear 25 1014 57 16093 2.1 110 13:41 30.08.2019
2820 Clear 25 1014 57 16093 2.1 110 13:22 30.08.2019
2821 Rain 25 1014 61 16093 1.33 183.273 12:55 30.08.2019
2822 Rain 26 1015 57 16093 1.5 140 12:36 30.08.2019
2823 Rain 26 1015 57 16093 1.5 140 12:18 30.08.2019
2824 Rain 26 1015 57 16093 1.5 140 12:18 30.08.2019
2825 Rain 26 1015 44 16093 1.09 262.745 11:41 30.08.2019
2826 Haze 26 1015 44 16093 1.09 262.745 11:23 30.08.2019
2827 Rain 27 1015 47 16093 1.5 320 10:39 30.08.2019
2828 Rain 27 1015 47 16093 1.5 320 10:20 30.08.2019
2829 Rain 27 1015 42 16093 1.5 180 09:57 30.08.2019
2830 Haze 28 1015 45 16093 1.09 262.745 09:37 30.08.2019
2831 Clear 28 1015 45 16093 1.34 97.268 09:18 30.08.2019
2832 Clear 28 1015 48 16093 1.34 97.268 08:44 30.08.2019
2833 Clear 28 1015 48 16093 1.34 97.268 08:44 30.08.2019
2834 Clear 29 1015 48 16093 1.34 97.268 08:25 30.08.2019
2835 Clear 29 1014 45 16093 1.34 97.268 07:57 30.08.2019
2836 Clear 29 1014 45 16093 1.5 170 07:37 30.08.2019
2837 Clear 29 1014 45 16093 1.5 170 07:19 30.08.2019
2838 Clear 30 1014 40 16093 1.34 97.268 06:40 30.08.2019
2839 Clear 30 1014 40 16093 4.3 17.325 06:22 30.08.2019
2840 Clear 32 1014 38 16093 2.1 320 05:40 30.08.2019
2841 Rain 34 1013 28 16093 4.1 320 03:57 30.08.2019
2842 Rain 35 1013 26 16093 3.6 320 03:37 30.08.2019
2843 Rain 35 1013 26 16093 3.6 320 03:37 30.08.2019
2844 Clear 36 1012 21 16093 4.6 320 02:45 30.08.2019
2845 Clear 36 1012 21 16093 4.6 320 02:19 30.08.2019
2846 Rain 37 1013 20 16093 3.6 280 00:58 30.08.2019
2847 Rain 37 1013 20 16093 3.6 290 00:23 30.08.2019
2848 Clear 36 1014 23 16093 3.1 310 23:49 29.08.2019
2849 Clear 36 1016 28 16093 4.72 287.104 23:23 29.08.2019
2850 Clear 36 1017 34 16093 2.6 350 22:59 29.08.2019
2851 Clear 36 1016 28 16093 2.1 260 22:41 29.08.2019
2852 Rain 35 1016 28 16093 2.1 260 22:22 29.08.2019
2853 Rain 35 1016 33 16093 2.1 200 21:42 29.08.2019
2854 Rain 34 1016 33 16093 2.1 200 21:22 29.08.2019
2855 Rain 34 1016 33 16093 2.1 200 21:22 29.08.2019
2856 Rain 33 1019 40 16093 2.1 230 20:59 29.08.2019
2857 Rain 33 1019 40 16093 2.1 230 20:41 29.08.2019
2858 Rain 33 1019 48 16093 1.5 140 20:20 29.08.2019
2859 Rain 32 1019 45 16093 1.6 314.215 19:57 29.08.2019
2860 Rain 32 1018 42 16093 1.5 110 19:39 29.08.2019
2861 Rain 31 1019 58 16093 1.6 314.215 19:21 29.08.2019
2862 Rain 29 1018 51 16093 2.6 100 18:41 29.08.2019
2863 Rain 28 1019 65 16093 1.5 180 18:20 29.08.2019
2864 Rain 27 1019 58 16093 1.57 196.177 17:56 29.08.2019
2865 Rain 26 1018 57 16093 1.57 196.177 17:37 29.08.2019
2866 Rain 26 1019 78 16093 1.5 200 17:19 29.08.2019
2867 Rain 25 1019 69 16093 1.5 200 16:43 29.08.2019
2868 Rain 24 1019 78 16093 2.1 170 16:24 29.08.2019
2869 Clear 23 1017 78 16093 1.57 196.177 15:58 29.08.2019
2870 Clear 23 1017 78 16093 1.5 230 15:38 29.08.2019
2871 Clear 23 1017 78 16093 1.5 230 15:19 29.08.2019
2872 Clear 23 1016 64 16093 3.1 180 14:49 29.08.2019
2873 Rain 24 1018 73 16093 1.12 203.185 14:22 29.08.2019
2874 Rain 24 1016 61 16093 2.1 230 13:58 29.08.2019
2875 Rain 24 1016 61 16093 1.12 203.185 13:39 29.08.2019
2876 Clear 24 1016 61 16093 0.24 168.925 13:20 29.08.2019
2877 Clear 24 1015 61 16093 3.6 20 12:58 29.08.2019
2878 Clear 24 1014 69 16093 0.24 168.925 12:39 29.08.2019
2879 Clear 24 1014 69 16093 1.4 100.074 12:21 29.08.2019
2880 Clear 24 1014 69 16093 7.2 140 11:58 29.08.2019
2881 Clear 24 1016 69 16093 4.1 130 11:37 29.08.2019
2882 Clear 24 1016 69 16093 4.1 130 11:18 29.08.2019
2883 Clear 24 1018 73 16093 2.6 50 10:44 29.08.2019
2884 Clear 24 1018 73 16093 2.6 50 10:24 29.08.2019
2885 Rain 24 1020 73 16093 3.6 140 09:42 29.08.2019
2886 Rain 24 1020 73 16093 3.6 140 09:21 29.08.2019
2887 Rain 24 1020 78 16093 5.7 140 08:59 29.08.2019
2888 Clouds 24 1020 83 16093 2.6 140 08:40 29.08.2019
2889 Clouds 24 1020 83 16093 2.6 140 08:22 29.08.2019
2890 Rain 24 1018 69 16093 5.7 160 07:49 29.08.2019
2891 Rain 24 1018 69 16093 5.7 160 07:26 29.08.2019
2892 Rain 23 1018 69 16093 2.1 160 06:48 29.08.2019
2893 Rain 23 1018 69 16093 4.1 140 06:30 29.08.2019
2894 Rain 23 1018 73 16093 3.1 110 05:43 29.08.2019
2895 Rain 25 1018 73 16093 3.1 130 04:51 29.08.2019
2896 Rain 24 1017 78 16093 5.1 130 04:29 29.08.2019
2897 Rain 23 1016 73 16093 5.1 230 03:35 29.08.2019
2898 Rain 34 1014 27 16093 7.2 350 01:49 29.08.2019
2899 Thunderstorm 35 1013 26 16093 5.1 360 01:30 29.08.2019
2900 Rain 38 1012 19 16093 2.6 320 00:42 29.08.2019
2901 Rain 39 1012 19 16093 2.6 320 00:21 29.08.2019
2902 Thunderstorm 39 1013 19 16093 3.6 270 23:44 28.08.2019
2903 Thunderstorm 39 1013 19 16093 3.6 270 23:25 28.08.2019
2904 Clear 38 1014 22 16093 2.1 240 22:59 28.08.2019
2905 Clear 38 1014 23 16093 3.99 277.091 22:39 28.08.2019
2906 Clear 38 1014 23 16093 3.99 277.091 22:18 28.08.2019
2907 Rain 37 1015 25 16093 4.42 283.37 21:57 28.08.2019
2908 Rain 37 1016 26 16093 1.5 150 21:38 28.08.2019
2909 Rain 36 1016 26 16093 1.5 150 21:20 28.08.2019
2910 Clear 36 1017 28 16093 3.6 210 20:41 28.08.2019
2911 Rain 35 1017 28 16093 3.6 210 20:22 28.08.2019
2912 Rain 35 1019 34 16093 3.6 250 19:56 28.08.2019
2913 Rain 34 1017 30 16093 5.7 210 19:37 28.08.2019
2914 Clear 34 1017 30 16093 5.7 210 19:18 28.08.2019
2915 Clear 33 1016 31 16093 5.7 200 18:42 28.08.2019
2916 Rain 32 1016 31 16093 5.7 200 18:21 28.08.2019
2917 Rain 32 1016 31 16093 5.7 200 18:21 28.08.2019
2918 Rain 32 1018 43 16093 1.5 350 17:55 28.08.2019
2919 Rain 31 1016 35 16093 5.7 170 17:37 28.08.2019
2920 Rain 30 1016 35 16093 5.7 170 17:19 28.08.2019
2921 Rain 30 1015 39 16093 6.2 150 16:42 28.08.2019
2922 Clear 29 1017 48 16093 3.1 190 16:18 28.08.2019
2923 Clear 28 1017 61 16093 1.5 10 15:57 28.08.2019
2924 Clear 27 1015 42 16093 2.6 140 15:36 28.08.2019
2925 Clear 27 1015 42 16093 2.6 140 15:18 28.08.2019
2926 Clear 27 1016 61 16093 1.5 350 14:55 28.08.2019
2927 Clear 27 1014 39 16093 1.5 140 14:37 28.08.2019
2928 Clear 27 1014 39 16093 1.5 140 14:18 28.08.2019
2929 Clear 27 1013 42 16093 0.59 188.253 13:56 28.08.2019
2930 Clear 27 1013 39 16093 2.1 190 13:36 28.08.2019
2931 Clear 27 1013 39 16093 2.1 190 13:18 28.08.2019
2932 Clear 27 1012 39 16093 0.66 144.887 12:40 28.08.2019
2933 Clear 27 1012 39 16093 0.66 144.887 12:40 28.08.2019
2934 Clear 28 1012 39 16093 1.29 183.427 12:21 28.08.2019
2935 Clear 28 1012 35 16093 1.29 183.427 11:40 28.08.2019
2936 Rain 28 1012 35 16093 1.29 183.427 11:22 28.08.2019
2937 Rain 29 1012 35 16093 1.29 183.427 10:57 28.08.2019
2938 Clear 29 1012 35 16093 2.6 190 10:38 28.08.2019
2939 Clear 30 1012 35 16093 2.6 190 10:20 28.08.2019
2940 Clear 30 1012 33 16093 2.6 200 09:42 28.08.2019
2941 Clear 31 1012 33 16093 2.6 200 09:21 28.08.2019
2942 Clear 31 1012 33 16093 2.1 250 08:57 28.08.2019
2943 Clear 31 1011 33 16093 2.1 210 08:38 28.08.2019
2944 Clear 32 1014 36 16093 2.6 200 08:19 28.08.2019
2945 Clear 32 1011 29 16093 2.6 200 07:38 28.08.2019
2946 Clear 33 1011 29 16093 2.6 200 07:20 28.08.2019
2947 Rain 33 1011 26 16093 2.6 250 06:49 28.08.2019
2948 Rain 35 1010 24 16093 1.5 340 05:59 28.08.2019
2949 Clear 35 1010 24 16093 2.1 320 05:24 28.08.2019
2950 Clear 40 1008 16 16093 4.6 330 02:20 28.08.2019
2951 Clear 40 1009 15 16093 4.1 320 01:31 28.08.2019
2952 Clear 40 1011 20 16093 2.1 20 00:52 28.08.2019
2953 Clear 40 1009 16 16093 4.1 350 00:33 28.08.2019
2954 Clear 40 1011 21 16093 3.1 240 23:58 27.08.2019
2955 Clear 40 1010 17 16093 2.1 320 23:38 27.08.2019
2956 Clear 40 1010 17 16093 2.1 320 23:19 27.08.2019
2957 Clear 40 1012 20 16093 2.1 300 22:41 27.08.2019
2958 Clear 40 1011 19 16093 3.6 340 22:23 27.08.2019
2959 Clear 39 1013 25 16093 1.5 250 21:57 27.08.2019
2960 Rain 38 1012 23 16093 2.6 280 21:38 27.08.2019
2961 Rain 38 1012 23 16093 2.6 280 21:20 27.08.2019
2962 Rain 38 1014 29 16093 2.6 310 20:58 27.08.2019
2963 Rain 37 1012 26 16093 2.1 340 20:39 27.08.2019
2964 Rain 37 1012 26 16093 2.1 340 20:19 27.08.2019
2965 Clear 36 1014 26 16093 2.1 280 19:44 27.08.2019
2966 Clear 35 1012 31 16093 2.6 310 19:26 27.08.2019
2967 Clear 34 1014 38 16093 2.6 280 18:57 27.08.2019
2968 Rain 33 1012 33 16093 3.22 306.963 18:39 27.08.2019
2969 Rain 33 1014 43 16093 0.89 342.65 18:18 27.08.2019
2970 Rain 32 1012 35 16093 0.89 342.65 17:46 27.08.2019
2971 Clear 31 1012 35 16093 0.89 342.65 17:27 27.08.2019
2972 Clear 30 1012 37 16093 2.1 100 16:58 27.08.2019
2973 Clear 29 1012 39 16093 2.1 100 16:40 27.08.2019
2974 Clear 27 1012 39 16093 2.1 100 16:21 27.08.2019
2975 Clear 26 1012 50 11265 2.1 80 15:54 27.08.2019
2976 Clear 26 1012 50 16093 2.1 90 15:36 27.08.2019
2977 Clear 24 1014 51 16093 2.6 160 15:18 27.08.2019
2978 Clear 24 1014 51 16093 2.6 160 15:18 27.08.2019
2979 Clear 25 1013 57 16093 1.72 27.802 14:42 27.08.2019
2980 Clear 25 1011 50 16093 1.72 27.802 14:23 27.08.2019
2981 Clear 25 1011 47 16093 1.5 150 13:43 27.08.2019
2982 Clear 26 1011 47 16093 1.5 150 13:24 27.08.2019
2983 Clear 26 1011 47 16093 1.5 170 12:56 27.08.2019
2984 Clear 26 1011 44 16093 2.1 160 12:38 27.08.2019
2985 Clear 27 1013 45 16093 2.1 210 12:19 27.08.2019
2986 Clear 27 1011 39 16093 2.25 337.045 11:45 27.08.2019
2987 Clear 27 1011 39 16093 2.25 337.045 11:26 27.08.2019
2988 Clear 27 1011 39 16093 2.25 337.045 10:46 27.08.2019
2989 Clear 28 1011 39 16093 2.25 337.045 10:26 27.08.2019
2990 Clear 28 1011 39 16093 2.1 220 09:59 27.08.2019
2991 Clear 28 1011 39 16093 2.1 220 09:59 27.08.2019
2992 Clear 28 1011 37 16093 3.6 210 09:39 27.08.2019
2993 Clear 28 1011 37 16093 3.6 210 09:21 27.08.2019
2994 Clear 29 1011 35 16093 2.1 210 08:56 27.08.2019
2995 Clear 29 1010 35 16093 1.51 47.306 08:37 27.08.2019
2996 Clear 30 1010 35 16093 1.51 47.306 08:18 27.08.2019
2997 Rain 30 1010 29 16093 1.51 47.306 07:40 27.08.2019
2998 Rain 31 1010 29 16093 1.51 47.306 07:19 27.08.2019
2999 Rain 32 1010 27 16093 1.51 47.306 06:54 27.08.2019
3000 Clear 32 1010 27 16093 1.5 50 06:25 27.08.2019
3001 Clear 33 1010 26 16093 2.1 350 05:42 27.08.2019
3002 Clear 34 1012 30 16093 2.6 340 04:43 27.08.2019
3003 Clear 36 1009 20 16093 5.7 320 03:35 27.08.2019
3004 Clear 38 1009 19 16093 3.6 310 02:23 27.08.2019
3005 Clear 38 1011 25 16093 5.1 300 01:40 27.08.2019
3006 Clear 38 1012 24 16093 4.6 260 01:21 27.08.2019
3007 Clear 38 1010 22 16093 3.6 330 00:41 27.08.2019
3008 Clear 38 1010 22 16093 3.6 330 00:22 27.08.2019
3009 Clear 38 1011 23 16093 5.1 290 23:38 26.08.2019
3010 Clear 38 1011 23 16093 5.1 290 23:19 26.08.2019
3011 Clear 37 1014 30 16093 4.1 300 22:39 26.08.2019
3012 Clear 37 1014 30 16093 4.1 300 22:19 26.08.2019
3013 Clear 37 1012 26 16093 5.1 320 21:58 26.08.2019
3014 Clear 36 1013 30 16093 2.1 360 21:38 26.08.2019
3015 Clear 36 1015 38 16093 2.1 300 21:19 26.08.2019
3016 Rain 35 1015 36 16093 1.5 0 20:55 26.08.2019
3017 Rain 35 1015 36 16093 1.5 0 20:37 26.08.2019
3018 Rain 35 1015 36 16093 1.5 0 20:37 26.08.2019
3019 Rain 34 1014 35 16093 3.1 320 20:18 26.08.2019
3020 Rain 34 1014 38 16093 3.1 340 19:42 26.08.2019
3021 Clear 33 1016 48 16093 2.1 10 19:19 26.08.2019
3022 Clear 33 1016 48 16093 2.1 10 19:19 26.08.2019
3023 Clear 33 1016 48 16093 2.1 10 19:19 26.08.2019
3024 Clear 32 1016 43 16093 2.6 0 18:58 26.08.2019
3025 Rain 31 1014 45 16093 2.74 318.136 18:38 26.08.2019
3026 Rain 31 1016 55 16093 2.1 260 18:19 26.08.2019
3027 Rain 30 1015 51 16093 1.5 240 17:44 26.08.2019
3028 Clear 29 1018 54 11265 0.5 0 17:20 26.08.2019
3029 Rain 28 1016 61 16093 1.06 312.397 16:57 26.08.2019
3030 Rain 28 1014 57 16093 1.5 180 16:39 26.08.2019
3031 Rain 27 1018 61 11265 1 10 16:18 26.08.2019
3032 Clear 26 1013 61 16093 1.06 312.397 15:54 26.08.2019
3033 Clear 25 1013 61 16093 1.06 312.397 15:36 26.08.2019
3034 Clear 25 1017 65 11265 1 10 15:18 26.08.2019
3035 Clear 25 1013 61 16093 2.1 190 14:42 26.08.2019
3036 Clear 25 1017 65 11265 0.5 350 14:22 26.08.2019
3037 Clear 25 1013 57 16093 3.1 200 13:44 26.08.2019
3038 Clear 26 1017 57 11265 0.5 0 13:23 26.08.2019
3039 Clear 26 1013 57 16093 2.6 200 12:57 26.08.2019
3040 Clear 26 1013 57 16093 1.5 220 12:39 26.08.2019
3041 Clear 26 1017 54 11265 1.18 328.113 12:20 26.08.2019
3042 Clear 27 1013 57 16093 1.18 328.113 11:38 26.08.2019
3043 Clear 27 1017 48 11265 1 0 11:20 26.08.2019
3044 Clear 27 1013 54 16093 1.5 160 10:57 26.08.2019
3045 Clear 27 1013 54 16093 2.6 220 10:39 26.08.2019
3046 Clear 28 1017 45 11265 1.5 0 10:19 26.08.2019
3047 Clear 28 1013 51 16093 3.1 240 09:42 26.08.2019
3048 Clear 28 1017 40 16093 2.1 100 09:24 26.08.2019
3049 Clear 28 1013 45 16093 3.1 220 08:56 26.08.2019
3050 Clear 29 1013 37 16093 2.1 220 08:38 26.08.2019
3051 Clear 29 1013 37 16093 2.1 220 08:38 26.08.2019
3052 Rain 29 1013 37 16093 0.5 42.305 08:19 26.08.2019
3053 Rain 29 1013 35 16093 0.5 42.305 07:44 26.08.2019
3054 Rain 30 1017 33 16093 0.5 42.305 07:25 26.08.2019
3055 Rain 30 1015 35 16093 1.5 320 06:57 26.08.2019
3056 Clear 31 1013 33 16093 0.5 42.305 06:38 26.08.2019
3057 Clear 31 1017 33 16093 0.5 0 06:18 26.08.2019
3058 Clear 32 1012 31 16093 2.6 320 04:54 26.08.2019
3059 Clear 34 1012 26 16093 4.1 330 03:49 26.08.2019
3060 Clear 35 1013 26 16093 3.6 340 02:31 26.08.2019
3061 Clear 36 1013 30 16093 3.1 330 01:23 26.08.2019
3062 Clear 36 1015 36 16093 4.1 290 00:44 26.08.2019
3063 Clear 36 1015 36 16093 4.1 290 00:44 26.08.2019
3064 Clouds 35 1017 29 16093 3.1 0 00:25 26.08.2019
3065 Clear 35 1015 33 16093 3.1 290 23:44 25.08.2019
3066 Clouds 35 1017 29 16093 3.1 0 23:20 25.08.2019
3067 Clear 35 1017 36 16093 3.6 280 22:58 25.08.2019
3068 Rain 34 1016 38 16093 2.1 230 22:39 25.08.2019
3069 Rain 34 1018 46 16093 2.6 60 22:20 25.08.2019
3070 Rain 33 1016 38 16093 2.6 10 21:58 25.08.2019
3071 Rain 33 1019 46 16093 3.6 340 21:39 25.08.2019
3072 Rain 32 1019 46 16093 3.6 340 21:18 25.08.2019
3073 Clouds 31 1019 45 16093 2.1 0 20:41 25.08.2019
3074 Clouds 31 1019 45 16093 2.1 0 20:20 25.08.2019
3075 Clouds 31 1019 45 16093 2.1 0 20:20 25.08.2019
3076 Clouds 31 1019 51 16093 2.1 340 19:59 25.08.2019
3077 Clouds 30 1019 51 16093 2.1 340 19:39 25.08.2019
3078 Clouds 30 1019 51 16093 2.1 340 19:39 25.08.2019
3079 Rain 30 1020 51 16093 2.1 360 19:20 25.08.2019
3080 Rain 29 1020 51 16093 2.1 360 18:58 25.08.2019
3081 Rain 29 1020 54 16093 1.5 0 18:39 25.08.2019
3082 Rain 28 1020 54 16093 1.5 0 18:21 25.08.2019
3083 Rain 27 1020 57 16093 1.5 0 17:46 25.08.2019
3084 Clouds 27 1020 57 16093 1.5 0 17:25 25.08.2019
3085 Rain 26 1018 57 16093 1.86 282.157 16:59 25.08.2019
3086 Rain 25 1018 57 16093 1.5 190 16:37 25.08.2019
3087 Clouds 25 1019 73 16093 2.6 0 16:18 25.08.2019
3088 Clear 24 1019 73 16093 1.5 130 15:43 25.08.2019
3089 Clouds 24 1019 78 16093 2.6 200 15:25 25.08.2019
3090 Clear 24 1017 65 16093 0.35 263.517 14:54 25.08.2019
3091 Clear 24 1017 65 16093 0.35 263.517 14:36 25.08.2019
3092 Clouds 24 1019 78 16093 2.1 180 14:18 25.08.2019
3093 Clear 24 1019 69 16093 2.6 210 13:42 25.08.2019
3094 Clear 24 1019 69 16093 2.6 210 13:20 25.08.2019
3095 Rain 25 1016 57 16093 2.6 210 12:48 25.08.2019
3096 Rain 25 1019 69 16093 2.1 210 12:26 25.08.2019
3097 Rain 25 1016 57 16093 2.6 210 11:59 25.08.2019
3098 Rain 25 1016 57 16093 2.1 210 11:40 25.08.2019
3099 Clear 25 1019 65 16093 2.6 180 11:22 25.08.2019
3100 Clear 26 1016 54 16093 2.6 200 10:58 25.08.2019
3101 Clear 26 1016 54 16093 2.1 190 10:39 25.08.2019
3102 Clear 26 1019 61 16093 3.1 0 10:20 25.08.2019
3103 Clear 27 1016 51 16093 2.1 180 09:44 25.08.2019
3104 Clouds 27 1019 61 16093 3.1 0 09:25 25.08.2019
3105 Rain 27 1016 51 16093 3.6 200 08:56 25.08.2019
3106 Rain 28 1016 45 16093 4.1 230 08:38 25.08.2019
3107 Rain 28 1019 58 16093 3.1 0 08:20 25.08.2019
3108 Clouds 29 1016 37 16093 4.1 220 07:34 25.08.2019
3109 Clouds 29 1016 37 16093 4.1 220 07:34 25.08.2019
3110 Clear 29 1015 33 16093 2.6 220 06:45 25.08.2019
3111 Clear 31 1015 33 16093 1.5 310 05:42 25.08.2019
3112 Rain 33 1015 31 16093 3.1 270 04:23 25.08.2019
3113 Clear 34 1014 24 16093 4.1 340 02:58 25.08.2019
3114 Clear 35 1014 23 16093 4.1 330 02:38 25.08.2019
3115 Clear 35 1015 32 16093 3.6 260 01:18 25.08.2019
3116 Clear 35 1014 28 16093 2.1 10 00:37 25.08.2019
3117 Clouds 35 1016 34 16093 4.6 250 00:18 25.08.2019
3118 Rain 35 1017 36 16093 4.6 290 23:45 24.08.2019
3119 Rain 34 1017 36 16093 3.1 280 23:22 24.08.2019
3120 Rain 34 1017 36 16093 3.6 250 22:54 24.08.2019
3121 Rain 34 1016 31 16093 1.5 200 22:36 24.08.2019
3122 Clouds 34 1017 38 16093 3.6 300 22:18 24.08.2019
3123 Clear 33 1016 33 16093 4.86 305.34 21:42 24.08.2019
3124 Clouds 32 1018 40 16093 5.02 327.949 21:24 24.08.2019
3125 Clouds 32 1018 40 16093 5.02 327.949 21:24 24.08.2019
3126 Clear 32 1017 33 16093 2.6 280 20:59 24.08.2019
3127 Clear 32 1017 33 16093 2.6 280 20:40 24.08.2019
3128 Clear 31 1019 42 16093 5.02 327.949 20:20 24.08.2019
3129 Clear 31 1017 33 16093 5.02 327.949 19:59 24.08.2019
3130 Clear 30 1018 37 16093 1.5 160 19:39 24.08.2019
3131 Clear 30 1019 48 16093 5.02 327.949 19:21 24.08.2019
3132 Clear 29 1019 51 16093 5.02 327.949 18:47 24.08.2019
3133 Rain 28 1019 54 16093 1.5 40 18:25 24.08.2019
3134 Rain 28 1019 51 16093 3.44 3.268 17:59 24.08.2019
3135 Rain 27 1018 54 16093 4.1 200 17:41 24.08.2019
3136 Rain 26 1019 54 16093 1.5 100 17:22 24.08.2019
3137 Clouds 26 1018 57 16093 3.6 190 16:42 24.08.2019
3138 Clear 25 1019 64 16093 3.6 40 16:19 24.08.2019
3139 Clear 23 1017 60 16093 3.44 3.268 15:55 24.08.2019
3140 Clear 23 1017 60 16093 3.44 3.268 15:37 24.08.2019
3141 Clear 23 1018 69 16093 1.58 351.326 15:18 24.08.2019
3142 Clear 23 1016 57 16093 2.1 200 14:41 24.08.2019
3143 Clear 23 1017 64 16093 2.1 170 14:19 24.08.2019
3144 Clear 23 1016 53 16093 1.5 160 13:55 24.08.2019
3145 Clear 23 1016 53 16093 1.5 160 13:36 24.08.2019
3146 Clouds 23 1017 60 16093 2.6 140 13:18 24.08.2019
3147 Clear 24 1015 50 16093 2.6 180 12:42 24.08.2019
3148 Clouds 24 1016 60 16093 2.1 140 12:23 24.08.2019
3149 Clear 24 1015 50 16093 1.5 210 11:54 24.08.2019
3150 Clear 24 1015 50 16093 1.5 210 11:36 24.08.2019
3151 Clouds 24 1016 60 16093 3.6 140 11:18 24.08.2019
3152 Clear 24 1014 50 16093 2.6 180 10:40 24.08.2019
3153 Clear 24 1016 57 16093 3.6 170 10:21 24.08.2019
3154 Clear 25 1015 50 16093 2.6 190 09:43 24.08.2019
3155 Rain 25 1016 57 16093 2.1 140 09:19 24.08.2019
3156 Rain 25 1015 50 16093 5.7 190 08:44 24.08.2019
3157 Clear 25 1015 50 16093 5.7 190 08:26 24.08.2019
3158 Clear 25 1015 50 16093 7.7 170 07:53 24.08.2019
3159 Clear 26 1015 50 16093 7.7 170 07:31 24.08.2019
3160 Rain 27 1014 39 16093 8.2 190 06:53 24.08.2019
3161 Rain 28 1016 42 16093 6.2 160 06:23 24.08.2019
3162 Clear 30 1012 31 16093 5.7 220 05:39 24.08.2019
3163 Clear 34 1012 30 16093 2.1 290 03:50 24.08.2019
3164 Clear 35 1010 20 16093 2.1 340 03:31 24.08.2019
3165 Rain 36 1011 23 16093 5.7 300 02:19 24.08.2019
3166 Rain 36 1012 24 16093 6.2 320 01:29 24.08.2019
3167 Rain 36 1011 20 16093 2.1 280 00:48 24.08.2019
3168 Rain 36 1012 26 16093 3.6 280 00:24 24.08.2019
3169 Rain 36 1013 32 16093 2.1 310 23:45 23.08.2019
3170 Rain 36 1013 32 16093 2.1 310 23:45 23.08.2019
3171 Rain 36 1014 26 16093 3.6 280 23:20 23.08.2019
3172 Clear 35 1014 28 16093 2.6 270 22:45 23.08.2019
3173 Clear 35 1013 26 16093 3.65 280.999 22:27 23.08.2019
3174 Clear 35 1013 26 16093 2.1 220 21:56 23.08.2019
3175 Clear 34 1013 29 16093 1.5 270 21:37 23.08.2019
3176 Clear 34 1015 31 16093 2.6 310 21:19 23.08.2019
3177 Rain 33 1016 38 16093 3.1 280 20:52 23.08.2019
3178 Rain 33 1014 31 16093 3.1 240 20:33 23.08.2019
3179 Clear 32 1015 35 16093 3.6 210 19:47 23.08.2019
3180 Clear 31 1015 35 16093 4.1 210 19:19 23.08.2019
3181 Rain 30 1016 51 16093 4.6 270 18:58 23.08.2019
3182 Rain 30 1015 42 16093 4.1 220 18:40 23.08.2019
3183 Rain 30 1015 42 16093 4.1 220 18:40 23.08.2019
3184 Clouds 29 1016 48 16093 2.6 200 18:21 23.08.2019
3185 Clear 28 1017 57 16093 2.6 250 17:45 23.08.2019
3186 Clear 28 1017 57 16093 2.6 250 17:45 23.08.2019
3187 Clear 28 1014 57 16093 1.5 190 17:26 23.08.2019
3188 Clear 26 1016 78 16093 0.58 305.86 16:57 23.08.2019
3189 Clear 26 1014 69 16093 0.58 305.86 16:39 23.08.2019
3190 Clouds 25 1015 65 16093 0.58 305.86 16:21 23.08.2019
3191 Clear 25 1013 73 16093 2.1 30 15:40 23.08.2019
3192 Clouds 24 1014 61 16093 2.6 180 15:22 23.08.2019
3193 Clear 24 1013 73 16093 2.95 243.809 14:57 23.08.2019
3194 Clear 24 1012 78 16093 2.95 243.809 14:39 23.08.2019
3195 Clouds 25 1014 64 16093 3.6 190 14:20 23.08.2019
3196 Clear 25 1012 73 16093 2.95 243.809 13:54 23.08.2019
3197 Clear 25 1012 73 16093 2.95 243.809 13:36 23.08.2019
3198 Clear 25 1012 73 16093 2.95 243.809 13:36 23.08.2019
3199 Rain 25 1013 69 16093 3.1 160 13:18 23.08.2019
3200 Clear 25 1011 57 16093 4.6 120 12:42 23.08.2019
3201 Clouds 25 1013 57 16093 4.6 120 12:22 23.08.2019
3202 Clear 25 1011 54 16093 3.1 130 11:58 23.08.2019
3203 Clear 25 1011 54 16093 3.1 130 11:39 23.08.2019
3204 Clouds 25 1013 61 16093 1.5 0 11:20 23.08.2019
3205 Clear 25 1011 54 16093 4.6 120 10:57 23.08.2019
3206 Clear 26 1011 61 16093 2.1 90 10:39 23.08.2019
3207 Clouds 26 1014 61 16093 2.6 0 10:19 23.08.2019
3208 Clouds 26 1012 57 16093 4.1 150 09:44 23.08.2019
3209 Clouds 26 1014 61 16093 2.6 0 09:25 23.08.2019
3210 Thunderstorm 26 1012 65 16093 9.8 180 08:46 23.08.2019
3211 Thunderstorm 26 1014 61 16093 1.5 0 08:22 23.08.2019
3212 Rain 26 1012 69 16093 7.2 180 07:59 23.08.2019
3213 Rain 26 1014 54 16093 5.1 90 07:41 23.08.2019
3214 Rain 26 1014 54 16093 5.1 90 07:22 23.08.2019
3215 Rain 27 1011 50 16093 3.6 200 06:41 23.08.2019
3216 Rain 28 1013 57 16093 3.6 250 06:22 23.08.2019
3217 Thunderstorm 29 1012 51 16093 5.7 260 05:44 23.08.2019
3218 Thunderstorm 29 1012 51 16093 5.7 260 05:25 23.08.2019
3219 Rain 35 1007 14 16093 5.1 320 03:46 23.08.2019
3220 Clouds 37 1006 14 16093 5.89 270.778 02:39 23.08.2019
3221 Clouds 38 1008 16 16093 5.7 300 02:20 23.08.2019
3222 Clear 39 1007 13 16093 6.2 340 00:58 23.08.2019
3223 Clouds 39 1007 13 16093 2.6 340 00:39 23.08.2019
3224 Clouds 40 1009 17 16093 2.1 360 00:18 23.08.2019
3225 Clear 40 1008 13 16093 4.1 10 23:41 22.08.2019
3226 Clear 40 1011 19 16093 2.6 350 23:21 22.08.2019
3227 Clear 39 1009 15 16093 2.6 220 22:42 22.08.2019
3228 Clear 39 1012 20 16093 3.1 320 22:24 22.08.2019
3229 Clear 39 1012 20 16093 3.1 320 22:24 22.08.2019
3230 Clear 39 1010 15 16093 1.5 110 21:58 22.08.2019
3231 Clear 38 1010 17 16093 1.5 180 21:40 22.08.2019
3232 Clear 37 1012 23 16093 3.14 208.645 21:22 22.08.2019
3233 Clear 37 1011 17 16093 2.1 280 20:58 22.08.2019
3234 Clear 36 1011 20 16093 3.6 210 20:39 22.08.2019
3235 Clear 36 1013 30 16093 4.6 230 20:20 22.08.2019
3236 Rain 35 1013 25 16093 1.5 120 19:56 22.08.2019
3237 Rain 35 1011 26 16093 3.6 190 19:38 22.08.2019
3238 Rain 35 1013 41 16093 3.6 150 19:20 22.08.2019
3239 Clear 34 1013 36 16093 3.14 208.645 18:57 22.08.2019
3240 Clear 33 1012 29 16093 3.1 190 18:39 22.08.2019
3241 Clear 33 1014 43 16093 3.6 130 18:19 22.08.2019
3242 Rain 32 1013 38 16093 2.1 310 17:43 22.08.2019
3243 Rain 31 1014 45 16093 4.1 170 17:24 22.08.2019
3244 Clear 30 1013 45 16093 2.6 80 16:59 22.08.2019
3245 Clear 30 1012 37 16093 5.7 130 16:40 22.08.2019
3246 Clear 30 1012 37 16093 5.7 130 16:40 22.08.2019
3247 Clear 29 1014 45 16093 3.6 90 16:22 22.08.2019
3248 Clear 29 1014 45 16093 3.6 90 16:22 22.08.2019
3249 Clear 29 1014 45 16093 3.6 90 16:22 22.08.2019
3250 Clear 29 1014 45 16093 4.1 140 16:00 22.08.2019
3251 Clear 28 1011 37 16093 4.6 120 15:40 22.08.2019
3252 Clear 28 1011 37 16093 4.6 120 15:40 22.08.2019
3253 Clear 27 1013 47 16093 2.6 110 15:22 22.08.2019
3254 Clear 27 1013 47 16093 2.6 110 15:22 22.08.2019
3255 Clear 27 1011 34 16093 3.6 120 14:57 22.08.2019
3256 Clear 27 1011 30 16093 2.85 172.234 14:39 22.08.2019
3257 Clear 27 1013 44 16093 3.1 120 14:18 22.08.2019
3258 Clear 27 1010 28 16093 2.85 172.234 13:56 22.08.2019
3259 Clear 27 1010 28 16093 2.85 172.234 13:37 22.08.2019
3260 Clear 28 1012 39 16093 4.1 130 13:18 22.08.2019
3261 Rain 28 1010 27 16093 3.01 180.171 12:40 22.08.2019
3262 Rain 29 1012 35 16093 4.1 130 12:22 22.08.2019
3263 Rain 29 1009 25 16093 3.02 130.49 11:57 22.08.2019
3264 Rain 29 1009 25 16093 3.02 130.49 11:57 22.08.2019
3265 Clear 29 1009 25 16093 3.02 130.49 11:39 22.08.2019
3266 Clear 29 1012 32 16093 4.6 120 11:19 22.08.2019
3267 Clear 29 1012 32 16093 4.6 120 11:19 22.08.2019
3268 Clear 29 1009 25 16093 3.02 130.49 10:57 22.08.2019
3269 Clear 30 1009 25 16093 3.02 130.49 10:37 22.08.2019
3270 Clear 30 1012 30 16093 4.6 120 10:19 22.08.2019
3271 Clear 30 1012 31 16093 5.1 190 09:54 22.08.2019
3272 Clear 30 1009 22 16093 2.71 170.298 09:36 22.08.2019
3273 Clear 30 1009 22 16093 2.71 170.298 09:36 22.08.2019
3274 Clear 29 1012 30 16093 5.1 130 09:18 22.08.2019
3275 Clear 30 1009 22 16093 2.23 117.644 08:40 22.08.2019
3276 Clear 30 1009 22 16093 2.23 117.644 08:21 22.08.2019
3277 Clear 31 1009 19 16093 2.23 117.644 07:43 22.08.2019
3278 Clear 32 1011 27 16093 3.6 130 07:24 22.08.2019
3279 Clear 32 1009 13 16093 2.23 117.644 06:59 22.08.2019
3280 Clear 32 1009 13 16093 2.23 117.644 06:59 22.08.2019
3281 Clear 32 1009 13 16093 2.23 117.644 06:41 22.08.2019
3282 Clear 34 1011 26 16093 3.1 90 06:19 22.08.2019
3283 Clear 36 1007 19 16093 3.6 330 04:42 22.08.2019
3284 Clear 41 1009 9 16093 3.1 350 02:56 22.08.2019
3285 Clear 41 1007 11 16093 3.6 330 02:35 22.08.2019
3286 Clear 42 1007 12 16093 5.1 340 01:27 22.08.2019
3287 Clear 42 1009 9 16093 6.7 310 00:49 22.08.2019
3288 Clear 42 1008 8 16093 5.7 320 00:30 22.08.2019
3289 Clear 42 1011 10 16093 3.6 350 23:58 21.08.2019
3290 Clear 42 1009 8 16093 3.6 350 23:39 21.08.2019
3291 Clear 42 1011 13 16093 1.5 320 23:20 21.08.2019
3292 Haze 42 1011 9 16093 3.6 260 22:56 21.08.2019
3293 Haze 42 1012 14 16093 4.1 330 22:38 21.08.2019
3294 Haze 41 1012 16 16093 3.6 250 22:19 21.08.2019
3295 -273 0 0 0 0 0 21:55 21.08.2019
3296 Rain 41 1011 8 16093 2.6 320 21:37 21.08.2019
3297 Rain 40 1013 20 16093 1.5 160 21:18 21.08.2019
3298 Rain 39 1013 11 16093 2.6 70 20:43 21.08.2019
3299 Rain 39 1013 11 16093 2.6 70 20:43 21.08.2019
3300 Rain 39 1014 22 16093 3.09 200.923 20:24 21.08.2019
3301 Rain 38 1014 21 16093 2.1 140 19:58 21.08.2019
3302 Rain 38 1012 14 16093 3.09 200.923 19:39 21.08.2019
3303 Rain 37 1014 26 16093 3.6 110 19:20 21.08.2019
3304 Rain 37 1015 23 16093 3.09 200.923 18:56 21.08.2019
3305 Rain 36 1014 30 16093 2.6 180 18:37 21.08.2019
3306 Rain 36 1014 30 16093 2.6 180 18:37 21.08.2019
3307 Rain 35 1014 30 16093 2.6 180 18:19 21.08.2019
3308 Rain 33 1014 31 16093 3.1 130 17:42 21.08.2019
3309 Rain 34 1014 31 16093 3.1 130 17:42 21.08.2019
3310 Rain 32 1014 31 16093 3.1 130 17:20 21.08.2019
3311 Rain 31 1014 23 16093 2.55 176.195 16:55 21.08.2019
3312 Clear 30 1012 24 16093 3.1 110 16:36 21.08.2019
3313 Clouds 29 1014 37 16093 1.5 150 16:18 21.08.2019
3314 Clear 27 1012 27 16093 3.1 120 15:42 21.08.2019
3315 Clear 26 1013 34 16093 2.1 130 15:22 21.08.2019
3316 Clear 26 1011 29 16093 0.7 54.136 14:59 21.08.2019
3317 Clear 26 1011 29 16093 0.7 54.136 14:39 21.08.2019
3318 Clear 26 1013 41 16093 0.7 54.136 14:21 21.08.2019
3319 Clear 26 1011 25 16093 2.6 60 13:58 21.08.2019
3320 Clear 26 1011 27 16093 0.7 54.136 13:40 21.08.2019
3321 Clear 26 1013 25 16093 1.3 84.158 13:19 21.08.2019
3322 Rain 27 1011 24 16093 1.3 84.158 12:44 21.08.2019
3323 Rain 27 1013 30 16093 1.72 41.421 12:25 21.08.2019
3324 Rain 28 1011 24 16093 1.5 130 11:59 21.08.2019
3325 Rain 28 1011 22 16093 2.1 80 11:41 21.08.2019
3326 Rain 29 1013 28 16093 1.72 41.421 11:22 21.08.2019
3327 Clear 29 1011 22 16093 3.1 120 10:58 21.08.2019
3328 Clear 29 1011 22 16093 3.1 120 10:38 21.08.2019
3329 Clouds 30 1013 26 16093 3.1 130 10:20 21.08.2019
3330 Clear 30 1011 21 16093 1.72 41.421 09:57 21.08.2019
3331 Clear 30 1013 26 16093 5.7 110 09:37 21.08.2019
3332 Clear 30 1013 25 16093 2.1 300 09:18 21.08.2019
3333 Clear 31 1010 21 16093 2.94 62.728 08:44 21.08.2019
3334 Clear 31 1010 21 16093 2.94 62.728 08:44 21.08.2019
3335 Clear 31 1012 23 16093 1.5 330 08:24 21.08.2019
3336 Rain 32 1010 20 16093 1.5 290 07:43 21.08.2019
3337 Rain 33 1012 19 16093 2.1 330 07:24 21.08.2019
3338 Rain 33 1010 14 16093 1.5 10 06:50 21.08.2019
3339 Rain 34 1012 17 16093 2.6 320 06:28 21.08.2019
3340 Clear 35 1010 14 16093 2.1 360 05:56 21.08.2019
3341 Clear 36 1009 13 16093 2.6 350 05:28 21.08.2019
3342 Clear 38 1009 13 16093 2.6 330 03:56 21.08.2019
3343 Clear 42 1009 9 16093 6.2 330 01:52 21.08.2019
3344 Clear 42 1011 10 16093 4.1 240 01:23 21.08.2019
3345 Clear 42 1010 9 16093 3.6 340 00:38 21.08.2019
3346 Clear 42 1012 12 16093 3.1 340 00:18 21.08.2019
3347 Clear 42 1012 9 16093 5.1 300 23:43 20.08.2019
3348 Clear 42 1013 12 16093 3.6 310 23:19 20.08.2019
3349 Clear 42 1011 7 16093 3.6 320 22:58 20.08.2019
3350 Rain 42 1012 7 16093 4.1 330 22:39 20.08.2019
3351 Rain 41 1014 11 16093 2.6 220 22:21 20.08.2019
3352 Clear 41 1014 8 16093 5.7 310 21:57 20.08.2019
3353 Clear 41 1014 8 16093 5.7 310 21:57 20.08.2019
3354 Clear 41 1012 8 16093 1.5 290 21:38 20.08.2019
3355 Clear 40 1014 9 16093 1.5 250 21:19 20.08.2019
3356 Clear 39 1015 9 16093 4.6 330 20:56 20.08.2019
3357 Clear 39 1015 9 16093 4.6 330 20:56 20.08.2019
3358 Rain 39 1013 11 16093 2.05 355.749 20:36 20.08.2019
3359 Rain 39 1013 11 16093 2.05 355.749 20:36 20.08.2019
3360 Clear 38 1015 12 16093 2.1 20 20:18 20.08.2019
3361 Rain 37 1014 11 16093 1.5 220 19:39 20.08.2019
3362 Rain 36 1016 14 12874 2.05 355.749 19:20 20.08.2019
3363 Rain 35 1016 15 16093 2.05 355.749 18:55 20.08.2019
3364 Clear 35 1014 14 16093 2.6 100 18:37 20.08.2019
3365 Rain 33 1016 15 16093 1.62 51.883 18:18 20.08.2019
3366 Rain 32 1016 15 16093 1.62 51.883 17:55 20.08.2019
3367 Clear 31 1014 20 16093 2.1 110 17:37 20.08.2019
3368 Clear 30 1014 20 16093 2.1 110 17:18 20.08.2019
3369 Clear 28 1014 26 16093 2.6 100 16:41 20.08.2019
3370 Clear 26 1014 26 16093 2.6 100 16:23 20.08.2019
3371 Clear 24 1013 28 16093 1.62 51.883 15:42 20.08.2019
3372 Clear 23 1016 33 16093 3.1 140 15:19 20.08.2019
3373 Clear 23 1013 30 16093 1.42 7.395 14:56 20.08.2019
3374 Clear 24 1013 33 16093 1.42 7.395 14:38 20.08.2019
3375 Clear 24 1013 33 16093 1.42 7.395 14:20 20.08.2019
3376 Clear 23 1012 28 16093 1.42 7.395 13:55 20.08.2019
3377 Clear 24 1012 28 16093 2.6 80 13:37 20.08.2019
3378 Rain 24 1012 28 16093 2.6 80 13:18 20.08.2019
3379 Rain 25 1012 23 16093 2.1 80 12:48 20.08.2019
3380 Rain 25 1012 25 16093 1.5 70 12:24 20.08.2019
3381 Rain 26 1012 23 16093 1.63 55.109 11:56 20.08.2019
3382 Rain 26 1012 20 16093 1.63 55.109 11:38 20.08.2019
3383 Rain 26 1012 19 16093 1.63 55.109 11:18 20.08.2019
3384 Clear 26 1012 19 16093 1.63 55.109 10:56 20.08.2019
3385 Clear 26 1012 19 16093 1.5 180 10:37 20.08.2019
3386 Clear 27 1012 19 16093 1.5 180 10:18 20.08.2019
3387 Rain 28 1012 18 16093 1.63 55.109 09:41 20.08.2019
3388 Rain 28 1012 18 16093 2.35 42.259 09:22 20.08.2019
3389 Clear 29 1012 17 16093 2.35 42.259 08:43 20.08.2019
3390 Clear 29 1012 17 16093 2.35 42.259 08:43 20.08.2019
3391 Rain 29 1012 17 16093 2.35 42.259 08:24 20.08.2019
3392 Rain 30 1012 18 16093 2.35 42.259 07:58 20.08.2019
3393 Rain 30 1012 15 16093 2.35 42.259 07:40 20.08.2019
3394 Rain 30 1012 15 16093 2.35 42.259 07:22 20.08.2019
3395 Rain 31 1012 21 16093 2.35 42.259 06:47 20.08.2019
3396 Clear 32 1012 24 16093 1.38 333.213 06:21 20.08.2019
3397 Rain 33 1012 24 16093 1.38 333.213 05:48 20.08.2019
3398 Clear 35 1013 12 16093 2.6 340 04:45 20.08.2019
3399 Clear 38 1011 24 16093 3.6 320 03:26 20.08.2019
3400 Clear 39 1011 13 16093 5.1 310 02:24 20.08.2019
3401 Clear 39 1012 8 16093 3.6 320 01:22 20.08.2019
3402 Clear 40 1012 9 16093 3.6 320 00:45 20.08.2019
3403 Clear 39 1012 9 16093 3.6 320 00:25 20.08.2019
3404 Clear 39 1014 11 16093 6.2 310 23:50 19.08.2019
3405 Clear 39 1013 11 16093 2.6 320 23:19 19.08.2019
3406 Clear 39 1013 11 16093 3.1 310 22:59 19.08.2019
3407 Clear 39 1013 13 16093 3.6 240 22:41 19.08.2019
3408 Rain 39 1013 13 16093 3.6 240 22:21 19.08.2019
3409 Rain 38 1014 13 16093 1.5 340 21:58 19.08.2019
3410 Rain 38 1016 18 16093 2.1 20 21:38 19.08.2019
3411 Clear 37 1014 15 16093 3.1 300 21:20 19.08.2019
3412 Rain 36 1015 16 16093 3.1 290 20:56 19.08.2019
3413 Rain 36 1015 17 16093 1.5 250 20:37 19.08.2019
3414 Rain 36 1015 17 16093 1.5 250 20:19 19.08.2019
3415 Clear 35 1015 18 16093 2.1 350 19:55 19.08.2019
3416 Rain 35 1015 20 16093 2.1 250 19:36 19.08.2019
3417 Rain 34 1017 29 16093 2.1 310 19:18 19.08.2019
3418 Rain 33 1015 27 16093 2.83 306.809 18:41 19.08.2019
3419 Rain 32 1015 27 16093 0.59 217.918 18:22 19.08.2019
3420 Rain 31 1015 30 16093 3.1 80 17:57 19.08.2019
3421 Clear 30 1015 32 16093 0.59 217.918 17:38 19.08.2019
3422 Clear 29 1015 32 16093 0.59 217.918 17:19 19.08.2019
3423 Clear 29 1017 47 16093 0.59 217.918 16:54 19.08.2019
3424 Clear 28 1016 47 16093 3.1 120 16:36 19.08.2019
3425 Clear 27 1016 47 16093 3.1 120 16:18 19.08.2019
3426 Clear 25 1016 50 16093 0.59 217.918 15:45 19.08.2019
3427 Clouds 24 1016 57 16093 1.5 170 15:19 19.08.2019
3428 Clear 24 1013 44 16093 0.75 112.685 14:55 19.08.2019
3429 Clear 25 1013 44 16093 0.75 112.685 14:36 19.08.2019
3430 Clouds 25 1015 50 16093 0.75 112.685 14:18 19.08.2019
3431 Clear 25 1013 39 16093 0.75 112.685 13:54 19.08.2019
3432 Clear 25 1013 39 16093 0.75 112.685 13:36 19.08.2019
3433 Clouds 26 1015 47 16093 0.8 106.576 13:18 19.08.2019
3434 Clear 26 1013 39 16093 2.1 110 12:41 19.08.2019
3435 Clouds 26 1015 45 16093 3.1 170 12:22 19.08.2019
3436 Clear 26 1013 32 16093 3.1 120 11:43 19.08.2019
3437 Clouds 27 1015 45 16093 2.1 180 11:25 19.08.2019
3438 Clear 27 1013 28 16093 2.1 200 10:59 19.08.2019
3439 Clear 27 1013 28 16093 2.1 200 10:39 19.08.2019
3440 Clouds 27 1015 45 16093 3.1 130 10:19 19.08.2019
3441 Clear 27 1013 28 16093 3.1 190 09:55 19.08.2019
3442 Clear 27 1013 28 16093 3.1 190 09:37 19.08.2019
3443 Clear 28 1015 45 16093 2.53 233.868 09:19 19.08.2019
3444 Clear 29 1013 24 16093 3.1 190 08:42 19.08.2019
3445 Clear 29 1015 42 16093 3.1 210 08:22 19.08.2019
3446 Clear 29 1012 23 16093 1.5 160 07:54 19.08.2019
3447 Clear 30 1012 23 16093 1.5 160 07:34 19.08.2019
3448 Clear 31 1012 23 16093 1.5 160 06:59 19.08.2019
3449 Rain 31 1011 22 16093 2.1 30 06:36 19.08.2019
3450 Rain 32 1011 18 16093 2.1 360 05:27 19.08.2019
3451 Clear 34 1011 17 16093 2.1 340 04:33 19.08.2019
3452 Rain 37 1011 14 16093 3.1 320 03:27 19.08.2019
3453 Clear 38 1013 14 16093 3.6 310 02:30 19.08.2019
3454 Clear 39 1011 11 16093 3.1 10 01:37 19.08.2019
3455 Clear 39 1013 15 16093 4.6 330 00:48 19.08.2019
3456 Clear 38 1013 16 16093 4.6 280 00:24 19.08.2019
3457 Clear 38 1013 16 16093 6.2 300 23:56 18.08.2019
3458 Clear 38 1012 12 16093 2.1 20 23:36 18.08.2019
3459 Clear 38 1014 20 16093 6.2 290 23:18 18.08.2019
3460 Clear 37 1013 14 16093 1.5 230 22:40 18.08.2019
3461 Rain 37 1015 26 16093 4.1 300 22:21 18.08.2019
3462 Clear 37 1015 25 16093 4.1 220 21:57 18.08.2019
3463 Clear 34 1014 21 16093 1.5 240 21:38 18.08.2019
3464 Clouds 34 1015 30 16093 2.6 220 21:20 18.08.2019
3465 Clear 33 1014 24 16093 2.1 240 20:45 18.08.2019
3466 Clear 33 1014 24 16093 2.1 240 20:45 18.08.2019
3467 Clear 33 1014 24 16093 2.1 240 20:27 18.08.2019
3468 Clear 32 1014 24 16093 3.6 260 19:59 18.08.2019
3469 Clear 32 1014 27 16093 4.6 240 19:41 18.08.2019
3470 Clear 32 1016 38 16093 3.1 210 19:23 18.08.2019
3471 Clear 32 1016 38 16093 2.1 0 18:56 18.08.2019
3472 Clear 32 1014 25 16093 4.1 190 18:38 18.08.2019
3473 Clear 30 1016 35 16093 2.6 110 18:20 18.08.2019
3474 Clear 29 1014 30 16093 1.5 190 17:44 18.08.2019
3475 Clear 29 1015 39 16093 2.6 130 17:19 18.08.2019
3476 Clear 29 1015 39 16093 1.22 188.196 16:59 18.08.2019
3477 Clear 29 1013 34 16093 1.5 100 16:41 18.08.2019
3478 Clear 28 1015 50 16093 2.6 120 16:23 18.08.2019
3479 Clear 26 1013 36 16093 1.5 90 15:59 18.08.2019
3480 Clear 25 1013 38 16093 1.5 90 15:39 18.08.2019
3481 Clear 25 1014 53 16093 2.6 110 15:20 18.08.2019
3482 Clear 25 1014 53 16093 2.6 110 15:20 18.08.2019
3483 Clear 25 1012 38 16093 1.5 90 14:56 18.08.2019
3484 Clear 25 1012 38 16093 1.5 90 14:38 18.08.2019
3485 Clear 25 1014 50 16093 3.1 120 14:19 18.08.2019
3486 Clear 25 1012 38 16093 0.71 134.373 13:55 18.08.2019
3487 Clear 26 1012 38 16093 0.71 134.373 13:36 18.08.2019
3488 Clear 26 1013 44 16093 4.6 120 13:18 18.08.2019
3489 Clear 27 1012 36 16093 2.6 40 12:40 18.08.2019
3490 Clear 27 1013 42 16093 5.1 120 12:22 18.08.2019
3491 Clear 28 1012 30 16093 1.09 153.786 11:54 18.08.2019
3492 Clear 28 1012 30 16093 1.09 153.786 11:36 18.08.2019
3493 Clear 29 1013 37 16093 1.5 150 11:18 18.08.2019
3494 Clear 29 1011 28 16093 3.1 90 10:41 18.08.2019
3495 Clear 29 1013 37 16093 3.1 140 10:19 18.08.2019
3496 Clear 30 1012 27 16093 1.09 153.786 09:48 18.08.2019
3497 Clear 29 1013 37 16093 2.1 90 09:21 18.08.2019
3498 Clear 30 1011 25 16093 0.94 260.809 08:54 18.08.2019
3499 Clear 30 1011 25 16093 0.94 260.809 08:36 18.08.2019
3500 Clear 30 1013 35 16093 2.1 20 08:18 18.08.2019
3501 Clear 31 1011 22 16093 2.6 220 07:41 18.08.2019
3502 Clear 31 1013 28 16093 3.1 190 07:23 18.08.2019
3503 Clear 34 1009 16 16093 3.6 220 05:46 18.08.2019
3504 Clear 36 1008 14 16093 3.6 250 04:51 18.08.2019
3505 Clear 37 1010 20 16093 4.6 270 03:22 18.08.2019
3506 Clear 38 1008 12 16093 4.1 260 02:45 18.08.2019
3507 Clear 38 1011 19 16093 6.21 264.451 02:18 18.08.2019
3508 Clear 38 1009 9 16093 5.1 270 01:30 18.08.2019
3509 Clear 39 1009 10 16093 5.7 270 00:44 18.08.2019
3510 Clear 38 1012 14 16093 4.6 270 00:24 18.08.2019
3511 Clear 38 1010 12 16093 5.1 230 23:58 17.08.2019
3512 Clear 38 1010 12 16093 5.1 230 23:58 17.08.2019
3513 Clear 38 1010 12 16093 5.1 230 23:39 17.08.2019
3514 Clear 38 1012 18 16093 3.1 270 23:21 17.08.2019
3515 Clear 37 1011 12 16093 3.6 230 22:59 17.08.2019
3516 Clear 37 1011 14 16093 3.6 200 22:41 17.08.2019
3517 Clouds 37 1013 22 16093 1.5 250 22:23 17.08.2019
3518 Clear 36 1012 19 16093 1.5 190 21:55 17.08.2019
3519 Clear 36 1012 19 16093 1.5 190 21:37 17.08.2019
3520 Clouds 35 1014 21 16093 2.1 260 21:19 17.08.2019
3521 Clear 34 1013 23 16093 3.1 160 20:39 17.08.2019
3522 Clear 33 1015 28 16093 2.1 140 20:20 17.08.2019
3523 Rain 33 1013 23 16093 3.1 220 19:56 17.08.2019
3524 Rain 33 1013 26 16093 2.1 140 19:38 17.08.2019
3525 Rain 33 1015 38 16093 3.1 140 19:19 17.08.2019
3526 Rain 32 1013 29 16093 2.1 170 18:41 17.08.2019
3527 Rain 31 1015 38 16093 3.6 160 18:19 17.08.2019
3528 Rain 31 1013 30 16093 4.6 130 17:56 17.08.2019
3529 Rain 30 1013 30 16093 4.6 130 17:38 17.08.2019
3530 Rain 29 1015 42 16093 3.1 120 17:20 17.08.2019
3531 Rain 28 1015 42 16093 3.1 80 16:44 17.08.2019
3532 Rain 27 1015 50 16093 4.1 100 16:26 17.08.2019
3533 Clear 26 1015 47 16093 4.1 90 15:58 17.08.2019
3534 Clear 25 1012 36 16093 4.6 130 15:39 17.08.2019
3535 Clear 24 1014 57 16093 3.1 110 15:20 17.08.2019
3536 Clear 24 1014 57 16093 3.1 110 15:20 17.08.2019
3537 Clear 24 1012 44 16093 3.6 110 14:41 17.08.2019
3538 Clear 24 1012 44 16093 3.6 110 14:41 17.08.2019
3539 Clear 24 1012 44 16093 3.6 110 14:41 17.08.2019
3540 Rain 24 1014 53 16093 2.1 60 14:23 17.08.2019
3541 Rain 24 1012 41 16093 3.11 174.167 13:49 17.08.2019
3542 Clear 25 1014 50 16093 2.6 110 13:23 17.08.2019
3543 Clear 25 1014 50 16093 2.6 110 13:23 17.08.2019
3544 Clear 25 1014 44 16093 2.6 140 12:58 17.08.2019
3545 Clear 25 1012 36 16093 2.42 171.589 12:40 17.08.2019
3546 Clear 26 1014 53 16093 2.6 140 12:19 17.08.2019
3547 Clear 26 1012 37 16093 4.1 170 11:45 17.08.2019
3548 Rain 26 1014 42 16093 3.6 170 11:21 17.08.2019
3549 Rain 27 1012 37 16093 4.1 190 10:57 17.08.2019
3550 Rain 27 1012 37 16093 4.1 190 10:57 17.08.2019
3551 Rain 27 1013 32 16093 4.6 190 10:39 17.08.2019
3552 Clear 27 1014 45 16093 0.55 19.877 10:19 17.08.2019
3553 Rain 28 1013 28 16093 5.7 180 09:48 17.08.2019
3554 Rain 28 1013 28 16093 5.7 180 09:29 17.08.2019
3555 Thunderstorm 28 1016 31 16093 4.1 140 08:54 17.08.2019
3556 Clouds 30 1015 33 16093 2.6 30 08:25 17.08.2019
3557 Clouds 30 1015 31 16093 3.1 140 07:51 17.08.2019
3558 Clouds 31 1015 35 16093 6.2 150 07:21 17.08.2019
3559 Clouds 32 1012 24 16093 9.3 190 06:53 17.08.2019
3560 Clear 33 1011 17 16093 6.2 230 05:32 17.08.2019
3561 Rain 35 1010 15 16093 2.6 210 04:29 17.08.2019
3562 Rain 37 1012 20 16093 5.1 210 03:20 17.08.2019
3563 Clear 40 1010 11 16093 2.1 340 01:46 17.08.2019
3564 Rain 40 1010 11 16093 2.1 340 01:27 17.08.2019
3565 Rain 40 1011 12 16093 1.5 310 00:54 17.08.2019
3566 Clear 40 1013 16 16093 4.1 300 00:28 17.08.2019
3567 Clear 40 1012 12 16093 3.97 294.381 23:50 16.08.2019
3568 Clear 40 1014 16 16093 3.1 320 23:27 16.08.2019
3569 Rain 40 1013 15 16093 3.97 294.381 22:56 16.08.2019
3570 Rain 39 1013 15 16093 3.97 294.381 22:37 16.08.2019
3571 Rain 39 1015 17 16093 3.1 240 22:19 16.08.2019
3572 Rain 38 1014 14 16093 3.97 294.381 21:40 16.08.2019
3573 Rain 37 1016 20 16093 3.1 258.654 21:20 16.08.2019
3574 Rain 37 1015 18 16093 1.5 200 20:55 16.08.2019
3575 Rain 37 1015 18 16093 1.5 200 20:37 16.08.2019
3576 Rain 36 1017 28 16093 3.1 258.654 20:18 16.08.2019
3577 Rain 35 1015 24 16093 1.5 240 19:41 16.08.2019
3578 Rain 35 1017 30 16093 2.6 100 19:22 16.08.2019
3579 Rain 33 1015 26 16093 4.1 200 18:43 16.08.2019
3580 Rain 33 1017 38 16093 1.5 110 18:25 16.08.2019
3581 Rain 33 1017 38 16093 1.5 110 18:25 16.08.2019
3582 Rain 32 1018 31 16093 2.1 130 17:56 16.08.2019
3583 Rain 31 1015 31 16093 4.6 170 17:37 16.08.2019
3584 Rain 31 1017 48 16093 2.1 150 17:18 16.08.2019
3585 Rain 30 1015 28 16093 2.6 120 16:41 16.08.2019
3586 Rain 29 1017 47 16093 3.1 90 16:21 16.08.2019
3587 Clear 27 1015 30 16093 3.1 120 15:57 16.08.2019
3588 Clear 26 1015 31 8047 2.1 100 15:39 16.08.2019
3589 Clear 26 1017 50 16093 3.1 120 15:21 16.08.2019
3590 Clear 26 1015 26 16093 2.6 110 14:57 16.08.2019
3591 Clear 25 1014 22 16093 2.6 150 14:38 16.08.2019
3592 Clear 26 1016 44 16093 3.6 120 14:18 16.08.2019
3593 Clear 26 1013 21 16093 2.52 161.868 13:41 16.08.2019
3594 Clear 26 1015 39 16093 3.6 130 13:22 16.08.2019
3595 Clear 26 1015 39 16093 3.6 130 13:22 16.08.2019
3596 Clear 27 1013 31 16093 4.6 150 12:55 16.08.2019
3597 Clear 27 1013 31 16093 4.6 150 12:37 16.08.2019
3598 Clear 28 1015 35 16093 5.1 110 12:18 16.08.2019
3599 Haze 28 1013 18 16093 2.6 110 11:41 16.08.2019
3600 Haze 28 1013 18 16093 2.6 110 11:41 16.08.2019
3601 Haze 28 1015 32 16093 5.1 130 11:23 16.08.2019
3602 Haze 28 1013 15 16093 3.6 80 10:43 16.08.2019
3603 Haze 28 1015 28 16093 5.1 110 10:22 16.08.2019
3604 Rain 29 1013 15 16093 3.1 170 09:55 16.08.2019
3605 Rain 29 1013 15 16093 3.1 170 09:37 16.08.2019
3606 Rain 29 1015 27 16093 5.1 130 09:18 16.08.2019
3607 Haze 30 1012 14 16093 2.1 170 08:40 16.08.2019
3608 Haze 30 1015 22 16093 5.1 120 08:20 16.08.2019
3609 Haze 31 1012 18 16093 2.6 240 07:52 16.08.2019
3610 Haze 31 1012 18 16093 2.6 240 07:30 16.08.2019
3611 Rain 32 1012 10 16093 1.63 57.088 06:56 16.08.2019
3612 Rain 33 1014 12 16093 3.57 22.666 06:19 16.08.2019
3613 Rain 34 1011 9 16093 2.6 50 05:36 16.08.2019
3614 Rain 39 1013 7 16093 2.6 320 03:22 16.08.2019
3615 Rain 41 1011 5 16093 4.6 340 01:59 16.08.2019
3616 Rain 41 1011 5 16093 4.6 330 01:29 16.08.2019
3617 Clear 41 1011 5 16093 5.1 340 00:57 16.08.2019
3618 Clear 41 1012 4 16093 5.7 320 00:39 16.08.2019
3619 Clear 41 1014 11 16093 5.1 310 00:18 16.08.2019
3620 Clear 41 1013 6 16093 6.2 330 23:42 15.08.2019
3621 Rain 41 1015 7 14484 2.1 250 23:20 15.08.2019
3622 Rain 41 1016 9 16093 3.6 300 22:57 15.08.2019
3623 Rain 41 1016 9 16093 3.6 300 22:38 15.08.2019
3624 Rain 41 1016 7 16093 4.1 320 22:20 15.08.2019
3625 Rain 40 1015 9 16093 3.4 299.73 21:40 15.08.2019
3626 Rain 40 1015 9 16093 3.4 299.73 21:40 15.08.2019
3627 Clouds 40 1017 16 16093 1.5 10 21:20 15.08.2019
3628 Clear 39 1015 10 16093 1.42 258.556 20:59 15.08.2019
3629 Rain 39 1015 12 16093 2.6 80 20:41 15.08.2019
3630 Rain 38 1017 19 16093 2.6 180 20:21 15.08.2019
3631 Rain 38 1015 13 16093 2.1 80 19:56 15.08.2019
3632 Rain 37 1016 16 16093 1.42 258.556 19:38 15.08.2019
3633 Rain 37 1018 25 16093 4.6 130 19:19 15.08.2019
3634 Rain 36 1018 22 16093 3.6 100 18:45 15.08.2019
3635 Rain 34 1018 28 16093 4.6 110 18:22 15.08.2019
3636 Rain 33 1017 24 16093 3.6 100 17:56 15.08.2019
3637 Rain 32 1015 25 16093 4.6 100 17:37 15.08.2019
3638 Rain 31 1017 35 16093 4.1 100 17:19 15.08.2019
3639 Rain 29 1017 39 16093 2.1 100 16:48 15.08.2019
3640 Clear 28 1015 28 16093 1.3 87.757 16:27 15.08.2019
3641 Clear 26 1015 30 16093 1.3 87.757 15:56 15.08.2019
3642 Clear 26 1015 27 11265 3.1 100 15:38 15.08.2019
3643 Clouds 25 1017 42 16093 4.6 120 15:19 15.08.2019
3644 Clear 25 1015 26 16093 2.6 120 14:42 15.08.2019
3645 Clear 26 1016 39 16093 6.2 110 14:23 15.08.2019
3646 Clear 26 1015 26 16093 2.1 70 13:57 15.08.2019
3647 Clear 27 1015 26 16093 2.1 70 13:39 15.08.2019
3648 Rain 27 1016 33 16093 4.1 100 13:20 15.08.2019
3649 Rain 27 1014 24 16093 1.76 96.971 12:56 15.08.2019
3650 Rain 27 1014 16 16093 1.76 96.971 12:38 15.08.2019
3651 Rain 28 1016 30 16093 6.7 110 12:18 15.08.2019
3652 Rain 28 1016 29 16093 3.6 130 11:57 15.08.2019
3653 Clear 28 1014 15 16093 2.6 160 11:36 15.08.2019
3654 Clouds 29 1016 25 16093 1.5 150 11:18 15.08.2019
3655 Rain 30 1014 21 16093 2.1 110 10:39 15.08.2019
3656 Rain 29 1014 21 16093 2.1 110 10:39 15.08.2019
3657 Clouds 30 1016 23 16093 3.1 110 10:20 15.08.2019
3658 Clear 30 1014 38 16093 1.5 140 09:45 15.08.2019
3659 Rain 29 1016 34 16093 2.6 160 09:24 15.08.2019
3660 Rain 29 1014 23 16093 1.58 90.652 08:57 15.08.2019
3661 Rain 30 1014 23 16093 2.1 190 08:37 15.08.2019
3662 Clouds 30 1016 32 16093 3.1 210 08:19 15.08.2019
3663 Clear 30 1014 16 11265 1.58 90.652 07:44 15.08.2019
3664 Clear 30 1014 16 11265 1.58 90.652 07:26 15.08.2019
3665 Clear 31 1013 23 16093 1.5 50 06:54 15.08.2019
3666 Clear 32 1013 23 16093 1.5 50 06:33 15.08.2019
3667 Rain 33 1013 22 16093 2.1 360 05:48 15.08.2019
3668 Rain 34 1013 22 16093 2.1 360 05:28 15.08.2019
3669 Rain 36 1012 22 16093 3.1 340 04:34 15.08.2019
3670 Rain 38 1012 8 16093 3.6 320 03:39 15.08.2019
3671 Rain 40 1012 7 16093 5.1 320 02:44 15.08.2019
3672 Rain 40 1014 11 16093 5.7 300 01:52 15.08.2019
3673 Rain 41 1012 13 16093 3.6 330 01:30 15.08.2019
3674 Clear 41 1013 13 16093 4.6 340 00:41 15.08.2019
3675 Clear 41 1015 11 16093 4.23 293.58 00:21 15.08.2019
3676 Rain 41 1014 12 16093 3.6 340 23:57 14.08.2019
3677 Rain 41 1014 12 16093 3.6 340 23:37 14.08.2019
3678 Rain 41 1016 10 16093 2.1 350 23:19 14.08.2019
3679 Rain 41 1016 10 16093 2.1 350 23:19 14.08.2019
3680 Rain 40 1015 12 16093 2.6 280 22:56 14.08.2019
3681 Rain 40 1015 12 16093 2.6 280 22:38 14.08.2019
3682 Rain 40 1017 11 16093 1.5 310 22:19 14.08.2019
3683 Rain 40 1017 10 16093 2.1 0 21:55 14.08.2019
3684 Rain 40 1015 13 16093 4.1 340 21:36 14.08.2019
3685 Rain 39 1017 13 16093 2.1 310 21:18 14.08.2019
3686 Rain 38 1018 13 16093 3.6 310 20:41 14.08.2019
3687 Rain 38 1018 15 16093 2.1 290 20:21 14.08.2019
3688 Rain 36 1016 16 16093 3.42 321.966 19:56 14.08.2019
3689 Clear 34 1016 16 16093 3.42 321.966 19:37 14.08.2019
3690 Clear 34 1018 20 16093 3.42 321.966 19:19 14.08.2019
3691 Clear 32 1018 18 16093 3.42 321.966 18:56 14.08.2019
3692 Clear 31 1016 21 16093 3.42 321.966 18:38 14.08.2019
3693 Clear 31 1016 21 16093 3.42 321.966 18:38 14.08.2019
3694 Clear 28 1018 30 12874 1.5 110 18:19 14.08.2019
3695 Clear 27 1016 28 16093 3.1 100 17:56 14.08.2019
3696 Clear 27 1016 28 16093 3.1 100 17:36 14.08.2019
3697 Clear 27 1018 42 16093 1.5 140 17:18 14.08.2019
3698 Clear 26 1016 31 16093 4.1 90 16:41 14.08.2019
3699 Clear 25 1017 39 16093 0.93 42.005 16:20 14.08.2019
3700 Clear 24 1015 40 16093 3.1 100 15:44 14.08.2019
3701 Clouds 24 1017 38 16093 2.6 120 15:22 14.08.2019
3702 Clear 24 1015 38 16093 1.5 90 14:59 14.08.2019
3703 Clear 24 1015 36 16093 3.1 90 14:39 14.08.2019
3704 Clouds 24 1017 41 16093 3.6 140 14:19 14.08.2019
3705 Clear 24 1015 33 16093 2.1 110 13:55 14.08.2019
3706 Clear 24 1015 33 16093 2.1 110 13:37 14.08.2019
3707 Clear 25 1016 44 16093 3.6 120 13:18 14.08.2019
3708 Clear 24 1015 31 16093 2.1 110 12:55 14.08.2019
3709 Clear 24 1015 31 16093 2.1 110 12:36 14.08.2019
3710 Clear 25 1016 44 16093 3.6 110 12:18 14.08.2019
3711 Clear 25 1015 36 16093 2.1 280 11:43 14.08.2019
3712 Clear 25 1016 41 16093 4.1 120 11:22 14.08.2019
3713 Clear 26 1014 27 16093 1.68 44.178 10:46 14.08.2019
3714 Clear 26 1016 47 16093 3.1 160 10:25 14.08.2019
3715 Clear 27 1014 22 16093 1.68 44.178 09:59 14.08.2019
3716 Clear 27 1014 24 16093 1.68 44.178 09:41 14.08.2019
3717 Clear 28 1016 41 16093 2.6 130 09:20 14.08.2019
3718 Clear 29 1014 21 16093 1.96 59.649 08:42 14.08.2019
3719 Clear 29 1016 39 16093 2.1 140 08:24 14.08.2019
3720 Clear 30 1014 23 16093 1.96 59.649 07:55 14.08.2019
3721 Clear 30 1014 23 16093 1.96 59.649 07:35 14.08.2019
3722 Clear 32 1014 22 16093 1.5 100 06:50 14.08.2019
3723 Clear 33 1016 19 16093 3.1 340 06:23 14.08.2019
3724 Clear 33 1013 18 16093 3.1 310 05:28 14.08.2019
3725 Clear 38 1012 9 16093 3.6 300 03:40 14.08.2019
3726 Clear 39 1013 10 16093 3.6 300 02:36 14.08.2019
3727 Clear 39 1015 11 16093 1.5 320 01:55 14.08.2019
3728 Clear 39 1015 14 16093 4.6 350 01:21 14.08.2019
3729 Clear 39 1016 14 16093 9.3 310 23:56 13.08.2019
3730 Rain 39 1014 12 16093 4.6 320 23:37 13.08.2019
3731 Rain 39 1016 14 16093 4.6 280 23:18 13.08.2019
3732 Rain 39 1015 13 16093 3.6 320 22:43 13.08.2019
3733 Rain 38 1017 17 16093 3.1 270 22:24 13.08.2019
3734 Clear 38 1015 13 16093 3.1 310 21:59 13.08.2019
3735 Clear 38 1016 14 16093 4.6 330 21:39 13.08.2019
3736 Rain 37 1018 23 16093 2.1 250 21:19 13.08.2019
3737 Rain 36 1016 15 16093 4.6 290 20:58 13.08.2019
3738 Rain 36 1017 18 16093 3.6 300 20:39 13.08.2019
3739 Rain 35 1018 31 16093 3.28 328.275 20:19 13.08.2019
3740 Clear 35 1018 26 16093 3.6 270 19:54 13.08.2019
3741 Clear 35 1018 26 16093 3.6 270 19:54 13.08.2019
3742 Clear 34 1017 18 16093 4.1 300 19:36 13.08.2019
3743 Clear 34 1019 38 16093 3.28 328.275 19:18 13.08.2019
3744 Rain 32 1017 25 16093 3.28 328.275 18:41 13.08.2019
3745 Rain 31 1018 40 16093 1.5 260 18:21 13.08.2019
3746 Rain 31 1019 42 16093 1.16 2.273 17:43 13.08.2019
3747 Rain 29 1018 51 16093 1.16 2.273 17:22 13.08.2019
3748 Rain 28 1017 39 16093 1.16 2.273 16:58 13.08.2019
3749 Clear 28 1017 42 16093 2.6 100 16:40 13.08.2019
3750 Clear 26 1018 57 16093 2.1 150 16:21 13.08.2019
3751 Clear 25 1016 44 16093 2.6 100 15:59 13.08.2019
3752 Clear 24 1016 50 16093 2.6 100 15:38 13.08.2019
3753 Clear 24 1016 50 16093 2.6 100 15:38 13.08.2019
3754 Clear 23 1018 73 16093 2.1 120 15:19 13.08.2019
3755 Clear 23 1016 53 16093 2.6 80 14:42 13.08.2019
3756 Clear 23 1017 69 16093 2.6 120 14:20 13.08.2019
3757 Clear 24 1015 53 16093 2.1 90 13:57 13.08.2019
3758 Clear 24 1015 44 16093 1.5 120 13:38 13.08.2019
3759 Clear 24 1017 57 16093 2.1 90 13:18 13.08.2019
3760 Clear 24 1015 44 16093 3.1 180 12:56 13.08.2019
3761 Clear 24 1015 44 16093 3.1 180 12:37 13.08.2019
3762 Clear 25 1016 57 16093 2.6 170 12:18 13.08.2019
3763 Clear 25 1015 42 16093 3.1 190 11:42 13.08.2019
3764 Clear 26 1016 57 16093 2.1 160 11:22 13.08.2019
3765 Clear 26 1015 39 16093 2.6 190 10:57 13.08.2019
3766 Clear 26 1015 41 16093 1.5 140 10:38 13.08.2019
3767 Clear 26 1016 57 16093 3.1 150 10:19 13.08.2019
3768 Clear 27 1015 32 16093 2.6 190 09:45 13.08.2019
3769 Clear 28 1016 54 16093 3.6 150 09:24 13.08.2019
3770 Rain 28 1014 30 16093 3.1 220 08:57 13.08.2019
3771 Rain 28 1014 30 16093 3.1 220 08:39 13.08.2019
3772 Clear 28 1016 58 16093 2.6 130 08:19 13.08.2019
3773 Clear 29 1014 28 16093 2.5 67.278 07:40 13.08.2019
3774 Clear 29 1016 58 16093 1.5 170 07:20 13.08.2019
3775 Clear 30 1014 25 16093 2.1 10 06:43 13.08.2019
3776 Clear 31 1013 22 16093 1.5 10 05:46 13.08.2019
3777 Clear 36 1012 17 16093 2.1 10 03:46 13.08.2019
3778 Clouds 37 1015 22 16093 4.1 330 02:22 13.08.2019
3779 Clouds 38 1015 23 16093 3.6 330 01:26 13.08.2019
3780 Clear 37 1014 17 16093 2.1 280 00:47 13.08.2019
3781 Clouds 37 1016 25 16093 4.1 277.052 00:18 13.08.2019
3782 Clouds 37 1015 16 16093 2.1 280 23:41 12.08.2019
3783 Clear 37 1017 25 16093 2.6 260 23:20 12.08.2019
3784 Clouds 37 1015 22 16093 4.1 240 22:40 12.08.2019
3785 Rain 36 1016 24 16093 2.6 360 22:20 12.08.2019
3786 Rain 36 1016 24 16093 2.6 360 21:57 12.08.2019
3787 Rain 36 1016 24 16093 4.1 277.052 21:38 12.08.2019
3788 Rain 35 1018 34 16093 2.1 220 21:19 12.08.2019
3789 Clear 35 1019 32 16093 2.28 284.213 20:58 12.08.2019
3790 Clouds 34 1017 24 16093 1.5 330 20:39 12.08.2019
3791 Clouds 34 1017 24 16093 2.1 320 20:20 12.08.2019
3792 Clouds 34 1017 24 16093 2.1 320 19:56 12.08.2019
3793 Clear 33 1017 24 16093 2.28 284.213 19:37 12.08.2019
3794 Clear 33 1019 43 16093 1.5 100 19:19 12.08.2019
3795 Clear 32 1019 38 16093 2.1 130 18:55 12.08.2019
3796 Clouds 32 1017 33 16093 2.6 90 18:37 12.08.2019
3797 Clear 31 1019 45 16093 2.1 140 18:19 12.08.2019
3798 Clear 30 1019 48 16093 2.6 110 17:47 12.08.2019
3799 Clear 29 1019 58 16093 3.1 110 17:28 12.08.2019
3800 -273 0 0 0 0 0 16:57 12.08.2019
3801 Clear 28 1017 47 16093 3.6 100 16:39 12.08.2019
3802 Clear 28 1017 47 16093 3.6 100 16:39 12.08.2019
3803 Clear 27 1018 61 16093 3.1 120 16:20 12.08.2019
3804 Clear 25 1017 54 16093 2.6 100 15:59 12.08.2019
3805 -273 0 0 0 0 0 15:41 12.08.2019
3806 -273 0 0 0 0 0 15:41 12.08.2019
3807 Clear 23 1018 69 16093 3.1 120 15:21 12.08.2019
3808 Clear 23 1016 57 16093 1.5 150 14:56 12.08.2019
3809 Clear 23 1016 57 16093 1.5 150 14:38 12.08.2019
3810 Clear 23 1018 69 16093 2.1 80 14:18 12.08.2019
3811 Clear 24 1016 47 16093 2.1 120 13:43 12.08.2019
3812 Clear 24 1017 65 16093 0.75 34.094 13:24 12.08.2019
3813 Clear 24 1017 54 16093 0.75 34.094 12:57 12.08.2019
3814 Clear 24 1017 54 16093 0.75 34.094 12:57 12.08.2019
3815 Clear 24 1015 42 16093 0.75 34.094 12:39 12.08.2019
3816 Clouds 25 1017 65 16093 3.1 100 12:18 12.08.2019
3817 Clouds 25 1015 39 16093 0.93 124.354 11:41 12.08.2019
3818 Clear 25 1017 65 16093 2.1 140 11:23 12.08.2019
3819 Clear 26 1015 37 16093 2.1 220 10:42 12.08.2019
3820 Clear 26 1017 65 16093 3.1 140 10:23 12.08.2019
3821 Clear 26 1015 37 16093 2.6 220 09:56 12.08.2019
3822 Clear 26 1015 37 16093 4.1 200 09:38 12.08.2019
3823 Clear 27 1016 74 16093 1.5 190 09:19 12.08.2019
3824 Clear 27 1014 37 16093 3.6 210 08:55 12.08.2019
3825 Clear 27 1014 37 16093 3.6 210 08:37 12.08.2019
3826 Clear 27 1016 61 16093 3.1 150 08:19 12.08.2019
3827 Clear 28 1014 35 16093 2.6 200 07:42 12.08.2019
3828 Clear 28 1016 61 16093 2.6 60 07:20 12.08.2019
3829 Clear 28 1013 40 16093 2.1 100 06:44 12.08.2019
3830 Clear 30 1013 31 16093 2.1 60 05:37 12.08.2019
3831 Clear 35 1014 30 16093 2.1 240 02:44 12.08.2019
3832 Clear 35 1013 21 16093 2.61 288.733 01:54 12.08.2019
3833 Clear 35 1015 32 16093 2.61 288.733 01:20 12.08.2019
3834 Clear 35 1015 32 16093 3.6 290 00:57 12.08.2019
3835 Clear 35 1013 24 16093 3.1 230 00:38 12.08.2019
3836 Clear 34 1016 34 16093 1.5 210 00:19 12.08.2019
3837 Clear 34 1014 26 16093 1.5 220 23:42 11.08.2019
3838 Clouds 34 1016 40 16093 1.5 250 23:20 11.08.2019
3839 Clear 34 1014 28 16093 3.29 284.606 22:59 11.08.2019
3840 Clear 34 1015 29 16093 2.6 150 22:40 11.08.2019
3841 Clear 33 1017 40 16093 1.5 20 22:19 11.08.2019
3842 Clear 33 1015 31 16093 2.1 40 21:58 11.08.2019
3843 Clear 33 1016 31 16093 3.6 40 21:39 11.08.2019
3844 Clear 32 1018 45 16093 1.5 295.419 21:20 11.08.2019
3845 Clear 32 1018 43 16093 1.5 295.419 20:56 11.08.2019
3846 Clear 31 1016 40 16093 1.5 40 20:38 11.08.2019
3847 Clouds 31 1018 51 14484 1.5 295.419 20:19 11.08.2019
3848 Clear 30 1017 45 16093 3.1 110 19:42 11.08.2019
3849 Clear 29 1018 51 16093 2.1 100 19:18 11.08.2019
3850 Clear 29 1018 51 16093 2.1 100 19:18 11.08.2019
3851 Clear 28 1017 61 16093 3.1 110 18:41 11.08.2019
3852 Rain 27 1018 57 16093 2.6 110 18:21 11.08.2019
3853 Rain 26 1016 65 16093 3.6 120 17:57 11.08.2019
3854 Rain 25 1016 65 16093 3.6 120 17:39 11.08.2019
3855 Rain 25 1018 73 16093 4.1 120 17:20 11.08.2019
3856 Rain 24 1018 78 16093 3.1 110 16:56 11.08.2019
3857 Rain 24 1016 78 16093 0.51 141.183 16:37 11.08.2019
3858 Drizzle 23 1016 73 16093 3.1 130 16:18 11.08.2019
3859 Clouds 22 1016 68 16093 4.1 120 15:43 11.08.2019
3860 Rain 21 1018 94 16093 2.1 350 15:24 11.08.2019
3861 Rain 21 1016 73 16093 0.59 83.222 14:57 11.08.2019
3862 Rain 21 1016 73 16093 0.59 83.222 14:38 11.08.2019
3863 Clouds 21 1017 94 16093 1.5 80 14:19 11.08.2019
3864 Clouds 21 1015 78 16093 3.6 100 13:44 11.08.2019
3865 Rain 21 1017 94 16093 2.6 60 13:24 11.08.2019
3866 Rain 22 1015 78 16093 3.6 110 12:48 11.08.2019
3867 Rain 22 1017 94 16093 2.6 90 12:23 11.08.2019
3868 Rain 22 1015 78 16093 2.6 150 11:57 11.08.2019
3869 Rain 22 1015 78 16093 3.6 150 11:38 11.08.2019
3870 Rain 22 1015 78 16093 4.6 110 11:20 11.08.2019
3871 Clouds 22 1017 94 16093 5.7 150 10:41 11.08.2019
3872 Rain 22 1017 83 16093 3.6 170 10:22 11.08.2019
3873 Rain 23 1015 83 16093 2.75 162.745 09:59 11.08.2019
3874 Rain 23 1017 88 16093 3.6 160 09:39 11.08.2019
3875 Rain 23 1017 83 16093 4.6 170 09:20 11.08.2019
3876 Clouds 23 1015 54 16093 1.5 210 08:47 11.08.2019
3877 Clouds 24 1015 54 16093 1.5 210 08:27 11.08.2019
3878 Rain 24 1015 61 16093 3.6 120 07:55 11.08.2019
3879 Rain 24 1016 78 16093 3.6 90 07:25 11.08.2019
3880 Rain 23 1015 61 16093 3.6 110 06:45 11.08.2019
3881 Clouds 23 1015 94 11265 2.38 138.05 05:39 11.08.2019
3882 Rain 23 1013 73 16093 6.2 120 03:43 11.08.2019
3883 Rain 22 1015 100 2615 3.1 40 02:49 11.08.2019
3884 Rain 22 1016 94 16093 4.6 110 01:39 11.08.2019
3885 Rain 22 1016 94 16093 4.6 110 01:20 11.08.2019
3886 Rain 22 1016 94 16093 4.6 110 01:20 11.08.2019
3887 Rain 22 1014 78 16093 4.6 110 00:44 11.08.2019
3888 Rain 22 1017 100 16093 3.6 120 00:25 11.08.2019
3889 Rain 22 1017 88 8047 4.1 180 23:45 10.08.2019
3890 Rain 23 1017 88 8047 4.1 180 23:27 10.08.2019
3891 Rain 24 1016 94 16093 2.6 90 22:44 10.08.2019
3892 Rain 25 1017 88 4828 4.6 160 22:25 10.08.2019
3893 Rain 26 1017 88 1609 6.2 150 21:58 10.08.2019
3894 Thunderstorm 29 1016 88 6437 5.1 170 21:38 10.08.2019
3895 Thunderstorm 31 1013 31 16093 4.6 350 21:19 10.08.2019
3896 Thunderstorm 31 1012 43 16093 3.1 230 20:56 10.08.2019
3897 Thunderstorm 31 1016 40 16093 2.6 0 20:37 10.08.2019
3898 Clouds 32 1015 45 16093 2.6 350 20:18 10.08.2019
3899 Clear 32 1014 38 6437 2.6 260 19:39 10.08.2019
3900 Rain 32 1016 45 16093 3.1 310 19:21 10.08.2019
3901 Rain 31 1014 45 16093 2.1 240 18:41 10.08.2019
3902 Rain 30 1016 51 16093 1.5 190 18:22 10.08.2019
3903 Rain 29 1016 54 16093 3.6 240 17:46 10.08.2019
3904 Rain 29 1016 58 16093 2.1 180 17:25 10.08.2019
3905 Rain 28 1014 51 16093 2.6 190 16:47 10.08.2019
3906 Haze 27 1014 51 16093 2.6 190 16:29 10.08.2019
3907 Clouds 27 1014 51 16093 2.1 210 15:59 10.08.2019
3908 Clouds 27 1014 51 16093 2.1 180 15:40 10.08.2019
3909 Clouds 26 1015 57 16093 3.1 170 15:21 10.08.2019
3910 Clouds 26 1015 57 16093 3.1 170 15:21 10.08.2019
3911 Clear 26 1013 42 16093 2.1 170 14:43 10.08.2019
3912 Clouds 26 1014 54 16093 5.1 140 14:18 10.08.2019
3913 Haze 26 1012 42 16093 1.42 165.466 13:39 10.08.2019
3914 Haze 26 1014 57 16093 3.6 140 13:18 10.08.2019
3915 Haze 27 1012 45 16093 1.5 200 12:42 10.08.2019
3916 Haze 27 1014 54 16093 3.1 120 12:22 10.08.2019
3917 Haze 27 1012 45 16093 1.5 180 11:57 10.08.2019
3918 Rain 27 1012 42 16093 1.5 190 11:39 10.08.2019
3919 Rain 27 1014 51 16093 2.28 243.042 11:20 10.08.2019
3920 Rain 27 1012 37 16093 2.1 190 10:39 10.08.2019
3921 Rain 28 1014 45 16093 3.1 190 10:20 10.08.2019
3922 Rain 28 1012 37 16093 2.1 160 09:59 10.08.2019
3923 Rain 28 1012 37 16093 2.1 230 09:38 10.08.2019
3924 Rain 28 1014 42 16093 2.6 140 09:20 10.08.2019
3925 Rain 28 1012 35 16093 1.86 67.299 08:38 10.08.2019
3926 Rain 29 1014 45 16093 2.6 240 08:19 10.08.2019
3927 Rain 29 1012 33 16093 1.86 67.299 07:51 10.08.2019
3928 Clear 30 1014 35 16093 3.6 290 07:27 10.08.2019
3929 Clear 30 1012 29 16093 1.86 67.299 06:48 10.08.2019
3930 Clear 31 1014 31 16093 4.1 290 06:21 10.08.2019
3931 Clouds 31 1013 38 11265 2.6 180 05:24 10.08.2019
3932 Clouds 33 1014 31 11265 2.6 180 04:21 10.08.2019
3933 Clear 34 1011 21 16093 2.6 330 02:53 10.08.2019
3934 Clear 35 1012 21 16093 4.6 310 01:57 10.08.2019
3935 Clear 35 1012 23 16093 3.1 350 01:39 10.08.2019
3936 Clear 35 1013 30 16093 3.06 261.465 01:20 10.08.2019
3937 Clear 35 1013 27 16093 2.6 310 00:43 10.08.2019
3938 Clear 34 1014 31 16093 2.93 269.374 00:21 10.08.2019
3939 Clear 34 1014 27 16093 1.5 280 23:42 09.08.2019
3940 Clear 33 1015 35 16093 2.6 10 23:22 09.08.2019
3941 Clear 33 1014 27 16093 2.1 240 22:56 09.08.2019
3942 Rain 32 1015 27 16093 1.5 50 22:38 09.08.2019
3943 Rain 32 1016 38 16093 2.6 40 22:19 09.08.2019
3944 Rain 31 1015 31 16093 2.93 269.374 21:41 09.08.2019
3945 Rain 30 1017 45 16093 2.57 269.265 21:23 09.08.2019
3946 Rain 30 1016 31 16093 2.57 269.265 20:58 09.08.2019
3947 Rain 30 1016 33 16093 3.1 200 20:40 09.08.2019
3948 Rain 30 1017 48 16093 2.49 269.103 20:20 09.08.2019
3949 Rain 29 1018 45 16093 2.1 120 19:56 09.08.2019
3950 Rain 29 1016 37 16093 2.1 120 19:38 09.08.2019
3951 Rain 28 1018 51 16093 2.6 110 19:18 09.08.2019
3952 Rain 27 1016 45 16093 2.6 190 18:39 09.08.2019
3953 Rain 27 1018 57 16093 2.1 80 18:21 09.08.2019
3954 Clear 26 1018 69 25749 3.1 220 17:46 09.08.2019
3955 Rain 26 1017 51 16093 2.6 50 17:26 09.08.2019
3956 Rain 26 1016 47 16093 2.1 130 16:59 09.08.2019
3957 Rain 26 1015 48 16093 4.1 120 16:39 09.08.2019
3958 Rain 26 1017 54 16093 2 280.438 16:20 09.08.2019
3959 Rain 26 1015 48 16093 2 280.438 15:56 09.08.2019
3960 Rain 26 1015 48 16093 2 280.438 15:56 09.08.2019
3961 Rain 26 1015 48 16093 2 280.438 15:37 09.08.2019
3962 Rain 26 1017 54 16093 1.34 168.263 15:18 09.08.2019
3963 Clouds 26 1013 51 16093 1.34 168.263 14:44 09.08.2019
3964 -273 0 0 0 0 0 14:22 09.08.2019
3965 Clouds 27 1013 45 16093 1.5 180 13:56 09.08.2019
3966 Clouds 27 1013 45 16093 1.5 180 13:38 09.08.2019
3967 Clouds 27 1015 61 16093 3.6 140 13:19 09.08.2019
3968 Clear 27 1013 45 16093 2.1 190 12:44 09.08.2019
3969 Clouds 27 1014 61 16093 3.1 160 12:23 09.08.2019
3970 Clear 28 1013 42 16093 3.1 160 11:42 09.08.2019
3971 Clouds 28 1015 54 16093 3.6 150 11:22 09.08.2019
3972 Clear 28 1013 42 16093 3.6 170 10:59 09.08.2019
3973 Clear 28 1012 42 16093 3.6 170 10:39 09.08.2019
3974 Rain 29 1015 54 16093 4.6 160 10:21 09.08.2019
3975 Rain 29 1012 40 16093 5.7 180 09:43 09.08.2019
3976 Rain 29 1015 48 16093 5.1 160 09:20 09.08.2019
3977 Rain 30 1012 35 16093 8.2 190 08:55 09.08.2019
3978 Clouds 30 1012 35 16093 8.2 190 08:37 09.08.2019
3979 Clouds 30 1015 40 16093 4.1 140 08:18 09.08.2019
3980 Clouds 30 1012 35 16093 2.1 170 07:43 09.08.2019
3981 Clear 31 1014 45 16093 2.33 195.3 07:21 09.08.2019
3982 Clear 31 1012 31 16093 4.1 190 06:52 09.08.2019
3983 Rain 31 1014 40 16093 2.6 150 06:27 09.08.2019
3984 Rain 32 1011 29 16093 2.6 190 05:46 09.08.2019
3985 Clear 34 1010 31 16093 3.6 200 02:33 09.08.2019
3986 Clear 34 1010 31 16093 3.6 200 02:33 09.08.2019
3987 Clouds 34 1013 32 16093 5.7 270 01:41 09.08.2019
3988 Clear 35 1013 35 16093 7.7 220 00:44 09.08.2019
3989 Clouds 35 1013 30 16093 5.1 280 00:25 09.08.2019
3990 Clouds 35 1012 38 16093 1.5 310 23:59 08.08.2019
3991 Rain 35 1012 38 16093 1.5 310 23:38 08.08.2019
3992 Rain 35 1014 32 16093 6.2 290 23:19 08.08.2019
3993 Thunderstorm 36 1015 36 16093 7.7 260 22:57 08.08.2019
3994 Thunderstorm 37 1015 25 16093 5.7 260 22:36 08.08.2019
3995 Thunderstorm 37 1014 27 16093 3.6 260 22:18 08.08.2019
3996 Thunderstorm 37 1015 28 16093 7.7 280 21:55 08.08.2019
3997 Thunderstorm 37 1015 28 16093 7.7 280 21:55 08.08.2019
3998 Clear 37 1013 22 16093 3.6 310 21:36 08.08.2019
3999 Clear 36 1015 28 16093 2.6 310 21:18 08.08.2019
4000 Clear 36 1014 23 16093 1.5 180 20:42 08.08.2019
4001 Clear 36 1016 32 16093 1.5 260 20:20 08.08.2019
4002 Rain 36 1016 26 16093 2.48 264.987 19:56 08.08.2019
4003 Rain 35 1014 28 16093 2.1 130 19:37 08.08.2019
4004 Rain 35 1016 33 16093 2.48 264.987 19:18 08.08.2019
4005 Rain 33 1014 31 16093 2.1 90 18:41 08.08.2019
4006 Rain 32 1016 38 16093 1.5 120 18:20 08.08.2019
4007 Clear 31 1014 35 16093 1.5 150 17:42 08.08.2019
4008 Rain 31 1016 48 16093 1.5 120 17:24 08.08.2019
4009 Rain 30 1014 40 16093 3.6 110 16:59 08.08.2019
4010 Rain 29 1014 45 16093 2.6 120 16:41 08.08.2019
4011 Rain 29 1014 45 16093 2.6 120 16:41 08.08.2019
4012 Rain 28 1016 57 16093 2.1 90 16:23 08.08.2019
4013 Clear 27 1014 48 16093 3.1 120 15:57 08.08.2019
4014 Clear 26 1013 51 16093 2.1 120 15:38 08.08.2019
4015 Clear 25 1015 69 16093 2.6 110 15:20 08.08.2019
4016 Clear 25 1013 54 16093 2.1 80 14:40 08.08.2019
4017 Clear 25 1015 61 16093 2.6 130 14:21 08.08.2019
4018 Clear 25 1013 54 16093 2.1 90 13:56 08.08.2019
4019 Clear 25 1013 54 16093 2.1 90 13:36 08.08.2019
4020 Clear 26 1015 61 16093 2.6 160 13:18 08.08.2019
4021 Clear 26 1013 51 16093 0.43 31.079 12:38 08.08.2019
4022 Clear 26 1015 65 16093 2.6 180 12:19 08.08.2019
4023 Clear 27 1013 47 16093 1.5 70 11:44 08.08.2019
4024 Clear 27 1015 57 16093 2.1 230 11:25 08.08.2019
4025 Clear 27 1013 42 16093 1.5 190 10:56 08.08.2019
4026 Clear 27 1013 42 16093 1.5 190 10:38 08.08.2019
4027 Clear 28 1015 57 16093 2.6 240 10:19 08.08.2019
4028 Clear 28 1013 45 16093 2.1 220 09:42 08.08.2019
4029 Clear 29 1015 48 16093 1.5 230 09:22 08.08.2019
4030 Clear 29 1013 42 16093 2.32 176.535 08:44 08.08.2019
4031 Clear 30 1015 48 16093 3.6 290 08:22 08.08.2019
4032 Clear 30 1013 39 16093 2.32 176.535 07:58 08.08.2019
4033 Clear 30 1013 39 16093 2.32 176.535 07:39 08.08.2019
4034 Clear 30 1015 45 16093 3.1 300 07:18 08.08.2019
4035 Clear 31 1013 37 16093 2.1 310 06:45 08.08.2019
4036 Clear 31 1013 37 16093 2.1 310 05:58 08.08.2019
4037 Clear 32 1013 35 16093 3.1 330 05:40 08.08.2019
4038 Clear 33 1013 28 16093 5.1 320 04:21 08.08.2019
4039 Clouds 33 1011 26 16093 5.7 290 03:47 08.08.2019
4040 Clouds 37 1012 22 16093 4.6 330 01:54 08.08.2019
4041 Clouds 37 1013 29 16093 5.1 340 01:20 08.08.2019
4042 Clear 37 1014 30 16093 4.6 290 00:25 08.08.2019
4043 Clear 37 1013 23 16093 4.1 290 23:39 07.08.2019
4044 Clouds 37 1015 32 16093 3.6 330 23:18 07.08.2019
4045 Clouds 36 1015 30 16093 5.7 310 22:41 07.08.2019
4046 Clear 36 1015 32 16093 1.5 20 22:21 07.08.2019
4047 Clouds 36 1016 34 16093 2.1 0 21:58 07.08.2019
4048 Clear 36 1014 26 16093 4.6 330 21:40 07.08.2019
4049 Clear 35 1016 38 16093 2.6 290 21:21 07.08.2019
4050 Clear 35 1015 30 16093 3.1 340 20:59 07.08.2019
4051 Rain 34 1015 28 16093 3.6 330 20:41 07.08.2019
4052 Rain 34 1017 40 16093 2.6 300 20:20 07.08.2019
4053 Rain 34 1015 31 16093 1.5 190 19:56 07.08.2019
4054 Rain 33 1015 31 16093 1.5 190 19:37 07.08.2019
4055 Rain 33 1015 31 16093 1.5 190 19:37 07.08.2019
4056 Rain 32 1017 48 16093 3.05 287.432 19:18 07.08.2019
4057 Rain 31 1016 40 16093 3.05 287.432 18:40 07.08.2019
4058 Clear 30 1018 45 16093 2.6 190 18:20 07.08.2019
4059 Rain 30 1018 45 16093 2.6 190 17:56 07.08.2019
4060 Rain 30 1018 45 16093 2.6 190 17:56 07.08.2019
4061 Rain 29 1016 54 16093 0.1 23.595 17:38 07.08.2019
4062 Rain 28 1016 54 16093 0.1 23.595 17:19 07.08.2019
4063 Rain 28 1017 65 16093 0.1 23.595 16:56 07.08.2019
4064 Rain 28 1017 65 16093 0.1 23.595 16:56 07.08.2019
4065 Rain 28 1017 65 16093 0.1 23.595 16:56 07.08.2019
4066 Clear 27 1016 57 16093 2.1 210 16:37 07.08.2019
4067 Clouds 26 1017 69 16093 2.1 140 16:18 07.08.2019
4068 Clouds 25 1015 57 16093 4.1 110 15:42 07.08.2019
4069 Clouds 25 1017 73 16093 3.6 120 15:20 07.08.2019
4070 Clear 25 1015 61 16093 3.1 120 14:49 07.08.2019
4071 Clear 25 1015 61 16093 3.1 120 14:30 07.08.2019
4072 Clear 25 1015 61 16093 2.6 100 13:58 07.08.2019
4073 Clear 25 1015 57 16093 3.6 100 13:39 07.08.2019
4074 Clouds 26 1016 78 16093 1.5 180 13:19 07.08.2019
4075 Clear 26 1015 54 16093 3.1 110 12:57 07.08.2019
4076 Clear 26 1015 54 16093 3.6 110 12:38 07.08.2019
4077 Clouds 26 1016 69 16093 2.6 120 12:19 07.08.2019
4078 Clear 26 1014 57 16093 1.5 70 11:55 07.08.2019
4079 Clear 26 1014 57 16093 1.5 70 11:36 07.08.2019
4080 Clear 26 1016 73 16093 3.6 130 11:18 07.08.2019
4081 Haze 26 1014 54 16093 4.1 180 10:40 07.08.2019
4082 Haze 26 1016 74 16093 2.15 201.698 10:19 07.08.2019
4083 Rain 26 1014 57 16093 4.6 120 09:46 07.08.2019
4084 Rain 26 1016 74 16093 3.6 30 09:24 07.08.2019
4085 Rain 26 1015 57 16093 5.7 120 08:59 07.08.2019
4086 Haze 26 1017 74 16093 3.6 100 08:41 07.08.2019
4087 Clouds 26 1018 74 16093 4.1 100 08:23 07.08.2019
4088 Clear 27 1016 45 16093 3.6 160 07:45 07.08.2019
4089 Rain 27 1018 69 16093 5.7 130 07:26 07.08.2019
4090 Rain 27 1016 45 16093 7.7 170 06:43 07.08.2019
4091 Rain 29 1017 61 16093 8.2 170 06:21 07.08.2019
4092 Thunderstorm 30 1017 51 16093 8.7 210 05:40 07.08.2019
4093 Rain 31 1014 61 16093 2.1 130 03:26 07.08.2019
4094 Thunderstorm 32 1014 34 16093 2.6 150 02:51 07.08.2019
4095 Thunderstorm 32 1014 43 16093 3.1 80 02:30 07.08.2019
4096 Drizzle 34 1014 30 16093 2.6 190 01:48 07.08.2019
4097 Rain 37 1014 25 16093 2.1 180 00:53 07.08.2019
4098 Clear 37 1014 25 16093 1.5 30 00:23 07.08.2019
4099 Clouds 37 1013 22 16093 2.91 282.571 23:47 06.08.2019
4100 Clear 37 1015 28 16093 3.1 240 23:23 06.08.2019
4101 Clouds 37 1013 22 16093 2.91 282.571 22:59 06.08.2019
4102 Clear 36 1014 22 16093 2.91 282.571 22:40 06.08.2019
4103 Clouds 36 1016 30 16093 2.91 282.571 22:20 06.08.2019
4104 Rain 35 1016 25 16093 4.1 200 21:45 06.08.2019
4105 Rain 35 1015 24 16093 2.91 282.571 21:26 06.08.2019
4106 Rain 34 1015 24 16093 3.1 70 20:59 06.08.2019
4107 Rain 34 1015 24 16093 3.1 70 20:59 06.08.2019
4108 Rain 34 1015 28 16093 3.1 120 20:41 06.08.2019
4109 Rain 33 1017 38 16093 2.27 254.308 20:23 06.08.2019
4110 Rain 33 1017 34 16093 3.6 110 19:48 06.08.2019
4111 Rain 32 1016 33 16093 2.1 110 19:29 06.08.2019
4112 Clear 30 1017 38 16093 1.5 50 18:56 06.08.2019
4113 Clear 30 1016 48 16093 2.6 90 18:37 06.08.2019
4114 Clear 29 1016 51 16093 1.5 120 18:18 06.08.2019
4115 Rain 28 1017 48 16093 1.82 141.822 17:56 06.08.2019
4116 Rain 28 1017 48 16093 1.82 141.822 17:56 06.08.2019
4117 Rain 27 1016 51 16093 2.1 110 17:36 06.08.2019
4118 Rain 27 1017 61 16093 3.6 120 17:18 06.08.2019
4119 Clear 27 1015 54 16093 2.6 60 16:42 06.08.2019
4120 Clouds 26 1017 65 16093 1.5 90 16:24 06.08.2019
4121 Clouds 26 1015 51 16093 3.1 90 15:58 06.08.2019
4122 Clouds 26 1015 54 16093 4.6 110 15:39 06.08.2019
4123 Rain 25 1017 61 16093 3.6 100 15:20 06.08.2019
4124 Rain 25 1016 69 16093 3.6 80 14:45 06.08.2019
4125 Rain 26 1016 69 16093 3.6 120 14:26 06.08.2019
4126 Clouds 26 1014 65 16093 2.1 50 13:58 06.08.2019
4127 Clouds 26 1014 57 16093 1.51 109.503 13:40 06.08.2019
4128 Clouds 26 1015 69 16093 4.6 140 13:22 06.08.2019
4129 Clouds 26 1013 57 16093 0.93 116.949 12:58 06.08.2019
4130 Rain 26 1013 51 16093 5.1 180 12:39 06.08.2019
4131 Rain 26 1015 65 16093 4.6 170 12:21 06.08.2019
4132 Clouds 26 1015 65 16093 5.1 170 11:43 06.08.2019
4133 Clouds 25 1014 65 16093 4.6 80 11:19 06.08.2019
4134 Drizzle 25 1015 65 16093 3.1 70 10:56 06.08.2019
4135 Clear 25 1014 61 16093 3.6 160 10:37 06.08.2019
4136 Clouds 25 1015 69 16093 4.1 60 10:19 06.08.2019
4137 Clear 24 1014 57 16093 7.7 120 09:40 06.08.2019
4138 Clouds 24 1016 78 16093 2.6 140 09:20 06.08.2019
4139 Drizzle 24 1017 78 16093 3.1 110 08:48 06.08.2019
4140 Clouds 24 1017 78 16093 3.1 110 08:26 06.08.2019
4141 Rain 24 1018 78 16093 6.2 140 07:47 06.08.2019
4142 Rain 24 1018 78 16093 6.2 140 07:23 06.08.2019
4143 Rain 24 1015 61 16093 6.2 160 06:43 06.08.2019
4144 Rain 24 1019 83 8047 3.1 270 05:55 06.08.2019
4145 Rain 26 1017 51 12874 4.1 150 04:35 06.08.2019
4146 Thunderstorm 40 1009 12 11265 3.6 300 01:59 06.08.2019
4147 Clouds 40 1011 15 16093 1.5 40 01:24 06.08.2019
4148 Clear 40 1010 12 16093 5.1 330 00:37 06.08.2019
4149 Clear 40 1012 16 16093 3.1 290 23:47 05.08.2019
4150 Clear 40 1013 16 16093 3.6 330 23:19 05.08.2019
4151 Clear 41 1012 13 16093 4.6 340 22:41 05.08.2019
4152 Clear 41 1014 19 16093 3.6 310 22:23 05.08.2019
4153 Clear 41 1013 14 16093 2.6 270 21:55 05.08.2019
4154 Clear 40 1013 14 16093 2.6 270 21:36 05.08.2019
4155 Clear 39 1015 20 16093 4.1 330 21:18 05.08.2019
4156 Clear 38 1015 18 16093 1.5 300 20:55 05.08.2019
4157 Clear 38 1013 16 16093 3.1 340 20:37 05.08.2019
4158 Clear 38 1016 23 16093 1.5 290 20:18 05.08.2019
4159 Clear 38 1014 19 16093 1.5 240 19:43 05.08.2019
4160 Clear 37 1016 28 16093 1.85 232.133 19:23 05.08.2019
4161 Clear 36 1017 23 16093 1.85 232.133 18:57 05.08.2019
4162 Clear 35 1014 24 16093 1.85 232.133 18:39 05.08.2019
4163 Clear 34 1016 32 16093 2.17 180.661 18:18 05.08.2019
4164 Rain 33 1014 27 16093 2.6 110 17:41 05.08.2019
4165 Rain 32 1016 45 16093 3.1 140 17:22 05.08.2019
4166 Rain 30 1014 37 16093 2.6 110 16:46 05.08.2019
4167 Rain 29 1016 51 16093 3.1 130 16:25 05.08.2019
4168 Clear 26 1014 37 16093 2.6 110 15:45 05.08.2019
4169 Clear 27 1016 51 16093 2.6 140 15:22 05.08.2019
4170 Clear 27 1013 37 16093 2.1 90 14:59 05.08.2019
4171 Clear 27 1013 35 16093 3.1 120 14:38 05.08.2019
4172 Clouds 27 1015 48 16093 1.21 184.618 14:19 05.08.2019
4173 Clouds 27 1015 48 16093 1.21 184.618 14:19 05.08.2019
4174 Clear 27 1013 35 16093 1.5 110 13:41 05.08.2019
4175 Clouds 28 1015 48 16093 2.6 120 13:21 05.08.2019
4176 Rain 28 1013 28 16093 2.1 160 12:45 05.08.2019
4177 Rain 28 1015 42 16093 3.6 150 12:20 05.08.2019
4178 Rain 29 1012 27 16093 2.1 140 11:46 05.08.2019
4179 Rain 29 1012 27 16093 2.1 140 11:27 05.08.2019
4180 Clear 30 1012 31 16093 2.6 160 10:51 05.08.2019
4181 Clear 30 1012 31 16093 2.6 160 10:33 05.08.2019
4182 Clear 30 1012 31 16093 2.6 200 09:59 05.08.2019
4183 Clear 31 1012 29 16093 1.5 150 09:40 05.08.2019
4184 Clouds 31 1015 38 16093 4.1 120 09:21 05.08.2019
4185 Clear 31 1013 29 16093 2.66 141.908 08:47 05.08.2019
4186 Clear 31 1015 35 16093 2.6 110 08:25 05.08.2019
4187 Clear 32 1015 33 16093 2.6 200 07:54 05.08.2019
4188 Clear 33 1015 33 16093 2.6 200 07:31 05.08.2019
4189 Clear 33 1012 24 16093 2.66 141.908 06:59 05.08.2019
4190 Clouds 33 1014 32 16093 2.1 220 06:29 05.08.2019
4191 Rain 35 1014 25 16093 2.43 327.534 05:41 05.08.2019
4192 Clear 36 1011 18 16093 2.1 350 04:56 05.08.2019
4193 Clear 37 1013 21 16093 2.1 290 03:56 05.08.2019
4194 Clouds 38 1013 20 16093 5.1 310 03:20 05.08.2019
4195 Rain 39 1013 20 16093 5.7 310 02:26 05.08.2019
4196 Clear 39 1011 16 16093 4.6 310 01:32 05.08.2019
4197 Clear 40 1012 13 16093 3.6 330 00:41 05.08.2019
4198 Clear 39 1014 16 16093 2.24 263.928 00:21 05.08.2019
4199 Clear 39 1014 16 16093 2.24 263.928 00:21 05.08.2019
4200 Clear 39 1012 14 16093 3.1 350 23:43 04.08.2019
4201 Clear 40 1015 18 16093 3.6 300 23:24 04.08.2019
4202 Clear 40 1013 15 16093 3.6 270 22:57 04.08.2019
4203 Clear 40 1013 15 16093 3.6 270 22:38 04.08.2019
4204 Clear 40 1015 20 16093 3.1 210 22:20 04.08.2019
4205 Clear 40 1015 20 16093 3.6 240 21:58 04.08.2019
4206 Clear 39 1014 16 16093 1.5 110 21:40 04.08.2019
4207 Clear 38 1016 22 16093 3.1 200 21:19 04.08.2019
4208 Clear 37 1014 18 16093 4.6 220 20:42 04.08.2019
4209 Clear 37 1016 25 16093 2.1 110 20:19 04.08.2019
4210 Clear 38 1015 18 16093 4.6 110 19:54 04.08.2019
4211 Clear 37 1015 18 16093 4.6 110 19:36 04.08.2019
4212 Clear 37 1017 26 16093 4.1 120 19:18 04.08.2019
4213 Clear 36 1015 23 16093 6.2 120 18:41 04.08.2019
4214 Clear 33 1017 31 16093 4.6 100 18:20 04.08.2019
4215 Rain 33 1015 26 16093 5.7 130 17:44 04.08.2019
4216 Rain 32 1017 38 16093 6.2 100 17:24 04.08.2019
4217 Clear 31 1017 35 16093 2.6 100 16:46 04.08.2019
4218 Clear 29 1015 42 16093 2.11 82.278 16:27 04.08.2019
4219 Clear 29 1015 42 16093 3.6 80 15:56 04.08.2019
4220 Clear 28 1015 39 16093 2.11 82.278 15:37 04.08.2019
4221 Clear 28 1016 39 16093 3.6 90 15:19 04.08.2019
4222 Clear 27 1015 39 16093 4.1 130 14:42 04.08.2019
4223 Clear 27 1016 54 16093 4.1 120 14:22 04.08.2019
4224 Clear 27 1014 44 16093 3.81 63.731 13:46 04.08.2019
4225 Clear 27 1014 44 16093 1.05 70.496 13:27 04.08.2019
4226 Clear 27 1014 42 16093 1.05 70.496 12:57 04.08.2019
4227 Clear 27 1014 42 16093 1.05 70.496 12:39 04.08.2019
4228 Clouds 27 1016 54 16093 3.6 120 12:21 04.08.2019
4229 Clear 28 1014 39 16093 2.3 55.563 11:46 04.08.2019
4230 Clear 28 1016 51 16093 2.3 55.563 11:23 04.08.2019
4231 Clear 28 1014 37 16093 2.3 55.563 10:48 04.08.2019
4232 Clear 28 1016 40 16093 2.1 80 10:22 04.08.2019
4233 Clear 28 1015 37 16093 2.3 55.563 09:46 04.08.2019
4234 Clouds 28 1016 40 16093 1.5 170 09:26 04.08.2019
4235 Clear 29 1014 33 16093 2.43 78.616 08:58 04.08.2019
4236 Clear 29 1014 31 16093 1.5 320 08:34 04.08.2019
4237 Clear 30 1014 33 16093 3.1 190 07:55 04.08.2019
4238 Clear 30 1014 33 16093 3.1 190 07:28 04.08.2019
4239 Clear 30 1013 31 16093 2.1 180 06:40 04.08.2019
4240 Clear 31 1015 42 16093 3.6 110 06:18 04.08.2019
4241 Clouds 34 1011 23 16093 4.49 9.955 03:36 04.08.2019
4242 Clear 37 1011 17 16093 3.6 340 01:52 04.08.2019
4243 Clear 37 1011 17 16093 3.6 340 01:32 04.08.2019
4244 Clear 38 1011 17 16093 3.1 340 00:42 04.08.2019
4245 Clear 39 1013 21 16093 4.1 280 00:23 04.08.2019
4246 Clear 39 1012 16 16093 3.1 330 23:42 03.08.2019
4247 Clear 38 1014 23 16093 2.1 200 23:19 03.08.2019
4248 Clear 40 1012 17 16093 2.1 340 22:59 03.08.2019
4249 Clear 40 1012 17 16093 2.1 340 22:39 03.08.2019
4250 Clear 40 1014 25 16093 4.1 250 22:19 03.08.2019
4251 Clear 40 1013 17 16093 3.1 340 21:39 03.08.2019
4252 Clear 37 1015 27 16093 2.54 306.717 21:20 03.08.2019
4253 Clear 37 1014 20 16093 1.5 250 20:45 03.08.2019
4254 Clear 37 1016 30 16093 1.5 290 20:24 03.08.2019
4255 Clear 37 1014 24 16093 1.5 240 19:44 03.08.2019
4256 Clear 36 1016 34 16093 1.13 320.689 19:25 03.08.2019
4257 Clear 35 1014 30 16093 1.5 240 18:57 03.08.2019
4258 Clear 35 1014 30 16093 1.5 240 18:39 03.08.2019
4259 Clear 33 1016 40 16093 2.1 170 18:20 03.08.2019
4260 Clear 32 1014 38 16093 3.1 120 17:42 03.08.2019
4261 Clear 31 1016 45 16093 3.6 130 17:18 03.08.2019
4262 Rain 30 1014 45 16093 3.1 110 16:38 03.08.2019
4263 Rain 29 1016 54 16093 3.1 120 16:19 03.08.2019
4264 Clear 28 1014 45 16093 2.6 110 15:46 03.08.2019
4265 Clouds 26 1016 65 16093 3.1 80 15:25 03.08.2019
4266 Clouds 26 1016 65 16093 3.1 80 15:25 03.08.2019
4267 Clear 26 1016 57 16093 1.5 90 14:46 03.08.2019
4268 Clouds 26 1015 61 16093 3.1 130 14:23 03.08.2019
4269 Clear 26 1013 42 16093 1.5 140 13:57 03.08.2019
4270 Clear 26 1013 42 16093 2.6 100 13:36 03.08.2019
4271 Clear 26 1015 65 16093 2.6 120 13:18 03.08.2019
4272 Clear 27 1013 37 16093 2.6 120 12:41 03.08.2019
4273 Clear 28 1015 65 16093 2.1 120 12:23 03.08.2019
4274 Clear 28 1013 33 16093 3.1 130 11:52 03.08.2019
4275 Clear 28 1013 33 16093 3.1 130 11:33 03.08.2019
4276 Clear 29 1013 31 16093 0.89 181.924 10:46 03.08.2019
4277 Clear 29 1015 48 16093 3.6 150 10:24 03.08.2019
4278 Clear 29 1013 31 16093 0.89 181.924 09:45 03.08.2019
4279 Clear 30 1015 51 16093 3.1 140 09:24 03.08.2019
4280 Clear 30 1013 35 16093 0.92 104.779 08:56 03.08.2019
4281 Clear 30 1016 45 16093 3.6 140 08:21 03.08.2019
4282 Clear 31 1013 31 16093 1.5 190 07:37 03.08.2019
4283 Clear 31 1013 29 16093 2.1 200 06:40 03.08.2019
4284 Rain 33 1013 26 16093 2.1 250 05:44 03.08.2019
4285 Clear 37 1012 19 16093 4.19 282.955 02:42 03.08.2019
4286 Clear 38 1012 19 16093 2.6 30 01:50 03.08.2019
4287 Clear 37 1012 20 16093 2.6 10 00:56 03.08.2019
4288 Clear 37 1012 20 16093 2.6 10 00:29 03.08.2019
4289 Clear 37 1013 19 16093 1.5 300 23:41 02.08.2019
4290 Clouds 37 1015 30 16093 1.5 360 23:19 02.08.2019
4291 Clear 37 1013 18 16093 2.6 50 22:57 02.08.2019
4292 Clear 37 1014 19 16093 2.6 330 22:39 02.08.2019
4293 Clear 37 1016 28 16093 3.32 265.165 22:20 02.08.2019
4294 Clear 38 1016 24 16093 3.1 310 21:55 02.08.2019
4295 Clear 38 1014 22 16093 4.1 340 21:36 02.08.2019
4296 Clear 35 1016 28 16093 3.1 210 21:18 02.08.2019
4297 Clear 37 1015 25 16093 2.6 270 20:41 02.08.2019
4298 Clear 36 1017 34 16093 3.1 300 20:21 02.08.2019
4299 Rain 36 1017 30 16093 3.6 300 19:49 02.08.2019
4300 Rain 36 1015 28 16093 1.5 280 19:28 02.08.2019
4301 Clear 34 1017 34 16093 1.5 20 18:45 02.08.2019
4302 Clear 33 1017 48 16093 2.6 170 18:27 02.08.2019
4303 Clear 32 1017 38 16093 1.86 221.224 17:48 02.08.2019
4304 Clear 31 1017 54 16093 4.1 160 17:26 02.08.2019
4305 Clear 30 1015 43 16093 3.6 120 16:59 02.08.2019
4306 Clear 29 1015 51 16093 2.6 120 16:39 02.08.2019
4307 Rain 29 1017 61 16093 3.6 130 16:19 02.08.2019
4308 Clear 27 1015 54 16093 1.86 221.224 15:44 02.08.2019
4309 Clear 26 1017 73 16093 3.6 120 15:20 02.08.2019
4310 Clear 25 1014 51 16093 3.1 100 14:47 02.08.2019
4311 Clear 26 1016 73 16093 2.1 80 14:19 02.08.2019
4312 Clear 26 1014 51 16093 3.1 100 13:50 02.08.2019
4313 Clear 26 1014 51 16093 3.1 100 13:29 02.08.2019
4314 Clear 26 1014 48 16093 1.5 130 12:47 02.08.2019
4315 Clear 27 1016 69 16093 3.6 150 12:24 02.08.2019
4316 Clear 27 1013 48 16093 2.1 200 11:58 02.08.2019
4317 Clear 27 1013 48 16093 2.1 200 11:39 02.08.2019
4318 Clear 27 1016 74 16093 3.1 120 11:21 02.08.2019
4319 Clear 27 1014 45 16093 2.1 120 10:43 02.08.2019
4320 Clear 27 1016 74 16093 3.6 110 10:23 02.08.2019
4321 Rain 28 1013 45 16093 1.5 170 09:52 02.08.2019
4322 Rain 28 1013 45 16093 1.5 170 09:29 02.08.2019
4323 Rain 29 1014 35 16093 0.43 254.907 08:53 02.08.2019
4324 Rain 29 1016 74 16093 3.1 130 08:25 02.08.2019
4325 Rain 29 1016 54 16093 3.6 150 07:52 02.08.2019
4326 Thunderstorm 30 1016 54 16093 3.6 200 07:34 02.08.2019
4327 Rain 30 1014 31 16093 1.5 360 06:55 02.08.2019
4328 Rain 31 1016 74 16093 2.1 110 06:26 02.08.2019
4329 Rain 32 1016 61 16093 3.1 100 05:38 02.08.2019
4330 Clear 35 1012 25 16093 4.1 330 03:31 02.08.2019
4331 Clear 36 1013 25 16093 3.6 300 02:37 02.08.2019
4332 Clouds 36 1015 29 16093 3.1 270 00:54 02.08.2019
4333 Clear 36 1015 30 16093 1.5 340 00:20 02.08.2019
4334 Clear 36 1016 30 16093 5.7 300 23:43 01.08.2019
4335 Clouds 36 1016 34 16093 3.1 290 23:19 01.08.2019
4336 Clear 36 1015 28 16093 2.6 100 22:41 01.08.2019
4337 Rain 36 1017 34 16093 2.1 220 22:21 01.08.2019
4338 Rain 35 1017 32 16093 1.5 280 21:54 01.08.2019
4339 Rain 35 1016 31 16093 1.5 330 21:36 01.08.2019
4340 Clear 35 1018 36 16093 3.1 220 21:18 01.08.2019
4341 Clear 34 1017 33 16093 1.5 230 20:41 01.08.2019
4342 Clear 33 1018 43 16093 1.4 274.461 20:22 01.08.2019
4343 Clear 33 1017 38 16093 2.1 240 19:44 01.08.2019
4344 Rain 33 1019 48 16093 1.4 274.461 19:22 01.08.2019
4345 Rain 32 1017 43 16093 3.1 100 18:46 01.08.2019
4346 Clear 31 1019 51 16093 1.27 66.595 18:25 01.08.2019
4347 Clear 30 1019 51 16093 1.5 40 17:57 01.08.2019
4348 Clear 30 1017 51 16093 3.1 100 17:39 01.08.2019
4349 Clear 29 1019 61 16093 2.6 90 17:20 01.08.2019
4350 Clear 28 1017 61 16093 4.1 110 16:44 01.08.2019
4351 Clear 26 1019 73 16093 2.6 110 16:21 01.08.2019
4352 Clear 24 1018 83 16093 1.5 100 15:45 01.08.2019
4353 Clear 23 1018 83 16093 2.1 80 15:20 01.08.2019
4354 Clear 23 1016 73 16093 2.6 100 14:44 01.08.2019
4355 Clear 23 1017 83 16093 3.6 110 14:21 01.08.2019
4356 Clear 23 1015 73 16093 2.6 90 13:59 01.08.2019
4357 Clear 23 1015 73 16093 2.6 90 13:40 01.08.2019
4358 Clear 23 1017 83 16093 3.1 110 13:21 01.08.2019
4359 Clear 23 1016 65 16093 3.1 120 12:49 01.08.2019
4360 Clear 23 1016 65 16093 3.1 120 12:28 01.08.2019
4361 Clear 24 1016 69 16093 1.5 110 11:58 01.08.2019
4362 Clear 24 1016 73 16093 0.77 132.722 11:40 01.08.2019
4363 Clouds 24 1017 88 16093 4.6 110 11:22 01.08.2019
4364 Clear 24 1016 73 16093 0.77 132.722 10:41 01.08.2019
4365 Clear 24 1017 78 16093 2.6 120 10:23 01.08.2019
4366 Clear 24 1016 73 4023 0.77 132.722 09:50 01.08.2019
4367 Clear 24 1018 88 16093 2.1 100 09:24 01.08.2019
4368 -273 0 0 0 0 0 08:57 01.08.2019
4369 Clear 25 1016 65 16093 1.41 92.932 08:39 01.08.2019
4370 Clear 25 1018 78 16093 2.6 50 08:18 01.08.2019
4371 Clear 25 1016 61 16093 1.5 90 07:42 01.08.2019
4372 Clear 25 1018 88 16093 1.41 92.932 07:18 01.08.2019
4373 Clear 25 1016 61 16093 2.1 110 06:39 01.08.2019
4374 Clear 26 1016 61 16093 1.5 310 05:32 01.08.2019
4375 Clear 28 1016 58 16093 3.6 110 02:36 01.08.2019
4376 Clouds 26 1017 69 16093 1.13 326.099 01:41 01.08.2019
4377 Rain 29 1018 65 16093 7.7 200 00:27 01.08.2019
4378 Rain 31 1018 45 16093 5.7 260 23:59 31.07.2019
4379 Rain 32 1016 38 16093 5.7 220 23:41 31.07.2019
4380 Clear 33 1016 33 16093 4.1 330 23:20 31.07.2019
4381 Clear 34 1016 35 16093 3.1 320 22:45 31.07.2019
4382 Clear 33 1016 35 16093 3.1 320 22:27 31.07.2019
4383 Clear 33 1016 35 16093 3.1 320 22:27 31.07.2019
4384 Clear 33 1018 48 16093 3.3 255.045 21:45 31.07.2019
4385 Clear 32 1018 45 16093 2.6 270 21:23 31.07.2019
4386 Rain 31 1019 55 16093 3.21 272.754 20:51 31.07.2019
4387 Rain 30 1019 51 16093 3.21 272.754 20:25 31.07.2019
4388 Rain 29 1018 74 16093 2.1 100 19:58 31.07.2019
4389 Rain 28 1018 73 16093 2.1 100 19:37 31.07.2019
4390 Rain 28 1020 73 16093 3.21 272.754 19:19 31.07.2019
4391 Rain 28 1020 65 16093 4.1 210 18:39 31.07.2019
4392 Rain 27 1020 65 16093 4.1 210 18:19 31.07.2019
4393 Rain 27 1019 61 16093 3.1 160 17:45 31.07.2019
4394 Rain 26 1019 61 16093 3.1 160 17:20 31.07.2019
4395 Rain 26 1020 74 16093 2.1 190 16:54 31.07.2019
4396 Clouds 25 1017 73 16093 0.75 251.925 16:34 31.07.2019
4397 Clouds 25 1017 73 16093 0.75 251.925 16:00 31.07.2019
4398 Clouds 25 1017 83 16093 2.1 350 15:40 31.07.2019
4399 Clouds 24 1018 73 16093 2.1 110 15:21 31.07.2019
4400 Clouds 24 1016 78 16093 2.1 360 14:42 31.07.2019
4401 Clouds 24 1017 73 16093 3.1 120 14:20 31.07.2019
4402 Clouds 24 1016 83 16093 3.2 75.599 13:55 31.07.2019
4403 Clouds 24 1016 83 16093 3.2 75.599 13:37 31.07.2019
4404 Rain 24 1017 73 16093 2.6 140 13:18 31.07.2019
4405 Rain 25 1016 78 16093 2.04 169.487 12:40 31.07.2019
4406 Rain 25 1017 69 16093 2.1 160 12:22 31.07.2019
4407 Clouds 25 1015 78 16093 3.1 280 11:39 31.07.2019
4408 Clouds 25 1017 65 16093 3.6 130 11:21 31.07.2019
4409 Clear 25 1015 65 16093 0.37 290.356 10:55 31.07.2019
4410 Rain 26 1015 65 16093 0.37 290.356 10:37 31.07.2019
4411 Rain 26 1017 65 16093 2.1 120 10:18 31.07.2019
4412 Rain 26 1016 65 16093 0.37 290.356 09:42 31.07.2019
4413 Clouds 26 1018 65 16093 2.6 40 09:23 31.07.2019
4414 Clouds 26 1016 65 16093 0.6 13.967 08:43 31.07.2019
4415 Clouds 26 1018 65 16093 2.1 230 08:24 31.07.2019
4416 Clouds 26 1017 65 16093 3.1 200 07:47 31.07.2019
4417 Clouds 26 1017 65 16093 3.6 210 07:27 31.07.2019
4418 Clouds 28 1016 57 16093 5.7 150 05:20 31.07.2019
4419 Clouds 28 1015 88 16093 4.6 220 03:55 31.07.2019
4420 Clear 35 1012 26 16093 3.6 350 00:37 31.07.2019
4421 Clouds 36 1013 28 16093 6.7 360 23:47 30.07.2019
4422 Clouds 36 1013 28 16093 6.7 360 23:47 30.07.2019
4423 Clouds 36 1014 30 16093 3.6 60 23:25 30.07.2019
4424 Clear 36 1013 26 16093 2.6 270 22:49 30.07.2019
4425 Clouds 35 1015 28 16093 3.6 40 22:26 30.07.2019
4426 Rain 35 1014 26 16093 3.6 270 21:57 30.07.2019
4427 Rain 35 1015 28 16093 3.1 330 21:37 30.07.2019
4428 Rain 35 1016 28 16093 1.63 215.885 21:19 30.07.2019
4429 Clear 34 1016 26 16093 2.1 50 20:44 30.07.2019
4430 Clouds 34 1017 31 16093 3.1 20 20:25 30.07.2019
4431 Clear 34 1015 31 16093 1.62 245.861 19:59 30.07.2019
4432 Clear 33 1016 33 16093 1.62 245.861 19:40 30.07.2019
4433 Clear 33 1017 35 16093 2.6 240 19:21 30.07.2019
4434 Clear 32 1017 31 16093 2.6 360 18:44 30.07.2019
4435 Clear 31 1017 38 16093 3.6 120 18:20 30.07.2019
4436 Clear 31 1016 45 16093 0.47 132.323 17:42 30.07.2019
4437 Rain 30 1017 40 16093 3.6 150 17:20 30.07.2019
4438 Rain 29 1017 45 16093 3.1 90 16:53 30.07.2019
4439 Clouds 28 1017 51 16093 3.6 130 16:22 30.07.2019
4440 Clear 27 1015 54 16093 2.6 110 15:59 30.07.2019
4441 Clear 26 1015 54 16093 3.1 130 15:38 30.07.2019
4442 Clouds 26 1016 51 16093 2.6 80 15:19 30.07.2019
4443 Clear 25 1014 61 16093 1.5 90 14:43 30.07.2019
4444 Clouds 25 1015 51 16093 4.1 110 14:22 30.07.2019
4445 Clouds 26 1013 54 16093 2.6 80 13:48 30.07.2019
4446 Clouds 26 1013 54 16093 2.6 80 13:29 30.07.2019
4447 Clouds 26 1014 48 16093 2.6 100 12:59 30.07.2019
4448 Rain 26 1014 48 16093 2.1 130 12:41 30.07.2019
4449 Rain 26 1016 51 16093 4.6 130 12:23 30.07.2019
4450 Rain 26 1014 48 16093 6.7 120 11:44 30.07.2019
4451 Clouds 27 1016 54 16093 6.2 110 11:21 30.07.2019
4452 Clouds 27 1016 54 16093 6.2 110 11:21 30.07.2019
4453 Clouds 27 1017 54 16093 6.2 100 10:55 30.07.2019
4454 Clouds 27 1017 54 16093 6.2 100 10:37 30.07.2019
4455 Clouds 27 1017 54 16093 6.2 100 10:18 30.07.2019
4456 Drizzle 27 1016 51 16093 4.1 80 09:44 30.07.2019
4457 Clear 27 1014 65 16093 5.1 130 09:24 30.07.2019
4458 Clear 27 1014 65 16093 5.1 130 09:24 30.07.2019
4459 Clouds 27 1014 73 16093 6.2 170 08:32 30.07.2019
4460 Clouds 27 1017 54 16093 2.6 120 07:52 30.07.2019
4461 Clouds 27 1015 61 16093 2.1 240 07:34 30.07.2019
4462 Rain 27 1016 43 16093 4.1 50 06:50 30.07.2019
4463 Rain 27 1016 43 16093 4.1 50 06:31 30.07.2019
4464 Clear 30 1015 45 16093 2.6 100 05:34 30.07.2019
4465 Rain 33 1014 48 16093 1.5 0 03:29 30.07.2019
4466 Clouds 39 1012 17 16093 3.6 350 01:22 30.07.2019
4467 Clouds 40 1013 16 16093 5.7 360 00:25 30.07.2019
4468 Clear 39 1013 18 16093 2.1 320 23:47 29.07.2019
4469 Clear 39 1012 15 16093 2.6 330 23:28 29.07.2019
4470 Clear 39 1012 16 16093 3.1 340 22:58 29.07.2019
4471 Clear 39 1012 16 16093 3.1 340 22:58 29.07.2019
4472 Clear 39 1013 16 16093 1.5 360 22:39 29.07.2019
4473 Clear 39 1015 22 16093 3.1 310 22:20 29.07.2019
4474 Clear 39 1015 22 16093 3.1 310 22:20 29.07.2019
4475 Clear 38 1013 15 16093 3.6 290 21:59 29.07.2019
4476 Clear 38 1013 16 16093 4.1 170 21:41 29.07.2019
4477 Clear 37 1016 24 16093 2.6 310 21:22 29.07.2019
4478 Rain 36 1015 19 16093 3.1 150 20:55 29.07.2019
4479 Rain 36 1015 19 16093 3.1 150 20:36 29.07.2019
4480 Rain 35 1016 26 16093 3.8 293.189 20:18 29.07.2019
4481 Clear 34 1015 21 16093 2.1 230 19:41 29.07.2019
4482 Clouds 34 1017 31 16093 3.8 293.189 19:21 29.07.2019
4483 Clear 33 1015 26 16093 3.1 170 18:43 29.07.2019
4484 Clouds 32 1017 33 16093 3.6 180 18:23 29.07.2019
4485 Clear 32 1016 33 16093 1.5 70 17:56 29.07.2019
4486 Clear 31 1015 29 16093 2.6 160 17:37 29.07.2019
4487 Clouds 31 1017 40 16093 4.6 160 17:19 29.07.2019
4488 Clear 30 1014 35 16093 2.42 311.101 16:42 29.07.2019
4489 Clouds 30 1016 42 16093 3.6 120 16:23 29.07.2019
4490 Clear 29 1016 45 16093 2.42 311.101 15:53 29.07.2019
4491 Clear 28 1014 37 16093 2.42 311.101 15:34 29.07.2019
4492 Clear 28 1014 35 16093 1.49 160.375 14:57 29.07.2019
4493 Clear 28 1013 35 16093 1.49 160.375 14:38 29.07.2019
4494 Clouds 28 1015 42 16093 2.1 90 14:19 29.07.2019
4495 Clear 28 1013 35 16093 2.1 140 13:42 29.07.2019
4496 Clouds 29 1015 42 16093 4.6 140 13:23 29.07.2019
4497 Clear 28 1013 33 16093 2.6 150 12:42 29.07.2019
4498 Clear 29 1015 39 16093 2.6 130 12:24 29.07.2019
4499 Clear 29 1013 33 16093 2.1 160 11:44 29.07.2019
4500 -273 0 0 0 0 0 11:22 29.07.2019
4501 Clear 29 1013 33 16093 1.5 160 10:47 29.07.2019
4502 Clear 29 1015 37 16093 2.6 130 10:25 29.07.2019
4503 Clear 30 1013 31 16093 3.83 226.683 09:51 29.07.2019
4504 Clear 30 1013 31 16093 3.83 226.683 09:30 29.07.2019
4505 Clear 31 1013 31 16093 3.78 227.361 08:57 29.07.2019
4506 Clear 31 1013 29 16093 2.1 220 08:32 29.07.2019
4507 Clear 31 1013 27 16093 1.5 230 07:59 29.07.2019
4508 Clear 31 1012 31 16093 3.78 227.361 07:36 29.07.2019
4509 Clear 32 1012 24 16093 3.78 227.361 06:53 29.07.2019
4510 Clear 34 1012 24 16093 3.33 331.665 05:46 29.07.2019
4511 Clear 35 1014 22 16093 3.6 340 04:51 29.07.2019
4512 Clear 39 1013 18 16093 5.1 310 02:26 29.07.2019
4513 Clear 39 1012 15 16093 6.2 340 01:41 29.07.2019
4514 Clear 39 1014 20 16093 7.7 350 01:21 29.07.2019
4515 Clear 39 1013 15 16093 5.7 330 00:41 29.07.2019
4516 Clear 39 1015 22 16093 6.2 330 00:19 29.07.2019
4517 Clear 38 1014 16 16093 6.2 320 23:40 28.07.2019
4518 Clear 39 1016 22 16093 8.2 330 23:18 28.07.2019
4519 Rain 38 1015 20 16093 4.1 340 22:38 28.07.2019
4520 Rain 38 1015 20 16093 4.1 340 22:38 28.07.2019
4521 Rain 38 1016 23 16093 5.7 310 22:19 28.07.2019
4522 Clear 37 1016 22 16093 4.6 330 21:46 28.07.2019
4523 Clear 36 1017 25 16093 5.7 310 21:18 28.07.2019
4524 Clear 36 1017 23 16093 6.2 310 20:45 28.07.2019
4525 Clear 36 1016 23 16093 2.6 300 20:27 28.07.2019
4526 Clear 35 1017 23 16093 4.58 288.589 19:42 28.07.2019
4527 Clear 35 1018 28 16093 4.58 288.589 19:22 28.07.2019
4528 Clear 34 1018 26 16093 4.6 240 18:51 28.07.2019
4529 Clear 33 1017 29 16093 4.58 288.589 18:32 28.07.2019
4530 Clear 32 1019 31 16093 1.5 100 17:59 28.07.2019
4531 Clear 31 1017 33 16093 3.1 110 17:41 28.07.2019
4532 Clear 31 1019 40 16093 4.6 150 17:21 28.07.2019
4533 Clear 30 1019 40 16093 3.1 50 16:47 28.07.2019
4534 Clear 29 1017 39 16093 1.5 110 16:28 28.07.2019
4535 Clear 29 1017 39 16093 1.5 140 15:57 28.07.2019
4536 Clear 29 1017 39 16093 1.5 140 15:57 28.07.2019
4537 Clear 28 1016 39 16093 2.6 160 15:39 28.07.2019
4538 Clear 28 1018 51 16093 3.1 130 15:21 28.07.2019
4539 Clear 28 1016 35 16093 3.6 170 14:37 28.07.2019
4540 Clear 28 1018 48 16093 4.1 140 14:18 28.07.2019
4541 Clear 28 1015 33 16093 2.6 170 13:42 28.07.2019
4542 Clear 29 1017 45 16093 3.1 130 13:22 28.07.2019
4543 Clear 29 1015 31 16093 3.1 150 12:59 28.07.2019
4544 Clear 29 1015 31 16093 3.1 150 12:39 28.07.2019
4545 Clouds 29 1017 45 16093 4.6 150 12:20 28.07.2019
4546 Clear 30 1015 29 16093 3.6 160 11:44 28.07.2019
4547 Clear 30 1017 42 16093 4.1 150 11:26 28.07.2019
4548 Clear 30 1015 29 16093 4.1 140 10:40 28.07.2019
4549 Clear 31 1017 42 16093 5.1 130 10:20 28.07.2019
4550 Clear 31 1014 27 16093 5.1 190 09:41 28.07.2019
4551 Clear 31 1014 27 16093 5.1 190 09:41 28.07.2019
4552 Clear 31 1017 38 16093 3.1 100 09:23 28.07.2019
4553 Clear 32 1014 27 16093 4.6 190 08:51 28.07.2019
4554 Clear 32 1014 27 16093 4.6 190 08:28 28.07.2019
4555 Clear 33 1014 21 16093 5.1 180 07:51 28.07.2019
4556 Clear 33 1014 21 16093 5.1 180 07:32 28.07.2019
4557 Clear 34 1013 21 16093 3.1 290 06:39 28.07.2019
4558 Clear 36 1015 23 16093 3.6 340 05:25 28.07.2019
4559 Clear 39 1014 18 16093 7.2 340 03:23 28.07.2019
4560 Clear 39 1014 19 16093 5.7 340 02:19 28.07.2019
4561 Clear 40 1012 13 16093 7.2 330 01:18 28.07.2019
4562 Clear 41 1013 12 16093 4.6 340 00:44 28.07.2019
4563 Clear 40 1014 13 16093 5.1 330 23:56 27.07.2019
4564 Clear 41 1014 13 16093 5.1 330 23:38 27.07.2019
4565 Clear 41 1015 15 16093 5.7 340 23:18 27.07.2019
4566 Clear 41 1015 17 16093 5.1 330 22:40 27.07.2019
4567 Clear 41 1015 17 16093 3.1 300 22:18 27.07.2019
4568 Clear 40 1015 18 16093 3.6 290 21:39 27.07.2019
4569 Clear 38 1017 24 16093 2.6 300 21:20 27.07.2019
4570 Clear 38 1016 20 16093 3.1 320 20:50 27.07.2019
4571 Clear 38 1018 26 16093 3.82 272.746 20:23 27.07.2019
4572 Clear 37 1016 23 16093 1.5 360 19:46 27.07.2019
4573 Clear 37 1018 28 16093 3.82 272.746 19:26 27.07.2019
4574 Clear 36 1018 28 16093 1.5 270 18:51 27.07.2019
4575 Clear 35 1017 24 16093 1.5 270 18:32 27.07.2019
4576 Rain 33 1018 32 16093 1.5 310 17:52 27.07.2019
4577 Rain 33 1017 29 16093 0.91 215.224 17:33 27.07.2019
4578 Rain 32 1017 31 16093 0.91 215.224 16:59 27.07.2019
4579 Rain 31 1016 40 16093 0.91 215.224 16:39 27.07.2019
4580 Clear 30 1016 40 16093 0.91 215.224 16:20 27.07.2019
4581 Clear 28 1016 45 16093 0.91 215.224 15:46 27.07.2019
4582 Clear 27 1016 39 16093 0.47 124.338 15:20 27.07.2019
4583 Clear 27 1016 45 16093 1.5 150 14:49 27.07.2019
4584 Clear 27 1016 45 16093 1.5 150 14:31 27.07.2019
4585 Clear 27 1015 42 16093 1.5 90 13:52 27.07.2019
4586 Clear 28 1017 51 16093 3.6 150 13:25 27.07.2019
4587 Clear 28 1017 51 16093 3.6 150 12:57 27.07.2019
4588 Clear 28 1015 37 16093 2.6 180 12:37 27.07.2019
4589 Clear 28 1015 37 16093 2.1 200 12:19 27.07.2019
4590 Clear 29 1015 35 16093 2.1 180 11:41 27.07.2019
4591 Clear 29 1017 45 16093 1.5 140 11:23 27.07.2019
4592 Clear 29 1015 31 16093 1.52 152.271 10:41 27.07.2019
4593 Clear 30 1017 48 16093 2.1 110 10:23 27.07.2019
4594 Clear 30 1015 35 16093 1.5 120 09:42 27.07.2019
4595 Clear 31 1017 42 16093 2.1 180 09:23 27.07.2019
4596 Clear 31 1015 31 16093 2.34 155.58 08:50 27.07.2019
4597 Clear 31 1015 31 16093 2.34 155.58 08:32 27.07.2019
4598 Clear 32 1015 31 16093 1.5 330 07:57 27.07.2019
4599 Clear 32 1015 31 16093 1.5 330 07:34 27.07.2019
4600 Clear 32 1014 31 16093 1.5 340 06:58 27.07.2019
4601 Clear 31 1014 31 16093 1.5 300 06:37 27.07.2019
4602 Clear 34 1016 32 16093 2.6 150 06:18 27.07.2019
4603 Clear 35 1014 24 16093 1.5 330 05:32 27.07.2019
4604 Clear 36 1013 22 16093 2.1 330 04:35 27.07.2019
4605 Clear 37 1013 21 16093 4.1 330 03:37 27.07.2019
4606 Clear 39 1013 20 16093 4.6 330 02:42 27.07.2019
4607 Clear 39 1013 17 16093 5.1 330 01:52 27.07.2019
4608 Clear 39 1013 17 16093 5.1 330 01:31 27.07.2019
4609 Clear 39 1013 21 16093 5.7 350 00:33 27.07.2019
4610 Clear 39 1014 22 16093 4.6 330 23:58 26.07.2019
4611 Clear 39 1014 22 16093 4.6 330 23:40 26.07.2019
4612 Clear 39 1016 24 16093 7.2 330 23:22 26.07.2019
4613 Clear 39 1015 23 16093 4.1 340 22:42 26.07.2019
4614 Clear 39 1017 25 16093 4.1 290 22:24 26.07.2019
4615 Clear 38 1016 26 16093 3.1 330 21:49 26.07.2019
4616 Clear 37 1018 30 16093 3.6 340 21:20 26.07.2019
4617 Clear 36 1017 26 16093 2.65 294.831 20:45 26.07.2019
4618 Clear 36 1017 26 16093 2.65 294.831 20:27 26.07.2019
4619 Clear 35 1019 32 16093 3.1 270 19:44 26.07.2019
4620 Clear 35 1019 38 16093 2.65 294.831 19:26 26.07.2019
4621 Clear 34 1017 35 16093 2.65 294.831 18:58 26.07.2019
4622 Clear 33 1017 35 16093 2.65 294.831 18:38 26.07.2019
4623 Clear 31 1019 45 16093 2.1 250 18:20 26.07.2019
4624 Clear 31 1017 43 16093 1.5 90 17:47 26.07.2019
4625 Clear 30 1019 48 16093 1.01 49.614 17:19 26.07.2019
4626 Clear 30 1017 48 16093 1.01 49.614 16:58 26.07.2019
4627 Clear 29 1017 54 16093 1.01 49.614 16:40 26.07.2019
4628 Clear 28 1019 58 16093 2.1 160 16:20 26.07.2019
4629 Clear 27 1017 57 16093 1.01 49.614 15:56 26.07.2019
4630 Clear 26 1017 69 16093 1.01 49.614 15:38 26.07.2019
4631 Clear 25 1018 65 16093 2.6 170 15:19 26.07.2019
4632 Clear 25 1016 57 16093 1.82 78.015 14:43 26.07.2019
4633 Clear 25 1018 65 16093 2.1 180 14:22 26.07.2019
4634 Clear 25 1016 57 16093 2.1 180 13:46 26.07.2019
4635 Clear 25 1017 65 16093 1.5 190 13:27 26.07.2019
4636 Clear 26 1015 51 11265 2.1 170 12:49 26.07.2019
4637 Clear 26 1017 61 16093 2.1 130 12:23 26.07.2019
4638 Clear 26 1015 51 16093 3.1 100 11:48 26.07.2019
4639 Clear 26 1017 57 16093 1.5 150 11:23 26.07.2019
4640 Clear 27 1015 51 16093 2.1 110 10:59 26.07.2019
4641 Clear 27 1015 51 16093 2.1 80 10:39 26.07.2019
4642 Clear 27 1017 54 16093 2.14 69.19 10:19 26.07.2019
4643 Clear 27 1015 54 16093 2.1 120 09:47 26.07.2019
4644 Clear 27 1015 54 16093 2.1 120 09:26 26.07.2019
4645 Clear 28 1015 51 16093 1.5 100 08:41 26.07.2019
4646 Clouds 28 1017 54 16093 2.6 220 08:21 26.07.2019
4647 Clear 28 1015 51 16093 3.6 170 07:39 26.07.2019
4648 Clear 29 1017 54 16093 3.1 250 07:21 26.07.2019
4649 Clear 29 1017 48 16093 4.1 220 06:21 26.07.2019
4650 Clear 31 1013 40 16093 6.2 240 04:30 26.07.2019
4651 Thunderstorm 32 1012 31 16093 5.1 230 03:50 26.07.2019
4652 Clear 35 1012 23 16093 3.6 350 01:46 26.07.2019
4653 Clouds 37 1014 27 16093 4.1 290 01:18 26.07.2019
4654 Clear 38 1013 23 16093 5.1 330 00:28 26.07.2019
4655 Clear 37 1014 25 16093 4.1 320 23:44 25.07.2019
4656 Clear 37 1015 29 16093 4.1 300 23:20 25.07.2019
4657 Clear 38 1015 30 16093 2.1 350 22:41 25.07.2019
4658 Clear 37 1016 30 16093 3.6 270 22:21 25.07.2019
4659 Clear 36 1016 32 16093 2.1 330 21:48 25.07.2019
4660 Clear 35 1017 32 16093 3.1 310 21:23 25.07.2019
4661 Clear 35 1016 32 16093 2.1 280 20:57 25.07.2019
4662 Clear 35 1016 36 16093 1.5 360 20:38 25.07.2019
4663 Clear 34 1018 41 16093 2.6 300 20:18 25.07.2019
4664 Clear 33 1017 40 16093 2.2 274.245 19:40 25.07.2019
4665 Clear 33 1018 43 16093 2.2 274.245 19:21 25.07.2019
4666 Clear 32 1017 42 16093 2.2 274.245 18:42 25.07.2019
4667 Clouds 31 1019 48 16093 1.63 220.453 18:23 25.07.2019
4668 Clear 30 1017 48 16093 1.63 220.453 17:50 25.07.2019
4669 Clear 29 1017 48 16093 1.63 220.453 17:31 25.07.2019
4670 Clear 28 1017 51 16093 1.63 220.453 16:56 25.07.2019
4671 Clear 27 1017 61 16093 2.6 120 16:37 25.07.2019
4672 Clear 27 1018 65 16093 3.1 130 16:19 25.07.2019
4673 Clouds 25 1016 73 16093 1.5 150 15:42 25.07.2019
4674 Clear 24 1018 73 16093 3.1 130 15:19 25.07.2019
4675 Clear 24 1016 69 16093 0.66 214.437 14:42 25.07.2019
4676 Clear 24 1017 73 16093 3.1 110 14:23 25.07.2019
4677 Clear 24 1015 73 16093 2.1 80 13:44 25.07.2019
4678 Clear 24 1017 69 16093 2.6 100 13:26 25.07.2019
4679 Clear 24 1015 69 16093 0.82 194.846 12:57 25.07.2019
4680 Clear 25 1015 65 16093 2.1 180 12:28 25.07.2019
4681 Clear 25 1015 65 16093 2.1 190 11:46 25.07.2019
4682 Clear 25 1017 73 16093 2.1 200 11:25 25.07.2019
4683 Clear 25 1015 65 16093 0.35 133.37 10:55 25.07.2019
4684 Clear 25 1015 65 16093 0.35 133.37 10:36 25.07.2019
4685 Clear 26 1017 69 16093 0.35 133.37 10:18 25.07.2019
4686 Clear 26 1015 65 16093 1.5 140 09:40 25.07.2019
4687 Clear 26 1017 61 16093 0.44 97.125 09:18 25.07.2019
4688 Clear 27 1016 61 16093 2.35 48.575 08:42 25.07.2019
4689 Clear 27 1016 61 16093 2.1 140 07:56 25.07.2019
4690 Clear 27 1016 61 16093 2.1 140 07:34 25.07.2019
4691 Clear 28 1015 69 16093 3.1 230 06:43 25.07.2019
4692 Clouds 28 1017 54 16093 2.3 117.948 05:37 25.07.2019
4693 Clouds 28 1016 54 16093 1.5 50 05:18 25.07.2019
4694 Clear 28 1013 51 16093 1.5 310 04:31 25.07.2019
4695 Clear 37 1013 25 16093 3.1 290 01:31 25.07.2019
4696 Clouds 37 1013 25 16093 2.1 320 00:45 25.07.2019
4697 Clouds 37 1015 28 16093 2.6 290 00:19 25.07.2019
4698 Clear 36 1015 25 16093 3.6 100 23:45 24.07.2019
4699 Clear 36 1015 28 16093 2.1 10 23:27 24.07.2019
4700 Clear 36 1016 32 16093 2.6 220 22:48 24.07.2019
4701 Clear 35 1017 36 16093 1.5 30 22:27 24.07.2019
4702 Clear 35 1018 34 16093 2.6 100 21:59 24.07.2019
4703 Clear 35 1017 33 16093 1.5 300 21:41 24.07.2019
4704 Clear 34 1019 40 16093 2.6 250 21:20 24.07.2019
4705 Clear 33 1019 38 16093 2.6 40 20:48 24.07.2019
4706 Clear 32 1019 45 16093 2.1 300 20:30 24.07.2019
4707 Clear 32 1018 40 16093 3.6 340 19:59 24.07.2019
4708 Clear 31 1019 42 16093 4.1 320 19:41 24.07.2019
4709 Clear 31 1020 51 16093 4.1 340 19:21 24.07.2019
4710 Clear 30 1020 45 16093 3.1 300 18:45 24.07.2019
4711 Clear 29 1020 54 16093 5.1 330 18:25 24.07.2019
4712 Clouds 29 1019 51 16093 4.1 330 17:55 24.07.2019
4713 Clouds 28 1019 51 16093 4.1 330 17:37 24.07.2019
4714 Clouds 28 1020 61 16093 2.6 270 17:18 24.07.2019
4715 Clouds 27 1019 57 16093 2.6 330 16:39 24.07.2019
4716 Clouds 26 1020 65 16093 3.1 240 16:21 24.07.2019
4717 Clouds 26 1018 61 11265 1.5 280 15:38 24.07.2019
4718 Clouds 25 1019 69 16093 2.1 160 15:20 24.07.2019
4719 Clear 25 1017 54 16093 6.17 53.771 14:47 24.07.2019
4720 Clouds 25 1018 69 16093 6.17 53.771 14:22 24.07.2019
4721 Clouds 26 1017 51 16093 6.17 53.771 13:42 24.07.2019
4722 Clouds 26 1018 61 16093 3.1 140 13:24 24.07.2019
4723 Clear 26 1016 45 16093 1.62 72.102 12:55 24.07.2019
4724 Clear 26 1016 45 16093 1.62 72.102 12:37 24.07.2019
4725 Clear 26 1018 65 16093 4.1 120 12:18 24.07.2019
4726 Clear 27 1016 42 16093 2.85 52.358 11:37 24.07.2019
4727 Clouds 27 1018 61 16093 4.1 130 11:19 24.07.2019
4728 Thunderstorm 27 1016 40 16093 4.6 190 10:42 24.07.2019
4729 Thunderstorm 28 1018 61 16093 2.6 140 10:24 24.07.2019
4730 Rain 28 1016 40 16093 3.1 160 09:44 24.07.2019
4731 Rain 28 1018 58 16093 5.7 140 09:23 24.07.2019
4732 Clear 28 1016 35 16093 6.7 120 08:53 24.07.2019
4733 Clouds 29 1018 51 16093 5.1 140 08:26 24.07.2019
4734 Clear 29 1016 35 16093 5.1 120 07:47 24.07.2019
4735 Clear 29 1015 31 16093 5.1 140 07:23 24.07.2019
4736 Clear 30 1015 31 16093 2.6 90 06:28 24.07.2019
4737 Clear 31 1017 40 16093 6.2 140 05:26 24.07.2019
4738 Clear 35 1013 19 16093 3.1 60 01:56 24.07.2019
4739 Clear 36 1013 18 16093 3.6 60 01:28 24.07.2019
4740 Clear 36 1015 19 16093 3.1 130 00:52 24.07.2019
4741 Clear 36 1017 26 16093 3.1 120 00:21 24.07.2019
4742 Clear 36 1015 19 16093 4.6 100 23:38 23.07.2019
4743 Clear 36 1017 28 16093 2.78 327.282 23:19 23.07.2019
4744 Rain 35 1016 24 16093 5.1 130 22:39 23.07.2019
4745 Rain 35 1018 30 16093 3.6 70 22:19 23.07.2019
4746 Clear 34 1019 34 16093 2.1 60 21:54 23.07.2019
4747 Clear 34 1017 26 16093 5.7 130 21:36 23.07.2019
4748 Clear 34 1017 26 16093 5.7 130 21:36 23.07.2019
4749 Clouds 33 1019 38 16093 2.1 80 21:18 23.07.2019
4750 Clouds 32 1019 40 16093 5.1 90 20:41 23.07.2019
4751 Clouds 31 1019 45 16093 9.3 130 20:21 23.07.2019
4752 Clear 30 1018 38 16093 1.5 20 19:40 23.07.2019
4753 Clouds 30 1019 45 16093 9.3 130 19:19 23.07.2019
4754 Clear 29 1018 45 16093 1.5 20 18:43 23.07.2019
4755 Clouds 29 1019 54 16093 4.1 100 18:22 23.07.2019
4756 Rain 28 1018 48 16093 2.6 20 17:44 23.07.2019
4757 Rain 27 1019 61 16093 3.1 90 17:24 23.07.2019
4758 Clear 27 1018 57 16093 3.48 110.824 16:50 23.07.2019
4759 Clear 27 1018 57 16093 3.48 110.824 16:28 23.07.2019
4760 Clear 26 1018 73 16093 3.48 110.824 15:58 23.07.2019
4761 Clouds 26 1018 73 16093 2.1 60 15:39 23.07.2019
4762 Clouds 25 1020 69 16093 2.6 120 15:21 23.07.2019
4763 Clear 25 1017 69 16093 4.1 220 14:37 23.07.2019
4764 Clouds 25 1019 78 16093 5.1 120 14:19 23.07.2019
4765 Clouds 25 1017 61 16093 3.1 270 13:56 23.07.2019
4766 Clouds 24 1019 69 16093 5.7 120 13:38 23.07.2019
4767 Clouds 24 1019 73 16093 6.7 90 13:19 23.07.2019
4768 Clear 24 1017 57 16093 4.6 100 12:44 23.07.2019
4769 Clouds 25 1019 73 16093 2.1 160 12:25 23.07.2019
4770 Clear 24 1017 73 16093 2.1 130 11:45 23.07.2019
4771 Clouds 24 1019 73 16093 6.2 60 11:26 23.07.2019
4772 Rain 23 1018 78 16093 2.6 30 10:52 23.07.2019
4773 Rain 23 1020 88 16093 4.1 50 10:26 23.07.2019
4774 Rain 22 1021 88 16093 5.1 30 09:44 23.07.2019
4775 Rain 22 1021 88 16093 4.1 30 09:24 23.07.2019
4776 Rain 23 1020 73 16093 4.6 100 08:57 23.07.2019
4777 Rain 23 1022 78 16093 6.7 180 08:38 23.07.2019
4778 Rain 23 1022 83 16093 6.7 150 08:19 23.07.2019
4779 Rain 23 1022 83 16093 5.1 120 07:50 23.07.2019
4780 Rain 23 1021 73 16093 4.45 108.716 07:32 23.07.2019
4781 Rain 23 1020 78 16093 2.6 230 06:38 23.07.2019
4782 Rain 24 1019 73 16093 3.1 320 05:34 23.07.2019
4783 Thunderstorm 36 1016 25 16093 4.1 320 01:57 23.07.2019
4784 Clouds 37 1014 27 16093 4.6 340 01:20 23.07.2019
4785 Thunderstorm 38 1015 25 16093 6.2 340 00:28 23.07.2019
4786 Clear 37 1015 22 16093 4.6 320 23:41 22.07.2019
4787 Clouds 38 1016 29 16093 5.1 300 23:21 22.07.2019
4788 Clear 37 1016 25 16093 3.1 340 22:48 22.07.2019
4789 Clear 37 1016 25 16093 3.1 340 22:30 22.07.2019
4790 Clear 37 1016 26 16093 3.6 330 21:59 22.07.2019
4791 Clear 36 1017 26 16093 3.1 320 21:41 22.07.2019
4792 Clouds 35 1018 34 16093 4.6 10 21:20 22.07.2019
4793 Clear 35 1018 30 16093 4.6 350 20:47 22.07.2019
4794 Clear 34 1019 34 16093 2.74 308.32 20:29 22.07.2019
4795 Clear 34 1019 34 16093 2.74 308.32 20:29 22.07.2019
4796 Clear 33 1018 31 16093 2.74 308.32 19:44 22.07.2019
4797 Clouds 32 1019 38 16093 2.6 290 19:26 22.07.2019
4798 Clear 31 1019 38 16093 2.74 308.32 18:58 22.07.2019
4799 Clear 31 1018 33 16093 2.74 308.32 18:39 22.07.2019
4800 Clouds 30 1019 45 16093 1.5 70 18:21 22.07.2019
4801 Clear 29 1017 40 16093 2.1 130 17:41 22.07.2019
4802 Clouds 29 1019 51 16093 3.1 120 17:23 22.07.2019
4803 Clear 28 1017 42 16093 2.1 110 16:41 22.07.2019
4804 Clouds 28 1018 51 16093 2.74 315.993 16:21 22.07.2019
4805 Clear 27 1017 39 16093 2.6 100 15:58 22.07.2019
4806 Clear 27 1017 45 16093 3.1 160 15:36 22.07.2019
4807 Clouds 27 1018 54 16093 2.1 140 15:18 22.07.2019
4808 Clear 27 1016 45 16093 2.6 170 14:42 22.07.2019
4809 Clear 27 1018 54 16093 3.6 160 14:20 22.07.2019
4810 Clear 27 1018 54 16093 3.6 160 14:20 22.07.2019
4811 Clear 27 1016 48 16093 3.1 190 13:45 22.07.2019
4812 Clear 27 1016 48 16093 3.1 190 13:45 22.07.2019
4813 Clear 27 1017 51 16093 4.1 170 13:26 22.07.2019
4814 Clear 28 1015 45 16093 4.1 210 12:44 22.07.2019
4815 Clouds 28 1016 51 16093 5.1 140 12:24 22.07.2019
4816 Clear 28 1015 33 16093 4.1 210 11:44 22.07.2019
4817 Clouds 29 1016 42 16093 2.6 180 11:20 22.07.2019
4818 Clear 29 1014 33 16093 3.6 200 10:48 22.07.2019
4819 Clear 29 1014 33 16093 3.6 200 10:27 22.07.2019
4820 Clear 29 1014 33 16093 4.1 200 09:44 22.07.2019
4821 Clouds 29 1015 45 16093 2.6 190 09:24 22.07.2019
4822 Clear 29 1014 27 16093 2.1 170 08:45 22.07.2019
4823 Clouds 30 1015 40 16093 3.6 160 08:25 22.07.2019
4824 Clear 30 1013 27 16093 1.5 160 07:58 22.07.2019
4825 Clear 30 1013 27 16093 1.5 170 07:40 22.07.2019
4826 Clouds 30 1015 40 16093 1.5 220 07:21 22.07.2019
4827 Clear 32 1012 27 16093 4.6 250 03:57 22.07.2019
4828 Clear 37 1011 17 16093 4.1 310 02:42 22.07.2019
4829 Clear 39 1012 15 16093 4.6 350 00:57 22.07.2019
4830 Clear 39 1014 18 16093 4.1 330 00:26 22.07.2019
4831 Clear 39 1015 21 16093 5.1 290 23:55 21.07.2019
4832 Clear 39 1013 18 16093 5.1 360 23:31 21.07.2019
4833 Clear 38 1014 19 16093 3.6 340 22:42 21.07.2019
4834 Clear 38 1016 23 16093 5.7 320 22:23 21.07.2019
4835 Clear 38 1016 23 16093 3.6 20 21:58 21.07.2019
4836 Clear 38 1015 22 16093 2.6 340 21:38 21.07.2019
4837 Clear 37 1016 23 16093 3.1 330 21:20 21.07.2019
4838 Clear 36 1015 26 16093 2.1 270 20:54 21.07.2019
4839 Clear 36 1015 26 16093 2.1 270 20:36 21.07.2019
4840 Clear 36 1017 26 16093 2.6 340 20:18 21.07.2019
4841 Clear 35 1015 28 16093 3.1 340 19:41 21.07.2019
4842 Clear 34 1017 29 16093 5.1 300 19:21 21.07.2019
4843 Clear 33 1017 36 16093 1.5 300 18:46 21.07.2019
4844 Clear 32 1017 43 16093 3.6 270 18:25 21.07.2019
4845 Clear 31 1015 37 16093 2.1 200 17:42 21.07.2019
4846 Clear 31 1017 45 16093 1.5 220 17:20 21.07.2019
4847 Clear 30 1015 45 16093 2.6 200 16:47 21.07.2019
4848 Clear 29 1016 48 16093 2.6 130 16:25 21.07.2019
4849 Clear 28 1015 42 16093 2.1 230 15:57 21.07.2019
4850 Clear 26 1014 47 16093 1.5 70 15:36 21.07.2019
4851 Clouds 25 1015 54 16093 2.1 110 15:18 21.07.2019
4852 Clear 25 1013 42 16093 0.9 269.809 14:41 21.07.2019
4853 Clouds 26 1015 54 16093 2.1 120 14:22 21.07.2019
4854 Clear 26 1013 42 16093 2.1 150 13:45 21.07.2019
4855 Clear 26 1013 42 16093 2.1 150 13:27 21.07.2019
4856 Clear 26 1012 39 16093 1.5 140 12:43 21.07.2019
4857 Clear 27 1014 51 16093 3.1 150 12:24 21.07.2019
4858 Clear 27 1012 42 16093 1.67 8.665 11:47 21.07.2019
4859 Clear 27 1012 42 16093 1.67 8.665 11:29 21.07.2019
4860 Clear 28 1012 40 16093 1.67 8.665 10:56 21.07.2019
4861 Clear 28 1012 40 16093 1.67 8.665 10:38 21.07.2019
4862 Clear 28 1014 48 16093 3.6 150 10:19 21.07.2019
4863 Clear 29 1012 38 16093 4.6 210 09:37 21.07.2019
4864 Clear 29 1014 48 16093 4.1 140 09:19 21.07.2019
4865 Clear 30 1012 31 16093 3.6 210 08:40 21.07.2019
4866 Clear 30 1014 40 16093 5.1 160 08:22 21.07.2019
4867 Clear 31 1012 19 16093 4.6 200 07:32 21.07.2019
4868 Clear 32 1011 17 16093 2.1 340 06:45 21.07.2019
4869 Clear 35 1012 14 16093 5.1 330 05:27 21.07.2019
4870 Clear 39 1011 13 16093 4.6 330 02:20 21.07.2019
4871 Clear 40 1011 10 16093 4.6 310 00:51 21.07.2019
4872 Clouds 40 1012 12 16093 6.7 360 00:24 21.07.2019
4873 Clear 39 1011 10 16093 4.6 340 23:57 20.07.2019
4874 Clear 39 1011 10 16093 5.1 320 23:37 20.07.2019
4875 Clear 39 1013 11 16093 3.1 310 23:18 20.07.2019
4876 Clouds 39 1014 15 16093 7.2 330 22:42 20.07.2019
4877 Clouds 38 1014 16 16093 5.7 320 22:20 20.07.2019
4878 Clear 38 1014 16 16093 2.6 260 21:44 20.07.2019
4879 Clear 38 1014 18 16093 2.6 340 21:24 20.07.2019
4880 Clear 37 1013 14 16093 1.5 270 20:44 20.07.2019
4881 Clear 36 1015 19 16093 5.1 330 20:23 20.07.2019
4882 Clear 36 1015 20 16093 3.1 310 19:53 20.07.2019
4883 Clear 36 1015 20 16093 3.1 310 19:53 20.07.2019
4884 Clear 35 1013 17 16093 1.5 200 19:34 20.07.2019
4885 Clear 34 1013 18 16093 1.5 250 18:58 20.07.2019
4886 Clear 34 1013 19 16093 3.54 292.79 18:40 20.07.2019
4887 Clear 33 1015 27 16093 2.6 270 18:19 20.07.2019
4888 Clear 32 1015 27 16093 1.5 300 17:47 20.07.2019
4889 Clouds 31 1015 35 16093 2.1 220 17:20 20.07.2019
4890 Clear 30 1013 28 16093 2.6 110 16:42 20.07.2019
4891 Clear 29 1015 42 16093 2.6 190 16:24 20.07.2019
4892 Clear 26 1013 30 16093 2.6 80 15:55 20.07.2019
4893 Clear 27 1013 30 16093 2.6 80 15:37 20.07.2019
4894 Clouds 24 1014 47 16093 2.1 170 15:18 20.07.2019
4895 Clear 24 1012 27 16093 2.1 90 14:42 20.07.2019
4896 Clouds 24 1014 50 16093 3.1 160 14:20 20.07.2019
4897 Clear 24 1012 26 16093 1.5 110 13:38 20.07.2019
4898 Clouds 24 1013 47 16093 3.1 130 13:19 20.07.2019
4899 Clear 25 1012 26 16093 2.6 80 12:51 20.07.2019
4900 Clouds 25 1013 41 16093 3.1 170 12:20 20.07.2019
4901 Clear 26 1012 21 16093 2.1 100 11:52 20.07.2019
4902 Clear 26 1014 39 16093 1.5 160 11:23 20.07.2019
4903 Clear 26 1012 24 16093 2.6 90 10:49 20.07.2019
4904 Clear 27 1013 34 16093 3.1 230 10:26 20.07.2019
4905 Clear 28 1012 21 16093 2.6 210 09:53 20.07.2019
4906 Clear 28 1012 21 16093 2.6 210 09:27 20.07.2019
4907 Clear 28 1012 21 16093 3.1 230 08:57 20.07.2019
4908 Clear 29 1012 21 16093 3.6 210 08:36 20.07.2019
4909 Clear 29 1013 32 16093 2.6 200 08:18 20.07.2019
4910 Clear 32 1011 18 16093 2.1 320 06:47 20.07.2019
4911 Clear 32 1012 17 16093 3.1 310 06:21 20.07.2019
4912 Clear 35 1009 12 16093 6.2 330 04:31 20.07.2019
4913 Clear 38 1009 12 16093 5.1 340 02:34 20.07.2019
4914 Clouds 38 1011 19 16093 7.2 330 01:20 20.07.2019
4915 Clear 38 1011 18 16093 8.7 360 00:45 20.07.2019
4916 Clear 39 1011 19 16093 6.7 340 00:18 20.07.2019
4917 Clear 39 1011 19 16093 6.7 340 00:18 20.07.2019
4918 Clear 39 1012 19 16093 7.2 360 23:43 19.07.2019
4919 Clear 38 1012 21 16093 5.1 300 23:22 19.07.2019
4920 Clouds 38 1013 20 16093 5.1 310 22:43 19.07.2019
4921 Clouds 38 1013 20 16093 7.2 360 22:24 19.07.2019
4922 Clear 37 1014 23 16093 3.6 10 21:46 19.07.2019
4923 Clear 37 1014 23 16093 3.6 10 21:27 19.07.2019
4924 Clear 36 1015 26 16093 5.1 320 20:50 19.07.2019
4925 Clear 36 1013 20 16093 2.6 300 20:31 19.07.2019
4926 Clear 35 1015 28 16093 3.6 260 19:55 19.07.2019
4927 Clear 34 1013 24 16093 4.43 293.39 19:34 19.07.2019
4928 Clear 33 1013 27 16093 1.5 300 18:42 19.07.2019
4929 Clear 32 1015 40 16093 1.5 160 18:22 19.07.2019
4930 Clear 31 1015 38 16093 2.77 244.665 17:55 19.07.2019
4931 Clear 30 1013 33 16093 1.5 210 17:29 19.07.2019
4932 Clear 29 1015 48 16093 2.6 80 16:49 19.07.2019
4933 Clear 29 1015 45 16093 6.2 150 16:29 19.07.2019
4934 Clear 28 1015 48 16093 4.6 150 15:55 19.07.2019
4935 Clear 28 1012 42 16093 2.1 100 15:36 19.07.2019
4936 Clear 26 1014 47 16093 4.1 150 15:18 19.07.2019
4937 Clear 26 1012 39 16093 2.1 150 14:43 19.07.2019
4938 Clear 26 1014 51 16093 3.6 130 14:23 19.07.2019
4939 Clear 27 1012 37 16093 3.1 170 13:46 19.07.2019
4940 Clouds 27 1014 48 16093 3.6 130 13:26 19.07.2019
4941 Clear 28 1012 33 16093 2.6 200 12:56 19.07.2019
4942 Clear 28 1012 33 16093 2.6 200 12:36 19.07.2019
4943 Clouds 29 1014 45 16093 5.1 180 12:18 19.07.2019
4944 Clear 29 1012 31 16093 2.1 120 11:43 19.07.2019
4945 Clouds 29 1014 42 16093 4.6 180 11:18 19.07.2019
4946 Clear 29 1012 33 16093 1.5 130 10:47 19.07.2019
4947 Clouds 30 1014 42 16093 3.1 150 10:22 19.07.2019
4948 Clear 30 1012 33 16093 2.1 120 09:58 19.07.2019
4949 Clear 30 1012 33 16093 1.5 190 09:40 19.07.2019
4950 Clouds 30 1014 35 16093 1.5 160 09:21 19.07.2019
4951 Clear 30 1012 29 16093 3.1 220 08:48 19.07.2019
4952 Clear 31 1012 29 16093 1.5 190 07:55 19.07.2019
4953 Clear 31 1012 29 16093 1.5 190 07:29 19.07.2019
4954 Clear 32 1013 31 16093 3.6 260 05:57 19.07.2019
4955 Clear 37 1012 22 16093 5.1 320 02:23 19.07.2019
4956 Clear 38 1012 22 16093 7.7 340 01:20 19.07.2019
4957 Clear 38 1011 16 16093 5.1 320 00:42 19.07.2019
4958 Clear 38 1013 22 16093 2.6 290 23:57 18.07.2019
4959 Clear 38 1013 24 16093 6.2 300 23:39 18.07.2019
4960 Clear 38 1014 25 16093 4.6 320 23:19 18.07.2019
4961 Clear 38 1014 25 16093 4.6 320 23:19 18.07.2019
4962 Clear 37 1013 22 16093 2.6 330 22:40 18.07.2019
4963 Clouds 37 1015 26 16093 6.7 350 22:20 18.07.2019
4964 Clouds 36 1015 30 16093 6.7 350 21:44 18.07.2019
4965 Clouds 36 1015 30 16093 4.1 300 21:26 18.07.2019
4966 Clear 35 1016 30 16093 4.1 290 20:52 18.07.2019
4967 Clear 35 1015 26 16093 2.1 290 20:29 18.07.2019
4968 Clear 34 1017 32 16093 2.6 290 19:59 18.07.2019
4969 Clear 34 1015 29 16093 1.5 270 19:40 18.07.2019
4970 Clear 33 1017 35 16093 4.1 270 19:19 18.07.2019
4971 Clear 32 1016 31 16093 4.61 293.296 18:42 18.07.2019
4972 Clear 32 1017 45 16093 2.41 334.222 18:20 18.07.2019
4973 Clear 30 1016 33 16093 2.41 334.222 17:44 18.07.2019
4974 Clouds 30 1017 48 16093 1.5 100 17:24 18.07.2019
4975 Clear 29 1017 48 16093 2.41 334.222 16:57 18.07.2019
4976 Clear 29 1016 39 16093 1.5 90 16:39 18.07.2019
4977 Clear 28 1017 48 16093 2.1 130 16:18 18.07.2019
4978 Clear 27 1017 51 16093 2.41 334.222 15:44 18.07.2019
4979 Clear 26 1015 44 16093 1.5 80 15:44 18.07.2019
4980 Clear 26 1017 47 16093 2.6 90 15:25 18.07.2019
4981 Clear 25 1015 42 16093 1.34 341.66 14:50 18.07.2019
4982 Clear 25 1015 42 16093 1.34 341.66 14:32 18.07.2019
4983 Clear 26 1015 37 16093 3.1 130 13:50 18.07.2019
4984 Clear 26 1016 57 16093 2.1 120 13:24 18.07.2019
4985 Clear 26 1014 39 16093 2.6 150 12:53 18.07.2019
4986 Clear 26 1016 51 16093 2.6 130 12:22 18.07.2019
4987 Clear 26 1016 47 16093 2.6 150 11:58 18.07.2019
4988 Clear 27 1014 37 16093 1.5 160 11:39 18.07.2019
4989 Clear 27 1016 47 16093 3.1 120 11:21 18.07.2019
4990 Clear 27 1015 33 16093 1.86 176.383 10:49 18.07.2019
4991 Clear 28 1015 31 16093 1.5 140 09:50 18.07.2019
4992 Clear 28 1017 39 16093 1.5 110 09:27 18.07.2019
4993 Clear 29 1015 33 16093 3.1 140 08:52 18.07.2019
4994 Clear 29 1017 42 16093 4.1 150 08:25 18.07.2019
4995 Clear 29 1014 31 16093 4.6 200 07:56 18.07.2019
4996 Clear 30 1014 31 16093 4.6 200 07:35 18.07.2019
4997 Clear 31 1013 27 16093 2.49 173.84 06:48 18.07.2019
4998 Clouds 31 1016 35 16093 7.2 180 06:20 18.07.2019
4999 Clear 36 1012 19 16093 5.1 340 03:34 18.07.2019
5000 Clear 38 1014 22 16093 3.6 310 01:53 18.07.2019
5001 Clear 38 1012 18 16093 3.1 350 01:33 18.07.2019
5002 Clear 38 1015 22 16093 3.6 340 23:57 17.07.2019
5003 Clear 37 1016 25 16093 4.1 310 23:21 17.07.2019
5004 Clear 36 1016 25 16093 4.1 280 22:59 17.07.2019
5005 Clear 36 1015 23 16093 3.1 350 22:41 17.07.2019
5006 Clouds 35 1017 26 16093 3.6 310 22:21 17.07.2019
5007 Clear 35 1017 26 16093 3.1 310 21:56 17.07.2019
5008 Clear 35 1017 26 16093 3.1 310 21:56 17.07.2019
5009 Clear 34 1016 24 16093 4.17 274.018 21:37 17.07.2019
5010 Clouds 34 1017 31 16093 3.6 290 21:19 17.07.2019
5011 Clear 33 1016 28 16093 4.1 200 20:41 17.07.2019
5012 Clouds 33 1018 35 16093 4.24 212.625 20:21 17.07.2019
5013 Clear 32 1018 38 16093 3.1 270 19:59 17.07.2019
5014 Clear 32 1016 29 16093 6.2 200 19:40 17.07.2019
5015 Clear 31 1018 40 16093 5.1 200 19:19 17.07.2019
5016 Clear 31 1016 33 16093 7.7 180 18:43 17.07.2019
5017 Clear 30 1018 48 16093 4.6 210 18:21 17.07.2019
5018 Clear 30 1018 48 16093 4.6 210 18:21 17.07.2019
5019 Clear 30 1016 42 16093 7.7 180 17:55 17.07.2019
5020 Clear 30 1016 42 16093 7.7 180 17:37 17.07.2019
5021 Clear 30 1016 42 16093 7.7 180 17:18 17.07.2019
5022 Clear 29 1016 45 16093 10.8 180 16:38 17.07.2019
5023 Clear 29 1018 48 16093 3.6 260 16:19 17.07.2019
5024 Clear 29 1018 48 16093 3.6 260 16:19 17.07.2019
5025 Clear 28 1018 51 16093 4.6 250 15:51 17.07.2019
5026 Clouds 29 1015 33 16093 6.2 200 15:29 17.07.2019
5027 Clear 28 1014 28 16093 7.2 190 14:55 17.07.2019
5028 Clear 27 1014 30 16093 4.6 170 14:37 17.07.2019
5029 Clear 27 1014 30 16093 4.6 170 14:19 17.07.2019
5030 Clear 27 1013 30 16093 4.6 170 13:45 17.07.2019
5031 Clear 27 1013 30 16093 4.6 170 13:25 17.07.2019
5032 Clear 27 1012 30 16093 2.6 150 12:43 17.07.2019
5033 Clear 28 1012 30 16093 2.6 150 12:21 17.07.2019
5034 Clear 28 1012 30 16093 1.36 177.516 11:56 17.07.2019
5035 Clear 28 1011 28 16093 1.36 177.516 11:37 17.07.2019
5036 Clear 28 1011 28 16093 1.36 177.516 11:18 17.07.2019
5037 Clear 28 1011 25 16093 1.36 177.516 10:42 17.07.2019
5038 Clear 29 1011 25 16093 1.36 177.516 10:18 17.07.2019
5039 Clear 29 1011 22 16093 2.1 200 09:44 17.07.2019
5040 Clear 29 1011 22 16093 2.1 200 09:44 17.07.2019
5041 Clear 30 1011 22 16093 2.1 200 09:25 17.07.2019
5042 Clear 30 1011 22 16093 1.5 200 08:44 17.07.2019
5043 Clear 31 1011 22 16093 1.5 200 08:22 17.07.2019
5044 Haze 32 1011 21 16093 1.5 220 07:51 17.07.2019
5045 Haze 32 1011 21 16093 1.5 220 07:51 17.07.2019
5046 Haze 32 1011 20 16093 2.6 220 07:26 17.07.2019
5047 Clear 33 1011 16 16093 3.1 260 06:58 17.07.2019
5048 Clear 33 1011 16 16093 4.1 260 06:30 17.07.2019
5049 Clear 34 1010 16 16093 5.7 270 05:57 17.07.2019
5050 Clear 34 1009 16 16093 5.7 260 05:30 17.07.2019
5051 Clear 36 1009 12 16093 5.1 270 04:46 17.07.2019
5052 Clear 37 1008 10 16093 8.2 260 03:32 17.07.2019
5053 Rain 39 1008 10 16093 4.1 240 02:25 17.07.2019
5054 Thunderstorm 41 1011 18 16093 4.6 210 01:28 17.07.2019
5055 Clear 42 1008 9 16093 1.5 250 00:59 17.07.2019
5056 Clear 42 1009 10 16093 1.5 250 00:37 17.07.2019
5057 Clear 42 1009 10 16093 1.5 250 00:19 17.07.2019
5058 Clear 42 1009 9 16093 4.6 270 23:40 16.07.2019
5059 Clear 42 1009 9 16093 4.6 270 23:20 16.07.2019
5060 Clear 42 1012 12 16093 2.1 230 22:43 16.07.2019
5061 Clear 41 1010 10 16093 3.6 240 22:24 16.07.2019
5062 Clear 41 1011 11 16093 3.1 150 21:47 16.07.2019
5063 Clear 40 1011 11 16093 3.1 150 21:25 16.07.2019
5064 Clear 39 1012 12 16093 2.1 240 20:58 16.07.2019
5065 Clear 39 1012 13 16093 2.1 190 20:40 16.07.2019
5066 Clear 39 1012 13 16093 2.1 190 20:21 16.07.2019
5067 Clear 38 1014 17 16093 3.85 257.428 19:52 16.07.2019
5068 Clear 37 1012 20 16093 3.85 257.428 19:29 16.07.2019
5069 Clear 35 1012 20 16093 3.6 80 18:58 16.07.2019
5070 Clear 35 1012 23 16093 3.1 110 18:39 16.07.2019
5071 Clear 34 1012 23 16093 3.1 110 18:20 16.07.2019
5072 Clear 32 1012 31 16093 4.6 110 17:44 16.07.2019
5073 Clear 31 1012 31 16093 4.6 110 17:23 16.07.2019
5074 Clear 29 1014 45 16093 2.6 110 16:48 16.07.2019
5075 Clear 30 1012 35 16093 4.1 110 16:25 16.07.2019
5076 Clear 29 1014 51 16093 2.1 50 15:56 16.07.2019
5077 Clear 29 1011 35 16093 4.1 120 15:37 16.07.2019
5078 Clear 27 1011 35 16093 4.1 120 15:18 16.07.2019
5079 Clear 27 1011 31 16093 3.6 110 14:43 16.07.2019
5080 Clouds 27 1013 45 16093 3.6 140 14:24 16.07.2019
5081 Clear 27 1010 31 16093 3.6 120 13:46 16.07.2019
5082 Clear 27 1010 31 16093 3.1 110 13:27 16.07.2019
5083 Clear 27 1010 29 16093 1.5 120 12:56 16.07.2019
5084 Clear 27 1010 29 16093 2.6 110 12:38 16.07.2019
5085 Clear 28 1010 29 16093 2.6 110 12:19 16.07.2019
5086 Clear 29 1010 27 16093 2.1 130 11:44 16.07.2019
5087 Clear 29 1010 27 16093 2.1 130 11:24 16.07.2019
5088 Clear 29 1010 27 16093 2.6 100 10:57 16.07.2019
5089 Clear 30 1010 29 16093 3.1 110 10:38 16.07.2019
5090 Clear 30 1013 31 16093 3.1 140 10:18 16.07.2019
5091 Clear 30 1011 29 16093 2.6 90 09:42 16.07.2019
5092 Clear 30 1013 31 16093 1.46 126.201 09:19 16.07.2019
5093 Clear 31 1011 27 16093 3.1 100 08:46 16.07.2019
5094 Clear 31 1011 27 16093 2.1 120 08:22 16.07.2019
5095 Clear 32 1010 27 16093 1.5 100 07:49 16.07.2019
5096 Clear 32 1010 26 16093 1.5 200 07:31 16.07.2019
5097 Clear 33 1010 23 16093 4.1 230 06:53 16.07.2019
5098 Clear 34 1010 21 16093 5.1 230 06:31 16.07.2019
5099 Clear 35 1009 19 16093 4.1 240 05:42 16.07.2019
5100 Clear 36 1009 19 16093 4.1 240 05:24 16.07.2019
5101 Clear 38 1008 14 16093 2.6 330 04:23 16.07.2019
5102 Clear 40 1008 11 16093 2.6 310 03:28 16.07.2019
5103 Clear 41 1009 10 16093 1.5 330 02:36 16.07.2019
5104 Clear 41 1009 10 16093 4.1 320 01:49 16.07.2019
5105 Clear 41 1009 12 16093 1.5 10 00:53 16.07.2019
5106 Clear 41 1010 12 16093 2.1 310 00:22 16.07.2019
5107 Clear 41 1010 13 16093 3.6 360 23:54 15.07.2019
5108 Clear 41 1011 13 16093 5.89 276.248 23:36 15.07.2019
5109 Clear 40 1011 14 16093 2.1 40 22:56 15.07.2019
5110 Clear 40 1012 15 16093 2.1 260 22:37 15.07.2019
5111 Clear 39 1012 15 16093 2.1 260 22:18 15.07.2019
5112 Clear 38 1013 15 16093 2.6 320 21:42 15.07.2019
5113 Clear 37 1013 15 16093 2.6 320 21:21 15.07.2019
5114 Clear 37 1013 19 16093 3.1 310 20:57 15.07.2019
5115 Clear 36 1013 18 16093 3.6 300 20:39 15.07.2019
5116 Clear 36 1013 18 16093 3.6 300 20:21 15.07.2019
5117 Clear 35 1014 21 16093 2.6 290 19:44 15.07.2019
5118 Clear 34 1014 21 16093 2.6 290 19:22 15.07.2019
5119 Clear 33 1014 26 16093 2.79 290.871 18:57 15.07.2019
5120 Clear 33 1014 27 16093 2.79 290.871 18:38 15.07.2019
5121 Clear 32 1014 27 16093 1.09 253.286 18:19 15.07.2019
5122 Clear 32 1014 29 16093 1.09 253.286 17:55 15.07.2019
5123 Clear 31 1014 33 16093 1.5 90 17:36 15.07.2019
5124 Clear 31 1017 45 16093 2.6 210 17:18 15.07.2019
5125 Clear 29 1014 45 16093 3.6 120 16:39 15.07.2019
5126 Clear 28 1014 45 16093 3.6 120 16:20 15.07.2019
5127 Clear 27 1014 54 16093 2.1 110 15:57 15.07.2019
5128 Clear 27 1014 57 16093 2.6 100 15:37 15.07.2019
5129 Clear 27 1014 57 16093 2.6 100 15:37 15.07.2019
5130 Clear 26 1014 57 16093 2.6 100 15:19 15.07.2019
5131 Clear 26 1014 54 16093 0.24 168.643 14:44 15.07.2019
5132 Clear 26 1014 54 16093 0.24 168.643 14:25 15.07.2019
5133 Clear 26 1013 47 16093 1.5 360 13:51 15.07.2019
5134 Clear 26 1013 47 16093 2.1 360 13:25 15.07.2019
5135 Clear 26 1013 47 16093 0.62 65.709 12:59 15.07.2019
5136 Clear 26 1013 45 16093 1.5 310 12:41 15.07.2019
5137 Clear 26 1015 54 16093 4.6 110 12:20 15.07.2019
5138 Clear 26 1015 57 16093 2.1 190 11:42 15.07.2019
5139 Clear 26 1015 57 16093 2.1 190 11:24 15.07.2019
5140 Clouds 27 1016 65 16093 2.6 130 10:45 15.07.2019
5141 Clouds 27 1016 65 16093 2.6 130 10:27 15.07.2019
5142 Rain 28 1015 33 16093 6.7 120 09:48 15.07.2019
5143 Rain 28 1017 57 16093 6.2 130 09:28 15.07.2019
5144 Rain 28 1018 48 16093 8.7 130 08:59 15.07.2019
5145 Rain 28 1015 37 16093 7.7 110 08:41 15.07.2019
5146 Clouds 28 1015 37 16093 7.7 110 08:23 15.07.2019
5147 Clear 28 1015 37 16093 2.1 100 07:38 15.07.2019
5148 Rain 27 1017 42 16093 3.6 290 06:59 15.07.2019
5149 Clear 27 1015 35 16093 6.2 100 06:38 15.07.2019
5150 Rain 28 1016 42 16093 8.2 250 05:44 15.07.2019
5151 Rain 29 1016 39 16093 9.8 250 05:26 15.07.2019
5152 Rain 30 1014 35 16093 5.7 220 04:41 15.07.2019
5153 Clear 34 1011 15 16093 4.6 330 03:39 15.07.2019
5154 Clear 39 1011 14 16093 4.6 330 02:37 15.07.2019
5155 Clear 40 1012 14 16093 4.6 340 01:41 15.07.2019
5156 Clear 40 1012 14 16093 4.6 340 01:23 15.07.2019
5157 Clear 40 1012 14 16093 2.1 350 00:48 15.07.2019
5158 Clear 40 1012 16 16093 2.6 330 00:19 15.07.2019
5159 Clear 40 1013 16 16093 4.1 320 23:54 14.07.2019
5160 Clear 39 1013 16 16093 2.6 310 23:36 14.07.2019
5161 Clear 39 1013 16 16093 2.6 310 23:18 14.07.2019
5162 Clear 39 1016 22 16093 5.7 260 22:40 14.07.2019
5163 Clear 39 1016 22 16093 5.7 260 22:21 14.07.2019
5164 Clear 38 1015 19 16093 3.6 300 21:58 14.07.2019
5165 Clear 38 1015 19 16093 2.1 270 21:39 14.07.2019
5166 Clear 37 1015 19 16093 2.1 270 21:18 14.07.2019
5167 Clear 37 1015 19 16093 2.1 270 21:18 14.07.2019
5168 Clear 37 1015 22 16093 3.1 310 20:54 14.07.2019
5169 Clear 37 1016 22 16093 2.6 320 20:36 14.07.2019
5170 Clear 36 1016 22 16093 2.6 320 20:18 14.07.2019
5171 Clear 35 1016 24 16093 1.5 280 19:41 14.07.2019
5172 Clear 35 1016 24 16093 1.5 280 19:22 14.07.2019
5173 Clear 34 1016 29 16093 1.5 240 18:45 14.07.2019
5174 Clear 33 1016 29 16093 1.5 240 18:27 14.07.2019
5175 Clear 32 1016 33 16093 1.5 90 17:58 14.07.2019
5176 Clear 31 1016 37 16093 1.5 120 17:39 14.07.2019
5177 Clear 31 1016 37 16093 1.5 120 17:18 14.07.2019
5178 Clear 29 1016 51 16093 2.6 110 16:44 14.07.2019
5179 Clear 28 1016 51 16093 2.6 110 16:21 14.07.2019
5180 Clear 26 1016 54 16093 3.1 110 15:43 14.07.2019
5181 Clear 24 1016 54 16093 3.1 110 15:24 14.07.2019
5182 Clear 24 1015 50 16093 3.1 110 14:47 14.07.2019
5183 Clear 24 1017 60 16093 2.6 110 14:20 14.07.2019
5184 Clear 24 1015 50 16093 4.6 110 13:47 14.07.2019
5185 Clear 25 1014 50 16093 4.6 90 13:25 14.07.2019
5186 Clear 25 1014 47 16093 2.1 110 12:58 14.07.2019
5187 Clear 25 1014 47 16093 3.6 130 12:40 14.07.2019
5188 Clear 25 1014 47 16093 3.6 130 12:19 14.07.2019
5189 Clear 25 1014 54 16093 2.6 130 11:49 14.07.2019
5190 Clear 25 1014 54 16093 2.6 130 11:49 14.07.2019
5191 Clear 26 1014 54 16093 3.1 70 11:20 14.07.2019
5192 Clear 26 1016 54 16093 3.6 180 10:45 14.07.2019
5193 Clear 26 1017 51 16093 2.6 160 10:21 14.07.2019
5194 Clear 26 1017 51 16093 2.6 160 10:21 14.07.2019
5195 Clear 26 1015 48 16093 2.1 230 09:48 14.07.2019
5196 Clear 27 1015 37 16093 1.5 250 09:30 14.07.2019
5197 Clear 28 1015 35 16093 4.6 110 08:47 14.07.2019
5198 Clear 28 1014 35 16093 4.6 110 08:29 14.07.2019
5199 Clear 28 1014 35 16093 6.2 120 07:43 14.07.2019
5200 Clear 28 1014 35 16093 6.2 120 07:20 14.07.2019
5201 Clouds 29 1013 33 16093 7.7 180 05:46 14.07.2019
5202 Clouds 29 1013 33 16093 7.7 180 05:46 14.07.2019
5203 Rain 28 1015 51 16093 3.6 310 03:53 14.07.2019
5204 Rain 28 1014 57 16093 3.6 290 03:34 14.07.2019
5205 Thunderstorm 31 1014 51 16093 5.7 290 02:52 14.07.2019
5206 Rain 33 1013 48 16093 4.1 260 02:23 14.07.2019
5207 Clouds 37 1013 17 16093 7.2 40 01:45 14.07.2019
5208 Clouds 38 1013 17 16093 7.2 40 01:24 14.07.2019
5209 Clear 40 1012 16 16093 6.7 320 00:41 14.07.2019
5210 Clear 40 1012 16 16093 6.7 320 00:20 14.07.2019
5211 Clear 40 1011 13 16093 4.1 310 23:56 13.07.2019
5212 Clear 39 1012 14 16093 4.6 320 23:37 13.07.2019
5213 Clear 39 1012 14 16093 4.6 320 23:19 13.07.2019
5214 Clear 39 1012 15 16093 2.6 330 22:41 13.07.2019
5215 Clear 39 1012 15 16093 2.6 330 22:21 13.07.2019
5216 Clear 38 1015 19 16093 2.6 250 21:45 13.07.2019
5217 Clear 37 1013 15 16093 1.5 280 21:20 13.07.2019
5218 Clear 37 1015 20 16093 3.1 330 20:51 13.07.2019
5219 Clear 36 1014 18 16093 3.46 281.2 20:32 13.07.2019
5220 Rain 35 1016 23 16093 4.6 340 19:50 13.07.2019
5221 Rain 34 1014 20 16093 3.46 281.2 19:29 13.07.2019
5222 Clear 33 1014 21 16093 2.6 170 18:46 13.07.2019
5223 Clear 33 1014 21 16093 2.6 170 18:24 13.07.2019
5224 Clear 32 1014 21 16093 2.6 190 17:49 13.07.2019
5225 Clear 31 1014 24 16093 2.6 170 17:22 13.07.2019
5226 Clear 31 1016 29 16093 1.5 210 16:59 13.07.2019
5227 Clear 31 1014 25 16093 2.6 180 16:39 13.07.2019
5228 Clear 30 1014 25 16093 2.6 180 16:21 13.07.2019
5229 Clear 28 1014 39 16093 2.6 140 15:45 13.07.2019
5230 Clear 26 1014 39 16093 2.6 140 15:22 13.07.2019
5231 Haze 25 1014 42 16093 1.25 229.463 14:46 13.07.2019
5232 Haze 25 1012 26 16093 3.1 120 14:25 13.07.2019
5233 Clear 26 1011 25 16093 2.1 130 13:47 13.07.2019
5234 Clear 27 1011 25 16093 3.1 110 13:27 13.07.2019
5235 Clear 27 1011 22 16093 2.6 120 12:59 13.07.2019
5236 Clear 27 1011 23 16093 2.6 130 12:39 13.07.2019
5237 Clear 28 1011 23 16093 2.6 130 12:20 13.07.2019
5238 Haze 28 1011 23 16093 2.6 120 11:43 13.07.2019
5239 Haze 29 1011 23 16093 2.6 120 11:19 13.07.2019
5240 Rain 29 1011 21 16093 3.6 220 10:45 13.07.2019
5241 Rain 30 1011 21 16093 3.6 220 10:24 13.07.2019
5242 Clouds 30 1011 21 16093 2.6 200 09:57 13.07.2019
5243 Clouds 30 1011 19 16093 3.6 200 09:38 13.07.2019
5244 Clouds 31 1011 19 16093 3.6 200 09:18 13.07.2019
5245 Clear 31 1011 17 16093 1.5 160 08:33 13.07.2019
5246 Clear 31 1010 16 16093 1.5 130 07:59 13.07.2019
5247 Clear 31 1010 15 16093 1.16 202.525 07:30 13.07.2019
5248 Clear 32 1009 16 16093 1.16 202.525 06:40 13.07.2019
5249 Clear 33 1009 17 16093 2.1 320 05:58 13.07.2019
5250 Clear 35 1008 14 16093 3.6 310 04:49 13.07.2019
5251 Clear 36 1009 13 16093 1.5 310 04:22 13.07.2019
5252 Clear 36 1011 16 16093 4.6 100 03:55 13.07.2019
5253 Clear 36 1008 12 16093 2.6 330 03:37 13.07.2019
5254 Clear 37 1011 13 16093 2.6 310 01:55 13.07.2019
5255 Clear 37 1011 13 16093 2.6 310 01:55 13.07.2019
5256 Clear 37 1011 13 16093 2.6 310 01:36 13.07.2019
5257 Clear 38 1011 13 16093 2.1 110 01:18 13.07.2019
5258 Clear 38 1009 11 16093 9.76 244.716 00:50 13.07.2019
5259 Rain 39 1009 11 16093 1.5 300 00:18 13.07.2019
5260 Clear 38 1010 11 16093 2.1 340 23:43 12.07.2019
5261 Clear 38 1010 11 16093 2.1 340 23:24 12.07.2019
5262 Clear 38 1010 11 16093 3.1 290 22:43 12.07.2019
5263 Rain 38 1010 11 16093 3.1 290 22:24 12.07.2019
5264 Clear 39 1013 15 16093 1.45 147.765 21:42 12.07.2019
5265 Clear 38 1012 12 16093 4.1 300 21:22 12.07.2019
5266 Rain 38 1012 11 16093 2.1 220 20:54 12.07.2019
5267 Rain 38 1012 12 16093 1.5 320 20:24 12.07.2019
5268 Rain 38 1012 13 16093 2.6 150 19:45 12.07.2019
5269 Rain 38 1012 13 16093 2.6 150 19:45 12.07.2019
5270 Rain 37 1012 13 16093 2.6 150 19:27 12.07.2019
5271 Rain 36 1013 14 16093 3.6 110 18:59 12.07.2019
5272 Clear 36 1013 15 16093 2.6 100 18:39 12.07.2019
5273 Clear 35 1013 15 16093 2.6 100 18:20 12.07.2019
5274 Clear 34 1013 18 16093 3.1 100 17:48 12.07.2019
5275 Clouds 34 1015 24 16093 3.1 120 17:28 12.07.2019
5276 Clouds 32 1015 27 16093 3.6 150 16:44 12.07.2019
5277 Rain 31 1015 27 16093 3.6 150 16:21 12.07.2019
5278 Clear 30 1013 25 16093 2.1 90 15:41 12.07.2019
5279 Clear 29 1013 25 16093 2.1 90 15:21 12.07.2019
5280 Clear 29 1012 23 16093 1.5 270 14:56 12.07.2019
5281 Clouds 29 1014 28 16093 2.6 90 14:38 12.07.2019
5282 Clouds 29 1014 28 16093 2.6 90 14:20 12.07.2019
5283 Clear 30 1012 19 16093 5.7 140 13:39 12.07.2019
5284 Clear 30 1012 19 16093 6.2 150 12:59 12.07.2019
5285 Clear 31 1012 18 16093 5.1 130 12:40 12.07.2019
5286 Clear 30 1012 18 16093 5.1 130 12:20 12.07.2019
5287 Clear 31 1012 14 16093 2.1 110 11:44 12.07.2019
5288 Clear 30 1012 14 16093 2.1 110 11:22 12.07.2019
5289 Clear 31 1013 14 16093 3.1 110 10:44 12.07.2019
5290 Clear 31 1013 14 16093 3.1 110 10:24 12.07.2019
5291 Clear 32 1012 14 16093 2.1 80 09:54 12.07.2019
5292 Clouds 32 1015 17 16093 1.5 250 09:31 12.07.2019
5293 Clouds 32 1013 15 16093 3.1 70 08:59 12.07.2019
5294 Clouds 33 1015 15 16093 3.1 310 08:41 12.07.2019
5295 Clear 33 1015 15 16093 2.6 320 08:19 12.07.2019
5296 Clear 33 1013 14 16093 4.59 160.002 07:46 12.07.2019
5297 Clear 33 1013 14 16093 4.59 160.002 07:26 12.07.2019
5298 Clear 34 1013 13 16093 2.6 330 06:29 12.07.2019
5299 Clear 35 1012 13 16093 2.6 320 05:48 12.07.2019
5300 Clouds 39 1012 10 16093 7.2 330 03:23 12.07.2019
5301 Clouds 41 1012 9 16093 7.7 340 01:43 12.07.2019
5302 Clear 41 1011 8 16093 6.2 290 00:58 12.07.2019
5303 Clear 41 1012 8 16093 6.2 310 00:27 12.07.2019
5304 Clear 41 1012 8 16093 6.7 300 23:50 11.07.2019
5305 Clear 41 1012 8 16093 6.2 310 23:26 11.07.2019
5306 Clear 41 1013 9 16093 5.1 330 22:58 11.07.2019
5307 Clear 41 1013 9 16093 5.7 330 22:39 11.07.2019
5308 Clear 41 1013 9 16093 5.7 330 22:21 11.07.2019
5309 Clear 40 1014 9 16093 4.6 310 21:41 11.07.2019
5310 Clear 39 1016 12 16093 3.1 260 21:19 11.07.2019
5311 Clear 39 1015 9 16093 4.1 280 20:55 11.07.2019
5312 Clear 38 1015 15 16093 4.1 300 20:36 11.07.2019
5313 Clear 38 1015 15 16093 4.1 300 20:18 11.07.2019
5314 Clear 38 1017 11 16093 4.6 300 19:43 11.07.2019
5315 Clear 37 1015 11 16093 3.1 310 19:23 11.07.2019
5316 Clear 36 1017 13 16093 2.6 270 18:49 11.07.2019
5317 Clear 35 1016 15 16093 2.6 320 18:31 11.07.2019
5318 Clear 33 1018 16 16093 1.78 244.473 17:55 11.07.2019
5319 Clouds 32 1018 16 16093 1.78 244.473 17:37 11.07.2019
5320 Clear 31 1018 17 16093 1.78 244.473 17:19 11.07.2019
5321 Clouds 31 1017 18 16093 1.5 150 16:43 11.07.2019
5322 Clouds 30 1017 18 16093 1.5 150 16:22 11.07.2019
5323 Clear 29 1015 16 16093 2.1 190 15:44 11.07.2019
5324 Clear 27 1015 16 16093 2.1 190 15:25 11.07.2019
5325 Clear 27 1015 29 16093 0.47 87.077 14:59 11.07.2019
5326 Clear 27 1014 29 16093 2.1 210 14:39 11.07.2019
5327 Clear 27 1014 29 16093 2.1 210 14:19 11.07.2019
5328 Clear 27 1014 16 16093 0.47 87.077 13:45 11.07.2019
5329 Clear 27 1014 16 16093 0.5 139.622 13:25 11.07.2019
5330 Clear 29 1014 20 16093 3.1 130 12:39 11.07.2019
5331 Clear 29 1014 20 16093 3.1 130 12:20 11.07.2019
5332 Clear 29 1013 18 16093 0.63 196.76 11:52 11.07.2019
5333 Clouds 30 1015 15 16093 3.1 340 11:30 11.07.2019
5334 Clear 30 1014 15 16093 2.1 210 10:54 11.07.2019
5335 Clouds 30 1016 18 16093 3.6 270 10:20 11.07.2019
5336 Clear 31 1014 15 16093 0.63 196.76 09:58 11.07.2019
5337 Clear 31 1014 15 16093 0.63 196.76 09:39 11.07.2019
5338 Clear 31 1014 15 16093 3.77 12.563 09:21 11.07.2019
5339 Clear 32 1014 16 16093 4.97 17.109 08:49 11.07.2019
5340 Clouds 32 1016 16 16093 3.6 260 08:22 11.07.2019
5341 Clear 33 1014 16 16093 4.97 17.109 07:46 11.07.2019
5342 Clear 33 1014 16 16093 4.97 17.109 07:28 11.07.2019
5343 Clear 34 1013 13 16093 2.1 20 06:27 11.07.2019
5344 Clear 35 1014 12 16093 6.2 320 05:45 11.07.2019
5345 Clear 36 1014 12 16093 6.2 320 05:26 11.07.2019
5346 Clear 38 1012 10 16093 4.1 310 03:59 11.07.2019
5347 Clear 40 1012 8 16093 6.2 300 02:37 11.07.2019
5348 Clear 41 1013 11 16093 5.7 300 00:49 11.07.2019
5349 Clear 41 1014 10 16093 5.1 340 23:53 10.07.2019
5350 Clouds 41 1016 8 16093 4.4 300.267 23:31 10.07.2019
5351 Clear 41 1016 8 16093 2.6 290 22:58 10.07.2019
5352 Clouds 40 1017 9 16093 2.1 300 22:37 10.07.2019
5353 Clear 40 1017 10 16093 2.1 310 22:18 10.07.2019
5354 Clear 39 1016 8 16093 2.1 280 21:43 10.07.2019
5355 Clear 38 1016 8 16093 2.1 280 21:25 10.07.2019
5356 Clear 38 1018 10 16093 1.5 330 20:48 10.07.2019
5357 Clear 37 1017 10 16093 1.5 360 20:28 10.07.2019
5358 Clear 36 1017 10 16093 2.73 309.371 20:00 10.07.2019
5359 Clear 35 1017 10 16093 3.1 280 19:41 10.07.2019
5360 Clear 34 1017 10 16093 3.1 280 19:21 10.07.2019
5361 Clear 34 1019 10 16093 1.5 10 18:47 10.07.2019
5362 Clear 32 1017 10 16093 0.82 255.373 18:25 10.07.2019
5363 Clear 31 1017 14 16093 0.82 255.373 17:51 10.07.2019
5364 Clear 30 1017 10 16093 0.82 255.373 17:30 10.07.2019
5365 Clear 29 1017 10 16093 0.82 255.373 16:59 10.07.2019
5366 Clear 27 1017 15 16093 2.1 110 16:22 10.07.2019
5367 Clear 25 1016 10 16093 1.5 80 15:54 10.07.2019
5368 Clear 23 1016 10 16093 1.5 110 15:36 10.07.2019
5369 Clear 23 1018 25 16093 2.1 130 15:18 10.07.2019
5370 Clear 22 1016 18 16093 1.5 90 14:39 10.07.2019
5371 Clear 22 1016 18 16093 1.5 90 14:19 10.07.2019
5372 Clear 23 1015 18 16093 1.57 23.862 13:41 10.07.2019
5373 Clear 23 1017 23 16093 2.6 180 13:19 10.07.2019
5374 Clear 23 1015 20 16093 1.88 25.433 12:42 10.07.2019
5375 Clear 23 1015 20 16093 0.43 33.092 12:22 10.07.2019
5376 Clear 24 1015 20 16093 0.43 33.092 11:51 10.07.2019
5377 Clear 25 1015 26 16093 0.43 33.092 11:22 10.07.2019
5378 Clear 24 1015 26 16093 3.1 200 10:58 10.07.2019
5379 Clear 25 1015 16 16093 2.6 190 10:36 10.07.2019
5380 Clear 25 1017 19 16093 2.6 250 10:18 10.07.2019
5381 Clear 25 1015 14 16093 2.1 200 09:41 10.07.2019
5382 Clear 27 1015 14 16093 2.1 200 09:20 10.07.2019
5383 Clear 27 1015 15 16093 1.26 172.435 08:49 10.07.2019
5384 Clear 28 1015 14 16093 1.26 172.435 08:27 10.07.2019
5385 Clear 29 1015 14 16093 1.5 290 07:53 10.07.2019
5386 Clear 30 1015 14 16093 2.6 290 07:24 10.07.2019
5387 Clear 31 1014 23 16093 2.1 300 06:41 10.07.2019
5388 Clear 33 1013 16 16093 2.6 340 05:42 10.07.2019
5389 Clear 35 1013 9 16093 3.1 320 04:34 10.07.2019
5390 Clear 38 1013 8 16093 3.6 340 02:40 10.07.2019
5391 Clear 39 1014 7 16093 4.6 280 00:44 10.07.2019
5392 Clear 39 1014 8 16093 4.6 300 23:57 09.07.2019
5393 Clear 39 1014 8 16093 4.6 280 23:37 09.07.2019
5394 Clear 38 1014 8 16093 4.6 280 23:19 09.07.2019
5395 Clear 38 1015 8 16093 4.6 270 22:40 09.07.2019
5396 Clear 38 1015 8 16093 4.6 270 22:21 09.07.2019
5397 Clear 37 1016 8 16093 4.5 224.136 21:47 09.07.2019
5398 Clear 36 1016 8 16093 2.6 230 21:26 09.07.2019
5399 Clear 36 1016 9 16093 3.6 260 20:56 09.07.2019
5400 Clear 36 1018 13 16093 3.05 235.93 20:36 09.07.2019
5401 Clear 35 1018 13 16093 3.05 235.93 20:18 09.07.2019
5402 Clear 34 1016 9 16093 3.05 235.93 19:37 09.07.2019
5403 Clear 34 1016 9 16093 3.05 235.93 19:19 09.07.2019
5404 Clear 33 1017 9 16093 1.5 20 18:39 09.07.2019
5405 Clear 32 1017 9 16093 1.5 20 18:19 09.07.2019
5406 Clear 30 1017 11 16093 0.62 116.4 17:44 09.07.2019
5407 Clear 29 1017 11 16093 0.62 116.4 17:22 09.07.2019
5408 Clear 29 1017 11 16093 0.62 116.4 17:22 09.07.2019
5409 Clear 26 1017 12 16093 3.1 110 16:58 09.07.2019
5410 Clear 25 1017 13 16093 3.1 110 16:40 09.07.2019
5411 Clear 25 1017 13 16093 3.1 110 16:22 09.07.2019
5412 Clear 23 1016 18 16093 0.62 116.4 15:42 09.07.2019
5413 Clear 21 1016 18 16093 1.93 71.133 15:23 09.07.2019
5414 Clear 21 1018 17 16093 1.93 71.133 14:45 09.07.2019
5415 Clear 21 1016 18 16093 1.93 71.133 14:23 09.07.2019
5416 Clear 21 1015 15 16093 1.93 71.133 13:56 09.07.2019
5417 Clear 21 1015 18 16093 1.93 71.133 13:38 09.07.2019
5418 Clear 21 1015 18 16093 1.38 85.923 13:19 09.07.2019
5419 Clear 21 1015 18 16093 1.38 85.923 12:39 09.07.2019
5420 Clear 22 1015 18 16093 1.14 53.18 12:19 09.07.2019
5421 Clear 22 1015 14 16093 1.5 100 11:56 09.07.2019
5422 Clear 22 1015 13 16093 2.1 70 11:37 09.07.2019
5423 Clear 23 1015 13 16093 2.1 70 11:19 09.07.2019
5424 Clear 22 1015 12 16093 1.14 53.18 10:47 09.07.2019
5425 Clear 23 1015 10 16093 2.1 150 10:25 09.07.2019
5426 Clear 25 1015 11 16093 1.14 53.18 09:38 09.07.2019
5427 Clear 25 1015 11 16093 0.53 337.455 09:20 09.07.2019
5428 Clear 26 1015 8 16093 0.72 342.197 08:44 09.07.2019
5429 Clear 26 1015 8 16093 0.72 342.197 08:19 09.07.2019
5430 Clear 37 1009 18 16093 3.6 250 03:49 05.07.2019
5431 Clear 37 1009 11 16093 6.7 250 03:21 05.07.2019
5432 Clear 38 1012 10 16093 5.7 240 02:52 05.07.2019
5433 Clear 38 1012 10 16093 5.7 270 02:26 05.07.2019
5434 Clear 38 1012 11 16093 6.7 270 01:36 05.07.2019
5435 Clear 39 1012 10 16093 7.7 230 00:52 05.07.2019
5436 Clear 39 1010 8 16093 7.2 230 00:31 05.07.2019
5437 Clear 39 1013 10 16093 7.2 250 23:44 04.07.2019
5438 Clear 39 1013 10 16093 7.2 250 23:19 04.07.2019
5439 Clear 39 1013 10 16093 7.2 250 23:19 04.07.2019
5440 Clear 38 1011 11 16093 4.1 170 22:42 04.07.2019
5441 Clear 38 1011 11 16093 4.1 170 22:23 04.07.2019
5442 Clear 38 1012 11 16093 3.6 230 21:45 04.07.2019
5443 Clear 37 1012 11 16093 3.6 230 21:26 04.07.2019
5444 Clear 36 1012 11 16093 1.5 260 20:59 04.07.2019
5445 Clear 36 1013 11 16093 3.6 210 20:38 04.07.2019
5446 Clear 35 1013 11 16093 3.6 210 20:20 04.07.2019
5447 Clear 35 1014 16 16093 5.7 220 19:42 04.07.2019
5448 Clear 34 1013 12 16093 3.6 230 19:22 04.07.2019
5449 Clear 33 1013 14 16093 3.1 170 18:56 04.07.2019
5450 Clear 33 1013 14 16093 4.1 180 18:36 04.07.2019
5451 Clear 32 1013 14 16093 4.1 180 18:18 04.07.2019
5452 Clear 31 1015 20 16093 1.5 20 17:42 04.07.2019
5453 Clear 30 1013 17 16093 2.6 140 17:18 04.07.2019
5454 Clear 30 1013 17 16093 2.6 140 17:18 04.07.2019
5455 Clear 26 1015 31 16093 3.59 184.437 15:55 04.07.2019
5456 Clear 24 1013 26 16093 3.59 184.437 15:36 04.07.2019
5457 Clear 22 1013 26 16093 1.03 137.926 15:18 04.07.2019
5458 Clear 21 1012 28 16093 1.5 120 14:41 04.07.2019
5459 Clear 21 1012 28 16093 1.5 120 14:20 04.07.2019
5460 Clear 21 1012 24 16093 1.5 100 13:57 04.07.2019
5461 Clear 22 1012 24 16093 1.5 120 13:39 04.07.2019
5462 Clear 22 1012 24 16093 1.5 120 13:20 04.07.2019
5463 Clear 22 1012 23 16093 1.5 100 12:39 04.07.2019
5464 Clear 23 1012 23 16093 1.5 100 12:21 04.07.2019
5465 Clear 24 1012 23 16093 1.5 130 11:56 04.07.2019
5466 Clear 24 1012 22 16093 1.5 110 11:37 04.07.2019
5467 Clear 24 1012 22 16093 1.5 110 11:18 04.07.2019
5468 Clear 25 1012 30 16093 1.5 260 10:39 04.07.2019
5469 Clear 26 1012 30 16093 1.5 260 10:18 04.07.2019
5470 Clear 27 1011 30 16093 2.1 210 09:39 04.07.2019
5471 Clear 27 1011 26 16093 2.1 210 09:20 04.07.2019
5472 Clear 28 1011 32 16093 0.61 150.29 08:54 04.07.2019
5473 Clear 28 1011 32 16093 2.6 90 08:19 04.07.2019
5474 Clear 30 1013 18 16093 2.1 300 07:43 04.07.2019
5475 Clear 30 1013 18 16093 2.1 300 07:20 04.07.2019
5476 Clear 31 1010 13 16093 3.6 250 06:37 04.07.2019
5477 Clear 33 1009 13 16093 4.1 260 05:47 04.07.2019
5478 Clear 33 1009 13 16093 4.1 260 05:29 04.07.2019
5479 Clear 38 1008 9 16093 8.2 250 02:36 04.07.2019
5480 Clear 38 1008 9 16093 6.2 240 01:28 04.07.2019
5481 Clear 39 1008 9 16093 6.2 240 00:52 04.07.2019
5482 Clouds 39 1011 13 16093 6.7 260 23:55 03.07.2019
5483 Clouds 39 1011 13 16093 6.7 260 23:55 03.07.2019
5484 Clouds 38 1012 13 16093 5.7 260 23:21 03.07.2019
5485 Clear 38 1010 9 16093 9.3 240 22:58 03.07.2019
5486 Clear 38 1010 10 16093 4.6 250 22:39 03.07.2019
5487 Clear 38 1010 10 16093 4.6 250 22:21 03.07.2019
5488 Clear 38 1013 14 16093 8.2 210 21:56 03.07.2019
5489 Clear 37 1011 13 16093 4.1 170 21:37 03.07.2019
5490 Rain 36 1012 13 16093 3.6 200 20:57 03.07.2019
5491 Rain 36 1012 14 16093 4.1 170 20:39 03.07.2019
5492 Clear 36 1012 14 16093 4.1 170 20:19 03.07.2019
5493 Clear 35 1012 17 16093 5.37 183.8 19:48 03.07.2019
5494 Clear 34 1012 17 16093 2.6 250 19:29 03.07.2019
5495 Clear 33 1013 21 16093 5.7 160 18:46 03.07.2019
5496 Clear 32 1013 21 16093 5.7 160 18:24 03.07.2019
5497 Clear 31 1015 22 16093 7.2 210 17:54 03.07.2019
5498 Clear 30 1013 23 16093 4.6 200 17:20 03.07.2019
5499 Clear 30 1013 23 16093 4.71 191.365 16:58 03.07.2019
5500 Clear 29 1013 24 16093 2.1 140 16:40 03.07.2019
5501 Clear 28 1013 24 16093 2.1 140 16:19 03.07.2019
5502 Clear 26 1014 30 16093 1.5 130 15:47 03.07.2019
5503 Clear 25 1012 33 16093 4.71 191.365 15:27 03.07.2019
5504 Clear 23 1012 33 16093 2.6 80 14:51 03.07.2019
5505 Clear 23 1012 31 16093 1.5 190 14:22 03.07.2019
5506 Clear 23 1011 31 16093 2.46 181.911 13:50 03.07.2019
5507 Clear 23 1011 31 16093 2.81 196.391 13:31 03.07.2019
5508 Clear 23 1011 35 16093 2.1 120 12:54 03.07.2019
5509 Clear 24 1011 31 16093 1.74 171.199 12:20 03.07.2019
5510 Clear 24 1011 26 16093 1.74 171.199 11:57 03.07.2019
5511 Clear 25 1013 34 16093 2.1 110 11:39 03.07.2019
5512 Clear 24 1013 34 16093 2.1 110 11:19 03.07.2019
5513 Clear 26 1011 28 16093 2.6 190 10:40 03.07.2019
5514 Clear 26 1011 28 16093 2.6 190 10:21 03.07.2019
5515 Clear 27 1011 26 16093 1.5 190 09:42 03.07.2019
5516 Clear 27 1011 26 16093 1.5 190 09:21 03.07.2019
5517 Clear 28 1011 25 16093 1.5 150 08:53 03.07.2019
5518 Clear 29 1011 23 16093 2.1 220 08:31 03.07.2019
5519 Clear 30 1011 20 16093 2.6 210 07:51 03.07.2019
5520 Clear 31 1011 20 16093 2.6 200 07:33 03.07.2019
5521 Clear 32 1010 17 16093 3.6 260 06:42 03.07.2019
5522 Clear 34 1009 14 16093 5.7 260 05:42 03.07.2019
5523 Clear 34 1009 14 16093 5.7 260 05:19 03.07.2019
5524 Clear 38 1008 10 16093 5.7 260 03:30 03.07.2019
5525 Clear 38 1008 10 16093 7.7 260 02:37 03.07.2019
5526 Clouds 39 1011 11 16093 3.1 320 01:22 03.07.2019
5527 Clouds 39 1011 11 16093 5.7 290 00:55 03.07.2019
5528 Clear 39 1009 10 16093 8.2 260 00:36 03.07.2019
5529 Haze 39 1011 10 16093 4.6 260 23:39 02.07.2019
5530 Clear 39 1011 10 16093 4.6 260 23:20 02.07.2019
5531 Clear 39 1011 12 16093 4.1 250 22:59 02.07.2019
5532 Clear 39 1012 12 16093 1.5 250 22:40 02.07.2019
5533 Clear 39 1014 16 16093 3.74 240.649 22:22 02.07.2019
5534 Clear 38 1014 12 16093 3.6 280 21:47 02.07.2019
5535 Clear 37 1013 13 16093 2.1 230 21:26 02.07.2019
5536 Clear 37 1014 16 16093 2.1 140 20:59 02.07.2019
5537 Clear 36 1013 15 16093 2.6 250 20:41 02.07.2019
5538 Clear 36 1013 15 16093 2.6 250 20:22 02.07.2019
5539 Clear 35 1014 17 16093 1.5 190 19:44 02.07.2019
5540 Clear 35 1015 24 16093 2.1 60 19:24 02.07.2019
5541 Clear 35 1015 24 16093 2.1 60 19:24 02.07.2019
5542 Clear 34 1016 21 16093 3.17 254.169 18:59 02.07.2019
5543 Clear 34 1014 21 16093 2.6 190 18:37 02.07.2019
5544 Clear 32 1016 27 16093 3.1 230 18:18 02.07.2019
5545 Clear 32 1014 23 16093 3.1 210 17:37 02.07.2019
5546 Clear 31 1014 23 16093 3.1 210 17:19 02.07.2019
5547 Clear 30 1014 25 16093 1.02 223.291 16:45 02.07.2019
5548 Clear 29 1014 25 16093 1.02 223.291 16:26 02.07.2019
5549 Clear 27 1013 31 16093 1.02 223.291 15:42 02.07.2019
5550 Clear 25 1013 31 16093 2.45 206.429 15:23 02.07.2019
5551 Clear 24 1013 31 16093 2.1 130 14:49 02.07.2019
5552 Clear 24 1013 31 16093 2.1 80 14:28 02.07.2019
5553 Clear 25 1013 26 16093 2.6 140 13:45 02.07.2019
5554 Clear 25 1015 36 16093 4.6 130 13:20 02.07.2019
5555 Clear 26 1012 26 16093 3.1 150 12:45 02.07.2019
5556 Clear 26 1012 26 16093 3.1 150 12:25 02.07.2019
5557 Clear 26 1013 23 16093 2.1 160 11:55 02.07.2019
5558 Clear 27 1012 23 16093 2.6 140 11:37 02.07.2019
5559 Clear 27 1012 23 16093 2.6 140 11:18 02.07.2019
5560 Clear 28 1013 18 16093 3.1 160 10:42 02.07.2019
5561 Clear 28 1013 18 16093 3.1 160 10:23 02.07.2019
5562 Clear 28 1013 18 16093 3.1 160 10:23 02.07.2019
5563 Clear 28 1013 20 16093 2.6 200 09:43 02.07.2019
5564 Clear 29 1013 20 16093 2.6 200 09:20 02.07.2019
5565 Clear 29 1012 19 16093 3.1 210 08:41 02.07.2019
5566 Clear 29 1012 19 16093 3.1 210 08:20 02.07.2019
5567 Clear 30 1012 17 16093 4.1 200 07:52 02.07.2019
5568 Clear 31 1014 25 16093 5.1 210 07:20 02.07.2019
5569 Clear 32 1011 11 16093 4.1 290 06:42 02.07.2019
5570 Clear 34 1011 13 16093 3.1 280 05:58 02.07.2019
5571 Clear 38 1009 10 16093 5.1 310 03:53 02.07.2019
5572 Clear 40 1009 9 16093 3.6 300 00:56 02.07.2019
5573 Clear 40 1011 11 16093 4.6 300 23:46 01.07.2019
5574 Clear 40 1011 11 16093 4.6 300 23:20 01.07.2019
5575 Clear 40 1013 12 16093 3.1 250 22:45 01.07.2019
5576 Clear 40 1012 12 16093 6.16 282.957 22:26 01.07.2019
5577 Clear 39 1013 13 16093 4.6 330 21:47 01.07.2019
5578 Clear 39 1013 13 16093 4.6 330 21:26 01.07.2019
5579 Clear 38 1013 13 16093 2.1 70 20:51 01.07.2019
5580 Clear 38 1013 13 16093 4.25 261.906 20:21 01.07.2019
5581 Clear 37 1015 17 16093 2.1 170 19:57 01.07.2019
5582 Clear 37 1014 14 16093 4.25 261.906 19:39 01.07.2019
5583 Clear 37 1016 20 16093 4.25 261.906 19:21 01.07.2019
5584 Clear 35 1014 15 16093 4.25 261.906 18:51 01.07.2019
5585 Clear 35 1014 16 16093 4.25 261.906 18:29 01.07.2019
5586 Clear 33 1014 21 16093 0.61 279.786 17:57 01.07.2019
5587 Clear 32 1014 21 16093 1.5 210 17:39 01.07.2019
5588 Clear 31 1016 28 16093 3.1 200 17:19 01.07.2019
5589 -273 0 0 0 0 0 16:44 01.07.2019
5590 Clear 29 1016 36 16093 3.6 180 16:24 01.07.2019
5591 Clear 27 1013 27 16093 1.5 140 15:46 01.07.2019
5592 Clear 24 1015 36 16093 3.1 170 15:26 01.07.2019
5593 Clear 24 1015 33 16093 0.99 62.71 14:45 01.07.2019
5594 Clear 24 1015 33 16093 0.99 62.71 14:45 01.07.2019
5595 Clear 24 1015 36 16093 3.6 120 14:24 01.07.2019
5596 Clear 23 1015 38 16093 1.5 200 13:55 01.07.2019
5597 Clear 24 1013 27 16093 0.99 62.71 13:37 01.07.2019
5598 Clear 24 1013 27 16093 0.99 62.71 13:37 01.07.2019
5599 Clear 24 1015 36 16093 2.6 180 13:18 01.07.2019
5600 Clear 24 1013 24 16093 0.5 139.83 12:38 01.07.2019
5601 Clear 25 1014 36 16093 2.6 160 12:20 01.07.2019
5602 Clear 25 1013 21 16093 0.88 175.512 11:48 01.07.2019
5603 Clear 25 1014 34 16093 3.6 170 11:28 01.07.2019
5604 Clear 25 1013 20 16093 0.88 175.512 10:55 01.07.2019
5605 Clear 25 1013 20 16093 0.88 175.512 10:37 01.07.2019
5606 Clear 26 1015 34 16093 3.1 150 10:18 01.07.2019
5607 Clear 27 1013 19 16093 0.88 175.512 09:41 01.07.2019
5608 Clear 28 1015 30 16093 1.5 180 09:22 01.07.2019
5609 Clear 29 1013 19 16093 1.63 202.769 08:39 01.07.2019
5610 Clear 29 1015 25 16093 2.6 220 08:21 01.07.2019
5611 Clear 30 1013 17 16093 1.63 202.769 07:29 01.07.2019
5612 Clear 31 1012 14 16093 1.63 202.769 06:39 01.07.2019
5613 Clear 39 1013 16 16093 5.7 140 02:48 01.07.2019
5614 Clear 40 1011 9 16093 4.6 310 00:51 01.07.2019
5615 Clear 41 1013 12 16093 2.1 330 00:30 01.07.2019
5616 Clear 41 1013 13 16093 3.1 260 23:58 30.06.2019
5617 Clear 41 1013 14 16093 4.6 360 23:23 30.06.2019
5618 Clear 41 1013 11 16093 3.1 300 22:53 30.06.2019
5619 Clouds 40 1014 15 16093 5.1 250 22:22 30.06.2019
5620 Clear 40 1015 13 16093 2.6 290 21:48 30.06.2019
5621 Clear 40 1013 12 16093 1.5 360 21:30 30.06.2019
5622 Clear 39 1016 16 16093 4.1 270 20:59 30.06.2019
5623 Clear 39 1014 12 16093 2.6 340 20:40 30.06.2019
5624 Clouds 38 1016 19 16093 4.1 320 20:21 30.06.2019
5625 Clear 38 1014 12 16093 4.1 290 19:47 30.06.2019
5626 Clear 38 1016 19 16093 2.1 60 19:25 30.06.2019
5627 Clear 36 1014 14 16093 2.6 320 18:41 30.06.2019
5628 Clear 35 1016 24 16093 0.9 359.873 18:21 30.06.2019
5629 Haze 34 1014 14 16093 3.1 350 17:40 30.06.2019
5630 Haze 33 1016 24 6437 0.9 359.873 17:19 30.06.2019
5631 Clear 32 1014 21 16093 0.9 359.873 16:51 30.06.2019
5632 Clear 31 1014 21 16093 0.9 359.873 16:32 30.06.2019
5633 Clear 27 1014 25 16093 2.1 80 15:39 30.06.2019
5634 Clear 27 1015 30 16093 2.6 100 15:19 30.06.2019
5635 Clear 27 1015 24 16093 1 120 14:57 30.06.2019
5636 Clear 27 1013 22 16093 0.88 189.516 14:38 30.06.2019
5637 Clear 28 1016 23 16093 0.88 189.516 13:57 30.06.2019
5638 Clear 28 1013 24 16093 0.88 189.516 13:38 30.06.2019
5639 Clouds 28 1015 25 16093 1.67 89.624 13:19 30.06.2019
5640 Clear 29 1013 20 16093 3.6 310 12:45 30.06.2019
5641 Clear 29 1013 20 16093 3.6 310 12:45 30.06.2019
5642 Clouds 30 1015 24 16093 3.6 130 12:23 30.06.2019
5643 Clear 30 1013 21 16093 0.99 150.493 11:47 30.06.2019
5644 Clouds 31 1015 23 16093 2.6 200 11:22 30.06.2019
5645 Clear 31 1014 19 16093 2.6 280 10:56 30.06.2019
5646 Clear 31 1014 19 16093 2.6 280 10:37 30.06.2019
5647 Clouds 31 1016 18 16093 2.1 180 10:18 30.06.2019
5648 Clouds 32 1014 15 16093 2.1 290 09:43 30.06.2019
5649 Clouds 32 1016 16 16093 2.6 340 09:22 30.06.2019
5650 Clear 33 1014 15 16093 5.19 75.693 08:47 30.06.2019
5651 Clouds 33 1016 16 16093 1.5 30 08:27 30.06.2019
5652 Clear 32 1016 14 16093 3.6 350 07:54 30.06.2019
5653 Rain 34 1015 13 16093 5.7 340 07:27 30.06.2019
5654 Clear 33 1012 13 16093 3.1 310 06:40 30.06.2019
5655 -273 0 0 0 0 0 04:56 30.06.2019
5656 Clear 39 1010 9 16093 6.2 310 02:41 30.06.2019
5657 Clouds 39 1012 13 16093 4.1 50 01:24 30.06.2019
5658 Clouds 39 1013 17 16093 9.3 120 00:26 30.06.2019
5659 Clouds 39 1013 17 16093 9.3 120 00:26 30.06.2019
5660 Thunderstorm 41 1013 12 16093 2.1 240 23:53 29.06.2019
5661 Clear 41 1013 12 16093 4.1 340 23:24 29.06.2019
5662 Clear 42 1014 12 16093 2.79 233.376 22:55 29.06.2019
5663 Clouds 42 1014 13 16093 1.5 60 22:25 29.06.2019
5664 Clear 41 1015 12 16093 3.28 254.508 21:57 29.06.2019
5665 Clear 41 1015 12 16093 3.28 254.508 21:57 29.06.2019
5666 Clear 41 1015 13 16093 2.1 0 21:39 29.06.2019
5667 Clear 40 1016 14 16093 1.62 260.805 21:20 29.06.2019
5668 Clear 40 1014 9 16093 2.6 320 20:40 29.06.2019
5669 Clear 39 1016 17 16093 2.1 290 20:21 29.06.2019
5670 Clear 38 1014 9 16093 2.1 270 19:43 29.06.2019
5671 Clear 38 1016 19 16093 2.6 30 19:23 29.06.2019
5672 Clear 36 1014 9 16093 1.62 260.805 18:48 29.06.2019
5673 Clear 35 1016 18 16093 1.03 121.929 18:25 29.06.2019
5674 Clear 33 1015 10 16093 1.03 121.929 17:40 29.06.2019
5675 Clear 31 1016 22 16093 2.6 190 17:22 29.06.2019
5676 Clear 30 1016 27 16093 1.5 110 16:51 29.06.2019
5677 Clear 28 1016 27 16093 1.5 110 16:28 29.06.2019
5678 Clear 27 1015 30 16093 2.6 100 15:37 29.06.2019
5679 Clear 26 1015 30 16093 2.6 100 15:19 29.06.2019
5680 Clear 25 1014 23 16093 2.1 90 14:41 29.06.2019
5681 Clear 25 1015 19 16093 2.6 150 14:23 29.06.2019
5682 Clear 25 1013 20 16093 1.54 74.234 13:44 29.06.2019
5683 Clear 26 1015 39 16093 2.82 73.47 13:26 29.06.2019
5684 Clear 26 1013 15 16093 2.82 73.47 12:45 29.06.2019
5685 Clear 27 1015 39 16093 2.1 160 12:26 29.06.2019
5686 Clear 27 1013 15 16093 2.12 76.042 11:51 29.06.2019
5687 Clear 28 1013 15 16093 2.12 76.042 11:30 29.06.2019
5688 Clear 29 1016 17 16093 2.6 300 10:52 29.06.2019
5689 Clear 29 1014 14 16093 1.5 220 10:29 29.06.2019
5690 Clear 30 1016 37 16093 1.5 190 09:58 29.06.2019
5691 Clear 30 1014 15 16093 2.12 76.042 09:31 29.06.2019
5692 Clear 31 1014 14 16093 2.64 112.421 08:41 29.06.2019
5693 Clear 32 1013 34 16093 3.37 98.084 07:46 29.06.2019
5694 Clouds 33 1015 9 16093 5.7 300 07:19 29.06.2019
5695 Clear 33 1012 10 16093 3.6 320 06:42 29.06.2019
5696 Clouds 34 1014 14 16093 5.7 290 06:20 29.06.2019
5697 Clouds 39 1013 12 16093 3.6 280 02:26 29.06.2019
5698 Thunderstorm 38 1014 13 16093 8.7 250 00:57 29.06.2019
5699 Clear 41 1014 16 11265 8.2 240 23:59 28.06.2019
5700 Clouds 41 1014 10 14484 3.1 260 23:24 28.06.2019
5701 Clear 42 1013 9 16093 1.5 210 22:53 28.06.2019
5702 Clouds 41 1015 12 14484 1.5 280 22:28 28.06.2019
5703 Clear 41 1015 11 16093 3.6 170 21:47 28.06.2019
5704 Clear 40 1016 14 16093 2.87 205.904 21:21 28.06.2019
5705 Clear 39 1015 11 16093 2.1 280 20:46 28.06.2019
5706 Clouds 39 1016 16 16093 4.6 120 20:25 28.06.2019
5707 Clear 38 1017 17 16093 2.62 241.447 19:53 28.06.2019
5708 Clear 37 1017 17 16093 5.1 110 19:27 28.06.2019
5709 Clear 35 1017 17 16093 2.6 100 18:45 28.06.2019
5710 Clear 34 1017 18 16093 1.5 80 18:22 28.06.2019
5711 Clear 33 1018 21 16093 1.61 198.941 17:58 28.06.2019
5712 Clouds 31 1017 22 16093 3.1 130 17:29 28.06.2019
5713 Clear 28 1017 23 16093 1.5 180 16:49 28.06.2019
5714 Clouds 27 1017 32 16093 1.5 280 16:24 28.06.2019
5715 Drizzle 26 1018 24 16093 2.1 130 15:48 28.06.2019
5716 Clouds 23 1017 26 16093 2.6 150 15:23 28.06.2019
5717 Clear 22 1015 24 16093 2.1 90 14:43 28.06.2019
5718 Clear 22 1016 27 16093 2.6 150 14:22 28.06.2019
5719 Clear 22 1014 24 16093 1.5 70 13:56 28.06.2019
5720 Clear 21 1014 24 16093 1.5 70 13:37 28.06.2019
5721 Clear 21 1016 25 16093 2.1 110 13:19 28.06.2019
5722 Clear 22 1014 23 16093 1.36 75.913 12:44 28.06.2019
5723 Clear 23 1016 23 16093 1.5 180 11:54 28.06.2019
5724 Clear 23 1015 22 16093 0.23 9.964 11:22 28.06.2019
5725 Clear 24 1014 21 16093 1.5 140 10:45 28.06.2019
5726 Clear 25 1016 21 16093 1.5 110 10:21 28.06.2019
5727 Clear 27 1014 18 16093 0.23 9.964 09:48 28.06.2019
5728 Clear 28 1014 18 16093 0.23 9.964 09:29 28.06.2019
5729 Clear 28 1014 11 16093 2.1 200 08:47 28.06.2019
5730 Clear 28 1016 15 16093 2.6 230 08:26 28.06.2019
5731 Clear 29 1014 13 16093 3.1 200 07:46 28.06.2019
5732 Clear 31 1016 22 16093 3.1 240 06:58 28.06.2019
5733 Clear 32 1015 9 16093 2.6 330 05:55 28.06.2019
5734 Clear 40 1014 9 16093 3.6 250 01:22 28.06.2019
5735 Clear 40 1013 6 16093 2.6 250 00:33 28.06.2019
5736 Clear 40 1015 9 16093 5.7 220 23:48 27.06.2019
5737 Clear 40 1016 10 16093 4.68 220.64 23:25 27.06.2019
5738 Clear 39 1015 8 16093 2.6 320 22:55 27.06.2019
5739 Clear 39 1015 8 16093 2.6 320 22:36 27.06.2019
5740 Clear 39 1016 10 16093 4.6 220 22:18 27.06.2019
5741 Clear 38 1017 12 16093 6.2 220 21:42 27.06.2019
5742 Clear 37 1017 13 16093 3.6 170 21:24 27.06.2019
5743 Clear 37 1017 12 16093 3.1 70 20:52 27.06.2019
5744 Clear 36 1016 12 16093 2.6 190 20:32 27.06.2019
5745 Clear 35 1018 12 16093 5.7 160 19:59 27.06.2019
5746 Clear 35 1016 14 16093 1.5 90 19:40 27.06.2019
5747 Clear 34 1018 16 16093 1.5 50 19:22 27.06.2019
5748 Clear 33 1016 15 16093 5.88 195.359 18:42 27.06.2019
5749 Clear 32 1018 17 16093 1.51 130.708 18:19 27.06.2019
5750 Clear 31 1017 18 16093 4.1 100 17:41 27.06.2019
5751 Clear 30 1018 21 16093 3.1 130 17:22 27.06.2019
5752 Clear 28 1016 22 16093 4.1 100 16:39 27.06.2019
5753 Clear 26 1018 26 16093 3.1 130 16:19 27.06.2019
5754 Clear 26 1018 26 16093 3.1 130 16:19 27.06.2019
5755 Clear 25 1018 27 16093 1.51 130.708 15:51 27.06.2019
5756 Clear 24 1016 26 16093 1.5 150 15:31 27.06.2019
5757 Clear 21 1016 33 16093 2.6 90 14:57 27.06.2019
5758 Clear 21 1016 33 16093 2.6 90 14:31 27.06.2019
5759 Clear 21 1015 28 16093 2.6 70 13:57 27.06.2019
5760 Clear 21 1015 28 16093 2.6 70 13:38 27.06.2019
5761 Clear 21 1017 31 16093 3.1 130 13:20 27.06.2019
5762 Clear 22 1015 31 16093 2.1 120 12:41 27.06.2019
5763 Clear 22 1016 29 16093 2.1 130 12:23 27.06.2019
5764 Clear 23 1015 27 16093 1.56 104.635 11:44 27.06.2019
5765 Clear 23 1016 29 16093 2.6 150 11:21 27.06.2019
5766 Clear 24 1015 27 16093 1.5 70 10:56 27.06.2019
5767 Clear 24 1015 27 16093 1.5 70 10:36 27.06.2019
5768 Clear 24 1017 31 16093 1.5 140 10:18 27.06.2019
5769 Clear 26 1015 26 16093 1.5 200 09:37 27.06.2019
5770 Clear 26 1016 29 16093 1.5 180 09:19 27.06.2019
5771 Clear 27 1015 24 16093 0.85 232.928 08:45 27.06.2019
5772 Clear 28 1016 26 16093 2.1 260 08:23 27.06.2019
5773 Clear 29 1014 20 16093 0.85 232.928 07:39 27.06.2019
5774 Clear 30 1013 15 16093 2.6 240 06:55 27.06.2019
5775 Clear 30 1013 15 16093 2.6 240 06:29 27.06.2019
5776 Clear 36 1011 10 16093 2.1 220 03:50 27.06.2019
5777 Clear 37 1011 13 16093 6.7 220 02:40 27.06.2019
5778 Clear 38 1013 11 16093 3.1 260 01:18 27.06.2019
5779 Clear 38 1012 9 16093 5.7 210 00:45 27.06.2019
5780 Clear 38 1014 13 16093 3.1 250 00:24 27.06.2019
5781 Clear 38 1013 10 16093 5.7 210 23:42 26.06.2019
5782 Clear 37 1014 14 16093 3.1 250 23:22 26.06.2019
5783 Clear 37 1015 12 16093 7.2 220 22:55 26.06.2019
5784 Clear 37 1013 11 16093 6.7 180 22:37 26.06.2019
5785 Clear 37 1016 15 16093 3.6 320 22:18 26.06.2019
5786 Clear 36 1014 14 16093 4.1 220 21:39 26.06.2019
5787 Clear 36 1014 14 16093 4.1 220 21:39 26.06.2019
5788 Clear 35 1016 17 16093 5.1 250 21:19 26.06.2019
5789 Clear 34 1015 15 16093 4.1 180 20:50 26.06.2019
5790 Clear 34 1015 15 16093 4.1 180 20:30 26.06.2019
5791 Clear 33 1016 18 16093 5.43 196.668 19:52 26.06.2019
5792 Clear 33 1016 18 16093 5.43 196.668 19:52 26.06.2019
5793 Clear 33 1015 15 16093 5.43 196.668 19:32 26.06.2019
5794 Clear 32 1017 17 16093 5.43 196.668 18:59 26.06.2019
5795 Clear 31 1015 15 16093 2.6 250 18:39 26.06.2019
5796 Clear 31 1017 20 16093 2.1 170 18:21 26.06.2019
5797 Clear 30 1017 21 16093 0.69 171.87 17:46 26.06.2019
5798 Clear 30 1017 21 16093 0.69 171.87 17:46 26.06.2019
5799 Clear 29 1017 21 16093 2.1 120 17:27 26.06.2019
5800 Clear 29 1017 21 16093 2.1 120 17:27 26.06.2019
5801 Clear 29 1017 21 16093 2.1 120 17:27 26.06.2019
5802 Clear 29 1017 21 16093 2.1 120 17:27 26.06.2019
5803 Clear 27 1017 22 16093 0.69 171.87 16:52 26.06.2019
5804 Clear 26 1015 20 16093 3.6 120 16:30 26.06.2019
5805 Clear 26 1015 20 16093 3.6 120 16:29 26.06.2019
5806 Clear 23 1014 26 16093 0.69 171.87 15:53 26.06.2019
5807 Clear 21 1014 26 16093 0.69 171.87 15:28 26.06.2019
5808 Clear 19 1016 28 16093 2.6 140 14:57 26.06.2019
5809 Clear 19 1014 28 16093 1.43 67.781 14:37 26.06.2019
5810 Clear 19 1015 28 16093 2.1 130 14:18 26.06.2019
5811 Clear 19 1013 26 16093 1.43 67.781 13:39 26.06.2019
5812 Clear 19 1015 30 16093 3.1 170 13:18 26.06.2019
5813 Clear 20 1013 22 16093 1.34 85.795 12:40 26.06.2019
5814 Clear 20 1014 28 16093 3.1 170 12:19 26.06.2019
5815 Clear 22 1014 26 16093 1.7 59.695 11:25 26.06.2019
5816 Clear 22 1014 26 16093 1.7 59.695 11:25 26.06.2019
5817 Clear 22 1013 22 16093 1.5 130 10:56 26.06.2019
5818 Clear 23 1013 22 16093 1.5 130 10:38 26.06.2019
5819 Clear 24 1014 25 16093 2.6 200 10:19 26.06.2019
5820 Clear 25 1014 23 16093 0.33 43.627 09:30 26.06.2019
5821 Clear 26 1012 28 16093 2.1 360 08:57 26.06.2019
5822 Clear 27 1014 21 16093 2.6 280 08:23 26.06.2019
5823 Clear 27 1014 20 16093 2.6 300 07:59 26.06.2019
5824 Clear 28 1012 27 16093 3.1 220 07:40 26.06.2019
5825 Clear 30 1011 12 16093 1.5 250 06:33 26.06.2019
5826 Clear 38 1010 7 16093 4.6 230 02:18 26.06.2019
5827 Clear 39 1009 7 16093 3.6 270 00:36 26.06.2019
5828 Clear 38 1011 8 16093 2.1 280 23:57 25.06.2019
5829 Clear 38 1010 7 16093 3.6 270 23:38 25.06.2019
5830 Clouds 38 1012 9 16093 2.6 300 23:19 25.06.2019
5831 Clear 38 1011 7 16093 4.6 340 22:41 25.06.2019
5832 Clear 37 1012 8 16093 2.1 40 22:22 25.06.2019
5833 Clear 37 1011 8 16093 3.6 220 21:46 25.06.2019
5834 Clouds 36 1013 9 16093 1.5 270 21:26 25.06.2019
5835 Clear 36 1012 9 16093 5.24 203.415 20:49 25.06.2019
5836 Clear 35 1014 9 16093 5.24 203.415 20:24 25.06.2019
5837 Clear 34 1014 10 16093 5.24 203.415 19:57 25.06.2019
5838 Clear 34 1013 9 16093 5.24 203.415 19:38 25.06.2019
5839 Clear 33 1014 9 16093 5.24 203.415 19:20 25.06.2019
5840 Clear 32 1013 12 16093 2.6 80 18:42 25.06.2019
5841 Clear 31 1015 17 16093 2.1 190 18:24 25.06.2019
5842 -273 0 0 0 0 0 17:45 25.06.2019
5843 -273 0 0 0 0 0 17:26 25.06.2019
5844 -273 0 0 0 0 0 17:26 25.06.2019
5845 -273 0 0 0 0 0 17:26 25.06.2019
5846 Clear 26 1012 19 16093 3.6 120 16:44 25.06.2019
5847 Clear 25 1013 22 16093 4.1 150 16:25 25.06.2019
5848 Clear 22 1011 21 16093 3.1 130 15:54 25.06.2019
5849 Clear 22 1011 21 16093 3.1 130 15:36 25.06.2019
5850 Clear 19 1013 22 16093 4.1 120 15:18 25.06.2019
5851 Clear 19 1013 22 16093 4.1 120 15:18 25.06.2019
5852 Clear 18 1011 21 16093 2.1 140 14:42 25.06.2019
5853 Clear 18 1012 24 16093 2.6 120 14:23 25.06.2019
5854 Clear 18 1010 18 16093 1.34 156.779 13:42 25.06.2019
5855 Clear 18 1010 18 16093 1.34 156.779 13:42 25.06.2019
5856 Clear 18 1012 24 16093 3.1 170 13:21 25.06.2019
5857 Clear 19 1010 22 16093 1.31 162.63 12:42 25.06.2019
5858 Clear 20 1012 25 16093 3.1 160 12:24 25.06.2019
5859 Clear 20 1012 25 16093 3.1 160 12:24 25.06.2019
5860 Clear 20 1010 16 16093 2.6 200 11:44 25.06.2019
5861 Clear 20 1012 25 16093 2.1 150 11:23 25.06.2019
5862 Clear 20 1012 25 16093 2.1 150 11:23 25.06.2019
5863 Clear 22 1010 17 16093 2.1 130 10:55 25.06.2019
5864 Clear 22 1010 17 16093 2.1 130 10:36 25.06.2019
5865 Clear 22 1012 25 16093 3.1 170 10:18 25.06.2019
5866 Clear 23 1010 16 16093 2.1 110 09:39 25.06.2019
5867 Clear 24 1012 20 16093 2.6 130 09:21 25.06.2019
5868 Clear 25 1010 12 16093 1.5 250 08:50 25.06.2019
5869 Clear 26 1010 12 16093 1.5 250 08:30 25.06.2019
5870 Clear 28 1010 10 16093 1.5 260 07:43 25.06.2019
5871 Clear 27 1012 13 16093 3.6 260 07:23 25.06.2019
5872 Clear 28 1009 11 16093 1.57 152.616 06:42 25.06.2019
5873 Clear 34 1008 6 16093 2.6 340 04:31 25.06.2019
5874 Clear 37 1008 5 16093 4.6 320 02:35 25.06.2019
5875 Clear 38 1009 5 16093 3.6 150 00:38 25.06.2019
5876 Clear 37 1011 5 16093 3.1 250 00:19 25.06.2019
5877 Clear 37 1010 5 16093 2.6 300 23:48 24.06.2019
5878 Clear 37 1010 5 16093 2.6 300 23:30 24.06.2019
5879 Clear 36 1011 6 16093 2.6 110 22:45 24.06.2019
5880 Clear 36 1012 9 16093 2.1 30 22:19 24.06.2019
5881 Clear 36 1012 9 16093 2.1 30 22:19 24.06.2019
5882 Clear 36 1013 9 16093 2.6 250 21:43 24.06.2019
5883 Clear 35 1013 9 16093 1.5 260 21:20 24.06.2019
5884 Clear 35 1013 9 16093 1.5 260 21:20 24.06.2019
5885 Clear 35 1014 9 16093 4.6 250 20:59 24.06.2019
5886 Clear 35 1012 7 16093 3.1 290 20:40 24.06.2019
5887 Clear 35 1014 10 16093 2.6 360 20:22 24.06.2019
5888 Clear 34 1014 10 16093 2.1 100 19:47 24.06.2019
5889 Clear 33 1014 11 16093 1.5 20 19:25 24.06.2019
5890 Clear 32 1015 12 16093 3.66 231.577 18:54 24.06.2019
5891 Clear 31 1013 11 16093 3.66 231.577 18:31 24.06.2019
5892 Clear 30 1015 13 16093 1.5 0 17:59 24.06.2019
5893 Clear 28 1013 15 16093 3.1 110 17:37 24.06.2019
5894 Clear 26 1015 17 16093 3.1 130 16:56 24.06.2019
5895 Clear 25 1013 20 16093 4.6 110 16:37 24.06.2019
5896 Clear 24 1014 20 16093 3.6 150 16:19 24.06.2019
5897 Clear 22 1013 22 16093 2.6 110 15:40 24.06.2019
5898 Clear 18 1014 22 16093 2.6 130 15:21 24.06.2019
5899 Clear 17 1012 21 16093 2.1 130 14:35 24.06.2019
5900 Clear 17 1012 21 16093 3.6 100 13:56 24.06.2019
5901 Clear 17 1013 24 16093 3.1 140 13:31 24.06.2019
5902 Clear 18 1012 22 16093 2.6 110 12:46 24.06.2019
5903 Clear 19 1013 22 16093 3.6 130 12:26 24.06.2019
5904 Clear 19 1014 21 16093 3.1 140 11:59 24.06.2019
5905 Clear 19 1012 16 16093 2.6 190 11:40 24.06.2019
5906 Clear 20 1013 21 16093 3.1 150 11:21 24.06.2019
5907 Clear 20 1012 21 16093 3.6 210 10:50 24.06.2019
5908 Clear 20 1013 21 16093 3.1 230 10:28 24.06.2019
5909 Clear 22 1012 19 16093 1.5 190 09:49 24.06.2019
5910 Clear 22 1012 19 16093 1.5 190 09:49 24.06.2019
5911 Clear 22 1013 19 16093 2.6 210 09:23 24.06.2019
5912 Clear 23 1012 24 16093 1.5 220 08:52 24.06.2019
5913 Clear 24 1013 21 16093 2.6 270 08:26 24.06.2019
5914 Clear 24 1013 21 16093 2.6 270 08:26 24.06.2019
5915 Clear 26 1012 21 16093 2.6 310 07:47 24.06.2019
5916 Clear 26 1013 15 16093 3.1 310 07:26 24.06.2019
5917 Clear 27 1012 14 16093 2.1 320 06:49 24.06.2019
5918 Clear 28 1013 13 16093 3.1 310 06:21 24.06.2019
5919 Clear 30 1012 11 16093 4.1 350 05:27 24.06.2019
5920 Clear 32 1012 9 16093 4.6 330 04:25 24.06.2019
5921 Clear 34 1012 7 16093 5.1 340 03:23 24.06.2019
5922 Clear 35 1010 8 16093 2.1 360 02:32 24.06.2019
5923 Clear 35 1012 6 16093 2.6 290 01:53 24.06.2019
5924 Clear 35 1012 5 16093 2.6 260 01:22 24.06.2019
5925 Clear 35 1012 7 16093 1.5 320 00:40 24.06.2019
5926 Clear 35 1013 5 16093 4.6 210 00:19 24.06.2019
5927 Clear 35 1013 5 16093 4.6 210 00:19 24.06.2019
5928 Clear 35 1012 7 16093 2.1 330 23:44 23.06.2019
5929 Clear 35 1014 5 16093 4.6 240 23:23 23.06.2019
5930 Clear 35 1013 7 16093 1.5 190 22:43 23.06.2019
5931 Clear 34 1014 7 16093 3.6 260 22:20 23.06.2019
5932 Clear 34 1015 9 16093 3.6 230 21:56 23.06.2019
5933 Clear 34 1015 9 16093 3.6 230 21:56 23.06.2019
5934 Clear 34 1013 9 16093 2.6 240 21:36 23.06.2019
5935 Clear 33 1015 11 16093 2.6 320 21:18 23.06.2019
5936 Clear 32 1014 8 16093 1.5 230 20:40 23.06.2019
5937 Clear 32 1015 12 16093 1.5 140 20:22 23.06.2019
5938 Clear 31 1014 9 16093 3.1 200 19:44 23.06.2019
5939 Clear 31 1016 18 16093 3.1 170 19:21 23.06.2019
5940 Clear 30 1016 17 16093 2.6 0 18:54 23.06.2019
5941 Clear 29 1016 21 16093 2.6 180 18:24 23.06.2019
5942 Clear 28 1015 16 16093 1.5 220 17:51 23.06.2019
5943 Clear 26 1016 24 16093 2.6 150 17:26 23.06.2019
5944 Clear 25 1016 14 16093 2.6 120 16:55 23.06.2019
5945 Clear 24 1014 18 16093 2.1 200 16:37 23.06.2019
5946 Clear 23 1016 27 16093 3.6 150 16:18 23.06.2019
5947 Clear 21 1014 14 16093 1.5 170 15:40 23.06.2019
5948 Clear 19 1016 32 16093 3.6 150 15:21 23.06.2019
5949 Clear 18 1013 22 16093 4.1 120 14:41 23.06.2019
5950 Clear 18 1015 34 16093 3.6 160 14:22 23.06.2019
5951 Clear 19 1015 32 16093 3.6 150 13:58 23.06.2019
5952 Clear 19 1013 21 16093 4.1 140 13:39 23.06.2019
5953 Clear 19 1014 32 16093 3.1 170 13:19 23.06.2019
5954 Clear 20 1013 29 16093 1.5 340 12:43 23.06.2019
5955 Clear 20 1014 32 16093 2.6 150 12:21 23.06.2019
5956 Clear 20 1015 28 16093 1.5 140 11:55 23.06.2019
5957 Clear 21 1013 19 16093 2.3 175.22 11:36 23.06.2019
5958 Clear 21 1014 32 16093 2.6 120 11:18 23.06.2019
5959 Clear 22 1013 17 16093 2.6 160 10:41 23.06.2019
5960 Clear 22 1015 27 16093 2.6 140 10:18 23.06.2019
5961 Clear 22 1013 29 16093 4.1 160 09:39 23.06.2019
5962 Clear 23 1015 22 16093 2.1 220 09:19 23.06.2019
5963 Clear 24 1014 16 16093 1.5 300 08:42 23.06.2019
5964 Clear 25 1014 16 16093 1.5 300 08:24 23.06.2019
5965 Clear 26 1012 13 16093 2.1 140 07:52 23.06.2019
5966 Clear 26 1014 14 16093 2.1 280 07:20 23.06.2019
5967 Clear 27 1012 10 16093 4.6 250 06:53 23.06.2019
5968 Clear 28 1010 9 16093 6.2 240 05:54 23.06.2019
5969 Clear 33 1009 9 16093 8.2 250 03:30 23.06.2019
5970 Clear 35 1011 8 16093 6.2 240 01:52 23.06.2019
5971 Clear 35 1011 6 16093 6.2 270 01:33 23.06.2019
5972 Clear 36 1009 7 16093 5.1 240 00:34 23.06.2019
5973 Clear 36 1012 8 16093 6.2 240 23:53 22.06.2019
5974 Clouds 35 1011 8 16093 1.5 250 23:27 22.06.2019
5975 Clear 35 1010 9 16093 4.1 190 22:49 22.06.2019
5976 Clear 35 1010 9 16093 4.1 190 22:29 22.06.2019
5977 Clear 35 1012 9 16093 5.1 230 21:59 22.06.2019
5978 Clear 34 1011 10 16093 3.1 270 21:37 22.06.2019
5979 Clear 34 1012 10 16093 4.6 240 21:18 22.06.2019
5980 Clear 33 1011 11 16093 5.1 260 20:46 22.06.2019
5981 Clear 33 1013 13 16093 4.1 170 20:25 22.06.2019
5982 Clear 32 1012 11 16093 4.1 210 19:44 22.06.2019
5983 Clear 32 1013 16 16093 3.1 160 19:22 22.06.2019
5984 Clear 31 1013 14 16093 3.1 220 18:47 22.06.2019
5985 Clear 30 1012 13 16093 6.7 200 18:29 22.06.2019
5986 Clear 29 1013 16 16093 2.1 130 17:52 22.06.2019
5987 Clear 28 1012 18 16093 1.5 200 17:31 22.06.2019
5988 Clear 27 1013 22 16093 2.6 300 16:50 22.06.2019
5989 Clear 25 1013 23 16093 2.6 120 16:24 22.06.2019
5990 Clear 24 1013 23 16093 1.5 90 15:54 22.06.2019
5991 Clear 23 1011 23 16093 6.24 181.379 15:33 22.06.2019
5992 Clear 20 1013 26 16093 2.1 90 14:58 22.06.2019
5993 Clear 20 1011 23 16093 4.06 150.392 14:34 22.06.2019
5994 Clear 20 1013 26 16093 2.1 90 13:59 22.06.2019
5995 Clear 21 1010 25 16093 3.6 120 13:40 22.06.2019
5996 Clear 21 1012 28 16093 3.1 120 13:19 22.06.2019
5997 Clear 21 1009 26 16093 3.6 170 12:47 22.06.2019
5998 Clear 22 1012 28 16093 3.6 110 12:29 22.06.2019
5999 Clear 22 1009 27 16093 3.1 160 11:53 22.06.2019
6000 Clear 22 1009 27 16093 3.1 160 11:29 22.06.2019
6001 Clear 23 1010 22 16093 4.1 200 10:47 22.06.2019
6002 Clear 23 1012 27 16093 2.1 190 10:19 22.06.2019
6003 Clear 24 1009 39 16093 4.6 153.63 09:42 22.06.2019
6004 Clear 25 1009 19 16093 0.99 225.452 08:58 22.06.2019
6005 Clear 25 1009 19 16093 0.82 214.992 08:40 22.06.2019
6006 Clear 27 1009 16 16093 3.1 230 07:56 22.06.2019
6007 Clear 27 1009 16 16093 3.1 230 07:30 22.06.2019
6008 Clear 29 1008 13 16093 5.7 250 06:46 22.06.2019
6009 Clear 33 1007 9 16093 7.2 250 04:38 22.06.2019
6010 Clear 36 1007 8 16093 7.2 250 02:31 22.06.2019
6011 Clear 37 1010 5 16093 7.7 250 00:57 22.06.2019
6012 Clear 37 1009 6 16093 6.7 260 00:35 22.06.2019
6013 Clear 36 1008 7 16093 7.7 230 23:51 21.06.2019
6014 Clear 36 1011 7 16093 5.7 240 23:25 21.06.2019
6015 Clear 36 1011 7 16093 5.7 240 22:58 21.06.2019
6016 Clear 36 1008 8 16093 7.7 230 22:40 21.06.2019
6017 Clear 36 1011 6 16093 5.1 220 22:20 21.06.2019
6018 Clear 35 1009 8 16093 4.1 230 21:40 21.06.2019
6019 Clear 35 1012 9 16093 3.6 200 21:21 21.06.2019
6020 Clear 34 1010 9 16093 2.1 210 20:49 21.06.2019
6021 Clear 34 1012 9 16093 5.7 200 20:27 21.06.2019
6022 Clear 33 1010 8 16093 5.7 150 19:54 21.06.2019
6023 Clear 32 1012 6 16093 3.6 200 19:23 21.06.2019
6024 Clear 31 1011 9 16093 2.1 180 18:43 21.06.2019
6025 Clear 31 1011 9 16093 2.1 180 18:43 21.06.2019
6026 Clear 30 1013 9 16093 5.7 180 18:25 21.06.2019
6027 Clear 29 1011 9 16093 5.1 110 17:41 21.06.2019
6028 Clear 28 1013 10 16093 3.1 110 17:23 21.06.2019
6029 Clear 27 1011 10 16093 6.2 130 16:38 21.06.2019
6030 Clear 25 1012 12 16093 3.1 110 16:19 21.06.2019
6031 Clear 24 1010 11 16093 5.1 110 15:39 21.06.2019
6032 Clear 21 1012 15 16093 4.1 120 15:18 21.06.2019
6033 Clear 21 1010 12 16093 4.6 130 14:44 21.06.2019
6034 Clear 20 1012 15 16093 3.1 110 14:24 21.06.2019
6035 Clear 21 1010 14 16093 4.1 130 13:42 21.06.2019
6036 Clear 21 1012 15 16093 3.6 90 13:23 21.06.2019
6037 Clear 21 1010 15 16093 2.1 60 12:54 21.06.2019
6038 Clear 22 1012 13 16093 2.6 90 12:23 21.06.2019
6039 Clear 22 1012 13 16093 4.1 120 11:58 21.06.2019
6040 Clear 22 1009 14 16093 2.6 170 11:40 21.06.2019
6041 Clear 22 1012 15 16093 5.1 170 11:22 21.06.2019
6042 Clear 22 1009 12 16093 4.1 170 10:44 21.06.2019
6043 Clear 22 1009 12 16093 4.1 170 10:44 21.06.2019
6044 Clear 23 1012 13 16093 3.1 160 10:21 21.06.2019
6045 Clear 23 1010 10 16093 5.1 180 09:43 21.06.2019
6046 Clear 24 1012 9 16093 4.6 170 09:25 21.06.2019
6047 Clear 25 1012 9 16093 4.6 170 08:58 21.06.2019
6048 Clear 25 1009 9 16093 4.1 220 08:40 21.06.2019
6049 Clear 26 1012 8 16093 4.1 220 08:19 21.06.2019
6050 Clear 27 1009 8 16093 3.6 190 07:45 21.06.2019
6051 Clear 27 1009 8 16093 3.6 190 07:45 21.06.2019
6052 Clear 28 1011 7 16093 3.6 230 07:22 21.06.2019
6053 Clear 30 1009 9 16093 2.1 230 06:29 21.06.2019
6054 Clear 31 1008 8 16093 4.6 260 05:55 21.06.2019
6055 Clear 33 1010 9 16093 6.2 210 04:49 21.06.2019
6056 Clear 35 1007 6 16093 7.2 250 03:49 21.06.2019
6057 Clear 36 1007 6 16093 7.2 250 03:30 21.06.2019
6058 Clear 37 1007 5 16093 6.2 240 02:42 21.06.2019
6059 Clear 38 1008 4 16093 6.2 230 01:32 21.06.2019
6060 Clear 38 1011 4 16093 4.6 230 00:46 21.06.2019
6061 Clear 37 1012 4 16093 5.7 200 23:59 20.06.2019
6062 Clear 37 1012 3 16093 6.7 240 23:40 20.06.2019
6063 Clear 37 1012 3 16093 6.7 240 23:20 20.06.2019
6064 Clear 37 1012 7 16093 1.5 250 22:44 20.06.2019
6065 Clear 36 1013 5 16093 3.1 230 22:23 20.06.2019
6066 Clear 36 1012 7 16093 4.1 230 21:56 20.06.2019
6067 Clear 36 1012 7 16093 4.1 230 21:38 20.06.2019
6068 Clouds 35 1014 5 16093 2.1 170 21:19 20.06.2019
6069 Clear 34 1013 7 16093 2.1 190 20:41 20.06.2019
6070 Clear 34 1014 7 16093 5.1 280 20:23 20.06.2019
6071 Clear 33 1013 8 16093 2.6 200 19:46 20.06.2019
6072 Clear 33 1015 6 16093 3.6 270 19:19 20.06.2019
6073 Clear 32 1015 8 16093 3.1 210 18:58 20.06.2019
6074 Clear 31 1014 8 16093 1.5 190 18:40 20.06.2019
6075 Clear 30 1015 7 16093 3.1 140 18:21 20.06.2019
6076 Clear 29 1014 11 16093 1.5 150 17:47 20.06.2019
6077 Clear 28 1014 11 16093 1.5 150 17:29 20.06.2019
6078 Clear 26 1015 15 16093 2.6 50 16:44 20.06.2019
6079 Clear 25 1015 15 16093 2.6 170 16:20 20.06.2019
6080 Clear 22 1015 24 16093 1.5 70 15:56 20.06.2019
6081 Clear 21 1013 20 16093 2.1 90 15:38 20.06.2019
6082 Clear 19 1014 20 16093 3.6 120 15:18 20.06.2019
6083 Clear 18 1013 20 16093 3.1 100 14:43 20.06.2019
6084 Clear 18 1014 18 16093 4.1 130 14:21 20.06.2019
6085 Clear 18 1013 20 16093 2.1 210 13:40 20.06.2019
6086 Clear 18 1014 20 16093 3.6 130 13:19 20.06.2019
6087 Clear 19 1013 19 16093 1.52 137.714 12:44 20.06.2019
6088 Clear 20 1014 19 16093 3.6 140 12:23 20.06.2019
6089 Clear 20 1012 18 16093 0.75 95.339 11:46 20.06.2019
6090 Clear 21 1014 18 16093 3.6 130 11:26 20.06.2019
6091 Clear 21 1013 14 16093 2.1 140 10:54 20.06.2019
6092 Clear 22 1013 14 16093 2.1 140 10:36 20.06.2019
6093 Clear 22 1015 15 16093 4.1 130 10:18 20.06.2019
6094 Clear 23 1013 14 16093 0.75 95.339 09:40 20.06.2019
6095 Clear 25 1015 11 16093 3.6 150 09:21 20.06.2019
6096 Clear 25 1013 11 16093 3.1 180 08:45 20.06.2019
6097 Clear 26 1015 9 16093 3.6 170 08:27 20.06.2019
6098 Clear 27 1013 8 16093 2.1 260 07:53 20.06.2019
6099 Clear 28 1014 8 16093 3.1 270 07:28 20.06.2019
6100 Clear 28 1013 6 16093 2.1 280 06:27 20.06.2019
6101 Clear 32 1013 5 16093 3.6 280 04:54 20.06.2019
6102 Clear 36 1012 5 16093 3.1 290 02:55 20.06.2019
6103 Clear 37 1012 5 16093 1.5 300 00:34 20.06.2019
6104 Clear 37 1014 6 16093 4.49 253.084 23:58 19.06.2019
6105 Clear 37 1012 6 16093 5.7 270 23:39 19.06.2019
6106 Clear 37 1014 7 16093 2.6 250 23:21 19.06.2019
6107 Clear 36 1013 7 16093 2.6 270 22:45 19.06.2019
6108 Clear 36 1015 8 16093 3.6 220 22:18 19.06.2019
6109 Clear 36 1014 8 16093 2.1 290 21:46 19.06.2019
6110 Clear 35 1016 7 16093 1.5 150 21:25 19.06.2019
6111 Clear 34 1015 9 16093 2.6 300 20:43 19.06.2019
6112 Clear 34 1016 13 16093 2.1 10 20:22 19.06.2019
6113 Clear 34 1015 9 16093 1.5 300 19:55 19.06.2019
6114 Clear 33 1015 9 16093 1.5 300 19:36 19.06.2019
6115 Clear 33 1016 11 16093 4.11 222.937 19:18 19.06.2019
6116 Clear 32 1015 11 16093 4.11 222.937 18:43 19.06.2019
6117 Clear 30 1016 12 16093 2.6 190 18:20 19.06.2019
6118 Clear 28 1015 13 16093 1.5 120 17:35 19.06.2019
6119 -273 0 0 0 0 0 16:58 19.06.2019
6120 Clear 26 1015 14 16093 1.5 130 16:39 19.06.2019
6121 Clear 24 1015 16 16093 1.32 238.761 16:20 19.06.2019
6122 Clear 23 1015 18 16093 1.32 238.761 15:48 19.06.2019
6123 -273 0 0 0 0 0 15:26 19.06.2019
6124 Clear 18 1014 16 16093 3.6 110 14:50 19.06.2019
6125 Clear 18 1014 16 16093 3.6 110 14:30 19.06.2019
6126 Clear 17 1014 18 16093 2.6 140 13:59 19.06.2019
6127 Clear 18 1014 18 16093 2.6 140 13:40 19.06.2019
6128 Clear 18 1015 18 16093 0.48 120.556 13:21 19.06.2019
6129 Clear 19 1014 16 16093 0.48 120.556 12:43 19.06.2019
6130 Clear 20 1015 18 16093 1.5 150 12:21 19.06.2019
6131 Clear 20 1014 13 16093 0.88 122.716 11:45 19.06.2019
6132 Clear 21 1016 15 16093 4.1 130 11:25 19.06.2019
6133 Clear 22 1014 13 16093 0.88 122.716 10:57 19.06.2019
6134 Clear 22 1014 13 16093 0.88 122.716 10:38 19.06.2019
6135 Clear 22 1016 15 16093 2.6 140 10:19 19.06.2019
6136 Clear 24 1015 13 16093 0.88 122.716 09:39 19.06.2019
6137 Clear 24 1016 13 16093 3.6 160 09:19 19.06.2019
6138 Clear 25 1014 10 16093 0.49 193.207 08:48 19.06.2019
6139 Clear 25 1016 10 16093 1.5 140 08:28 19.06.2019
6140 Clear 27 1013 10 16093 4.6 220 07:47 19.06.2019
6141 Clear 28 1015 9 16093 2.6 250 07:23 19.06.2019
6142 Clear 28 1013 9 16093 3.6 250 06:49 19.06.2019
6143 Clear 29 1014 6 16093 3.6 270 06:24 19.06.2019
6144 Clear 30 1012 7 16093 3.6 250 05:48 19.06.2019
6145 Clear 34 1013 5 16093 4.1 250 04:19 19.06.2019
6146 Clear 36 1012 6 16093 4.6 270 03:27 19.06.2019
6147 Clear 37 1011 4 16093 3.6 240 01:49 19.06.2019
6148 Clear 37 1013 3 16093 3.6 260 01:18 19.06.2019
6149 Clear 37 1013 4 16093 7.2 280 00:43 19.06.2019
6150 Clear 37 1013 4 16093 5.1 270 00:20 19.06.2019
6151 Clear 37 1012 4 16093 2.6 320 23:46 18.06.2019
6152 Clear 37 1014 5 16093 4.6 260 23:26 18.06.2019
6153 Clear 37 1014 4 16093 7.2 200 22:44 18.06.2019
6154 Clouds 36 1014 5 16093 5.1 260 22:24 18.06.2019
6155 Clear 36 1015 5 16093 1.5 0 21:56 18.06.2019
6156 Clear 36 1013 6 16093 4.1 210 21:38 18.06.2019
6157 Clear 35 1015 6 16093 3.6 160 21:19 18.06.2019
6158 Clear 34 1014 10 16093 2.6 100 20:42 18.06.2019
6159 Clear 34 1015 6 16093 4.6 200 20:24 18.06.2019
6160 Clear 33 1014 10 16093 5.19 199.357 19:41 18.06.2019
6161 Clear 33 1015 18 16093 5.19 199.357 19:23 18.06.2019
6162 Clear 32 1016 10 16093 3.6 240 18:57 18.06.2019
6163 Clear 31 1015 21 16093 5.19 199.357 18:28 18.06.2019
6164 Clear 30 1016 21 16093 2.1 280 17:59 18.06.2019
6165 Clear 29 1014 20 16093 1.54 218.055 17:38 18.06.2019
6166 Clear 28 1015 23 16093 1.54 218.055 17:19 18.06.2019
6167 Clear 27 1014 24 16093 1.54 218.055 16:43 18.06.2019
6168 Clear 25 1015 23 16093 3.6 140 16:22 18.06.2019
6169 Clear 23 1013 27 16093 2.6 120 15:43 18.06.2019
6170 Clear 20 1014 30 16093 3.1 140 15:24 18.06.2019
6171 Clear 20 1014 34 16093 0.92 96.195 14:58 18.06.2019
6172 Clear 20 1012 30 16093 0.92 96.195 14:40 18.06.2019
6173 Clear 19 1014 28 16093 3.1 130 14:20 18.06.2019
6174 Clear 20 1012 24 16093 3.1 90 13:52 18.06.2019
6175 Clear 20 1012 24 16093 3.1 90 13:31 18.06.2019
6176 Clear 20 1012 23 16093 2.6 110 12:47 18.06.2019
6177 Clear 21 1012 23 16093 2.6 110 12:29 18.06.2019
6178 -273 0 0 0 0 0 11:58 18.06.2019
6179 Clear 22 1012 23 16093 2.3 132.126 11:39 18.06.2019
6180 Clear 23 1014 29 16093 3.6 120 11:20 18.06.2019
6181 Clear 23 1012 19 16093 2.6 200 10:43 18.06.2019
6182 Clear 24 1014 27 16093 3.1 160 10:22 18.06.2019
6183 Clear 24 1012 19 16093 1.5 170 09:54 18.06.2019
6184 Clear 25 1014 24 16093 0.48 131.208 09:25 18.06.2019
6185 Clear 26 1012 20 16093 2.1 170 08:58 18.06.2019
6186 Clear 27 1012 20 16093 2.1 170 08:39 18.06.2019
6187 Clear 27 1013 24 16093 2.1 240 08:21 18.06.2019
6188 Clear 29 1013 21 16093 2.6 310 07:27 18.06.2019
6189 Clear 29 1013 20 16093 3.6 280 06:59 18.06.2019
6190 Clear 32 1010 7 16093 3.6 220 05:28 18.06.2019
6191 Clear 34 1010 6 16093 4.1 220 04:22 18.06.2019
6192 Clear 37 1009 8 16093 6.2 250 02:50 18.06.2019
6193 Clear 38 1010 7 16093 4.6 220 01:28 18.06.2019
6194 Clear 38 1010 8 16093 6.7 210 00:58 18.06.2019
6195 Clear 38 1008 7 16093 3.1 210 00:39 18.06.2019
6196 Clear 38 1008 7 16093 3.1 210 00:39 18.06.2019
6197 Clear 38 1011 7 16093 2.1 300 00:21 18.06.2019
6198 Clear 37 1009 6 16093 1.5 300 23:38 17.06.2019
6199 Clear 37 1011 6 16093 4.6 240 23:19 17.06.2019
6200 Clear 37 1010 7 16093 3.1 260 22:41 17.06.2019
6201 Clear 37 1012 8 16093 4.1 260 22:21 17.06.2019
6202 Clear 36 1012 8 16093 5.7 250 21:55 17.06.2019
6203 Clear 36 1011 7 16093 5.1 200 21:36 17.06.2019
6204 Clouds 35 1013 9 16093 1.5 240 21:18 17.06.2019
6205 Clear 35 1012 8 16093 2.6 190 20:36 17.06.2019
6206 Clear 34 1013 10 16093 5.1 210 20:18 17.06.2019
6207 Clear 34 1012 10 16093 3.6 140 19:41 17.06.2019
6208 Clear 33 1013 16 16093 3.6 150 19:21 17.06.2019
6209 Clear 33 1014 10 16093 4.6 190 18:55 17.06.2019
6210 Clear 32 1012 14 16093 4.1 100 18:36 17.06.2019
6211 Clear 31 1014 20 16093 2.6 150 18:18 17.06.2019
6212 Clear 29 1012 18 16093 4.1 100 17:41 17.06.2019
6213 Clear 28 1012 18 16093 4.1 100 17:23 17.06.2019
6214 Haze 25 1012 23 16093 1.5 80 16:43 17.06.2019
6215 Haze 24 1012 23 16093 1.5 80 16:25 17.06.2019
6216 Clear 23 1011 27 16093 3.39 185.724 15:55 17.06.2019
6217 Clear 23 1011 25 16093 3.39 185.724 15:37 17.06.2019
6218 Clear 22 1011 25 16093 2.18 152.953 15:18 17.06.2019
6219 Clear 22 1010 23 16093 3.6 100 14:42 17.06.2019
6220 Clear 22 1010 23 16093 3.6 100 14:23 17.06.2019
6221 Clear 21 1010 25 16093 3.1 110 13:47 17.06.2019
6222 Clear 21 1010 28 16093 2.6 90 13:22 17.06.2019
6223 Clear 21 1010 25 16093 3.6 90 12:48 17.06.2019
6224 Clear 21 1010 27 16093 3.1 110 12:30 17.06.2019
6225 Clear 22 1010 25 16093 1.5 170 11:45 17.06.2019
6226 Clear 23 1010 25 16093 1.5 170 11:26 17.06.2019
6227 Clear 23 1010 23 16093 1.5 110 10:58 17.06.2019
6228 Clear 23 1010 22 16093 2.84 137.773 10:39 17.06.2019
6229 Clear 23 1010 22 16093 2.84 137.773 10:21 17.06.2019
6230 Haze 24 1010 19 16093 1.5 90 09:39 17.06.2019
6231 Haze 24 1010 19 16093 1.5 90 09:21 17.06.2019
6232 Clear 26 1010 16 16093 0.75 260.676 08:41 17.06.2019
6233 Clear 26 1010 16 16093 0.75 260.676 08:23 17.06.2019
6234 Clear 27 1009 16 16093 3.6 220 07:42 17.06.2019
6235 Clear 27 1009 16 16093 3.6 220 07:23 17.06.2019
6236 Clear 29 1008 6 16093 2.6 220 06:35 17.06.2019
6237 Clear 30 1007 5 16093 3.1 240 05:45 17.06.2019
6238 Clear 34 1007 4 16093 4.6 240 04:39 17.06.2019
6239 Clear 36 1006 5 16093 7.2 230 03:45 17.06.2019
6240 Clear 37 1006 8 16093 1.53 265.575 02:58 17.06.2019
6241 Clear 38 1006 8 16093 4.1 300 02:40 17.06.2019
6242 Clear 38 1007 8 16093 2.1 200 01:43 17.06.2019
6243 Clear 38 1007 8 16093 2.1 200 01:18 17.06.2019
6244 Clear 38 1007 7 16093 6.2 210 00:41 17.06.2019
6245 Clear 38 1007 7 16093 6.2 210 00:21 17.06.2019
6246 Clear 38 1008 8 16093 1.5 340 23:41 16.06.2019
6247 Clear 37 1008 8 16093 1.5 340 23:21 16.06.2019
6248 Clear 37 1009 10 16093 3.63 209.43 22:55 16.06.2019
6249 Clear 37 1009 10 16093 3.1 140 22:36 16.06.2019
6250 Clear 37 1012 11 16093 3.1 0 22:18 16.06.2019
6251 Clear 37 1011 11 16093 1.5 90 21:40 16.06.2019
6252 Clear 36 1011 11 16093 1.5 90 21:22 16.06.2019
6253 Clear 35 1012 12 16093 2.6 270 20:58 16.06.2019
6254 Clear 35 1011 12 16093 1.5 320 20:37 16.06.2019
6255 Clear 35 1011 12 16093 1.5 320 20:18 16.06.2019
6256 Clear 34 1012 14 16093 2.81 243.143 19:41 16.06.2019
6257 Clear 34 1012 14 16093 2.81 243.143 19:41 16.06.2019
6258 Clear 33 1012 14 16093 2.81 243.143 19:22 16.06.2019
6259 Clear 33 1012 15 16093 2.81 243.143 18:58 16.06.2019
6260 Clear 32 1012 15 16093 1.5 110 18:39 16.06.2019
6261 Clear 31 1012 15 16093 1.5 110 18:20 16.06.2019
6262 Clear 30 1012 18 16093 2.13 198.087 17:47 16.06.2019
6263 Clear 29 1012 18 16093 2.13 198.087 17:22 16.06.2019
6264 Clear 28 1014 27 16093 1.5 130 16:57 16.06.2019
6265 Clear 28 1014 27 16093 1.5 130 16:57 16.06.2019
6266 Clear 27 1012 22 16093 2.13 198.087 16:39 16.06.2019
6267 Clear 26 1012 22 16093 2.13 198.087 16:20 16.06.2019
6268 Clear 23 1014 35 16093 1.5 130 15:42 16.06.2019
6269 Clear 21 1012 28 16093 1.19 120.707 15:24 16.06.2019
6270 Clear 20 1013 34 16093 1.5 130 14:44 16.06.2019
6271 Clear 20 1011 28 16093 1.19 120.707 14:23 16.06.2019
6272 Clear 20 1011 27 16093 2.6 120 13:52 16.06.2019
6273 Clear 20 1011 27 16093 3.6 110 13:28 16.06.2019
6274 Clear 20 1011 27 16093 1.5 150 12:58 16.06.2019
6275 Clear 21 1010 25 16093 1.5 140 12:39 16.06.2019
6276 Clear 21 1010 25 16093 1.5 140 12:19 16.06.2019
6277 Clear 21 1010 25 16093 2.6 90 11:46 16.06.2019
6278 Clear 22 1010 25 16093 2.6 90 11:20 16.06.2019
6279 Clear 23 1011 23 16093 2.6 120 10:46 16.06.2019
6280 Clear 23 1011 23 16093 2.6 120 10:22 16.06.2019
6281 Clear 24 1011 19 16093 1.3 142.318 09:56 16.06.2019
6282 Clear 24 1011 19 16093 1.3 142.318 09:36 16.06.2019
6283 Clear 25 1013 19 16093 2.6 120 09:18 16.06.2019
6284 Clear 26 1011 18 16093 2.1 200 08:38 16.06.2019
6285 Clear 26 1011 16 16093 3.6 230 08:18 16.06.2019
6286 Clear 27 1011 31 16093 3.6 250 07:44 16.06.2019
6287 Clear 28 1011 11 16093 6.2 250 06:59 16.06.2019
6288 Clear 28 1010 9 16093 3.6 220 06:37 16.06.2019
6289 Clear 30 1009 8 16093 2.6 330 05:47 16.06.2019
6290 Clear 32 1011 8 16093 3.1 220 04:54 16.06.2019
6291 Clear 35 1008 6 16093 2.6 330 03:57 16.06.2019
6292 Clear 36 1008 6 16093 4.1 360 03:32 16.06.2019
6293 Clear 37 1008 5 16093 3.5 297.553 02:31 16.06.2019
6294 Clear 37 1009 5 16093 3.1 310 01:44 16.06.2019
6295 Clear 37 1009 5 16093 3.1 310 01:26 16.06.2019
6296 Clear 37 1010 5 16093 1.5 310 00:40 16.06.2019
6297 Clear 37 1010 5 16093 1.5 310 00:21 16.06.2019
6298 Clear 36 1011 6 16093 3.1 220 23:44 15.06.2019
6299 Clear 36 1011 6 16093 3.1 220 23:25 15.06.2019
6300 Clear 36 1012 5 16093 1.5 60 22:50 15.06.2019
6301 Clear 36 1012 5 16093 4.6 270 22:27 15.06.2019
6302 Clear 35 1012 6 16093 3.1 170 21:52 15.06.2019
6303 Clear 34 1012 7 16093 2.6 280 21:30 15.06.2019
6304 Clear 34 1013 8 16093 2.1 110 20:59 15.06.2019
6305 Clear 34 1013 9 16093 3.64 218.96 20:41 15.06.2019
6306 Clear 34 1013 9 16093 3.64 218.96 20:22 15.06.2019
6307 Clear 33 1015 9 16093 2.6 10 19:42 15.06.2019
6308 Clear 32 1013 10 16093 1.5 210 19:23 15.06.2019
6309 Clear 31 1013 10 16093 2.1 170 18:41 15.06.2019
6310 Clear 30 1013 10 16093 2.1 170 18:21 15.06.2019
6311 Clear 29 1013 13 16093 3.6 100 17:43 15.06.2019
6312 Clear 28 1013 13 16093 3.6 100 17:23 15.06.2019
6313 Clear 27 1013 15 16093 3.1 110 16:48 15.06.2019
6314 Clear 24 1013 15 16093 3.6 110 16:20 15.06.2019
6315 Clear 22 1012 18 16093 2.1 160 15:44 15.06.2019
6316 Clear 19 1012 18 16093 2.1 160 15:24 15.06.2019
6317 Clear 18 1012 22 16093 1.5 90 14:44 15.06.2019
6318 Clear 18 1012 22 16093 1.5 90 14:19 15.06.2019
6319 Clear 19 1011 19 16093 2 133.234 13:58 15.06.2019
6320 Clear 19 1011 19 16093 3.1 90 13:40 15.06.2019
6321 Clear 19 1011 19 16093 3.1 90 13:19 15.06.2019
6322 Clear 20 1011 16 16093 3.1 100 12:51 15.06.2019
6323 Clear 21 1011 14 16093 3.6 100 12:26 15.06.2019
6324 Clear 21 1011 19 16093 4.1 120 11:53 15.06.2019
6325 Clear 21 1011 19 16093 4.1 120 11:53 15.06.2019
6326 Clear 21 1011 21 16093 4.1 120 11:33 15.06.2019
6327 Clear 21 1011 17 16093 2.1 70 10:54 15.06.2019
6328 Clear 21 1011 17 16093 2.35 154.166 10:36 15.06.2019
6329 Clear 22 1011 23 16093 2.1 170 10:18 15.06.2019
6330 Clear 23 1011 23 16093 2.35 154.166 09:42 15.06.2019
6331 Clear 23 1011 27 16093 1.89 169.339 09:21 15.06.2019
6332 Clear 24 1011 27 16093 2.6 100 08:46 15.06.2019
6333 Clear 24 1011 27 16093 2.6 100 08:28 15.06.2019
6334 Clear 26 1010 14 16093 5.1 230 07:43 15.06.2019
6335 -273 0 0 0 0 0 07:21 15.06.2019
6336 Clear 28 1010 10 16093 4.1 210 06:38 15.06.2019
6337 Clear 30 1009 10 16093 3.6 230 05:49 15.06.2019
6338 Clear 31 1009 9 16093 3.6 240 05:23 15.06.2019
6339 Clear 33 1009 7 16093 6.7 250 04:37 15.06.2019
6340 Clear 36 1008 7 16093 10.3 260 03:38 15.06.2019
6341 Clear 36 1008 5 16093 9.3 230 02:48 15.06.2019
6342 Clear 37 1010 7 16093 7.7 270 01:59 15.06.2019
6343 Clear 38 1008 5 16093 9.8 240 01:40 15.06.2019
6344 Clear 38 1011 5 16093 7.2 270 00:47 15.06.2019
6345 Clear 38 1011 5 16093 7.2 270 00:28 15.06.2019
6346 Clear 38 1011 5 16093 10.3 190 23:53 14.06.2019
6347 Clear 38 1012 6 16093 6.7 230 23:25 14.06.2019
6348 Clear 38 1010 6 16093 8.7 260 22:43 14.06.2019
6349 Clear 38 1010 6 16093 8.7 260 22:23 14.06.2019
6350 Clear 38 1010 6 16093 8.7 260 22:23 14.06.2019
6351 Clear 38 1010 6 16093 8.7 260 22:23 14.06.2019
6352 Clear 38 1010 6 16093 8.7 260 22:23 14.06.2019
6353 Clear 37 1012 6 16093 9.3 200 21:57 14.06.2019
6354 Clear 37 1013 7 16093 5.7 200 21:38 14.06.2019
6355 Clear 37 1011 6 16093 9.3 240 21:20 14.06.2019
6356 Clear 36 1012 10 16093 4.1 190 20:41 14.06.2019
6357 Clear 35 1012 10 16093 4.1 190 20:18 14.06.2019
6358 Clear 35 1014 9 16093 7.7 200 19:51 14.06.2019
6359 Clear 34 1014 16 16093 5.7 190 19:23 14.06.2019
6360 Clear 33 1012 13 16093 5.1 210 18:58 14.06.2019
6361 Clear 33 1012 13 16093 6.7 200 18:40 14.06.2019
6362 Clear 32 1012 13 16093 6.7 200 18:22 14.06.2019
6363 Clear 32 1014 15 16093 7.7 190 17:46 14.06.2019
6364 Clear 31 1012 17 16093 3.1 210 17:27 14.06.2019
6365 Clear 30 1012 14 16093 8.69 191.812 16:56 14.06.2019
6366 Clear 29 1012 14 16093 2.1 170 16:38 14.06.2019
6367 Clear 28 1012 14 16093 2.1 170 16:18 14.06.2019
6368 Clear 26 1011 17 16093 2.6 80 15:39 14.06.2019
6369 Clear 23 1011 17 16093 2.6 80 15:21 14.06.2019
6370 Clear 23 1011 15 16093 3.1 100 14:52 14.06.2019
6371 Clear 23 1011 15 16093 4.64 152.18 14:32 14.06.2019
6372 Clear 22 1011 14 16093 4.64 152.18 13:55 14.06.2019
6373 Clear 22 1011 14 16093 4.64 152.18 13:55 14.06.2019
6374 Clear 22 1010 13 16093 1.5 110 13:36 14.06.2019
6375 Clear 23 1010 13 16093 1.5 110 13:18 14.06.2019
6376 Clear 23 1010 12 16093 1.5 130 12:41 14.06.2019
6377 Clear 24 1010 12 16093 1.5 130 12:22 14.06.2019
6378 Clear 24 1010 10 16093 2.1 130 11:46 14.06.2019
6379 Clear 24 1010 10 16093 2.1 130 11:24 14.06.2019
6380 Clear 25 1011 10 16093 4.1 160 10:50 14.06.2019
6381 Clear 26 1011 7 16093 4.1 160 10:24 14.06.2019
6382 Clear 26 1011 9 16093 3.6 130 09:58 14.06.2019
6383 Clear 26 1011 10 16093 2.6 130 09:39 14.06.2019
6384 Clear 26 1011 10 16093 2.6 130 09:39 14.06.2019
6385 Clear 27 1011 10 16093 2.6 130 09:20 14.06.2019
6386 Clear 28 1010 9 16093 4.6 200 08:41 14.06.2019
6387 Clear 28 1010 9 16093 4.6 200 08:18 14.06.2019
6388 Clear 29 1010 9 16093 3.6 190 07:46 14.06.2019
6389 Clear 30 1010 9 16093 3.6 190 07:19 14.06.2019
6390 Clear 32 1009 8 16093 4.1 220 06:27 14.06.2019
6391 Clear 33 1009 6 16093 5.1 250 05:54 14.06.2019
6392 Clear 35 1008 5 16093 7.2 250 04:57 14.06.2019
6393 Clear 36 1008 5 16093 7.7 250 04:36 14.06.2019
6394 Clear 38 1010 6 16093 8.2 270 03:49 14.06.2019
6395 Clear 38 1008 6 16093 7.2 250 03:24 14.06.2019
6396 Clear 39 1008 5 16093 9.8 240 02:45 14.06.2019
6397 Clear 40 1008 5 16093 6.7 240 01:56 14.06.2019
6398 Clear 40 1011 5 16093 7.2 250 00:46 14.06.2019
6399 Clear 41 1009 5 16093 4.1 240 00:22 14.06.2019
6400 Clouds 41 1011 5 16093 6.2 250 23:52 13.06.2019
6401 Clear 41 1009 7 16093 3.1 300 23:27 13.06.2019
6402 Clear 40 1010 7 16093 2.6 360 22:58 13.06.2019
6403 Clear 40 1011 7 16093 2.6 340 22:38 13.06.2019
6404 Clear 40 1011 7 16093 2.6 340 22:19 13.06.2019
6405 Clear 40 1011 8 16093 1.5 60 21:38 13.06.2019
6406 Clear 40 1011 8 16093 1.5 60 21:38 13.06.2019
6407 Clear 39 1011 8 16093 1.5 60 21:19 13.06.2019
6408 Clear 39 1012 9 16093 1.5 270 20:45 13.06.2019
6409 Clear 39 1012 9 16093 1.5 270 20:45 13.06.2019
6410 Clear 38 1012 9 16093 1.5 270 20:21 13.06.2019
6411 Clear 38 1012 9 16093 4.72 200.6 19:56 13.06.2019
6412 Clear 37 1012 9 16093 4.72 200.6 19:37 13.06.2019
6413 Clear 37 1012 9 16093 4.72 200.6 19:18 13.06.2019
6414 Clear 35 1012 10 16093 2.6 100 18:45 13.06.2019
6415 Clear 35 1012 10 16093 2.6 100 18:45 13.06.2019
6416 Clear 34 1012 10 16093 2.6 100 18:27 13.06.2019
6417 Clear 33 1015 14 16093 2.1 110 17:59 13.06.2019
6418 Clear 32 1013 18 16093 3.1 130 17:41 13.06.2019
6419 Clear 32 1013 18 16093 3.1 130 17:20 13.06.2019
6420 Clear 29 1015 18 16093 2.1 120 16:46 13.06.2019
6421 Clear 28 1013 18 16093 4.1 120 16:21 13.06.2019
6422 Clear 26 1012 18 16093 1.46 121.989 15:56 13.06.2019
6423 Clear 25 1012 18 16093 1.46 121.989 15:38 13.06.2019
6424 Clear 24 1014 26 16093 3.6 100 15:18 13.06.2019
6425 Clear 23 1012 29 16093 1.6 115.62 14:44 13.06.2019
6426 Clear 22 1012 29 16093 1.6 115.62 14:23 13.06.2019
6427 Clear 23 1012 16 16093 1.6 115.62 13:44 13.06.2019
6428 Clear 24 1012 16 16093 1.6 115.62 13:21 13.06.2019
6429 Clear 24 1011 15 16093 1.6 115.62 12:42 13.06.2019
6430 Clear 24 1011 15 16093 0.9 188.591 12:22 13.06.2019
6431 Clear 25 1011 14 16093 4.1 100 11:57 13.06.2019
6432 Clear 25 1012 14 16093 3.6 100 11:38 13.06.2019
6433 Clear 25 1012 14 16093 3.6 100 11:19 13.06.2019
6434 Clear 25 1012 14 16093 2.6 140 10:43 13.06.2019
6435 Clear 26 1012 14 16093 2.6 140 10:24 13.06.2019
6436 Clear 27 1012 14 16093 2.1 80 09:44 13.06.2019
6437 Clear 28 1012 14 16093 2.1 80 09:24 13.06.2019
6438 Clear 28 1012 14 16093 2.1 80 09:24 13.06.2019
6439 Clear 29 1012 12 16093 3.43 240.104 08:48 13.06.2019
6440 Clear 29 1012 12 16093 2.6 230 08:28 13.06.2019
6441 Clear 30 1012 10 16093 3.43 240.104 07:56 13.06.2019
6442 Clear 30 1013 10 16093 3.6 270 07:27 13.06.2019
6443 Clear 31 1011 11 16093 3.43 240.104 06:51 13.06.2019
6444 Clear 32 1011 9 16093 2 249.461 06:24 13.06.2019
6445 Clear 33 1010 9 16093 2.1 330 05:56 13.06.2019
6446 Clear 33 1010 8 16093 2.1 340 05:37 13.06.2019
6447 Clear 35 1010 8 16093 3.1 330 04:58 13.06.2019
6448 Clear 40 1010 5 16093 5.7 260 02:42 13.06.2019
6449 Clear 41 1010 4 16093 2.6 310 01:25 13.06.2019
6450 Clear 41 1011 5 16093 2.6 20 00:27 13.06.2019
6451 Clear 41 1012 5 16093 2.1 130 23:24 12.06.2019
6452 Clear 40 1013 5 16093 1.5 280 22:45 12.06.2019
6453 Clear 40 1013 5 16093 1.5 280 22:27 12.06.2019
6454 Clear 40 1013 5 16093 3.89 241.839 21:57 12.06.2019
6455 Clear 39 1014 6 16093 1.5 290 21:38 12.06.2019
6456 Clear 39 1014 6 16093 1.5 290 21:19 12.06.2019
6457 Clear 37 1014 7 16093 2.1 130 20:40 12.06.2019
6458 Clear 37 1014 7 16093 2.1 130 20:21 12.06.2019
6459 Clear 37 1015 10 16093 3.22 234.63 19:42 12.06.2019
6460 Clear 36 1015 10 16093 3.22 234.63 19:23 12.06.2019
6461 Clear 36 1015 10 16093 3.22 234.63 18:58 12.06.2019
6462 Clear 35 1015 10 16093 3.22 234.63 18:39 12.06.2019
6463 Clear 34 1015 15 16093 2.27 179.924 18:20 12.06.2019
6464 Clear 32 1015 15 16093 4.6 110 17:44 12.06.2019
6465 Clear 31 1015 15 16093 4.6 110 17:21 12.06.2019
6466 Clear 29 1017 22 16093 2.27 179.924 16:42 12.06.2019
6467 Clear 28 1015 18 16093 4.6 100 16:24 12.06.2019
6468 Clear 25 1015 20 16093 2.1 140 15:56 12.06.2019
6469 Clear 23 1014 20 16093 4.6 110 15:32 12.06.2019
6470 Clear 23 1014 22 16093 4.1 110 14:50 12.06.2019
6471 Clear 23 1014 23 16093 2.1 120 14:30 12.06.2019
6472 Clear 22 1014 20 16093 4.6 110 13:55 12.06.2019
6473 Clear 23 1014 22 16093 3.6 100 13:37 12.06.2019
6474 Clear 23 1014 22 16093 3.6 100 13:18 12.06.2019
6475 Clear 23 1013 19 16093 3.1 100 12:40 12.06.2019
6476 Clear 23 1013 20 16093 3.1 100 12:20 12.06.2019
6477 Clear 24 1014 20 16093 2.1 120 11:47 12.06.2019
6478 Clear 25 1014 22 16093 2.1 200 11:29 12.06.2019
6479 Clear 25 1014 17 16093 1.19 114.64 10:55 12.06.2019
6480 Clear 25 1014 17 16093 1.19 114.64 10:36 12.06.2019
6481 Clear 25 1014 16 16093 1.19 114.64 09:59 12.06.2019
6482 Clear 26 1014 20 16093 1.19 114.64 09:40 12.06.2019
6483 Clear 27 1014 18 16093 1.38 8.259 09:18 12.06.2019
6484 Clear 28 1014 18 16093 2.6 200 08:27 12.06.2019
6485 Clear 29 1014 17 16093 1.5 210 07:52 12.06.2019
6486 Clear 30 1014 18 16093 1.5 220 07:18 12.06.2019
6487 Clear 30 1014 13 16093 1.38 8.259 06:33 12.06.2019
6488 Clear 33 1013 11 16093 2.1 340 05:25 12.06.2019
6489 Clear 38 1013 9 16093 4.6 340 02:21 12.06.2019
6490 Clear 39 1014 10 16093 4.6 330 00:46 12.06.2019
6491 Clear 38 1015 9 16093 5.1 340 23:54 11.06.2019
6492 Clear 39 1015 9 16093 3.6 280 23:35 11.06.2019
6493 Clear 38 1016 10 16093 3.1 340 22:57 11.06.2019
6494 Clear 38 1016 10 16093 4.1 310 22:38 11.06.2019
6495 Clear 39 1016 10 16093 4.1 310 22:18 11.06.2019
6496 Clear 39 1016 10 16093 4.1 310 22:18 11.06.2019
6497 Clear 38 1017 12 16093 2.1 340 21:41 11.06.2019
6498 Clear 36 1017 12 16093 2.1 340 21:23 11.06.2019
6499 Clear 37 1017 13 16093 3.1 260 20:58 11.06.2019
6500 Clear 37 1017 13 16093 3.1 260 20:58 11.06.2019
6501 Clear 37 1017 13 16093 1.43 120.571 20:39 11.06.2019
6502 Clear 36 1020 16 16093 1.5 0 20:21 11.06.2019
6503 Clear 36 1019 16 16093 2.6 30 19:51 11.06.2019
6504 -273 0 0 0 0 0 19:28 11.06.2019
6505 Clear 35 1018 16 16093 1.5 160 19:28 11.06.2019
6506 -273 0 0 0 0 0 18:49 11.06.2019
6507 Clear 33 1018 19 16093 6.2 110 18:49 11.06.2019
6508 Clear 32 1020 25 16093 3.6 130 18:20 11.06.2019
6509 Clear 30 1018 25 16093 5.7 120 17:41 11.06.2019
6510 Clear 30 1018 25 16093 5.7 120 17:41 11.06.2019
6511 Clear 29 1018 25 16093 5.7 120 17:20 11.06.2019
6512 Clear 28 1018 30 16093 6.7 120 16:44 11.06.2019
6513 Clear 26 1018 30 16093 6.7 120 16:24 11.06.2019
6514 Clear 26 1018 30 16093 6.7 120 16:24 11.06.2019
6515 Clear 25 1018 31 16093 5.1 120 15:56 11.06.2019
6516 Clear 24 1018 31 16093 6.7 110 15:36 11.06.2019
6517 Clear 23 1020 49 16093 3.6 110 15:18 11.06.2019
6518 Clear 22 1018 31 16093 7.2 110 14:40 11.06.2019
6519 Clear 23 1020 38 16093 5.7 120 14:20 11.06.2019
6520 Clear 23 1017 28 16093 8.2 120 13:43 11.06.2019
6521 Clear 23 1017 28 16093 8.2 120 13:22 11.06.2019
6522 Clear 23 1017 30 16093 8.7 120 12:43 11.06.2019
6523 Clear 24 1017 30 16093 8.7 120 12:22 11.06.2019
6524 Clear 24 1017 28 16093 8.7 120 11:57 11.06.2019
6525 Clear 25 1017 28 16093 7.7 130 11:33 11.06.2019
6526 Clear 25 1017 28 16093 10.3 130 10:57 11.06.2019
6527 Clear 25 1018 26 16093 8.7 130 10:39 11.06.2019
6528 Clear 26 1018 26 16093 8.7 130 10:19 11.06.2019
6529 Clear 26 1018 26 16093 10.8 120 09:43 11.06.2019
6530 Clear 27 1018 26 16093 10.8 120 09:23 11.06.2019
6531 Rain 27 1017 23 16093 9.3 130 08:41 11.06.2019
6532 Rain 27 1017 23 16093 9.3 130 08:22 11.06.2019
6533 Rain 28 1017 22 16093 11.8 130 07:34 11.06.2019
6534 Clear 29 1016 21 16093 6.7 120 06:54 11.06.2019
6535 Clouds 30 1019 27 16093 11.3 120 05:56 11.06.2019
6536 Clouds 31 1017 22 16093 6.2 110 04:40 11.06.2019
6537 Clear 37 1014 12 16093 4.6 140 02:27 11.06.2019
6538 Clear 38 1017 14 16093 2.1 80 00:53 11.06.2019
6539 Clear 38 1015 10 16093 4.1 90 00:31 11.06.2019
6540 Clear 38 1016 11 16093 4.6 170 23:46 10.06.2019
6541 Clear 38 1016 11 16093 4.6 170 23:21 10.06.2019
6542 Clear 37 1017 12 16093 4.6 200 22:46 10.06.2019
6543 Clear 37 1017 12 16093 4.6 200 22:27 10.06.2019
6544 Clear 37 1019 16 16093 8.2 120 21:58 10.06.2019
6545 Clear 37 1018 13 16093 3.6 130 21:38 10.06.2019
6546 Clear 36 1020 13 16093 6.7 140 21:20 10.06.2019
6547 Clear 36 1018 13 16093 6.7 120 20:42 10.06.2019
6548 Clear 36 1018 13 16093 6.7 120 20:21 10.06.2019
6549 Clear 34 1018 14 16093 4.6 140 19:46 10.06.2019
6550 Clear 34 1018 14 16093 4.6 140 19:23 10.06.2019
6551 Clear 33 1018 15 16093 5.7 140 18:58 10.06.2019
6552 Clear 32 1018 17 16093 4.1 140 18:39 10.06.2019
6553 Haze 31 1018 17 16093 4.1 140 18:20 10.06.2019
6554 Haze 30 1018 20 16093 2.1 190 17:44 10.06.2019
6555 Haze 29 1018 20 16093 2.1 190 17:24 10.06.2019
6556 Clear 29 1020 25 16093 3.6 90 16:49 10.06.2019
6557 Clear 28 1020 28 16093 2.6 80 16:30 10.06.2019
6558 Clear 28 1020 28 16093 2.6 80 16:30 10.06.2019
6559 Clear 28 1017 21 16093 5.14 133.69 15:59 10.06.2019
6560 Clear 28 1017 20 16093 2.6 110 15:40 10.06.2019
6561 Clear 26 1017 20 16093 2.6 110 15:22 10.06.2019
6562 Clear 26 1017 18 16093 2.28 140.204 14:45 10.06.2019
6563 Clear 26 1017 18 16093 2.28 140.204 14:25 10.06.2019
6564 Clear 25 1016 17 16093 3.6 130 13:47 10.06.2019
6565 Clear 25 1016 15 16093 3.6 120 13:28 10.06.2019
6566 Clear 26 1016 13 16093 1.67 157.592 12:55 10.06.2019
6567 Clear 26 1016 13 16093 2.6 190 12:32 10.06.2019
6568 Clear 27 1016 16 16093 2.38 211.947 11:59 10.06.2019
6569 Clear 27 1016 14 16093 2.38 211.947 11:39 10.06.2019
6570 Clear 28 1016 14 16093 2.38 211.947 11:19 10.06.2019
6571 Clear 28 1016 12 16093 2.1 120 10:41 10.06.2019
6572 Clear 27 1016 12 16093 2.1 120 10:19 10.06.2019
6573 Clear 28 1016 16 16093 4.6 160 09:52 10.06.2019
6574 Clear 28 1015 14 16093 2.38 211.947 09:29 10.06.2019
6575 Clear 28 1015 12 16093 1.08 348.117 08:50 10.06.2019
6576 Clear 28 1015 12 16093 1.08 348.117 08:27 10.06.2019
6577 Clear 29 1015 10 16093 1.08 348.117 07:46 10.06.2019
6578 Clear 33 1013 7 16093 2.6 330 04:44 10.06.2019
6579 Haze 35 1013 6 16093 4.6 320 03:46 10.06.2019
6580 Clear 37 1015 6 16093 3.83 261.447 01:56 10.06.2019
6581 Clear 37 1014 4 16093 2.6 300 01:23 10.06.2019
6582 Clear 38 1014 5 16093 4.1 260 00:47 10.06.2019
6583 Clear 37 1015 4 16093 2.51 280.384 23:49 09.06.2019
6584 Clear 37 1015 6 16093 2.6 280 23:25 09.06.2019
6585 Clear 37 1017 7 16093 3.1 350 22:59 09.06.2019
6586 Clear 37 1015 7 16093 3.1 330 22:39 09.06.2019
6587 Clear 37 1015 7 16093 3.1 330 22:21 09.06.2019
6588 Clear 36 1016 9 16093 3.1 310 21:39 09.06.2019
6589 Clear 35 1016 9 16093 3.1 310 21:21 09.06.2019
6590 Clear 35 1018 9 16093 2.6 310 20:42 09.06.2019
6591 Clear 34 1016 11 16093 2.1 350 20:22 09.06.2019
6592 Clear 34 1018 11 16093 1.79 325.796 19:46 09.06.2019
6593 Clear 33 1017 11 16093 2.6 280 19:19 09.06.2019
6594 Clear 31 1017 13 16093 1.5 270 18:56 09.06.2019
6595 Clear 31 1017 14 16093 1.89 340.989 18:36 09.06.2019
6596 Clear 30 1019 18 16093 0.7 354.436 18:18 09.06.2019
6597 Haze 29 1019 17 16093 0.7 354.436 17:42 09.06.2019
6598 Haze 28 1017 13 16093 2.6 120 17:23 09.06.2019
6599 Clear 25 1017 17 16093 2.6 120 16:41 09.06.2019
6600 Clear 24 1017 17 16093 2.6 120 16:21 09.06.2019
6601 Clear 21 1017 21 16093 0.7 354.436 15:51 09.06.2019
6602 Clear 20 1016 19 16093 2.6 140 15:29 09.06.2019
6603 Clear 19 1016 18 16093 3.6 90 14:58 09.06.2019
6604 Clear 19 1016 18 16093 3.6 100 14:39 09.06.2019
6605 Clear 19 1016 18 16093 3.6 100 14:19 09.06.2019
6606 Clear 19 1015 18 16093 2.6 120 13:48 09.06.2019
6607 Clear 20 1015 22 16093 2.1 90 12:58 09.06.2019
6608 Clear 20 1015 28 16093 1.5 80 12:38 09.06.2019
6609 Clear 21 1015 28 16093 1.5 80 12:19 09.06.2019
6610 Clear 21 1014 23 16093 2.1 170 11:38 09.06.2019
6611 Clear 22 1014 23 16093 2.1 170 11:19 09.06.2019
6612 Clear 21 1014 16 16093 1.03 251.002 10:43 09.06.2019
6613 Clear 22 1014 16 16093 1.03 251.002 10:22 09.06.2019
6614 Clear 22 1014 13 16093 1.03 251.002 09:40 09.06.2019
6615 Clear 24 1014 13 16093 1.27 265.767 09:20 09.06.2019
6616 Clear 24 1014 12 16093 3.6 240 08:45 09.06.2019
6617 Clear 25 1014 12 16093 3.6 240 08:19 09.06.2019
6618 Clear 28 1013 11 16093 2.1 300 06:48 09.06.2019
6619 Clear 28 1013 11 16093 1.5 320 06:29 09.06.2019
6620 Clear 35 1011 7 16093 4.6 280 03:25 09.06.2019
6621 Clear 36 1011 6 16093 2.1 280 01:38 09.06.2019
6622 Clear 37 1011 6 16093 2.1 280 01:19 09.06.2019
6623 Clear 37 1012 6 16093 3.1 270 00:42 09.06.2019
6624 Clear 36 1012 6 16093 6.2 260 23:42 08.06.2019
6625 Clear 36 1012 6 16093 6.2 260 23:23 08.06.2019
6626 Clear 36 1012 6 16093 3.1 270 22:56 08.06.2019
6627 Clear 36 1013 6 16093 3.1 210 22:37 08.06.2019
6628 Clear 35 1013 6 16093 3.1 210 22:18 08.06.2019
6629 Clear 35 1013 7 16093 3.6 260 21:49 08.06.2019
6630 Clear 34 1013 9 16093 1.5 190 21:24 08.06.2019
6631 Clear 33 1014 10 16093 3.1 280 20:46 08.06.2019
6632 Clear 33 1014 10 16093 3.1 280 20:25 08.06.2019
6633 Clear 33 1014 11 16093 1.5 300 19:58 08.06.2019
6634 Clear 32 1013 13 16093 2.1 270 19:38 08.06.2019
6635 Clear 32 1015 10 16093 1.5 0 19:19 08.06.2019
6636 Clear 31 1013 18 16093 4.05 217.15 18:41 08.06.2019
6637 Clear 29 1013 18 16093 1.78 178.2 18:23 08.06.2019
6638 Clear 28 1014 21 16093 3.6 120 17:45 08.06.2019
6639 Clear 27 1014 21 16093 3.6 120 17:22 08.06.2019
6640 Clear 26 1013 25 16093 4.1 100 16:53 08.06.2019
6641 Clear 24 1013 27 16093 3.1 100 16:34 08.06.2019
6642 Clear 21 1013 28 16093 3.1 100 15:53 08.06.2019
6643 Clear 20 1013 32 16093 1.78 178.2 15:33 08.06.2019
6644 Clear 18 1012 39 16093 2.1 110 14:48 08.06.2019
6645 Clear 18 1012 36 16093 0.82 170.835 14:29 08.06.2019
6646 Clear 18 1012 36 16093 0.82 170.835 13:49 08.06.2019
6647 Clear 19 1012 32 16093 0.57 116.61 12:54 08.06.2019
6648 Clear 19 1012 32 16093 0.57 116.61 12:34 08.06.2019
6649 Clear 21 1012 30 16093 0.65 268.762 11:51 08.06.2019
6650 Clear 21 1012 30 16093 0.65 268.762 11:28 08.06.2019
6651 Clear 21 1012 25 16093 0.65 268.762 10:48 08.06.2019
6652 Clear 22 1012 27 16093 0.65 268.762 10:27 08.06.2019
6653 Clear 23 1012 25 16093 0.65 268.762 09:58 08.06.2019
6654 Clear 24 1012 22 16093 0.65 268.762 09:33 08.06.2019
6655 Clear 25 1011 22 16093 2.1 200 08:48 08.06.2019
6656 Clear 26 1011 21 16093 1.5 18